<?xml version='1.0' encoding='UTF-8'?><gpx version="1.1" creator="JPX - https://github.com/jenetics/jpx" xmlns="http://www.topografix.com/GPX/1/1"><trk><trkseg><trkpt lat="45.805605246437445" lon="8.940007021919754"><ele>428.0</ele><time>2026-03-28T11:20:37.014Z</time></trkpt><trkpt lat="45.8055592508057" lon="8.939885936160417"><ele>427.99999999999994</ele><time>2026-03-28T11:21:01.002Z</time></trkpt><trkpt lat="45.80549144287115" lon="8.939917103249467"><ele>427.99999999999994</ele><time>2026-03-28T11:25:13Z</time></trkpt><trkpt lat="45.805385763945914" lon="8.939905173493536"><ele>428.0</ele><time>2026-03-28T11:25:15Z</time></trkpt><trkpt lat="45.80525760835042" lon="8.939861178556782"><ele>428.0</ele><time>2026-03-28T11:27:36Z</time></trkpt><trkpt lat="45.80521352820029" lon="8.93972288584854"><ele>428.0</ele><time>2026-03-28T11:27:38Z</time></trkpt><trkpt lat="45.805189059026866" lon="8.939587944767236"><ele>427.99999999999994</ele><time>2026-03-28T11:27:40Z</time></trkpt><trkpt lat="45.80514828144309" lon="8.939495739221774"><ele>427.99999999999994</ele><time>2026-03-28T11:27:43Z</time></trkpt><trkpt lat="45.80512120748624" lon="8.939396523505232"><ele>428.0</ele><time>2026-03-28T11:27:45Z</time></trkpt><trkpt lat="45.805077175406915" lon="8.93923818675516"><ele>428.0</ele><time>2026-03-28T11:27:47Z</time></trkpt><trkpt lat="45.80500850889732" lon="8.939055012683351"><ele>427.8333333333333</ele><time>2026-03-28T11:27:49Z</time></trkpt><trkpt lat="45.80496023693893" lon="8.938966879112304"><ele>427.66666666666663</ele><time>2026-03-28T11:27:50Z</time></trkpt><trkpt lat="45.80491651590992" lon="8.938896210497292"><ele>427.5</ele><time>2026-03-28T11:27:51Z</time></trkpt><trkpt lat="45.80487650353779" lon="8.938821832871588"><ele>427.33333333333337</ele><time>2026-03-28T11:27:52Z</time></trkpt><trkpt lat="45.804804254582145" lon="8.938673502362098"><ele>427.1666666666667</ele><time>2026-03-28T11:27:54Z</time></trkpt><trkpt lat="45.804764237282825" lon="8.93858072726548"><ele>427.0</ele><time>2026-03-28T11:27:55Z</time></trkpt><trkpt lat="45.80472788028439" lon="8.938484999057"><ele>427.00000000000006</ele><time>2026-03-28T11:27:56Z</time></trkpt><trkpt lat="45.80468646239129" lon="8.938386752327627"><ele>427.0</ele><time>2026-03-28T11:27:57Z</time></trkpt><trkpt lat="45.80464139919199" lon="8.938281625914797"><ele>427.0</ele><time>2026-03-28T11:27:58Z</time></trkpt><trkpt lat="45.8045982116282" lon="8.938180280779799"><ele>427.0</ele><time>2026-03-28T11:27:59Z</time></trkpt><trkpt lat="45.80455420587006" lon="8.938069043542106"><ele>427.00000000000006</ele><time>2026-03-28T11:28:00Z</time></trkpt><trkpt lat="45.804504433172994" lon="8.9379530639561"><ele>427.0</ele><time>2026-03-28T11:28:01Z</time></trkpt><trkpt lat="45.804453308516884" lon="8.93781859084028"><ele>426.20000000000005</ele><time>2026-03-28T11:28:02Z</time></trkpt><trkpt lat="45.80440175013662" lon="8.937671552724147"><ele>425.40000000000003</ele><time>2026-03-28T11:28:03Z</time></trkpt><trkpt lat="45.804349621130285" lon="8.937505224716054"><ele>424.6</ele><time>2026-03-28T11:28:04Z</time></trkpt><trkpt lat="45.80429176154472" lon="8.93733903140277"><ele>423.79999999999995</ele><time>2026-03-28T11:28:05Z</time></trkpt><trkpt lat="45.80422665199709" lon="8.937309758578108"><ele>423.0</ele><time>2026-03-28T11:28:06Z</time></trkpt><trkpt lat="45.80415880629903" lon="8.937157049841153"><ele>422.75</ele><time>2026-03-28T11:28:07Z</time></trkpt><trkpt lat="45.80408590956458" lon="8.936998540218045"><ele>422.5</ele><time>2026-03-28T11:28:08Z</time></trkpt><trkpt lat="45.804018918066014" lon="8.936851951918575"><ele>422.25</ele><time>2026-03-28T11:28:09Z</time></trkpt><trkpt lat="45.80394483294988" lon="8.93669834604999"><ele>422.0</ele><time>2026-03-28T11:28:10Z</time></trkpt><trkpt lat="45.80383778790297" lon="8.936574427652248"><ele>420.5</ele><time>2026-03-28T11:28:11Z</time></trkpt><trkpt lat="45.80372764084998" lon="8.936455894030454"><ele>419.0</ele><time>2026-03-28T11:28:12Z</time></trkpt><trkpt lat="45.80363380277203" lon="8.936348218193553"><ele>417.5</ele><time>2026-03-28T11:28:13Z</time></trkpt><trkpt lat="45.8035465431182" lon="8.936248545066931"><ele>416.0</ele><time>2026-03-28T11:28:14Z</time></trkpt><trkpt lat="45.803470517746945" lon="8.936162217336001"><ele>416.0</ele><time>2026-03-28T11:28:15Z</time></trkpt><trkpt lat="45.80340850826222" lon="8.936092946999002"><ele>416.0</ele><time>2026-03-28T11:28:16Z</time></trkpt><trkpt lat="45.80334223191363" lon="8.935972350558842"><ele>416.0</ele><time>2026-03-28T11:28:18Z</time></trkpt><trkpt lat="45.803286757555185" lon="8.935898393395586"><ele>416.0</ele><time>2026-03-28T11:28:20Z</time></trkpt><trkpt lat="45.80331472463053" lon="8.935758798701634"><ele>416.0</ele><time>2026-03-28T11:28:22Z</time></trkpt><trkpt lat="45.8034456181618" lon="8.935682195597048"><ele>415.20000000000005</ele><time>2026-03-28T11:28:24Z</time></trkpt><trkpt lat="45.803531575292574" lon="8.935638818391414"><ele>414.40000000000003</ele><time>2026-03-28T11:28:25Z</time></trkpt><trkpt lat="45.80363299768076" lon="8.935626293875908"><ele>413.6</ele><time>2026-03-28T11:28:26Z</time></trkpt><trkpt lat="45.80372186805721" lon="8.93561042320199"><ele>412.8</ele><time>2026-03-28T11:28:27Z</time></trkpt><trkpt lat="45.80381024324149" lon="8.935587859181252"><ele>412.0</ele><time>2026-03-28T11:28:28Z</time></trkpt><trkpt lat="45.80390497781803" lon="8.9355613655719"><ele>412.0</ele><time>2026-03-28T11:28:29Z</time></trkpt><trkpt lat="45.80400376405789" lon="8.93554260084333"><ele>412.0</ele><time>2026-03-28T11:28:30Z</time></trkpt><trkpt lat="45.80410259563315" lon="8.935524997331479"><ele>412.0</ele><time>2026-03-28T11:28:31Z</time></trkpt><trkpt lat="45.80419743711281" lon="8.935493767816386"><ele>412.0</ele><time>2026-03-28T11:28:32Z</time></trkpt><trkpt lat="45.80427412126223" lon="8.935471032650124"><ele>412.0</ele><time>2026-03-28T11:28:33Z</time></trkpt><trkpt lat="45.80434739224462" lon="8.93545022682979"><ele>412.40000000000003</ele><time>2026-03-28T11:28:34Z</time></trkpt><trkpt lat="45.80441728662129" lon="8.93542142941222"><ele>412.8</ele><time>2026-03-28T11:28:35Z</time></trkpt><trkpt lat="45.804499661019264" lon="8.935392041326882"><ele>413.2</ele><time>2026-03-28T11:28:36Z</time></trkpt><trkpt lat="45.80458786957384" lon="8.935347834698984"><ele>413.6</ele><time>2026-03-28T11:28:37Z</time></trkpt><trkpt lat="45.80468332528237" lon="8.935304009938017"><ele>414.0</ele><time>2026-03-28T11:28:38Z</time></trkpt><trkpt lat="45.80478943265001" lon="8.935254029677004"><ele>414.0</ele><time>2026-03-28T11:28:39Z</time></trkpt><trkpt lat="45.80488808967696" lon="8.935213437451985"><ele>414.0</ele><time>2026-03-28T11:28:40Z</time></trkpt><trkpt lat="45.80498983320697" lon="8.935180681117934"><ele>414.0</ele><time>2026-03-28T11:28:41Z</time></trkpt><trkpt lat="45.80510553395909" lon="8.935150192253218"><ele>414.0</ele><time>2026-03-28T11:28:42Z</time></trkpt><trkpt lat="45.805228194703645" lon="8.935131830469318"><ele>414.0</ele><time>2026-03-28T11:28:43Z</time></trkpt><trkpt lat="45.80534546562581" lon="8.935119128535366"><ele>413.4</ele><time>2026-03-28T11:28:44Z</time></trkpt><trkpt lat="45.80545842461387" lon="8.935115515642993"><ele>412.79999999999995</ele><time>2026-03-28T11:28:45Z</time></trkpt><trkpt lat="45.80557388866743" lon="8.935111844720792"><ele>412.20000000000005</ele><time>2026-03-28T11:28:46Z</time></trkpt><trkpt lat="45.80568043558453" lon="8.935107056925332"><ele>411.6</ele><time>2026-03-28T11:28:47Z</time></trkpt><trkpt lat="45.80578198026498" lon="8.935100343714181"><ele>411.0</ele><time>2026-03-28T11:28:48Z</time></trkpt><trkpt lat="45.80589032851525" lon="8.935097946878319"><ele>411.75</ele><time>2026-03-28T11:28:49Z</time></trkpt><trkpt lat="45.80600432577777" lon="8.935097347717576"><ele>412.5</ele><time>2026-03-28T11:28:50Z</time></trkpt><trkpt lat="45.80613029225695" lon="8.935086784840996"><ele>413.25</ele><time>2026-03-28T11:28:51Z</time></trkpt><trkpt lat="45.80624634162785" lon="8.93507343295227"><ele>414.0</ele><time>2026-03-28T11:28:52Z</time></trkpt><trkpt lat="45.8063599907426" lon="8.935066325422293"><ele>414.0</ele><time>2026-03-28T11:28:53Z</time></trkpt><trkpt lat="45.80648358624063" lon="8.935055398964959"><ele>414.0</ele><time>2026-03-28T11:28:54Z</time></trkpt><trkpt lat="45.80661608091916" lon="8.935036698171666"><ele>414.0</ele><time>2026-03-28T11:28:55Z</time></trkpt><trkpt lat="45.80675534889447" lon="8.935013172707102"><ele>414.0</ele><time>2026-03-28T11:28:56Z</time></trkpt><trkpt lat="45.80689351230012" lon="8.934989346227724"><ele>414.0</ele><time>2026-03-28T11:28:57Z</time></trkpt><trkpt lat="45.80701963344502" lon="8.934971734318378"><ele>414.0</ele><time>2026-03-28T11:28:58Z</time></trkpt><trkpt lat="45.80713079879167" lon="8.934956389844897"><ele>414.0</ele><time>2026-03-28T11:28:59Z</time></trkpt><trkpt lat="45.80724052800118" lon="8.934936223938896"><ele>414.0</ele><time>2026-03-28T11:29:00Z</time></trkpt><trkpt lat="45.80734715332475" lon="8.93491210701314"><ele>414.0</ele><time>2026-03-28T11:29:01Z</time></trkpt><trkpt lat="45.8074475996942" lon="8.934903368745173"><ele>414.0</ele><time>2026-03-28T11:29:02Z</time></trkpt><trkpt lat="45.80752433243201" lon="8.934910438870041"><ele>414.0</ele><time>2026-03-28T11:29:03Z</time></trkpt><trkpt lat="45.80762853804569" lon="8.93495050532827"><ele>414.0</ele><time>2026-03-28T11:29:05Z</time></trkpt><trkpt lat="45.80771118130973" lon="8.934992687237777"><ele>414.0</ele><time>2026-03-28T11:29:07Z</time></trkpt><trkpt lat="45.80777967206655" lon="8.935019630354038"><ele>414.0</ele><time>2026-03-28T11:29:08Z</time></trkpt><trkpt lat="45.807856978381544" lon="8.935037289363658"><ele>414.5</ele><time>2026-03-28T11:29:09Z</time></trkpt><trkpt lat="45.80794055067113" lon="8.93508581012464"><ele>415.0</ele><time>2026-03-28T11:29:10Z</time></trkpt><trkpt lat="45.80801266536383" lon="8.935161158987809"><ele>415.5</ele><time>2026-03-28T11:29:11Z</time></trkpt><trkpt lat="45.80805073257474" lon="8.935272554781646"><ele>416.0</ele><time>2026-03-28T11:29:12Z</time></trkpt><trkpt lat="45.808092395170576" lon="8.935345019686514"><ele>416.5</ele><time>2026-03-28T11:29:13Z</time></trkpt><trkpt lat="45.808198643379114" lon="8.935358784316978"><ele>417.0</ele><time>2026-03-28T11:29:15Z</time></trkpt><trkpt lat="45.80824276264049" lon="8.935286062220362"><ele>417.0</ele><time>2026-03-28T11:29:16Z</time></trkpt><trkpt lat="45.80828047240808" lon="8.935197940314984"><ele>417.0</ele><time>2026-03-28T11:29:17Z</time></trkpt><trkpt lat="45.80824468287905" lon="8.935080461885326"><ele>417.0</ele><time>2026-03-28T11:29:18Z</time></trkpt><trkpt lat="45.80823601814175" lon="8.934971881420502"><ele>417.0</ele><time>2026-03-28T11:29:19Z</time></trkpt><trkpt lat="45.80828713206698" lon="8.934881656320414"><ele>417.0</ele><time>2026-03-28T11:29:20Z</time></trkpt><trkpt lat="45.80836430448409" lon="8.934791913045656"><ele>417.0</ele><time>2026-03-28T11:29:21Z</time></trkpt><trkpt lat="45.80843774173826" lon="8.934661220798663"><ele>415.75</ele><time>2026-03-28T11:29:22Z</time></trkpt><trkpt lat="45.80852387899006" lon="8.93455236189308"><ele>414.5</ele><time>2026-03-28T11:29:23Z</time></trkpt><trkpt lat="45.80860753096027" lon="8.93442627111301"><ele>413.25</ele><time>2026-03-28T11:29:24Z</time></trkpt><trkpt lat="45.808697413286716" lon="8.934289313679322"><ele>412.0</ele><time>2026-03-28T11:29:25Z</time></trkpt><trkpt lat="45.80879837776471" lon="8.93414792518982"><ele>411.0</ele><time>2026-03-28T11:29:26Z</time></trkpt><trkpt lat="45.80890323170444" lon="8.934002014105403"><ele>410.0</ele><time>2026-03-28T11:29:27Z</time></trkpt><trkpt lat="45.80899568593681" lon="8.933866973594201"><ele>409.0</ele><time>2026-03-28T11:29:28Z</time></trkpt><trkpt lat="45.80908027289235" lon="8.933748266632438"><ele>408.0</ele><time>2026-03-28T11:29:29Z</time></trkpt><trkpt lat="45.80915774676195" lon="8.933643014136765"><ele>408.0</ele><time>2026-03-28T11:29:30Z</time></trkpt><trkpt lat="45.8092305960894" lon="8.93354244674846"><ele>408.0</ele><time>2026-03-28T11:29:31Z</time></trkpt><trkpt lat="45.80929897311541" lon="8.933444017485659"><ele>408.0</ele><time>2026-03-28T11:29:32Z</time></trkpt><trkpt lat="45.809367118070746" lon="8.933337822614657"><ele>408.0</ele><time>2026-03-28T11:29:33Z</time></trkpt><trkpt lat="45.80943784342992" lon="8.933224781526024"><ele>408.0</ele><time>2026-03-28T11:29:34Z</time></trkpt><trkpt lat="45.80951402205018" lon="8.933111354997134"><ele>408.0</ele><time>2026-03-28T11:29:35Z</time></trkpt><trkpt lat="45.80959622026627" lon="8.932996341269726"><ele>408.0</ele><time>2026-03-28T11:29:36Z</time></trkpt><trkpt lat="45.809677887835065" lon="8.932878616997828"><ele>408.0</ele><time>2026-03-28T11:29:37Z</time></trkpt><trkpt lat="45.80974923807287" lon="8.932775813262419"><ele>408.0</ele><time>2026-03-28T11:29:38Z</time></trkpt><trkpt lat="45.8098030187343" lon="8.932707373775026"><ele>408.0</ele><time>2026-03-28T11:29:39Z</time></trkpt><trkpt lat="45.80988058118353" lon="8.93261010079794"><ele>407.8333333333333</ele><time>2026-03-28T11:29:41Z</time></trkpt><trkpt lat="45.80993113832485" lon="8.93254218044319"><ele>407.66666666666663</ele><time>2026-03-28T11:29:43Z</time></trkpt><trkpt lat="45.8100142002925" lon="8.9324354864374"><ele>407.5</ele><time>2026-03-28T11:29:45Z</time></trkpt><trkpt lat="45.81008045111775" lon="8.932360004819449"><ele>407.3333333333333</ele><time>2026-03-28T11:29:46Z</time></trkpt><trkpt lat="45.81015870085024" lon="8.93228205781595"><ele>407.16666666666663</ele><time>2026-03-28T11:29:47Z</time></trkpt><trkpt lat="45.81023215559123" lon="8.93221173137508"><ele>407.0</ele><time>2026-03-28T11:29:48Z</time></trkpt><trkpt lat="45.81030568618286" lon="8.932146669378358"><ele>406.75</ele><time>2026-03-28T11:29:49Z</time></trkpt><trkpt lat="45.810397427329214" lon="8.9320671027244"><ele>406.5</ele><time>2026-03-28T11:29:50Z</time></trkpt><trkpt lat="45.81048106910465" lon="8.931988658748834"><ele>406.25</ele><time>2026-03-28T11:29:51Z</time></trkpt><trkpt lat="45.81057547037027" lon="8.931893829372353"><ele>406.0</ele><time>2026-03-28T11:29:52Z</time></trkpt><trkpt lat="45.81067425237925" lon="8.931769500148874"><ele>406.25</ele><time>2026-03-28T11:29:53Z</time></trkpt><trkpt lat="45.810761023802144" lon="8.931630846333677"><ele>406.5</ele><time>2026-03-28T11:29:54Z</time></trkpt><trkpt lat="45.810827491986" lon="8.931489093014976"><ele>406.75</ele><time>2026-03-28T11:29:55Z</time></trkpt><trkpt lat="45.81088558948162" lon="8.931335598709534"><ele>407.0</ele><time>2026-03-28T11:29:56Z</time></trkpt><trkpt lat="45.81095436666716" lon="8.931170739592739"><ele>407.5</ele><time>2026-03-28T11:29:57Z</time></trkpt><trkpt lat="45.811034320711734" lon="8.931019672991454"><ele>408.0</ele><time>2026-03-28T11:29:58Z</time></trkpt><trkpt lat="45.81108943521791" lon="8.93087940583466"><ele>408.5</ele><time>2026-03-28T11:29:59Z</time></trkpt><trkpt lat="45.81113220835865" lon="8.930732604614649"><ele>409.0</ele><time>2026-03-28T11:30:00Z</time></trkpt><trkpt lat="45.811197612151176" lon="8.93060398057157"><ele>409.25</ele><time>2026-03-28T11:30:01Z</time></trkpt><trkpt lat="45.81127110866495" lon="8.930492686239683"><ele>409.5</ele><time>2026-03-28T11:30:02Z</time></trkpt><trkpt lat="45.811345244755664" lon="8.93036879100392"><ele>409.75</ele><time>2026-03-28T11:30:03Z</time></trkpt><trkpt lat="45.8114525085533" lon="8.930276020065651"><ele>410.0</ele><time>2026-03-28T11:30:04Z</time></trkpt><trkpt lat="45.81156538768456" lon="8.93017976025769"><ele>410.0</ele><time>2026-03-28T11:30:05Z</time></trkpt><trkpt lat="45.81167279350913" lon="8.93007222320225"><ele>410.0</ele><time>2026-03-28T11:30:06Z</time></trkpt><trkpt lat="45.81177149197724" lon="8.929975557948884"><ele>410.0</ele><time>2026-03-28T11:30:07Z</time></trkpt><trkpt lat="45.81187468311116" lon="8.929876569495663"><ele>410.0</ele><time>2026-03-28T11:30:08Z</time></trkpt><trkpt lat="45.81197643152906" lon="8.929772482307973"><ele>409.4</ele><time>2026-03-28T11:30:09Z</time></trkpt><trkpt lat="45.81207930307432" lon="8.929670977355842"><ele>408.8</ele><time>2026-03-28T11:30:10Z</time></trkpt><trkpt lat="45.81217178274281" lon="8.929577057967549"><ele>408.20000000000005</ele><time>2026-03-28T11:30:11Z</time></trkpt><trkpt lat="45.81224522919052" lon="8.929477222482392"><ele>407.6</ele><time>2026-03-28T11:30:12Z</time></trkpt><trkpt lat="45.81230516800491" lon="8.929373471766416"><ele>407.0</ele><time>2026-03-28T11:30:13Z</time></trkpt><trkpt lat="45.81236228483738" lon="8.929264146235763"><ele>406.8333333333333</ele><time>2026-03-28T11:30:14Z</time></trkpt><trkpt lat="45.812414046864696" lon="8.929169946430136"><ele>406.66666666666663</ele><time>2026-03-28T11:30:15Z</time></trkpt><trkpt lat="45.81247156875351" lon="8.92906501141968"><ele>406.5</ele><time>2026-03-28T11:30:16Z</time></trkpt><trkpt lat="45.812523423216135" lon="8.928959754164646"><ele>406.33333333333337</ele><time>2026-03-28T11:30:17Z</time></trkpt><trkpt lat="45.81257114476841" lon="8.928858891223001"><ele>406.1666666666667</ele><time>2026-03-28T11:30:18Z</time></trkpt><trkpt lat="45.81262156753079" lon="8.928775977402546"><ele>406.0</ele><time>2026-03-28T11:30:19Z</time></trkpt><trkpt lat="45.812676128452075" lon="8.928718882641482"><ele>406.0</ele><time>2026-03-28T11:30:20Z</time></trkpt><trkpt lat="45.81278792681187" lon="8.92869510527182"><ele>406.0</ele><time>2026-03-28T11:30:22Z</time></trkpt><trkpt lat="45.81290587710014" lon="8.928800489486138"><ele>406.0</ele><time>2026-03-28T11:30:24Z</time></trkpt><trkpt lat="45.81297629442375" lon="8.92888002679936"><ele>406.0</ele><time>2026-03-28T11:30:25Z</time></trkpt><trkpt lat="45.81305289215279" lon="8.928987883852429"><ele>406.0</ele><time>2026-03-28T11:30:26Z</time></trkpt><trkpt lat="45.813127609812305" lon="8.929089555522742"><ele>406.0</ele><time>2026-03-28T11:30:27Z</time></trkpt><trkpt lat="45.81321591868755" lon="8.929190961448608"><ele>406.0</ele><time>2026-03-28T11:30:28Z</time></trkpt><trkpt lat="45.813318981589475" lon="8.929297668321006"><ele>406.0</ele><time>2026-03-28T11:30:29Z</time></trkpt><trkpt lat="45.813424374772666" lon="8.929409144043422"><ele>406.0</ele><time>2026-03-28T11:30:30Z</time></trkpt><trkpt lat="45.813521013733535" lon="8.929513414825863"><ele>406.20000000000005</ele><time>2026-03-28T11:30:31Z</time></trkpt><trkpt lat="45.81361409705414" lon="8.929617748207901"><ele>406.40000000000003</ele><time>2026-03-28T11:30:32Z</time></trkpt><trkpt lat="45.813706851175986" lon="8.929716511841153"><ele>406.6</ele><time>2026-03-28T11:30:33Z</time></trkpt><trkpt lat="45.81378808242335" lon="8.929816014061165"><ele>406.8</ele><time>2026-03-28T11:30:34Z</time></trkpt><trkpt lat="45.81385482271091" lon="8.929911010118577"><ele>407.0</ele><time>2026-03-28T11:30:35Z</time></trkpt><trkpt lat="45.81394040607617" lon="8.92999418296091"><ele>407.3333333333333</ele><time>2026-03-28T11:30:36Z</time></trkpt><trkpt lat="45.81401234093121" lon="8.930097432760071"><ele>407.66666666666663</ele><time>2026-03-28T11:30:37Z</time></trkpt><trkpt lat="45.814098747365485" lon="8.930180176610484"><ele>408.0</ele><time>2026-03-28T11:30:38Z</time></trkpt><trkpt lat="45.81417580705715" lon="8.930244513987303"><ele>408.33333333333337</ele><time>2026-03-28T11:30:39Z</time></trkpt><trkpt lat="45.814240493526036" lon="8.93028988500414"><ele>408.6666666666667</ele><time>2026-03-28T11:30:40Z</time></trkpt><trkpt lat="45.814312668833814" lon="8.930339396361076"><ele>409.0</ele><time>2026-03-28T11:30:41Z</time></trkpt><trkpt lat="45.81439152110783" lon="8.930403717654382"><ele>409.0</ele><time>2026-03-28T11:30:42Z</time></trkpt><trkpt lat="45.814472255958435" lon="8.930469326133826"><ele>409.0</ele><time>2026-03-28T11:30:43Z</time></trkpt><trkpt lat="45.81455550341094" lon="8.930543028355135"><ele>409.0</ele><time>2026-03-28T11:30:44Z</time></trkpt><trkpt lat="45.81463693858829" lon="8.930620164990756"><ele>409.0</ele><time>2026-03-28T11:30:45Z</time></trkpt><trkpt lat="45.814714396122966" lon="8.930685110451773"><ele>409.0</ele><time>2026-03-28T11:30:46Z</time></trkpt><trkpt lat="45.81478073642261" lon="8.93074174745827"><ele>409.00000000000006</ele><time>2026-03-28T11:30:47Z</time></trkpt><trkpt lat="45.81484175251698" lon="8.930796317793789"><ele>409.0</ele><time>2026-03-28T11:30:49Z</time></trkpt><trkpt lat="45.814896563114154" lon="8.930712368231616"><ele>409.0</ele><time>2026-03-28T11:30:52Z</time></trkpt><trkpt lat="45.81493587904211" lon="8.93063032463669"><ele>409.0</ele><time>2026-03-28T11:30:54Z</time></trkpt><trkpt lat="45.81497669451434" lon="8.930526334547267"><ele>409.00000000000006</ele><time>2026-03-28T11:30:56Z</time></trkpt><trkpt lat="45.8150161339114" lon="8.930401644264885"><ele>409.0</ele><time>2026-03-28T11:30:58Z</time></trkpt><trkpt lat="45.81506091372407" lon="8.930276641880164"><ele>409.00000000000006</ele><time>2026-03-28T11:31:00Z</time></trkpt><trkpt lat="45.81509033424498" lon="8.93016328045539"><ele>409.0</ele><time>2026-03-28T11:31:02Z</time></trkpt><trkpt lat="45.815131103769" lon="8.93004106053487"><ele>409.0</ele><time>2026-03-28T11:31:04Z</time></trkpt><trkpt lat="45.81517073432788" lon="8.92988375682184"><ele>409.0</ele><time>2026-03-28T11:31:06Z</time></trkpt><trkpt lat="45.81519427969107" lon="8.929797396859417"><ele>409.00000000000006</ele><time>2026-03-28T11:31:07Z</time></trkpt><trkpt lat="45.8152182452832" lon="8.929708766194471"><ele>409.0</ele><time>2026-03-28T11:31:08Z</time></trkpt><trkpt lat="45.815264336266424" lon="8.929522220006344"><ele>408.79999999999995</ele><time>2026-03-28T11:31:10Z</time></trkpt><trkpt lat="45.815287990085025" lon="8.929397479070436"><ele>408.59999999999997</ele><time>2026-03-28T11:31:11Z</time></trkpt><trkpt lat="45.815335439211246" lon="8.92927490768191"><ele>408.4</ele><time>2026-03-28T11:31:12Z</time></trkpt><trkpt lat="45.815380163881116" lon="8.92914017278049"><ele>408.2</ele><time>2026-03-28T11:31:13Z</time></trkpt><trkpt lat="45.815422297654415" lon="8.92902711207981"><ele>408.0</ele><time>2026-03-28T11:31:14Z</time></trkpt><trkpt lat="45.81546697765922" lon="8.928908886244898"><ele>407.6666666666667</ele><time>2026-03-28T11:31:15Z</time></trkpt><trkpt lat="45.81550961724005" lon="8.928778542777499"><ele>407.33333333333337</ele><time>2026-03-28T11:31:16Z</time></trkpt><trkpt lat="45.81554778566803" lon="8.928648360414945"><ele>407.0</ele><time>2026-03-28T11:31:17Z</time></trkpt><trkpt lat="45.815585416116384" lon="8.928526327208456"><ele>406.6666666666667</ele><time>2026-03-28T11:31:18Z</time></trkpt><trkpt lat="45.81560900232368" lon="8.928428882984155"><ele>406.33333333333337</ele><time>2026-03-28T11:31:19Z</time></trkpt><trkpt lat="45.81564031352701" lon="8.928320486465404"><ele>406.0</ele><time>2026-03-28T11:31:21Z</time></trkpt><trkpt lat="45.81576603087969" lon="8.928268136180563"><ele>405.8</ele><time>2026-03-28T11:31:24Z</time></trkpt><trkpt lat="45.81583267059795" lon="8.928289232362806"><ele>405.6</ele><time>2026-03-28T11:31:25Z</time></trkpt><trkpt lat="45.81594193844922" lon="8.928315368940096"><ele>405.4</ele><time>2026-03-28T11:31:27Z</time></trkpt><trkpt lat="45.81606227619404" lon="8.928279098688659"><ele>405.2</ele><time>2026-03-28T11:31:29Z</time></trkpt><trkpt lat="45.816170350341245" lon="8.928216355844615"><ele>405.0</ele><time>2026-03-28T11:31:31Z</time></trkpt><trkpt lat="45.8162799593902" lon="8.928151088318625"><ele>403.8333333333333</ele><time>2026-03-28T11:31:33Z</time></trkpt><trkpt lat="45.81636406709428" lon="8.928062294101965"><ele>402.66666666666663</ele><time>2026-03-28T11:31:35Z</time></trkpt><trkpt lat="45.81644825052278" lon="8.927978931437607"><ele>401.5</ele><time>2026-03-28T11:31:37Z</time></trkpt><trkpt lat="45.816512447867964" lon="8.92792060741102"><ele>400.3333333333333</ele><time>2026-03-28T11:31:39Z</time></trkpt><trkpt lat="45.81657462818747" lon="8.92799222288853"><ele>399.16666666666663</ele><time>2026-03-28T11:31:43Z</time></trkpt><trkpt lat="45.81651621077024" lon="8.928051998519113"><ele>398.0</ele><time>2026-03-28T11:31:44Z</time></trkpt><trkpt lat="45.81641716504648" lon="8.928106443746302"><ele>398.0</ele><time>2026-03-28T11:31:46Z</time></trkpt><trkpt lat="45.81638482715486" lon="8.928256038813766"><ele>398.0</ele><time>2026-03-28T11:31:48Z</time></trkpt><trkpt lat="45.81641243016883" lon="8.928418044208208"><ele>398.0</ele><time>2026-03-28T11:31:50Z</time></trkpt><trkpt lat="45.81643626067684" lon="8.928583347055149"><ele>398.0</ele><time>2026-03-28T11:31:52Z</time></trkpt><trkpt lat="45.81650897299254" lon="8.928617435065759"><ele>398.0</ele><time>2026-03-28T11:31:54Z</time></trkpt><trkpt lat="45.81655914588321" lon="8.928542444376804"><ele>397.99999999999994</ele><time>2026-03-28T11:31:56Z</time></trkpt><trkpt lat="45.816567938320624" lon="8.92842063599785"><ele>398.0</ele><time>2026-03-28T11:31:58Z</time></trkpt><trkpt lat="45.81659173290827" lon="8.928335908084206"><ele>398.0</ele><time>2026-03-28T11:32:00Z</time></trkpt><trkpt lat="45.816611710257355" lon="8.928436833420884"><ele>398.0</ele><time>2026-03-28T11:32:04Z</time></trkpt><trkpt lat="45.816649494926295" lon="8.928611784179813"><ele>397.99999999999994</ele><time>2026-03-28T11:32:06Z</time></trkpt><trkpt lat="45.81668669459554" lon="8.928709854913802"><ele>398.0</ele><time>2026-03-28T11:32:07Z</time></trkpt><trkpt lat="45.816737300785" lon="8.928805165414278"><ele>397.71428571428567</ele><time>2026-03-28T11:32:08Z</time></trkpt><trkpt lat="45.81678606194401" lon="8.928889913866904"><ele>397.42857142857144</ele><time>2026-03-28T11:32:09Z</time></trkpt><trkpt lat="45.81684481094606" lon="8.928944681296425"><ele>397.1428571428571</ele><time>2026-03-28T11:32:10Z</time></trkpt><trkpt lat="45.816913096625115" lon="8.928985415482412"><ele>396.85714285714283</ele><time>2026-03-28T11:32:12Z</time></trkpt><trkpt lat="45.816933341108395" lon="8.92888488674965"><ele>396.57142857142856</ele><time>2026-03-28T11:32:16Z</time></trkpt><trkpt lat="45.816937933753316" lon="8.928774306418092"><ele>396.2857142857143</ele><time>2026-03-28T11:32:25Z</time></trkpt><trkpt lat="45.81699305687159" lon="8.928824976579634"><ele>396.0</ele><time>2026-03-28T11:32:31Z</time></trkpt><trkpt lat="45.81705462336203" lon="8.928972319557063"><ele>391.8</ele><time>2026-03-28T11:32:33Z</time></trkpt><trkpt lat="45.81709727269863" lon="8.929043211030656"><ele>387.6</ele><time>2026-03-28T11:32:34Z</time></trkpt><trkpt lat="45.81714528304913" lon="8.929119946982887"><ele>383.4</ele><time>2026-03-28T11:32:35Z</time></trkpt><trkpt lat="45.81718772789863" lon="8.929188791597745"><ele>379.2</ele><time>2026-03-28T11:32:36Z</time></trkpt><trkpt lat="45.817250306380785" lon="8.929212483364319"><ele>375.0</ele><time>2026-03-28T11:32:37Z</time></trkpt><trkpt lat="45.817428369866214" lon="8.929137526411743"><ele>375.0</ele><time>2026-03-28T11:32:39Z</time></trkpt><trkpt lat="45.81749846867252" lon="8.929410838577429"><ele>375.0</ele><time>2026-03-28T11:32:45Z</time></trkpt><trkpt lat="45.81742186239834" lon="8.929317220035372"><ele>375.0</ele><time>2026-03-28T11:32:47Z</time></trkpt><trkpt lat="45.81732956517136" lon="8.929253011708555"><ele>375.0</ele><time>2026-03-28T11:32:49Z</time></trkpt><trkpt lat="45.8172692117117" lon="8.929143453289402"><ele>375.0</ele><time>2026-03-28T11:32:51Z</time></trkpt><trkpt lat="45.81728820012684" lon="8.92903462917741"><ele>375.0</ele><time>2026-03-28T11:32:54Z</time></trkpt><trkpt lat="45.817383850229504" lon="8.929056402944301"><ele>375.0</ele><time>2026-03-28T11:32:56Z</time></trkpt><trkpt lat="45.81746704714069" lon="8.92915115984025"><ele>375.0</ele><time>2026-03-28T11:32:58Z</time></trkpt><trkpt lat="45.81752759793252" lon="8.929189069645162"><ele>375.0</ele><time>2026-03-28T11:32:59Z</time></trkpt><trkpt lat="45.81758475711686" lon="8.929261303289975"><ele>375.0</ele><time>2026-03-28T11:33:00Z</time></trkpt><trkpt lat="45.817658217689136" lon="8.929311011158575"><ele>374.6666666666667</ele><time>2026-03-28T11:33:01Z</time></trkpt><trkpt lat="45.81773931355233" lon="8.929343017276162"><ele>374.3333333333333</ele><time>2026-03-28T11:33:02Z</time></trkpt><trkpt lat="45.817802161868826" lon="8.929395785351254"><ele>374.0</ele><time>2026-03-28T11:33:03Z</time></trkpt><trkpt lat="45.817857504062715" lon="8.929441918993648"><ele>373.66666666666663</ele><time>2026-03-28T11:33:04Z</time></trkpt><trkpt lat="45.81791410304271" lon="8.92948801366461"><ele>373.3333333333333</ele><time>2026-03-28T11:33:05Z</time></trkpt><trkpt lat="45.81801564890573" lon="8.929580986908537"><ele>373.0</ele><time>2026-03-28T11:33:07Z</time></trkpt><trkpt lat="45.818070040548136" lon="8.929627879784114"><ele>373.0</ele><time>2026-03-28T11:33:08Z</time></trkpt><trkpt lat="45.81818595726141" lon="8.929711327992164"><ele>373.0</ele><time>2026-03-28T11:33:10Z</time></trkpt><trkpt lat="45.81824536348826" lon="8.92976377469927"><ele>373.0</ele><time>2026-03-28T11:33:11Z</time></trkpt><trkpt lat="45.818359046710746" lon="8.92986759164569"><ele>373.0</ele><time>2026-03-28T11:33:13Z</time></trkpt><trkpt lat="45.81841104857799" lon="8.92992002819197"><ele>373.0</ele><time>2026-03-28T11:33:14Z</time></trkpt><trkpt lat="45.81846327548394" lon="8.929973552576122"><ele>369.3333333333333</ele><time>2026-03-28T11:33:15Z</time></trkpt><trkpt lat="45.818516914627025" lon="8.930028590310735"><ele>365.66666666666663</ele><time>2026-03-28T11:33:16Z</time></trkpt><trkpt lat="45.818565940694455" lon="8.930089462100696"><ele>362.0</ele><time>2026-03-28T11:33:17Z</time></trkpt><trkpt lat="45.818671556980604" lon="8.930187137454773"><ele>358.3333333333333</ele><time>2026-03-28T11:33:19Z</time></trkpt><trkpt lat="45.818729410429555" lon="8.930229266272562"><ele>354.6666666666667</ele><time>2026-03-28T11:33:20Z</time></trkpt><trkpt lat="45.818789587388885" lon="8.930280099570767"><ele>351.0</ele><time>2026-03-28T11:33:21Z</time></trkpt><trkpt lat="45.818856164531695" lon="8.93033697107351"><ele>351.0</ele><time>2026-03-28T11:33:22Z</time></trkpt><trkpt lat="45.81891882064213" lon="8.930396644578746"><ele>351.0</ele><time>2026-03-28T11:33:23Z</time></trkpt><trkpt lat="45.8189799125247" lon="8.930452105518633"><ele>351.0</ele><time>2026-03-28T11:33:24Z</time></trkpt><trkpt lat="45.819039023029895" lon="8.930505137223134"><ele>351.0</ele><time>2026-03-28T11:33:25Z</time></trkpt><trkpt lat="45.81910059628227" lon="8.930542036679228"><ele>351.0</ele><time>2026-03-28T11:33:26Z</time></trkpt><trkpt lat="45.819159257499194" lon="8.930584074128735"><ele>351.0</ele><time>2026-03-28T11:33:27Z</time></trkpt><trkpt lat="45.819273826364615" lon="8.930663988782568"><ele>349.20000000000005</ele><time>2026-03-28T11:33:29Z</time></trkpt><trkpt lat="45.8194021588493" lon="8.930697761954294"><ele>347.40000000000003</ele><time>2026-03-28T11:33:31Z</time></trkpt><trkpt lat="45.81946715129638" lon="8.930712675175295"><ele>345.6</ele><time>2026-03-28T11:33:32Z</time></trkpt><trkpt lat="45.81953367876063" lon="8.930722699534472"><ele>343.8</ele><time>2026-03-28T11:33:33Z</time></trkpt><trkpt lat="45.81965183082485" lon="8.93071722985031"><ele>342.0</ele><time>2026-03-28T11:33:35Z</time></trkpt><trkpt lat="45.81977590884382" lon="8.930706606888686"><ele>341.99999999999994</ele><time>2026-03-28T11:33:37Z</time></trkpt><trkpt lat="45.819843111265506" lon="8.930689324866268"><ele>342.0</ele><time>2026-03-28T11:33:38Z</time></trkpt><trkpt lat="45.8199202341851" lon="8.930668483476259"><ele>342.0</ele><time>2026-03-28T11:33:39Z</time></trkpt><trkpt lat="45.81999534357655" lon="8.930653464184754"><ele>342.0</ele><time>2026-03-28T11:33:40Z</time></trkpt><trkpt lat="45.82006773413088" lon="8.930639548309465"><ele>342.0</ele><time>2026-03-28T11:33:41Z</time></trkpt><trkpt lat="45.82014192283386" lon="8.930617892854704"><ele>341.99999999999994</ele><time>2026-03-28T11:33:42Z</time></trkpt><trkpt lat="45.82020822260724" lon="8.930595912408606"><ele>342.0</ele><time>2026-03-28T11:33:43Z</time></trkpt><trkpt lat="45.82027118246568" lon="8.930573760115966"><ele>341.20000000000005</ele><time>2026-03-28T11:33:44Z</time></trkpt><trkpt lat="45.82038209506593" lon="8.930529153511028"><ele>340.4</ele><time>2026-03-28T11:33:46Z</time></trkpt><trkpt lat="45.8204759935336" lon="8.930491174385823"><ele>339.6</ele><time>2026-03-28T11:33:48Z</time></trkpt><trkpt lat="45.82060892517383" lon="8.930449987317814"><ele>338.79999999999995</ele><time>2026-03-28T11:33:50Z</time></trkpt><trkpt lat="45.82068925285706" lon="8.930429929673103"><ele>338.0</ele><time>2026-03-28T11:33:51Z</time></trkpt><trkpt lat="45.82076598311831" lon="8.930418783811719"><ele>338.0</ele><time>2026-03-28T11:33:52Z</time></trkpt><trkpt lat="45.82086881105328" lon="8.93044431595876"><ele>338.0</ele><time>2026-03-28T11:33:54Z</time></trkpt><trkpt lat="45.820945381051935" lon="8.930440576619334"><ele>338.0</ele><time>2026-03-28T11:33:56Z</time></trkpt><trkpt lat="45.82102517116539" lon="8.930459890505745"><ele>338.0</ele><time>2026-03-28T11:33:58Z</time></trkpt><trkpt lat="45.82109170147121" lon="8.93047987600955"><ele>338.0</ele><time>2026-03-28T11:34:06Z</time></trkpt><trkpt lat="45.82118726702835" lon="8.930342879555266"><ele>338.0</ele><time>2026-03-28T11:34:09Z</time></trkpt><trkpt lat="45.82119304950949" lon="8.93023118961822"><ele>338.0</ele><time>2026-03-28T11:34:10Z</time></trkpt><trkpt lat="45.82119612934083" lon="8.930128415724601"><ele>338.0</ele><time>2026-03-28T11:34:11Z</time></trkpt><trkpt lat="45.82121718883075" lon="8.930027133751548"><ele>338.0</ele><time>2026-03-28T11:34:12Z</time></trkpt><trkpt lat="45.821223205019955" lon="8.929917784253318"><ele>338.0</ele><time>2026-03-28T11:34:13Z</time></trkpt><trkpt lat="45.82122913731114" lon="8.929809959726784"><ele>338.0</ele><time>2026-03-28T11:34:14Z</time></trkpt><trkpt lat="45.821234923080006" lon="8.929707514506275"><ele>338.0</ele><time>2026-03-28T11:34:15Z</time></trkpt><trkpt lat="45.821237022774504" lon="8.929525423894397"><ele>338.0</ele><time>2026-03-28T11:34:16Z</time></trkpt><trkpt lat="45.82124460172831" lon="8.929393089631878"><ele>338.0</ele><time>2026-03-28T11:34:17Z</time></trkpt><trkpt lat="45.82126511281077" lon="8.929274353269902"><ele>338.0</ele><time>2026-03-28T11:34:18Z</time></trkpt><trkpt lat="45.8213177192112" lon="8.929194868969905"><ele>338.0</ele><time>2026-03-28T11:34:19Z</time></trkpt><trkpt lat="45.82136084423769" lon="8.929114742959158"><ele>338.0</ele><time>2026-03-28T11:34:20Z</time></trkpt><trkpt lat="45.821413336968924" lon="8.929019950450675"><ele>338.0</ele><time>2026-03-28T11:34:21Z</time></trkpt><trkpt lat="45.821486787296195" lon="8.928951026204809"><ele>338.0</ele><time>2026-03-28T11:34:22Z</time></trkpt><trkpt lat="45.82156702261106" lon="8.92889960773782"><ele>338.0</ele><time>2026-03-28T11:34:23Z</time></trkpt><trkpt lat="45.82163626912443" lon="8.928848806959056"><ele>338.0</ele><time>2026-03-28T11:34:24Z</time></trkpt><trkpt lat="45.82170079190839" lon="8.928800439406487"><ele>338.0</ele><time>2026-03-28T11:34:25Z</time></trkpt><trkpt lat="45.82175968201863" lon="8.92874476730777"><ele>338.0</ele><time>2026-03-28T11:34:26Z</time></trkpt><trkpt lat="45.82182836999254" lon="8.92867720072594"><ele>338.0</ele><time>2026-03-28T11:34:27Z</time></trkpt><trkpt lat="45.82190195802178" lon="8.928614291887602"><ele>338.33333333333337</ele><time>2026-03-28T11:34:28Z</time></trkpt><trkpt lat="45.82196459598464" lon="8.928561225346803"><ele>338.6666666666667</ele><time>2026-03-28T11:34:29Z</time></trkpt><trkpt lat="45.82202752280111" lon="8.928501734912036"><ele>339.0</ele><time>2026-03-28T11:34:30Z</time></trkpt><trkpt lat="45.82209859827567" lon="8.928436377430113"><ele>339.3333333333333</ele><time>2026-03-28T11:34:31Z</time></trkpt><trkpt lat="45.82217299576763" lon="8.928360248272996"><ele>339.66666666666663</ele><time>2026-03-28T11:34:32Z</time></trkpt><trkpt lat="45.82224919599066" lon="8.928277360584497"><ele>340.0</ele><time>2026-03-28T11:34:33Z</time></trkpt><trkpt lat="45.82231879010327" lon="8.92820222016797"><ele>340.0</ele><time>2026-03-28T11:34:34Z</time></trkpt><trkpt lat="45.82237449454695" lon="8.92813090960315"><ele>340.0</ele><time>2026-03-28T11:34:35Z</time></trkpt><trkpt lat="45.82241619514832" lon="8.928047759822432"><ele>340.0</ele><time>2026-03-28T11:34:36Z</time></trkpt><trkpt lat="45.82244581671583" lon="8.92794591597579"><ele>340.0</ele><time>2026-03-28T11:34:37Z</time></trkpt><trkpt lat="45.82244640874356" lon="8.927822503124325"><ele>340.0</ele><time>2026-03-28T11:34:38Z</time></trkpt><trkpt lat="45.822437825067" lon="8.927708293784104"><ele>340.0</ele><time>2026-03-28T11:34:39Z</time></trkpt><trkpt lat="45.82242499275032" lon="8.927597992233421"><ele>340.3333333333333</ele><time>2026-03-28T11:34:40Z</time></trkpt><trkpt lat="45.82240605287283" lon="8.92747808976948"><ele>340.66666666666663</ele><time>2026-03-28T11:34:41Z</time></trkpt><trkpt lat="45.82236848502845" lon="8.927381253248793"><ele>341.0</ele><time>2026-03-28T11:34:42Z</time></trkpt><trkpt lat="45.822305849919026" lon="8.927281117758184"><ele>341.3333333333333</ele><time>2026-03-28T11:34:43Z</time></trkpt><trkpt lat="45.82223809102508" lon="8.927192172439897"><ele>341.6666666666667</ele><time>2026-03-28T11:34:44Z</time></trkpt><trkpt lat="45.822162594907425" lon="8.927098103391321"><ele>342.0</ele><time>2026-03-28T11:34:45Z</time></trkpt><trkpt lat="45.822087971301876" lon="8.926997368918896"><ele>342.0</ele><time>2026-03-28T11:34:46Z</time></trkpt><trkpt lat="45.822013233010686" lon="8.926885505344751"><ele>342.0</ele><time>2026-03-28T11:34:47Z</time></trkpt><trkpt lat="45.821936726154576" lon="8.92678292008754"><ele>342.0</ele><time>2026-03-28T11:34:48Z</time></trkpt><trkpt lat="45.82186417121514" lon="8.926677710261222"><ele>342.0</ele><time>2026-03-28T11:34:49Z</time></trkpt><trkpt lat="45.82179765280399" lon="8.92657705305708"><ele>342.0</ele><time>2026-03-28T11:34:50Z</time></trkpt><trkpt lat="45.821732625881786" lon="8.926472807084636"><ele>342.8</ele><time>2026-03-28T11:34:51Z</time></trkpt><trkpt lat="45.82168654585413" lon="8.926356027145152"><ele>343.6</ele><time>2026-03-28T11:34:52Z</time></trkpt><trkpt lat="45.82162178746005" lon="8.926259095556832"><ele>344.40000000000003</ele><time>2026-03-28T11:34:53Z</time></trkpt><trkpt lat="45.821579633110595" lon="8.926135803127366"><ele>345.20000000000005</ele><time>2026-03-28T11:34:54Z</time></trkpt><trkpt lat="45.82154474122871" lon="8.92600384945161"><ele>346.0</ele><time>2026-03-28T11:34:55Z</time></trkpt><trkpt lat="45.82152207262497" lon="8.925863604647855"><ele>347.20000000000005</ele><time>2026-03-28T11:34:56Z</time></trkpt><trkpt lat="45.82152481526429" lon="8.925707007142265"><ele>348.40000000000003</ele><time>2026-03-28T11:34:57Z</time></trkpt><trkpt lat="45.821541862339416" lon="8.925558556279753"><ele>349.6</ele><time>2026-03-28T11:34:58Z</time></trkpt><trkpt lat="45.82157369616869" lon="8.92541366629439"><ele>350.8</ele><time>2026-03-28T11:34:59Z</time></trkpt><trkpt lat="45.82160450800562" lon="8.925274992561116"><ele>352.0</ele><time>2026-03-28T11:35:00Z</time></trkpt><trkpt lat="45.82162978877596" lon="8.92514319012406"><ele>352.8</ele><time>2026-03-28T11:35:01Z</time></trkpt><trkpt lat="45.82165473051831" lon="8.925020507841278"><ele>353.6</ele><time>2026-03-28T11:35:02Z</time></trkpt><trkpt lat="45.821685538190785" lon="8.92489859158121"><ele>354.40000000000003</ele><time>2026-03-28T11:35:03Z</time></trkpt><trkpt lat="45.821715143600855" lon="8.924772498357775"><ele>355.20000000000005</ele><time>2026-03-28T11:35:04Z</time></trkpt><trkpt lat="45.8217503378365" lon="8.924638980146185"><ele>356.0</ele><time>2026-03-28T11:35:05Z</time></trkpt><trkpt lat="45.82178108691916" lon="8.924499493422308"><ele>356.0</ele><time>2026-03-28T11:35:06Z</time></trkpt><trkpt lat="45.82181069324087" lon="8.924356496380346"><ele>356.0</ele><time>2026-03-28T11:35:07Z</time></trkpt><trkpt lat="45.821848531445255" lon="8.92420260453752"><ele>356.0</ele><time>2026-03-28T11:35:08Z</time></trkpt><trkpt lat="45.82188135659381" lon="8.924048919649728"><ele>356.0</ele><time>2026-03-28T11:35:09Z</time></trkpt><trkpt lat="45.821909993721604" lon="8.923912208811512"><ele>356.0</ele><time>2026-03-28T11:35:10Z</time></trkpt><trkpt lat="45.82191690069738" lon="8.923768249412023"><ele>358.25</ele><time>2026-03-28T11:35:11Z</time></trkpt><trkpt lat="45.821914365837394" lon="8.923614795510355"><ele>360.5</ele><time>2026-03-28T11:35:12Z</time></trkpt><trkpt lat="45.82190288933993" lon="8.923458461123644"><ele>362.75</ele><time>2026-03-28T11:35:13Z</time></trkpt><trkpt lat="45.82188353951639" lon="8.9232827051278"><ele>365.0</ele><time>2026-03-28T11:35:14Z</time></trkpt><trkpt lat="45.82186133992935" lon="8.923106567438825"><ele>365.6</ele><time>2026-03-28T11:35:15Z</time></trkpt><trkpt lat="45.82184389184855" lon="8.922944805652012"><ele>366.2</ele><time>2026-03-28T11:35:16Z</time></trkpt><trkpt lat="45.821823260676254" lon="8.922784316859333"><ele>366.79999999999995</ele><time>2026-03-28T11:35:17Z</time></trkpt><trkpt lat="45.82179837366481" lon="8.922630733638997"><ele>367.4</ele><time>2026-03-28T11:35:18Z</time></trkpt><trkpt lat="45.821773529705915" lon="8.922477959101323"><ele>368.0</ele><time>2026-03-28T11:35:19Z</time></trkpt><trkpt lat="45.82175466820668" lon="8.922316624554197"><ele>366.5</ele><time>2026-03-28T11:35:20Z</time></trkpt><trkpt lat="45.82173289259175" lon="8.922143450650147"><ele>365.0</ele><time>2026-03-28T11:35:21Z</time></trkpt><trkpt lat="45.821709516074975" lon="8.92197941599386"><ele>363.5</ele><time>2026-03-28T11:35:22Z</time></trkpt><trkpt lat="45.82168924155526" lon="8.921818397424433"><ele>362.0</ele><time>2026-03-28T11:35:23Z</time></trkpt><trkpt lat="45.82166342582698" lon="8.921654659972587"><ele>362.0</ele><time>2026-03-28T11:35:24Z</time></trkpt><trkpt lat="45.82164011518929" lon="8.92149046922299"><ele>362.0</ele><time>2026-03-28T11:35:25Z</time></trkpt><trkpt lat="45.821618150109174" lon="8.921320900596863"><ele>362.0</ele><time>2026-03-28T11:35:26Z</time></trkpt><trkpt lat="45.82159558041357" lon="8.921147805846882"><ele>362.0</ele><time>2026-03-28T11:35:27Z</time></trkpt><trkpt lat="45.821585109885135" lon="8.920969099597496"><ele>362.0</ele><time>2026-03-28T11:35:28Z</time></trkpt><trkpt lat="45.821629497352546" lon="8.920802764219221"><ele>362.0</ele><time>2026-03-28T11:35:29Z</time></trkpt><trkpt lat="45.82167566664492" lon="8.92064656687347"><ele>362.0</ele><time>2026-03-28T11:35:30Z</time></trkpt><trkpt lat="45.82174273839767" lon="8.920534547490224"><ele>362.0</ele><time>2026-03-28T11:35:31Z</time></trkpt><trkpt lat="45.821816393170174" lon="8.920417389175904"><ele>366.0</ele><time>2026-03-28T11:35:32Z</time></trkpt><trkpt lat="45.821909451956124" lon="8.920324534965415"><ele>370.0</ele><time>2026-03-28T11:35:33Z</time></trkpt><trkpt lat="45.822003110610936" lon="8.920221456233408"><ele>374.0</ele><time>2026-03-28T11:35:34Z</time></trkpt><trkpt lat="45.822098728745885" lon="8.92010947359742"><ele>378.0</ele><time>2026-03-28T11:35:35Z</time></trkpt><trkpt lat="45.82219498172926" lon="8.919992511807866"><ele>378.0</ele><time>2026-03-28T11:35:36Z</time></trkpt><trkpt lat="45.822293236083766" lon="8.919873832108975"><ele>378.0</ele><time>2026-03-28T11:35:37Z</time></trkpt><trkpt lat="45.82239205687061" lon="8.919752520279065"><ele>378.0</ele><time>2026-03-28T11:35:38Z</time></trkpt><trkpt lat="45.82249211396022" lon="8.919636095722248"><ele>378.0</ele><time>2026-03-28T11:35:39Z</time></trkpt><trkpt lat="45.822593865959476" lon="8.919519149367627"><ele>381.5</ele><time>2026-03-28T11:35:40Z</time></trkpt><trkpt lat="45.82269212402243" lon="8.919400821963542"><ele>385.0</ele><time>2026-03-28T11:35:41Z</time></trkpt><trkpt lat="45.82278882292424" lon="8.919281376429444"><ele>388.5</ele><time>2026-03-28T11:35:42Z</time></trkpt><trkpt lat="45.822862759515225" lon="8.919159069846483"><ele>392.0</ele><time>2026-03-28T11:35:43Z</time></trkpt><trkpt lat="45.82290863544435" lon="8.919029716820926"><ele>392.0</ele><time>2026-03-28T11:35:44Z</time></trkpt><trkpt lat="45.822938544471384" lon="8.918890150400204"><ele>392.0</ele><time>2026-03-28T11:35:45Z</time></trkpt><trkpt lat="45.82294877272052" lon="8.918732612341163"><ele>392.0</ele><time>2026-03-28T11:35:46Z</time></trkpt><trkpt lat="45.82294459850907" lon="8.918563726518894"><ele>392.0</ele><time>2026-03-28T11:35:47Z</time></trkpt><trkpt lat="45.82292381777346" lon="8.918386573145563"><ele>392.25</ele><time>2026-03-28T11:35:48Z</time></trkpt><trkpt lat="45.8228898032881" lon="8.918203167944874"><ele>392.5</ele><time>2026-03-28T11:35:49Z</time></trkpt><trkpt lat="45.82285482909057" lon="8.918016787412261"><ele>392.75</ele><time>2026-03-28T11:35:50Z</time></trkpt><trkpt lat="45.82282732070697" lon="8.917817431120145"><ele>393.0</ele><time>2026-03-28T11:35:51Z</time></trkpt><trkpt lat="45.82279635131151" lon="8.917609092928128"><ele>394.0</ele><time>2026-03-28T11:35:52Z</time></trkpt><trkpt lat="45.82276148719001" lon="8.91741622030951"><ele>395.0</ele><time>2026-03-28T11:35:53Z</time></trkpt><trkpt lat="45.82273514855737" lon="8.91725569547432"><ele>396.0</ele><time>2026-03-28T11:35:54Z</time></trkpt><trkpt lat="45.82270747662151" lon="8.917100846779912"><ele>397.0</ele><time>2026-03-28T11:35:55Z</time></trkpt><trkpt lat="45.82267900710372" lon="8.916943536485249"><ele>397.0</ele><time>2026-03-28T11:35:56Z</time></trkpt><trkpt lat="45.822657851191614" lon="8.916778398926464"><ele>397.0</ele><time>2026-03-28T11:35:57Z</time></trkpt><trkpt lat="45.82265259940061" lon="8.916597405509375"><ele>397.0</ele><time>2026-03-28T11:35:58Z</time></trkpt><trkpt lat="45.8226476818041" lon="8.916413270012557"><ele>397.0</ele><time>2026-03-28T11:35:59Z</time></trkpt><trkpt lat="45.822632500790185" lon="8.916228204045355"><ele>395.5</ele><time>2026-03-28T11:36:00Z</time></trkpt><trkpt lat="45.82260277119928" lon="8.91605566738489"><ele>394.0</ele><time>2026-03-28T11:36:01Z</time></trkpt><trkpt lat="45.822560495687995" lon="8.915887986607475"><ele>392.5</ele><time>2026-03-28T11:36:02Z</time></trkpt><trkpt lat="45.82250748693046" lon="8.91573052194765"><ele>391.0</ele><time>2026-03-28T11:36:03Z</time></trkpt><trkpt lat="45.82246430539273" lon="8.915565696798065"><ele>391.0</ele><time>2026-03-28T11:36:04Z</time></trkpt><trkpt lat="45.82242036201419" lon="8.91539634790316"><ele>391.0</ele><time>2026-03-28T11:36:05Z</time></trkpt><trkpt lat="45.8223822864522" lon="8.915246405956319"><ele>391.0</ele><time>2026-03-28T11:36:06Z</time></trkpt><trkpt lat="45.822353805403324" lon="8.915121608689459"><ele>391.0</ele><time>2026-03-28T11:36:07Z</time></trkpt><trkpt lat="45.82231922952324" lon="8.914995122952522"><ele>391.0</ele><time>2026-03-28T11:36:08Z</time></trkpt><trkpt lat="45.822288509496396" lon="8.914854169972351"><ele>391.6</ele><time>2026-03-28T11:36:09Z</time></trkpt><trkpt lat="45.82225116657832" lon="8.914701626971823"><ele>392.20000000000005</ele><time>2026-03-28T11:36:10Z</time></trkpt><trkpt lat="45.822206997147546" lon="8.91454452269725"><ele>392.79999999999995</ele><time>2026-03-28T11:36:11Z</time></trkpt><trkpt lat="45.82216419105767" lon="8.91438927092227"><ele>393.4</ele><time>2026-03-28T11:36:12Z</time></trkpt><trkpt lat="45.82213107268656" lon="8.91425834566033"><ele>394.0</ele><time>2026-03-28T11:36:13Z</time></trkpt><trkpt lat="45.822112994234594" lon="8.914143543952886"><ele>394.6</ele><time>2026-03-28T11:36:14Z</time></trkpt><trkpt lat="45.82210611322999" lon="8.914041017211545"><ele>395.2</ele><time>2026-03-28T11:36:15Z</time></trkpt><trkpt lat="45.82211975582835" lon="8.913861648937198"><ele>395.8</ele><time>2026-03-28T11:36:17Z</time></trkpt><trkpt lat="45.8221323643396" lon="8.91376542765349"><ele>396.40000000000003</ele><time>2026-03-28T11:36:18Z</time></trkpt><trkpt lat="45.822223265320346" lon="8.913708789755907"><ele>397.0</ele><time>2026-03-28T11:36:19Z</time></trkpt><trkpt lat="45.82230648746782" lon="8.91368619925348"><ele>397.0</ele><time>2026-03-28T11:36:20Z</time></trkpt><trkpt lat="45.822404050636834" lon="8.913676014958915"><ele>397.0</ele><time>2026-03-28T11:36:21Z</time></trkpt><trkpt lat="45.82250872423934" lon="8.913656746435349"><ele>397.0</ele><time>2026-03-28T11:36:22Z</time></trkpt><trkpt lat="45.82262401894483" lon="8.91363034438013"><ele>397.0</ele><time>2026-03-28T11:36:23Z</time></trkpt><trkpt lat="45.82273392460856" lon="8.913597988935264"><ele>397.0</ele><time>2026-03-28T11:36:24Z</time></trkpt><trkpt lat="45.822842501841706" lon="8.913580746288973"><ele>398.6</ele><time>2026-03-28T11:36:25Z</time></trkpt><trkpt lat="45.82295150580332" lon="8.913571020446"><ele>400.20000000000005</ele><time>2026-03-28T11:36:26Z</time></trkpt><trkpt lat="45.82304993323833" lon="8.913558394295316"><ele>401.8</ele><time>2026-03-28T11:36:27Z</time></trkpt><trkpt lat="45.823136726447835" lon="8.913552050481949"><ele>403.4</ele><time>2026-03-28T11:36:28Z</time></trkpt><trkpt lat="45.82320464824432" lon="8.9135454344491"><ele>405.0</ele><time>2026-03-28T11:36:29Z</time></trkpt><trkpt lat="45.823317839099424" lon="8.913557885269002"><ele>405.0</ele><time>2026-03-28T11:36:31Z</time></trkpt><trkpt lat="45.823438184673044" lon="8.913580948365901"><ele>405.0</ele><time>2026-03-28T11:36:33Z</time></trkpt><trkpt lat="45.82350329148014" lon="8.913592926805832"><ele>405.0</ele><time>2026-03-28T11:36:34Z</time></trkpt><trkpt lat="45.82359490488845" lon="8.913628276639539"><ele>405.0</ele><time>2026-03-28T11:36:36Z</time></trkpt><trkpt lat="45.82366040018718" lon="8.913667585308573"><ele>405.0</ele><time>2026-03-28T11:36:44Z</time></trkpt><trkpt lat="45.823655003994595" lon="8.913343889301087"><ele>403.6666666666667</ele><time>2026-03-28T11:36:47Z</time></trkpt><trkpt lat="45.823644474359995" lon="8.913238143342058"><ele>402.33333333333337</ele><time>2026-03-28T11:36:48Z</time></trkpt><trkpt lat="45.82362128118639" lon="8.913142937827093"><ele>401.0</ele><time>2026-03-28T11:36:49Z</time></trkpt><trkpt lat="45.82362679622511" lon="8.913035187003963"><ele>399.6666666666667</ele><time>2026-03-28T11:36:50Z</time></trkpt><trkpt lat="45.82364342246281" lon="8.912914108914912"><ele>398.33333333333337</ele><time>2026-03-28T11:36:51Z</time></trkpt><trkpt lat="45.823660667527285" lon="8.912800362376206"><ele>397.0</ele><time>2026-03-28T11:36:52Z</time></trkpt><trkpt lat="45.823673706203394" lon="8.91267553662698"><ele>397.6</ele><time>2026-03-28T11:36:53Z</time></trkpt><trkpt lat="45.82367585071537" lon="8.912541719442675"><ele>398.20000000000005</ele><time>2026-03-28T11:36:54Z</time></trkpt><trkpt lat="45.823649993416005" lon="8.912406066866193"><ele>398.8</ele><time>2026-03-28T11:36:55Z</time></trkpt><trkpt lat="45.82360192522161" lon="8.912278073306176"><ele>399.4</ele><time>2026-03-28T11:36:56Z</time></trkpt><trkpt lat="45.82355820680332" lon="8.912134256525118"><ele>400.0</ele><time>2026-03-28T11:36:57Z</time></trkpt><trkpt lat="45.82350543929601" lon="8.912000345915438"><ele>398.6</ele><time>2026-03-28T11:36:58Z</time></trkpt><trkpt lat="45.823436841642625" lon="8.911861645020327"><ele>397.2</ele><time>2026-03-28T11:36:59Z</time></trkpt><trkpt lat="45.82338557271111" lon="8.911724533524392"><ele>395.79999999999995</ele><time>2026-03-28T11:37:00Z</time></trkpt><trkpt lat="45.82333467877693" lon="8.911607335523469"><ele>394.4</ele><time>2026-03-28T11:37:01Z</time></trkpt><trkpt lat="45.82330526914362" lon="8.91149220077142"><ele>393.0</ele><time>2026-03-28T11:37:02Z</time></trkpt><trkpt lat="45.82326940767276" lon="8.911392533622772"><ele>392.5</ele><time>2026-03-28T11:37:03Z</time></trkpt><trkpt lat="45.82324075208456" lon="8.911306509757766"><ele>392.0</ele><time>2026-03-28T11:37:04Z</time></trkpt><trkpt lat="45.82322705752686" lon="8.911161558102464"><ele>391.5</ele><time>2026-03-28T11:37:06Z</time></trkpt><trkpt lat="45.823339559175224" lon="8.911120333000722"><ele>391.0</ele><time>2026-03-28T11:37:08Z</time></trkpt><trkpt lat="45.82341104661733" lon="8.911163240210655"><ele>390.5</ele><time>2026-03-28T11:37:09Z</time></trkpt><trkpt lat="45.82348278118567" lon="8.911218627911719"><ele>390.0</ele><time>2026-03-28T11:37:10Z</time></trkpt><trkpt lat="45.82355168904154" lon="8.911252761148388"><ele>392.0</ele><time>2026-03-28T11:37:11Z</time></trkpt><trkpt lat="45.82363977031385" lon="8.91126425603411"><ele>394.0</ele><time>2026-03-28T11:37:13Z</time></trkpt><trkpt lat="45.82372845790583" lon="8.91123934095137"><ele>396.0</ele><time>2026-03-28T11:37:15Z</time></trkpt><trkpt lat="45.823769326919304" lon="8.91112748523401"><ele>398.0</ele><time>2026-03-28T11:37:17Z</time></trkpt><trkpt lat="45.823686309637516" lon="8.911026623929603"><ele>400.0</ele><time>2026-03-28T11:37:19Z</time></trkpt><trkpt lat="45.82362339334546" lon="8.911035970279"><ele>402.0</ele><time>2026-03-28T11:37:20Z</time></trkpt><trkpt lat="45.8235092698253" lon="8.91104415677703"><ele>400.0</ele><time>2026-03-28T11:37:22Z</time></trkpt><trkpt lat="45.82344382765832" lon="8.911005016639546"><ele>398.0</ele><time>2026-03-28T11:37:23Z</time></trkpt><trkpt lat="45.823426164981306" lon="8.910909084949896"><ele>396.0</ele><time>2026-03-28T11:37:24Z</time></trkpt><trkpt lat="45.823434325486105" lon="8.910781492301385"><ele>394.0</ele><time>2026-03-28T11:37:26Z</time></trkpt><trkpt lat="45.823552842380025" lon="8.910723127405877"><ele>392.0</ele><time>2026-03-28T11:37:28Z</time></trkpt><trkpt lat="45.82363247552181" lon="8.910663774535593"><ele>390.0</ele><time>2026-03-28T11:37:29Z</time></trkpt><trkpt lat="45.8237356949917" lon="8.910630294886339"><ele>389.75</ele><time>2026-03-28T11:37:30Z</time></trkpt><trkpt lat="45.82383762877899" lon="8.910580402090302"><ele>389.5</ele><time>2026-03-28T11:37:31Z</time></trkpt><trkpt lat="45.82396658983083" lon="8.91051757377236"><ele>389.25</ele><time>2026-03-28T11:37:32Z</time></trkpt><trkpt lat="45.824106878972685" lon="8.910447577847716"><ele>389.0</ele><time>2026-03-28T11:37:33Z</time></trkpt><trkpt lat="45.82423050007618" lon="8.910394852764945"><ele>392.25</ele><time>2026-03-28T11:37:34Z</time></trkpt><trkpt lat="45.82436204511158" lon="8.910389987546054"><ele>395.5</ele><time>2026-03-28T11:37:35Z</time></trkpt><trkpt lat="45.82449515894584" lon="8.910384908906783"><ele>398.75</ele><time>2026-03-28T11:37:36Z</time></trkpt><trkpt lat="45.82461515100116" lon="8.910350487886623"><ele>402.0</ele><time>2026-03-28T11:37:37Z</time></trkpt><trkpt lat="45.82473519243099" lon="8.91030008000787"><ele>402.0</ele><time>2026-03-28T11:37:38Z</time></trkpt><trkpt lat="45.82484919727032" lon="8.910214897195768"><ele>402.0</ele><time>2026-03-28T11:37:39Z</time></trkpt><trkpt lat="45.82494543011398" lon="8.910121722692528"><ele>402.0</ele><time>2026-03-28T11:37:40Z</time></trkpt><trkpt lat="45.8250349440251" lon="8.910034927320103"><ele>402.0</ele><time>2026-03-28T11:37:41Z</time></trkpt><trkpt lat="45.82512937864342" lon="8.909961509637936"><ele>398.40000000000003</ele><time>2026-03-28T11:37:42Z</time></trkpt><trkpt lat="45.82522313328058" lon="8.909914998902526"><ele>394.8</ele><time>2026-03-28T11:37:43Z</time></trkpt><trkpt lat="45.82532096261623" lon="8.909914045620908"><ele>391.2</ele><time>2026-03-28T11:37:44Z</time></trkpt><trkpt lat="45.82541901520669" lon="8.909881915083371"><ele>387.6</ele><time>2026-03-28T11:37:45Z</time></trkpt><trkpt lat="45.82552210761463" lon="8.909866963389339"><ele>384.0</ele><time>2026-03-28T11:37:46Z</time></trkpt><trkpt lat="45.825625311494285" lon="8.909809778210343"><ele>384.0</ele><time>2026-03-28T11:37:47Z</time></trkpt><trkpt lat="45.82571828422875" lon="8.90970993518693"><ele>384.0</ele><time>2026-03-28T11:37:48Z</time></trkpt><trkpt lat="45.82580320879081" lon="8.909595836841609"><ele>384.0</ele><time>2026-03-28T11:37:49Z</time></trkpt><trkpt lat="45.82589950148638" lon="8.909476091064741"><ele>384.0</ele><time>2026-03-28T11:37:50Z</time></trkpt><trkpt lat="45.82598616730348" lon="8.909363419489653"><ele>383.5</ele><time>2026-03-28T11:37:51Z</time></trkpt><trkpt lat="45.826056124351666" lon="8.909270185677881"><ele>383.0</ele><time>2026-03-28T11:37:52Z</time></trkpt><trkpt lat="45.82612101122047" lon="8.909181544048408"><ele>382.5</ele><time>2026-03-28T11:37:53Z</time></trkpt><trkpt lat="45.82618316663152" lon="8.90909554780319"><ele>382.0</ele><time>2026-03-28T11:37:54Z</time></trkpt><trkpt lat="45.82624269197336" lon="8.90901248724298"><ele>381.5</ele><time>2026-03-28T11:37:55Z</time></trkpt><trkpt lat="45.826309017445006" lon="8.908922741662453"><ele>381.0</ele><time>2026-03-28T11:37:56Z</time></trkpt><trkpt lat="45.82638004082516" lon="8.908828112572117"><ele>381.0</ele><time>2026-03-28T11:37:57Z</time></trkpt><trkpt lat="45.82645238572892" lon="8.908728074294572"><ele>381.0</ele><time>2026-03-28T11:37:58Z</time></trkpt><trkpt lat="45.826509696077046" lon="8.9086174427031"><ele>381.0</ele><time>2026-03-28T11:37:59Z</time></trkpt><trkpt lat="45.826553140319994" lon="8.90850134355274"><ele>381.0</ele><time>2026-03-28T11:38:00Z</time></trkpt><trkpt lat="45.82659638972188" lon="8.908374902713494"><ele>381.0</ele><time>2026-03-28T11:38:01Z</time></trkpt><trkpt lat="45.82663117009222" lon="8.908253829631866"><ele>381.4</ele><time>2026-03-28T11:38:02Z</time></trkpt><trkpt lat="45.82666594807824" lon="8.908134136862452"><ele>381.8</ele><time>2026-03-28T11:38:03Z</time></trkpt><trkpt lat="45.82670363666263" lon="8.908004789262506"><ele>382.2</ele><time>2026-03-28T11:38:04Z</time></trkpt><trkpt lat="45.82674392433122" lon="8.907882498316036"><ele>382.59999999999997</ele><time>2026-03-28T11:38:05Z</time></trkpt><trkpt lat="45.826791968503834" lon="8.907747291842698"><ele>383.0</ele><time>2026-03-28T11:38:06Z</time></trkpt><trkpt lat="45.82685480791374" lon="8.907626692974672"><ele>380.2</ele><time>2026-03-28T11:38:07Z</time></trkpt><trkpt lat="45.82694553169016" lon="8.907537159887912"><ele>377.4</ele><time>2026-03-28T11:38:08Z</time></trkpt><trkpt lat="45.8270256151614" lon="8.907432624285754"><ele>374.59999999999997</ele><time>2026-03-28T11:38:09Z</time></trkpt><trkpt lat="45.82713992430892" lon="8.907378229575142"><ele>371.79999999999995</ele><time>2026-03-28T11:38:10Z</time></trkpt><trkpt lat="45.82724409234829" lon="8.907329826924705"><ele>369.0</ele><time>2026-03-28T11:38:11Z</time></trkpt><trkpt lat="45.82734545508625" lon="8.907295004662368"><ele>369.0</ele><time>2026-03-28T11:38:12Z</time></trkpt><trkpt lat="45.827456496517975" lon="8.907284866795935"><ele>369.0</ele><time>2026-03-28T11:38:13Z</time></trkpt><trkpt lat="45.82757062002582" lon="8.907297963832326"><ele>369.0</ele><time>2026-03-28T11:38:14Z</time></trkpt><trkpt lat="45.827684569957285" lon="8.907322865552736"><ele>369.0</ele><time>2026-03-28T11:38:15Z</time></trkpt><trkpt lat="45.827796099819174" lon="8.90734397862842"><ele>369.6</ele><time>2026-03-28T11:38:16Z</time></trkpt><trkpt lat="45.827904784084275" lon="8.907373920926487"><ele>370.2</ele><time>2026-03-28T11:38:17Z</time></trkpt><trkpt lat="45.82799306810618" lon="8.907414468619418"><ele>370.8</ele><time>2026-03-28T11:38:18Z</time></trkpt><trkpt lat="45.828076898883104" lon="8.907438768097906"><ele>371.40000000000003</ele><time>2026-03-28T11:38:19Z</time></trkpt><trkpt lat="45.828162898062615" lon="8.907458658167677"><ele>372.0</ele><time>2026-03-28T11:38:20Z</time></trkpt><trkpt lat="45.82825282385188" lon="8.907479694892556"><ele>372.0</ele><time>2026-03-28T11:38:21Z</time></trkpt><trkpt lat="45.82834529650635" lon="8.907503640560765"><ele>372.0</ele><time>2026-03-28T11:38:22Z</time></trkpt><trkpt lat="45.828438335347606" lon="8.907525864825978"><ele>372.0</ele><time>2026-03-28T11:38:23Z</time></trkpt><trkpt lat="45.82851979662577" lon="8.907547171793343"><ele>372.0</ele><time>2026-03-28T11:38:24Z</time></trkpt><trkpt lat="45.82859466614901" lon="8.90756823345123"><ele>372.0</ele><time>2026-03-28T11:38:25Z</time></trkpt><trkpt lat="45.82865874826276" lon="8.907586430321022"><ele>372.0</ele><time>2026-03-28T11:38:26Z</time></trkpt><trkpt lat="45.828777920539515" lon="8.907613699031875"><ele>375.0</ele><time>2026-03-28T11:38:28Z</time></trkpt><trkpt lat="45.82889947795434" lon="8.907653652264226"><ele>378.0</ele><time>2026-03-28T11:38:30Z</time></trkpt><trkpt lat="45.828968553058864" lon="8.907671418233667"><ele>381.0</ele><time>2026-03-28T11:38:31Z</time></trkpt><trkpt lat="45.82908286738727" lon="8.90769996742888"><ele>384.0</ele><time>2026-03-28T11:38:33Z</time></trkpt><trkpt lat="45.82917529024772" lon="8.907725576076569"><ele>387.0</ele><time>2026-03-28T11:38:35Z</time></trkpt><trkpt lat="45.82923850014813" lon="8.907740692134201"><ele>387.0</ele><time>2026-03-28T11:38:37Z</time></trkpt><trkpt lat="45.82930719035088" lon="8.907771891452251"><ele>387.0</ele><time>2026-03-28T11:38:48Z</time></trkpt><trkpt lat="45.82918118831365" lon="8.907645003110487"><ele>387.0</ele><time>2026-03-28T11:38:54Z</time></trkpt><trkpt lat="45.82909965650027" lon="8.907641800058013"><ele>387.0</ele><time>2026-03-28T11:38:55Z</time></trkpt><trkpt lat="45.82902795364941" lon="8.90761756888643"><ele>387.0</ele><time>2026-03-28T11:38:56Z</time></trkpt><trkpt lat="45.828937387626446" lon="8.907593012353948"><ele>385.20000000000005</ele><time>2026-03-28T11:38:57Z</time></trkpt><trkpt lat="45.828832582880835" lon="8.907573427982237"><ele>383.4</ele><time>2026-03-28T11:38:58Z</time></trkpt><trkpt lat="45.82873347492534" lon="8.907547431849686"><ele>381.6</ele><time>2026-03-28T11:38:59Z</time></trkpt><trkpt lat="45.828622868778815" lon="8.907515448418085"><ele>379.79999999999995</ele><time>2026-03-28T11:39:00Z</time></trkpt><trkpt lat="45.82849878468309" lon="8.907482414074792"><ele>378.0</ele><time>2026-03-28T11:39:01Z</time></trkpt><trkpt lat="45.82837297666037" lon="8.907448291701078"><ele>376.5</ele><time>2026-03-28T11:39:02Z</time></trkpt><trkpt lat="45.828261295618574" lon="8.907419955210232"><ele>375.0</ele><time>2026-03-28T11:39:03Z</time></trkpt><trkpt lat="45.828151302407434" lon="8.907388002382598"><ele>373.5</ele><time>2026-03-28T11:39:04Z</time></trkpt><trkpt lat="45.82803358053288" lon="8.907353044779255"><ele>372.0</ele><time>2026-03-28T11:39:05Z</time></trkpt><trkpt lat="45.82790759404085" lon="8.907317803235909"><ele>372.0</ele><time>2026-03-28T11:39:06Z</time></trkpt><trkpt lat="45.82777979445905" lon="8.907282453903957"><ele>372.0</ele><time>2026-03-28T11:39:07Z</time></trkpt><trkpt lat="45.82765498256782" lon="8.907249635275045"><ele>372.0</ele><time>2026-03-28T11:39:08Z</time></trkpt><trkpt lat="45.82754592156929" lon="8.907223995994302"><ele>372.0</ele><time>2026-03-28T11:39:09Z</time></trkpt><trkpt lat="45.827439381947684" lon="8.907214604411186"><ele>371.25</ele><time>2026-03-28T11:39:10Z</time></trkpt><trkpt lat="45.82733116721328" lon="8.9072322127958"><ele>370.5</ele><time>2026-03-28T11:39:11Z</time></trkpt><trkpt lat="45.8272176394799" lon="8.907270224477701"><ele>369.75</ele><time>2026-03-28T11:39:12Z</time></trkpt><trkpt lat="45.82709967944575" lon="8.907332449494566"><ele>369.0</ele><time>2026-03-28T11:39:13Z</time></trkpt><trkpt lat="45.82698794107438" lon="8.907419488665349"><ele>369.0</ele><time>2026-03-28T11:39:14Z</time></trkpt><trkpt lat="45.826876314761094" lon="8.907540427862648"><ele>369.0</ele><time>2026-03-28T11:39:15Z</time></trkpt><trkpt lat="45.82678169246029" lon="8.90769055628353"><ele>369.0</ele><time>2026-03-28T11:39:16Z</time></trkpt><trkpt lat="45.82670328752195" lon="8.907873544678216"><ele>369.0</ele><time>2026-03-28T11:39:17Z</time></trkpt><trkpt lat="45.82663932926995" lon="8.908080475873229"><ele>368.3333333333333</ele><time>2026-03-28T11:39:18Z</time></trkpt><trkpt lat="45.826577131873066" lon="8.90830532279678"><ele>367.66666666666663</ele><time>2026-03-28T11:39:19Z</time></trkpt><trkpt lat="45.82650855172224" lon="8.908514388593062"><ele>367.0</ele><time>2026-03-28T11:39:20Z</time></trkpt><trkpt lat="45.826430821015315" lon="8.908690919566032"><ele>369.8</ele><time>2026-03-28T11:39:21Z</time></trkpt><trkpt lat="45.82634591843762" lon="8.908833884558748"><ele>372.6</ele><time>2026-03-28T11:39:22Z</time></trkpt><trkpt lat="45.82625289790156" lon="8.908951599700048"><ele>375.40000000000003</ele><time>2026-03-28T11:39:23Z</time></trkpt><trkpt lat="45.82616793008002" lon="8.90905098041193"><ele>378.20000000000005</ele><time>2026-03-28T11:39:24Z</time></trkpt><trkpt lat="45.826107920824136" lon="8.909132256079102"><ele>381.0</ele><time>2026-03-28T11:39:25Z</time></trkpt><trkpt lat="45.82605934382076" lon="8.909194557712725"><ele>379.1666666666667</ele><time>2026-03-28T11:39:26Z</time></trkpt><trkpt lat="45.82600734192515" lon="8.909259658173488"><ele>377.3333333333333</ele><time>2026-03-28T11:39:28Z</time></trkpt><trkpt lat="45.82592276930363" lon="8.909079268289338"><ele>375.5</ele><time>2026-03-28T11:39:34Z</time></trkpt><trkpt lat="45.82592206819334" lon="8.908974330475708"><ele>373.66666666666663</ele><time>2026-03-28T11:39:36Z</time></trkpt><trkpt lat="45.82591110671814" lon="8.908856953286431"><ele>371.8333333333333</ele><time>2026-03-28T11:39:40Z</time></trkpt><trkpt lat="45.825915801515535" lon="8.908757835742174"><ele>370.0</ele><time>2026-03-28T11:40:24Z</time></trkpt><trkpt lat="45.8259320960527" lon="8.908652608070216"><ele>369.99999999999994</ele><time>2026-03-28T11:40:30Z</time></trkpt><trkpt lat="45.82592852012274" lon="8.908546205327852"><ele>370.0</ele><time>2026-03-28T11:40:34Z</time></trkpt><trkpt lat="45.82594800632952" lon="8.908456660428529"><ele>370.0</ele><time>2026-03-28T11:40:37Z</time></trkpt><trkpt lat="45.82595702588348" lon="8.908366320065424"><ele>370.0</ele><time>2026-03-28T11:40:45Z</time></trkpt><trkpt lat="45.825955873492006" lon="8.908261674027537"><ele>370.0</ele><time>2026-03-28T11:40:50Z</time></trkpt><trkpt lat="45.82596101527034" lon="8.908161973706553"><ele>369.99999999999994</ele><time>2026-03-28T11:40:59Z</time></trkpt><trkpt lat="45.82596754267223" lon="8.908068307681976"><ele>370.0</ele><time>2026-03-28T11:41:01Z</time></trkpt><trkpt lat="45.825950936232445" lon="8.907951694459843"><ele>372.8333333333333</ele><time>2026-03-28T11:41:03Z</time></trkpt><trkpt lat="45.82595997207168" lon="8.907839058789758"><ele>375.66666666666663</ele><time>2026-03-28T11:41:05Z</time></trkpt><trkpt lat="45.825959077095824" lon="8.907687953929322"><ele>378.5</ele><time>2026-03-28T11:41:08Z</time></trkpt><trkpt lat="45.82593512232319" lon="8.907603737877775"><ele>381.3333333333333</ele><time>2026-03-28T11:41:18Z</time></trkpt><trkpt lat="45.825929131097915" lon="8.907460168012456"><ele>384.1666666666667</ele><time>2026-03-28T11:41:21Z</time></trkpt><trkpt lat="45.82591266654593" lon="8.907337045527084"><ele>387.0</ele><time>2026-03-28T11:41:24Z</time></trkpt><trkpt lat="45.8258966204897" lon="8.907243096221096"><ele>388.5</ele><time>2026-03-28T11:41:26Z</time></trkpt><trkpt lat="45.82588620686125" lon="8.907088994284988"><ele>390.0</ele><time>2026-03-28T11:41:30Z</time></trkpt><trkpt lat="45.8258823370432" lon="8.906997037880618"><ele>391.5</ele><time>2026-03-28T11:41:32Z</time></trkpt><trkpt lat="45.82587686492214" lon="8.906864953850594"><ele>393.0</ele><time>2026-03-28T11:41:34Z</time></trkpt><trkpt lat="45.825862122840334" lon="8.906776563480395"><ele>394.5</ele><time>2026-03-28T11:41:35Z</time></trkpt><trkpt lat="45.825828070474536" lon="8.90665007920641"><ele>396.0</ele><time>2026-03-28T11:41:37Z</time></trkpt><trkpt lat="45.825809019710775" lon="8.906556993438429"><ele>396.4</ele><time>2026-03-28T11:41:39Z</time></trkpt><trkpt lat="45.825782928958745" lon="8.906463534476186"><ele>396.8</ele><time>2026-03-28T11:41:41Z</time></trkpt><trkpt lat="45.82576580344222" lon="8.906297716954004"><ele>397.2</ele><time>2026-03-28T11:41:43Z</time></trkpt><trkpt lat="45.82574011581746" lon="8.906165039923435"><ele>397.59999999999997</ele><time>2026-03-28T11:41:46Z</time></trkpt><trkpt lat="45.82573257692004" lon="8.906032520151774"><ele>398.0</ele><time>2026-03-28T11:41:48Z</time></trkpt><trkpt lat="45.82574457489825" lon="8.905913692545985"><ele>399.16666666666663</ele><time>2026-03-28T11:41:54Z</time></trkpt><trkpt lat="45.825752808297516" lon="8.905808048934606"><ele>400.3333333333333</ele><time>2026-03-28T11:41:56Z</time></trkpt><trkpt lat="45.825744820964054" lon="8.90569883757767"><ele>401.5</ele><time>2026-03-28T11:41:58Z</time></trkpt><trkpt lat="45.82573214519063" lon="8.905607418368083"><ele>402.66666666666663</ele><time>2026-03-28T11:42:00Z</time></trkpt><trkpt lat="45.825682060764365" lon="8.905487502428826"><ele>403.8333333333333</ele><time>2026-03-28T11:42:03Z</time></trkpt><trkpt lat="45.82562713246118" lon="8.905428313809264"><ele>405.0</ele><time>2026-03-28T11:42:07Z</time></trkpt><trkpt lat="45.825572825493175" lon="8.90533283655868"><ele>405.0</ele><time>2026-03-28T11:42:10Z</time></trkpt><trkpt lat="45.82550929009004" lon="8.90518315707882"><ele>405.0</ele><time>2026-03-28T11:42:12Z</time></trkpt><trkpt lat="45.82544673192418" lon="8.905105777016843"><ele>405.0</ele><time>2026-03-28T11:42:14Z</time></trkpt><trkpt lat="45.825400037521504" lon="8.905035132993204"><ele>405.0</ele><time>2026-03-28T11:42:16Z</time></trkpt><trkpt lat="45.82535824459802" lon="8.904916510942089"><ele>405.0</ele><time>2026-03-28T11:42:19Z</time></trkpt><trkpt lat="45.82532671587452" lon="8.904833702404492"><ele>405.0</ele><time>2026-03-28T11:42:21Z</time></trkpt><trkpt lat="45.82528020165717" lon="8.904713801144226"><ele>406.0</ele><time>2026-03-28T11:42:28Z</time></trkpt><trkpt lat="45.825251902775435" lon="8.904628859264898"><ele>407.0</ele><time>2026-03-28T11:42:29Z</time></trkpt><trkpt lat="45.82534087542525" lon="8.904527050270653"><ele>408.0</ele><time>2026-03-28T11:42:33Z</time></trkpt><trkpt lat="45.825425761195696" lon="8.904506573140328"><ele>409.0</ele><time>2026-03-28T11:42:35Z</time></trkpt><trkpt lat="45.825498781165116" lon="8.904506285893445"><ele>410.0</ele><time>2026-03-28T11:42:40Z</time></trkpt><trkpt lat="45.825563657663395" lon="8.904464835247694"><ele>411.0</ele><time>2026-03-28T11:42:53Z</time></trkpt><trkpt lat="45.825586504214264" lon="8.904355864552974"><ele>411.0</ele><time>2026-03-28T11:42:55Z</time></trkpt><trkpt lat="45.825578482169355" lon="8.90426325099338"><ele>411.0</ele><time>2026-03-28T11:42:56Z</time></trkpt><trkpt lat="45.8255399507666" lon="8.904088219661656"><ele>411.0</ele><time>2026-03-28T11:42:58Z</time></trkpt><trkpt lat="45.825507091586964" lon="8.903990538574053"><ele>411.0</ele><time>2026-03-28T11:42:59Z</time></trkpt><trkpt lat="45.82546324897567" lon="8.903894576115539"><ele>411.0</ele><time>2026-03-28T11:43:00Z</time></trkpt><trkpt lat="45.825413216306096" lon="8.90379861224558"><ele>411.0</ele><time>2026-03-28T11:43:01Z</time></trkpt><trkpt lat="45.82537056487186" lon="8.903725573848384"><ele>411.8333333333333</ele><time>2026-03-28T11:43:02Z</time></trkpt><trkpt lat="45.82529874994454" lon="8.903592279752624"><ele>412.66666666666663</ele><time>2026-03-28T11:43:04Z</time></trkpt><trkpt lat="45.82525880041896" lon="8.903509305438144"><ele>413.5</ele><time>2026-03-28T11:43:05Z</time></trkpt><trkpt lat="45.82521706340656" lon="8.903421187835034"><ele>414.3333333333333</ele><time>2026-03-28T11:43:06Z</time></trkpt><trkpt lat="45.82517422666221" lon="8.903334079707722"><ele>415.16666666666663</ele><time>2026-03-28T11:43:07Z</time></trkpt><trkpt lat="45.82513179896423" lon="8.903245503655654"><ele>416.0</ele><time>2026-03-28T11:43:08Z</time></trkpt><trkpt lat="45.82509001328032" lon="8.903154318639583"><ele>416.3333333333333</ele><time>2026-03-28T11:43:09Z</time></trkpt><trkpt lat="45.8250377842408" lon="8.903053574468215"><ele>416.66666666666663</ele><time>2026-03-28T11:43:10Z</time></trkpt><trkpt lat="45.82498241136863" lon="8.902944697560745"><ele>417.0</ele><time>2026-03-28T11:43:11Z</time></trkpt><trkpt lat="45.82493717179237" lon="8.90284811646289"><ele>417.33333333333337</ele><time>2026-03-28T11:43:12Z</time></trkpt><trkpt lat="45.824893696667665" lon="8.902769075152065"><ele>417.6666666666667</ele><time>2026-03-28T11:43:13Z</time></trkpt><trkpt lat="45.82484947643664" lon="8.902684252138855"><ele>418.0</ele><time>2026-03-28T11:43:14Z</time></trkpt><trkpt lat="45.82480287952882" lon="8.902590088370065"><ele>418.50000000000006</ele><time>2026-03-28T11:43:15Z</time></trkpt><trkpt lat="45.82475758264807" lon="8.902498965955356"><ele>419.0</ele><time>2026-03-28T11:43:16Z</time></trkpt><trkpt lat="45.8247145198859" lon="8.90240579822462"><ele>419.5</ele><time>2026-03-28T11:43:17Z</time></trkpt><trkpt lat="45.824677899210336" lon="8.902313350632548"><ele>420.0</ele><time>2026-03-28T11:43:18Z</time></trkpt><trkpt lat="45.82463121147716" lon="8.902171297515594"><ele>420.50000000000006</ele><time>2026-03-28T11:43:20Z</time></trkpt><trkpt lat="45.824580633809624" lon="8.90203323998582"><ele>421.0</ele><time>2026-03-28T11:43:22Z</time></trkpt><trkpt lat="45.82451117146308" lon="8.901905133586563"><ele>421.0</ele><time>2026-03-28T11:43:24Z</time></trkpt><trkpt lat="45.824460366955634" lon="8.901833553930704"><ele>421.0</ele><time>2026-03-28T11:43:25Z</time></trkpt><trkpt lat="45.82440673784357" lon="8.901756621987108"><ele>421.0</ele><time>2026-03-28T11:43:26Z</time></trkpt><trkpt lat="45.82435854699803" lon="8.901622666759588"><ele>421.0</ele><time>2026-03-28T11:43:28Z</time></trkpt><trkpt lat="45.82443926324477" lon="8.901453533445201"><ele>421.0</ele><time>2026-03-28T11:43:31Z</time></trkpt><trkpt lat="45.82449407076569" lon="8.901404410703291"><ele>421.33333333333337</ele><time>2026-03-28T11:43:32Z</time></trkpt><trkpt lat="45.82454819046791" lon="8.901341956057125"><ele>421.6666666666667</ele><time>2026-03-28T11:43:33Z</time></trkpt><trkpt lat="45.8246336763824" lon="8.901233797063258"><ele>422.0</ele><time>2026-03-28T11:43:35Z</time></trkpt><trkpt lat="45.82467455056859" lon="8.901162055306795"><ele>422.33333333333337</ele><time>2026-03-28T11:43:36Z</time></trkpt><trkpt lat="45.824715218105545" lon="8.901066574247386"><ele>422.6666666666667</ele><time>2026-03-28T11:43:37Z</time></trkpt><trkpt lat="45.824747718059264" lon="8.90097410580486"><ele>423.0</ele><time>2026-03-28T11:43:38Z</time></trkpt><trkpt lat="45.824770900357045" lon="8.900882317021846"><ele>423.0</ele><time>2026-03-28T11:43:39Z</time></trkpt><trkpt lat="45.82479504584311" lon="8.900782245357163"><ele>423.0</ele><time>2026-03-28T11:43:40Z</time></trkpt><trkpt lat="45.824815841834514" lon="8.900660460091443"><ele>423.0</ele><time>2026-03-28T11:43:41Z</time></trkpt><trkpt lat="45.82484032537815" lon="8.90053235752891"><ele>423.0</ele><time>2026-03-28T11:43:42Z</time></trkpt><trkpt lat="45.824863749870026" lon="8.90040017392191"><ele>423.0</ele><time>2026-03-28T11:43:43Z</time></trkpt><trkpt lat="45.82489090427184" lon="8.900259028177153"><ele>423.0</ele><time>2026-03-28T11:43:44Z</time></trkpt><trkpt lat="45.82491618860403" lon="8.90011408215272"><ele>423.0</ele><time>2026-03-28T11:43:45Z</time></trkpt><trkpt lat="45.824941231102706" lon="8.8999631452429"><ele>423.0</ele><time>2026-03-28T11:43:46Z</time></trkpt><trkpt lat="45.824961273030084" lon="8.899846194722668"><ele>423.0</ele><time>2026-03-28T11:43:47Z</time></trkpt><trkpt lat="45.82497918845386" lon="8.899740613596828"><ele>423.0</ele><time>2026-03-28T11:43:48Z</time></trkpt><trkpt lat="45.825000408979776" lon="8.899623665592268"><ele>422.59999999999997</ele><time>2026-03-28T11:43:49Z</time></trkpt><trkpt lat="45.82502255338582" lon="8.899492876221206"><ele>422.2</ele><time>2026-03-28T11:43:50Z</time></trkpt><trkpt lat="45.82504421753048" lon="8.899341354102637"><ele>421.8</ele><time>2026-03-28T11:43:51Z</time></trkpt><trkpt lat="45.825076664007824" lon="8.899177882079632"><ele>421.4</ele><time>2026-03-28T11:43:52Z</time></trkpt><trkpt lat="45.825110881304106" lon="8.899022625701011"><ele>421.0</ele><time>2026-03-28T11:43:53Z</time></trkpt><trkpt lat="45.8251377726211" lon="8.898915069377782"><ele>421.20000000000005</ele><time>2026-03-28T11:43:54Z</time></trkpt><trkpt lat="45.82516575446069" lon="8.898817632357948"><ele>421.40000000000003</ele><time>2026-03-28T11:43:56Z</time></trkpt><trkpt lat="45.82519192036365" lon="8.898698524612719"><ele>421.6</ele><time>2026-03-28T11:43:58Z</time></trkpt><trkpt lat="45.82523060675674" lon="8.898496540224937"><ele>421.8</ele><time>2026-03-28T11:44:00Z</time></trkpt><trkpt lat="45.82527007697069" lon="8.898357746330147"><ele>422.0</ele><time>2026-03-28T11:44:01Z</time></trkpt><trkpt lat="45.82531385810662" lon="8.898230663269667"><ele>421.99999999999994</ele><time>2026-03-28T11:44:02Z</time></trkpt><trkpt lat="45.825351944200115" lon="8.898116400946424"><ele>422.0</ele><time>2026-03-28T11:44:03Z</time></trkpt><trkpt lat="45.825383475770245" lon="8.898016629789735"><ele>422.0</ele><time>2026-03-28T11:44:04Z</time></trkpt><trkpt lat="45.82541684352534" lon="8.89792268841138"><ele>422.0</ele><time>2026-03-28T11:44:05Z</time></trkpt><trkpt lat="45.825459823795256" lon="8.897831542672149"><ele>421.99999999999994</ele><time>2026-03-28T11:44:06Z</time></trkpt><trkpt lat="45.825513306586956" lon="8.89772502992553"><ele>422.0</ele><time>2026-03-28T11:44:07Z</time></trkpt><trkpt lat="45.82556880133115" lon="8.897615544005292"><ele>421.0</ele><time>2026-03-28T11:44:08Z</time></trkpt><trkpt lat="45.82562153385208" lon="8.897498147586186"><ele>420.0</ele><time>2026-03-28T11:44:09Z</time></trkpt><trkpt lat="45.82566851168302" lon="8.89737987456111"><ele>419.0</ele><time>2026-03-28T11:44:10Z</time></trkpt><trkpt lat="45.825716992441315" lon="8.897255537741568"><ele>418.0</ele><time>2026-03-28T11:44:11Z</time></trkpt><trkpt lat="45.82576174994263" lon="8.897130980175314"><ele>417.0</ele><time>2026-03-28T11:44:12Z</time></trkpt><trkpt lat="45.825808035039515" lon="8.897006933007008"><ele>417.0</ele><time>2026-03-28T11:44:13Z</time></trkpt><trkpt lat="45.825851926205104" lon="8.89688297375022"><ele>417.0</ele><time>2026-03-28T11:44:14Z</time></trkpt><trkpt lat="45.825893767067804" lon="8.896763389326699"><ele>417.0</ele><time>2026-03-28T11:44:15Z</time></trkpt><trkpt lat="45.825934156014085" lon="8.896647918800213"><ele>417.0</ele><time>2026-03-28T11:44:16Z</time></trkpt><trkpt lat="45.825972055272054" lon="8.896534825525528"><ele>417.0</ele><time>2026-03-28T11:44:17Z</time></trkpt><trkpt lat="45.826009167386644" lon="8.896430261442744"><ele>417.0</ele><time>2026-03-28T11:44:18Z</time></trkpt><trkpt lat="45.82605978537404" lon="8.896293572528968"><ele>416.20000000000005</ele><time>2026-03-28T11:44:20Z</time></trkpt><trkpt lat="45.82609575627986" lon="8.896180237593383"><ele>415.4</ele><time>2026-03-28T11:44:23Z</time></trkpt><trkpt lat="45.826146460966505" lon="8.896094102959454"><ele>414.6</ele><time>2026-03-28T11:44:26Z</time></trkpt><trkpt lat="45.82627184824794" lon="8.896002088109798"><ele>413.79999999999995</ele><time>2026-03-28T11:44:28Z</time></trkpt><trkpt lat="45.8263575023123" lon="8.895954182958157"><ele>413.0</ele><time>2026-03-28T11:44:29Z</time></trkpt><trkpt lat="45.826438695352515" lon="8.895912697898934"><ele>411.99999999999994</ele><time>2026-03-28T11:44:30Z</time></trkpt><trkpt lat="45.82651250186963" lon="8.895874859343065"><ele>411.0</ele><time>2026-03-28T11:44:31Z</time></trkpt><trkpt lat="45.826584637170974" lon="8.895837422612376"><ele>410.0</ele><time>2026-03-28T11:44:32Z</time></trkpt><trkpt lat="45.82665518808555" lon="8.89581640296995"><ele>409.0</ele><time>2026-03-28T11:44:33Z</time></trkpt><trkpt lat="45.826725547484365" lon="8.89575754647226"><ele>407.99999999999994</ele><time>2026-03-28T11:44:34Z</time></trkpt><trkpt lat="45.82680111806922" lon="8.895673080517764"><ele>407.0</ele><time>2026-03-28T11:44:35Z</time></trkpt><trkpt lat="45.826871656633365" lon="8.895568302605023"><ele>406.8</ele><time>2026-03-28T11:44:36Z</time></trkpt><trkpt lat="45.82694035465435" lon="8.895439357457228"><ele>406.6</ele><time>2026-03-28T11:44:37Z</time></trkpt><trkpt lat="45.82699374259751" lon="8.895316302936553"><ele>406.40000000000003</ele><time>2026-03-28T11:44:38Z</time></trkpt><trkpt lat="45.82704206136671" lon="8.895200580977079"><ele>406.20000000000005</ele><time>2026-03-28T11:44:39Z</time></trkpt><trkpt lat="45.82707322844963" lon="8.89508170630507"><ele>406.0</ele><time>2026-03-28T11:44:40Z</time></trkpt><trkpt lat="45.827116157654885" lon="8.894971134963788"><ele>405.0</ele><time>2026-03-28T11:44:41Z</time></trkpt><trkpt lat="45.82717300653008" lon="8.894864648317265"><ele>404.0</ele><time>2026-03-28T11:44:42Z</time></trkpt><trkpt lat="45.827206269345695" lon="8.894733646294663"><ele>403.0</ele><time>2026-03-28T11:44:43Z</time></trkpt><trkpt lat="45.82725286427942" lon="8.894610184493626"><ele>402.0</ele><time>2026-03-28T11:44:44Z</time></trkpt><trkpt lat="45.827303552453294" lon="8.894482143105705"><ele>401.0</ele><time>2026-03-28T11:44:45Z</time></trkpt><trkpt lat="45.82735214787629" lon="8.894359063444456"><ele>400.99999999999994</ele><time>2026-03-28T11:44:46Z</time></trkpt><trkpt lat="45.827414127776386" lon="8.894268400881964"><ele>401.0</ele><time>2026-03-28T11:44:47Z</time></trkpt><trkpt lat="45.82745787736265" lon="8.894183492358227"><ele>401.0</ele><time>2026-03-28T11:44:48Z</time></trkpt><trkpt lat="45.82748992800558" lon="8.894098695715334"><ele>401.0</ele><time>2026-03-28T11:44:49Z</time></trkpt><trkpt lat="45.82753744472229" lon="8.89401866100265"><ele>400.99999999999994</ele><time>2026-03-28T11:44:50Z</time></trkpt><trkpt lat="45.827599916213615" lon="8.893931166328095"><ele>401.0</ele><time>2026-03-28T11:44:51Z</time></trkpt><trkpt lat="45.82766844977226" lon="8.893827159211119"><ele>401.4</ele><time>2026-03-28T11:44:52Z</time></trkpt><trkpt lat="45.827735845157314" lon="8.89371063115375"><ele>401.8</ele><time>2026-03-28T11:44:53Z</time></trkpt><trkpt lat="45.8278053023638" lon="8.893583184818912"><ele>402.2</ele><time>2026-03-28T11:44:54Z</time></trkpt><trkpt lat="45.8278602290007" lon="8.893462973328337"><ele>402.59999999999997</ele><time>2026-03-28T11:44:55Z</time></trkpt><trkpt lat="45.827910860736644" lon="8.893344229822096"><ele>403.0</ele><time>2026-03-28T11:44:56Z</time></trkpt><trkpt lat="45.82794483052103" lon="8.893237028634925"><ele>403.6666666666667</ele><time>2026-03-28T11:44:57Z</time></trkpt><trkpt lat="45.827968917604885" lon="8.893130135829672"><ele>404.33333333333337</ele><time>2026-03-28T11:44:58Z</time></trkpt><trkpt lat="45.827995116460286" lon="8.893010839409726"><ele>405.0</ele><time>2026-03-28T11:44:59Z</time></trkpt><trkpt lat="45.82803691145205" lon="8.892904937316546"><ele>405.66666666666663</ele><time>2026-03-28T11:45:00Z</time></trkpt><trkpt lat="45.8280661442038" lon="8.892796716299664"><ele>406.3333333333333</ele><time>2026-03-28T11:45:02Z</time></trkpt><trkpt lat="45.82811457539558" lon="8.89268247751944"><ele>407.0</ele><time>2026-03-28T11:45:04Z</time></trkpt><trkpt lat="45.82817480378391" lon="8.892613358281016"><ele>407.0</ele><time>2026-03-28T11:45:05Z</time></trkpt><trkpt lat="45.828276383032154" lon="8.892595701127073"><ele>407.0</ele><time>2026-03-28T11:45:06Z</time></trkpt><trkpt lat="45.82837124467328" lon="8.892552249410372"><ele>407.0</ele><time>2026-03-28T11:45:07Z</time></trkpt><trkpt lat="45.828520386393606" lon="8.892541276325947"><ele>407.0</ele><time>2026-03-28T11:45:09Z</time></trkpt><trkpt lat="45.82859910077392" lon="8.892529253806721"><ele>407.0</ele><time>2026-03-28T11:45:10Z</time></trkpt><trkpt lat="45.8286966458479" lon="8.892566849698474"><ele>407.49999999999994</ele><time>2026-03-28T11:45:12Z</time></trkpt><trkpt lat="45.8287992391879" lon="8.892607749344085"><ele>408.0</ele><time>2026-03-28T11:45:14Z</time></trkpt><trkpt lat="45.828869459426954" lon="8.892626722277441"><ele>408.5</ele><time>2026-03-28T11:45:15Z</time></trkpt><trkpt lat="45.82894042205197" lon="8.892672251364992"><ele>409.0</ele><time>2026-03-28T11:45:16Z</time></trkpt><trkpt lat="45.829013343388105" lon="8.892711445253902"><ele>409.49999999999994</ele><time>2026-03-28T11:45:17Z</time></trkpt><trkpt lat="45.829083069414345" lon="8.892744408601038"><ele>410.0</ele><time>2026-03-28T11:45:18Z</time></trkpt><trkpt lat="45.82914903366056" lon="8.892772984445308"><ele>410.0</ele><time>2026-03-28T11:45:19Z</time></trkpt><trkpt lat="45.82926575136758" lon="8.892819643598829"><ele>410.0</ele><time>2026-03-28T11:45:21Z</time></trkpt><trkpt lat="45.82936470761361" lon="8.892876756405299"><ele>410.0</ele><time>2026-03-28T11:45:23Z</time></trkpt><trkpt lat="45.82949418345814" lon="8.892922152795178"><ele>410.0</ele><time>2026-03-28T11:45:25Z</time></trkpt><trkpt lat="45.82956948488169" lon="8.89291975098957"><ele>410.0</ele><time>2026-03-28T11:45:26Z</time></trkpt><trkpt lat="45.82963468277669" lon="8.892908296444388"><ele>410.0</ele><time>2026-03-28T11:45:27Z</time></trkpt><trkpt lat="45.829758025200924" lon="8.892910014070054"><ele>410.0</ele><time>2026-03-28T11:45:29Z</time></trkpt><trkpt lat="45.8298647517428" lon="8.892900821667489"><ele>410.0</ele><time>2026-03-28T11:45:31Z</time></trkpt><trkpt lat="45.8299724872572" lon="8.892907454989574"><ele>410.0</ele><time>2026-03-28T11:45:33Z</time></trkpt><trkpt lat="45.83008736403089" lon="8.892901513039982"><ele>409.8333333333333</ele><time>2026-03-28T11:45:35Z</time></trkpt><trkpt lat="45.83018628007215" lon="8.892878850343399"><ele>409.66666666666663</ele><time>2026-03-28T11:45:37Z</time></trkpt><trkpt lat="45.83027774456024" lon="8.892852127239848"><ele>409.5</ele><time>2026-03-28T11:45:39Z</time></trkpt><trkpt lat="45.830359773357536" lon="8.892829651817047"><ele>409.33333333333337</ele><time>2026-03-28T11:45:41Z</time></trkpt><trkpt lat="45.830440708143755" lon="8.892812415685704"><ele>409.1666666666667</ele><time>2026-03-28T11:45:43Z</time></trkpt><trkpt lat="45.83051423600365" lon="8.892779564642654"><ele>409.0</ele><time>2026-03-28T11:45:45Z</time></trkpt><trkpt lat="45.83060885586598" lon="8.892731828845077"><ele>409.0</ele><time>2026-03-28T11:45:47Z</time></trkpt><trkpt lat="45.83069978187175" lon="8.892718073584197"><ele>409.0</ele><time>2026-03-28T11:45:49Z</time></trkpt><trkpt lat="45.830785786760806" lon="8.892655611335053"><ele>409.0</ele><time>2026-03-28T11:45:51Z</time></trkpt><trkpt lat="45.83086945003825" lon="8.89263868376497"><ele>409.0</ele><time>2026-03-28T11:45:53Z</time></trkpt><trkpt lat="45.83095683456653" lon="8.892577275214828"><ele>409.0</ele><time>2026-03-28T11:45:55Z</time></trkpt><trkpt lat="45.83104160024526" lon="8.89253266680981"><ele>408.0</ele><time>2026-03-28T11:45:57Z</time></trkpt><trkpt lat="45.8311524404215" lon="8.892475340924877"><ele>407.0</ele><time>2026-03-28T11:45:59Z</time></trkpt><trkpt lat="45.831248033618735" lon="8.89240298883925"><ele>406.0</ele><time>2026-03-28T11:46:01Z</time></trkpt><trkpt lat="45.831335624622454" lon="8.89234018701451"><ele>405.0</ele><time>2026-03-28T11:46:03Z</time></trkpt><trkpt lat="45.831385936635314" lon="8.892285663094507"><ele>404.0</ele><time>2026-03-28T11:46:23Z</time></trkpt><trkpt lat="45.83148154535867" lon="8.892174579706353"><ele>403.99999999999994</ele><time>2026-03-28T11:46:25Z</time></trkpt><trkpt lat="45.83154224044473" lon="8.892140864895788"><ele>404.0</ele><time>2026-03-28T11:46:26Z</time></trkpt><trkpt lat="45.831604103868614" lon="8.89207264936098"><ele>404.0</ele><time>2026-03-28T11:46:27Z</time></trkpt><trkpt lat="45.83165332999031" lon="8.89198724022223"><ele>404.0</ele><time>2026-03-28T11:46:28Z</time></trkpt><trkpt lat="45.831721676659" lon="8.891923371166353"><ele>403.99999999999994</ele><time>2026-03-28T11:46:29Z</time></trkpt><trkpt lat="45.83179118501944" lon="8.891843963810866"><ele>404.0</ele><time>2026-03-28T11:46:30Z</time></trkpt><trkpt lat="45.83185481587619" lon="8.8917677453173"><ele>403.7142857142857</ele><time>2026-03-28T11:46:31Z</time></trkpt><trkpt lat="45.83190857010544" lon="8.891718062467254"><ele>403.42857142857144</ele><time>2026-03-28T11:46:32Z</time></trkpt><trkpt lat="45.83196330473576" lon="8.891660435087712"><ele>403.1428571428571</ele><time>2026-03-28T11:46:33Z</time></trkpt><trkpt lat="45.832016169383024" lon="8.891606080914189"><ele>402.8571428571429</ele><time>2026-03-28T11:46:34Z</time></trkpt><trkpt lat="45.83207143581879" lon="8.891552437091166"><ele>402.5714285714286</ele><time>2026-03-28T11:46:35Z</time></trkpt><trkpt lat="45.83212716832577" lon="8.891501556334381"><ele>402.2857142857143</ele><time>2026-03-28T11:46:36Z</time></trkpt><trkpt lat="45.832179193415854" lon="8.8914476377869"><ele>402.0</ele><time>2026-03-28T11:46:37Z</time></trkpt><trkpt lat="45.83223720841139" lon="8.891394003685251"><ele>402.0</ele><time>2026-03-28T11:46:38Z</time></trkpt><trkpt lat="45.83229602183581" lon="8.891347930339277"><ele>402.0</ele><time>2026-03-28T11:46:39Z</time></trkpt><trkpt lat="45.83235581915772" lon="8.891300633867555"><ele>402.0</ele><time>2026-03-28T11:46:40Z</time></trkpt><trkpt lat="45.832414408556524" lon="8.89124390749867"><ele>402.0</ele><time>2026-03-28T11:46:41Z</time></trkpt><trkpt lat="45.83247138672761" lon="8.891189627032672"><ele>402.0</ele><time>2026-03-28T11:46:42Z</time></trkpt><trkpt lat="45.83252745880941" lon="8.891128789843716"><ele>402.0</ele><time>2026-03-28T11:46:43Z</time></trkpt><trkpt lat="45.8325848466213" lon="8.891072422564964"><ele>402.0</ele><time>2026-03-28T11:46:44Z</time></trkpt><trkpt lat="45.832637700110254" lon="8.891015975409994"><ele>403.4285714285714</ele><time>2026-03-28T11:46:45Z</time></trkpt><trkpt lat="45.83269305015863" lon="8.89095759219323"><ele>404.8571428571429</ele><time>2026-03-28T11:46:46Z</time></trkpt><trkpt lat="45.83274868199771" lon="8.890903277791034"><ele>406.2857142857143</ele><time>2026-03-28T11:46:47Z</time></trkpt><trkpt lat="45.83280479055629" lon="8.890857323749492"><ele>407.71428571428567</ele><time>2026-03-28T11:46:48Z</time></trkpt><trkpt lat="45.832863790628736" lon="8.890813990476609"><ele>409.1428571428571</ele><time>2026-03-28T11:46:49Z</time></trkpt><trkpt lat="45.832925600928796" lon="8.890764745575389"><ele>410.57142857142856</ele><time>2026-03-28T11:46:50Z</time></trkpt><trkpt lat="45.83297962557407" lon="8.890702049279438"><ele>412.0</ele><time>2026-03-28T11:46:51Z</time></trkpt><trkpt lat="45.83306904785314" lon="8.890600467248776"><ele>412.00000000000006</ele><time>2026-03-28T11:46:53Z</time></trkpt><trkpt lat="45.833108572182304" lon="8.89051564666349"><ele>412.0</ele><time>2026-03-28T11:46:54Z</time></trkpt><trkpt lat="45.833181467403584" lon="8.890468467921659"><ele>412.0</ele><time>2026-03-28T11:46:55Z</time></trkpt><trkpt lat="45.833249385496444" lon="8.89039776935795"><ele>412.0</ele><time>2026-03-28T11:46:56Z</time></trkpt><trkpt lat="45.833301757445845" lon="8.890343480179842"><ele>412.00000000000006</ele><time>2026-03-28T11:46:57Z</time></trkpt><trkpt lat="45.83338598128531" lon="8.890243833825311"><ele>412.0</ele><time>2026-03-28T11:46:59Z</time></trkpt><trkpt lat="45.83344797367084" lon="8.890177508636752"><ele>412.0</ele><time>2026-03-28T11:47:00Z</time></trkpt><trkpt lat="45.8335123562694" lon="8.890125404740303"><ele>412.0</ele><time>2026-03-28T11:47:01Z</time></trkpt><trkpt lat="45.833607412537354" lon="8.890052107176563"><ele>412.0</ele><time>2026-03-28T11:47:03Z</time></trkpt><trkpt lat="45.83370935878296" lon="8.88998047651468"><ele>412.0</ele><time>2026-03-28T11:47:05Z</time></trkpt><trkpt lat="45.83381587489479" lon="8.889902780733644"><ele>412.0</ele><time>2026-03-28T11:47:07Z</time></trkpt><trkpt lat="45.83391752648758" lon="8.889835073546726"><ele>412.0</ele><time>2026-03-28T11:47:09Z</time></trkpt><trkpt lat="45.83397616433627" lon="8.889790357083646"><ele>412.0</ele><time>2026-03-28T11:47:10Z</time></trkpt><trkpt lat="45.834038120720614" lon="8.889744477715885"><ele>412.0</ele><time>2026-03-28T11:47:11Z</time></trkpt><trkpt lat="45.83412532949161" lon="8.889683027757698"><ele>412.0</ele><time>2026-03-28T11:47:13Z</time></trkpt><trkpt lat="45.8342371982382" lon="8.889612946817719"><ele>412.0</ele><time>2026-03-28T11:47:15Z</time></trkpt><trkpt lat="45.83433415260251" lon="8.889575942105608"><ele>412.40000000000003</ele><time>2026-03-28T11:47:17Z</time></trkpt><trkpt lat="45.83444378785178" lon="8.889572015616492"><ele>412.8</ele><time>2026-03-28T11:47:19Z</time></trkpt><trkpt lat="45.83458402325196" lon="8.889558634853255"><ele>413.2</ele><time>2026-03-28T11:47:21Z</time></trkpt><trkpt lat="45.834655462044616" lon="8.889554684987464"><ele>413.6</ele><time>2026-03-28T11:47:22Z</time></trkpt><trkpt lat="45.834764526804484" lon="8.889499118582581"><ele>414.0</ele><time>2026-03-28T11:47:24Z</time></trkpt><trkpt lat="45.83482074839684" lon="8.889454998020394"><ele>414.0</ele><time>2026-03-28T11:47:25Z</time></trkpt><trkpt lat="45.83487237125964" lon="8.889401684879893"><ele>414.0</ele><time>2026-03-28T11:47:26Z</time></trkpt><trkpt lat="45.83496899938104" lon="8.889279999697766"><ele>414.0</ele><time>2026-03-28T11:47:28Z</time></trkpt><trkpt lat="45.83501700421986" lon="8.889212970158924"><ele>414.0</ele><time>2026-03-28T11:47:29Z</time></trkpt><trkpt lat="45.83506114785907" lon="8.889130064028619"><ele>414.0</ele><time>2026-03-28T11:47:30Z</time></trkpt><trkpt lat="45.83510018059123" lon="8.889041915215742"><ele>414.0</ele><time>2026-03-28T11:47:31Z</time></trkpt><trkpt lat="45.83513560198351" lon="8.888959259442752"><ele>412.6666666666667</ele><time>2026-03-28T11:47:32Z</time></trkpt><trkpt lat="45.835165599323815" lon="8.888863919416266"><ele>411.33333333333337</ele><time>2026-03-28T11:47:33Z</time></trkpt><trkpt lat="45.83519970474395" lon="8.888776028907225"><ele>410.0</ele><time>2026-03-28T11:47:34Z</time></trkpt><trkpt lat="45.83523491447669" lon="8.888680865470587"><ele>408.6666666666667</ele><time>2026-03-28T11:47:35Z</time></trkpt><trkpt lat="45.83527234387724" lon="8.888591897612256"><ele>407.33333333333337</ele><time>2026-03-28T11:47:36Z</time></trkpt><trkpt lat="45.83532557119787" lon="8.888441192810362"><ele>406.0</ele><time>2026-03-28T11:47:38Z</time></trkpt><trkpt lat="45.83537409692133" lon="8.888382954780946"><ele>404.8</ele><time>2026-03-28T11:47:39Z</time></trkpt><trkpt lat="45.83545772814979" lon="8.888293726878837"><ele>403.6</ele><time>2026-03-28T11:47:41Z</time></trkpt><trkpt lat="45.83556282202348" lon="8.888212986493421"><ele>402.4</ele><time>2026-03-28T11:47:43Z</time></trkpt><trkpt lat="45.8356648736263" lon="8.888111600168457"><ele>401.2</ele><time>2026-03-28T11:47:45Z</time></trkpt><trkpt lat="45.835719723939846" lon="8.888062742881457"><ele>400.0</ele><time>2026-03-28T11:47:46Z</time></trkpt><trkpt lat="45.83578128123581" lon="8.888019162227529"><ele>400.00000000000006</ele><time>2026-03-28T11:47:47Z</time></trkpt><trkpt lat="45.83584623410144" lon="8.887961587885991"><ele>400.0</ele><time>2026-03-28T11:47:48Z</time></trkpt><trkpt lat="45.835915091546156" lon="8.887906009836168"><ele>400.0</ele><time>2026-03-28T11:47:49Z</time></trkpt><trkpt lat="45.83598067973234" lon="8.887842012068834"><ele>400.0</ele><time>2026-03-28T11:47:50Z</time></trkpt><trkpt lat="45.83604807686827" lon="8.887769659669473"><ele>400.00000000000006</ele><time>2026-03-28T11:47:51Z</time></trkpt><trkpt lat="45.836109630379816" lon="8.887701586508646"><ele>400.0</ele><time>2026-03-28T11:47:52Z</time></trkpt><trkpt lat="45.83616592428306" lon="8.88764274670328"><ele>399.7142857142857</ele><time>2026-03-28T11:47:53Z</time></trkpt><trkpt lat="45.83622095010989" lon="8.887583778418508"><ele>399.42857142857144</ele><time>2026-03-28T11:47:54Z</time></trkpt><trkpt lat="45.83628383962077" lon="8.88754422198272"><ele>399.1428571428571</ele><time>2026-03-28T11:47:55Z</time></trkpt><trkpt lat="45.83633547977768" lon="8.887488919248547"><ele>398.8571428571429</ele><time>2026-03-28T11:47:56Z</time></trkpt><trkpt lat="45.83639329862924" lon="8.887427907131103"><ele>398.57142857142856</ele><time>2026-03-28T11:47:57Z</time></trkpt><trkpt lat="45.83643966680254" lon="8.887360140794568"><ele>398.2857142857143</ele><time>2026-03-28T11:47:58Z</time></trkpt><trkpt lat="45.83649982507444" lon="8.8872917570496"><ele>398.0</ele><time>2026-03-28T11:47:59Z</time></trkpt><trkpt lat="45.83657804218017" lon="8.887235546058747"><ele>397.99999999999994</ele><time>2026-03-28T11:48:00Z</time></trkpt><trkpt lat="45.83664371820387" lon="8.887167536022341"><ele>398.0</ele><time>2026-03-28T11:48:01Z</time></trkpt><trkpt lat="45.83670107385726" lon="8.887108142012828"><ele>398.0</ele><time>2026-03-28T11:48:02Z</time></trkpt><trkpt lat="45.83676979241198" lon="8.88704114822927"><ele>398.0</ele><time>2026-03-28T11:48:03Z</time></trkpt><trkpt lat="45.83684796086081" lon="8.886971294567621"><ele>397.99999999999994</ele><time>2026-03-28T11:48:04Z</time></trkpt><trkpt lat="45.83695492471839" lon="8.886890957739901"><ele>398.0</ele><time>2026-03-28T11:48:06Z</time></trkpt><trkpt lat="45.83706515068544" lon="8.886838084191297"><ele>397.59999999999997</ele><time>2026-03-28T11:48:08Z</time></trkpt><trkpt lat="45.837155990873974" lon="8.886807506409244"><ele>397.2</ele><time>2026-03-28T11:48:10Z</time></trkpt><trkpt lat="45.83726257277862" lon="8.88678662572744"><ele>396.8</ele><time>2026-03-28T11:48:12Z</time></trkpt><trkpt lat="45.83736049795856" lon="8.886785074141246"><ele>396.4</ele><time>2026-03-28T11:48:14Z</time></trkpt><trkpt lat="45.837444151454704" lon="8.886793248535152"><ele>396.0</ele><time>2026-03-28T11:48:16Z</time></trkpt><trkpt lat="45.83752800687647" lon="8.886825084469075"><ele>396.0</ele><time>2026-03-28T11:48:18Z</time></trkpt><trkpt lat="45.83760493425707" lon="8.886879129632932"><ele>396.0</ele><time>2026-03-28T11:48:20Z</time></trkpt><trkpt lat="45.837663279855754" lon="8.886947265578284"><ele>396.0</ele><time>2026-03-28T11:48:22Z</time></trkpt><trkpt lat="45.83770566162508" lon="8.887060832655692"><ele>396.0</ele><time>2026-03-28T11:48:25Z</time></trkpt><trkpt lat="45.837738827213975" lon="8.887175221349361"><ele>396.0</ele><time>2026-03-28T11:48:27Z</time></trkpt><trkpt lat="45.83777353615503" lon="8.88731624424117"><ele>396.0</ele><time>2026-03-28T11:48:29Z</time></trkpt><trkpt lat="45.83777937605311" lon="8.887479283095601"><ele>392.4</ele><time>2026-03-28T11:48:31Z</time></trkpt><trkpt lat="45.83780442984759" lon="8.887614866307185"><ele>388.8</ele><time>2026-03-28T11:48:33Z</time></trkpt><trkpt lat="45.83784740953031" lon="8.887735181680874"><ele>385.2</ele><time>2026-03-28T11:48:35Z</time></trkpt><trkpt lat="45.83788122412221" lon="8.887841818098805"><ele>381.59999999999997</ele><time>2026-03-28T11:48:37Z</time></trkpt><trkpt lat="45.83793427090102" lon="8.887941943932514"><ele>378.0</ele><time>2026-03-28T11:48:39Z</time></trkpt><trkpt lat="45.8379757634493" lon="8.888061676136797"><ele>378.0</ele><time>2026-03-28T11:48:41Z</time></trkpt><trkpt lat="45.83802627977845" lon="8.888172184931504"><ele>378.0</ele><time>2026-03-28T11:48:43Z</time></trkpt><trkpt lat="45.83807320201775" lon="8.888274831116682"><ele>378.0</ele><time>2026-03-28T11:48:45Z</time></trkpt><trkpt lat="45.83812100459141" lon="8.88838231602955"><ele>378.0</ele><time>2026-03-28T11:48:47Z</time></trkpt><trkpt lat="45.83818841742823" lon="8.888492196772074"><ele>378.0</ele><time>2026-03-28T11:48:49Z</time></trkpt><trkpt lat="45.83822021183531" lon="8.888613448257024"><ele>378.1666666666667</ele><time>2026-03-28T11:48:51Z</time></trkpt><trkpt lat="45.83825148051157" lon="8.88870327087589"><ele>378.3333333333333</ele><time>2026-03-28T11:48:53Z</time></trkpt><trkpt lat="45.83827983533822" lon="8.888806733846302"><ele>378.5</ele><time>2026-03-28T11:48:55Z</time></trkpt><trkpt lat="45.838302033927704" lon="8.888915943868147"><ele>378.66666666666663</ele><time>2026-03-28T11:48:57Z</time></trkpt><trkpt lat="45.83832682310485" lon="8.889034793834103"><ele>378.8333333333333</ele><time>2026-03-28T11:48:59Z</time></trkpt><trkpt lat="45.83835686911048" lon="8.889170000438021"><ele>379.0</ele><time>2026-03-28T11:49:01Z</time></trkpt><trkpt lat="45.83838276816635" lon="8.889286546154201"><ele>377.16666666666663</ele><time>2026-03-28T11:49:03Z</time></trkpt><trkpt lat="45.83840877668782" lon="8.889394031562922"><ele>375.3333333333333</ele><time>2026-03-28T11:49:05Z</time></trkpt><trkpt lat="45.8384504238625" lon="8.889508674933953"><ele>373.5</ele><time>2026-03-28T11:49:07Z</time></trkpt><trkpt lat="45.83849028764711" lon="8.889624246863551"><ele>371.6666666666667</ele><time>2026-03-28T11:49:09Z</time></trkpt><trkpt lat="45.83852619738023" lon="8.889743271225768"><ele>369.83333333333337</ele><time>2026-03-28T11:49:11Z</time></trkpt><trkpt lat="45.83854323631009" lon="8.889861081451558"><ele>368.0</ele><time>2026-03-28T11:49:13Z</time></trkpt><trkpt lat="45.83858090168102" lon="8.889968975242523"><ele>364.5</ele><time>2026-03-28T11:49:15Z</time></trkpt><trkpt lat="45.838628540185866" lon="8.890045146404404"><ele>361.0</ele><time>2026-03-28T11:49:17Z</time></trkpt><trkpt lat="45.83867149989657" lon="8.890145459521468"><ele>357.5</ele><time>2026-03-28T11:49:19Z</time></trkpt><trkpt lat="45.83872235642008" lon="8.890240037243146"><ele>354.0</ele><time>2026-03-28T11:49:21Z</time></trkpt><trkpt lat="45.838770817355716" lon="8.890335486625027"><ele>350.5</ele><time>2026-03-28T11:49:23Z</time></trkpt><trkpt lat="45.8388190615215" lon="8.890431815987213"><ele>347.0</ele><time>2026-03-28T11:49:25Z</time></trkpt><trkpt lat="45.83887093087707" lon="8.890535398829465"><ele>346.83333333333337</ele><time>2026-03-28T11:49:27Z</time></trkpt><trkpt lat="45.83892474065121" lon="8.890640564904356"><ele>346.6666666666667</ele><time>2026-03-28T11:49:29Z</time></trkpt><trkpt lat="45.838973955675336" lon="8.890736913514955"><ele>346.5</ele><time>2026-03-28T11:49:31Z</time></trkpt><trkpt lat="45.83902340068061" lon="8.890832173905771"><ele>346.3333333333333</ele><time>2026-03-28T11:49:33Z</time></trkpt><trkpt lat="45.839064447574785" lon="8.890940324435814"><ele>346.16666666666663</ele><time>2026-03-28T11:49:35Z</time></trkpt><trkpt lat="45.839125992521424" lon="8.891022164345715"><ele>346.0</ele><time>2026-03-28T11:49:37Z</time></trkpt><trkpt lat="45.839176878036106" lon="8.891113419104148"><ele>344.66666666666663</ele><time>2026-03-28T11:49:39Z</time></trkpt><trkpt lat="45.839229485687596" lon="8.89120700978013"><ele>343.3333333333333</ele><time>2026-03-28T11:49:41Z</time></trkpt><trkpt lat="45.83928296576128" lon="8.891308729310856"><ele>342.0</ele><time>2026-03-28T11:49:43Z</time></trkpt><trkpt lat="45.83936152771139" lon="8.891369849679375"><ele>340.6666666666667</ele><time>2026-03-28T11:49:45Z</time></trkpt><trkpt lat="45.83942915868671" lon="8.891441605222894"><ele>339.33333333333337</ele><time>2026-03-28T11:49:47Z</time></trkpt><trkpt lat="45.839498459469645" lon="8.891477748998298"><ele>338.0</ele><time>2026-03-28T11:49:49Z</time></trkpt><trkpt lat="45.83956847856121" lon="8.891523145602422"><ele>337.6666666666667</ele><time>2026-03-28T11:49:51Z</time></trkpt><trkpt lat="45.83963680485978" lon="8.891568015142582"><ele>337.33333333333337</ele><time>2026-03-28T11:49:53Z</time></trkpt><trkpt lat="45.83969817796387" lon="8.891626659016485"><ele>337.0</ele><time>2026-03-28T11:49:55Z</time></trkpt><trkpt lat="45.83977776732441" lon="8.891661345295402"><ele>336.6666666666667</ele><time>2026-03-28T11:49:57Z</time></trkpt><trkpt lat="45.83984582053449" lon="8.89171211968908"><ele>336.3333333333333</ele><time>2026-03-28T11:49:59Z</time></trkpt><trkpt lat="45.83991473520658" lon="8.891747816746276"><ele>336.0</ele><time>2026-03-28T11:50:01Z</time></trkpt><trkpt lat="45.83998046811634" lon="8.891781867047131"><ele>336.0</ele><time>2026-03-28T11:50:03Z</time></trkpt><trkpt lat="45.840052263857245" lon="8.891672850430663"><ele>336.0</ele><time>2026-03-28T11:50:04Z</time></trkpt><trkpt lat="45.84014862865496" lon="8.891705460377477"><ele>336.0</ele><time>2026-03-28T11:50:06Z</time></trkpt><trkpt lat="45.8402403846701" lon="8.891741435266773"><ele>336.0</ele><time>2026-03-28T11:50:08Z</time></trkpt><trkpt lat="45.84033418565728" lon="8.891802820746571"><ele>336.0</ele><time>2026-03-28T11:50:10Z</time></trkpt><trkpt lat="45.84040137245996" lon="8.891870794873597"><ele>334.6</ele><time>2026-03-28T11:50:12Z</time></trkpt><trkpt lat="45.8404808723636" lon="8.891935354460086"><ele>333.20000000000005</ele><time>2026-03-28T11:50:14Z</time></trkpt><trkpt lat="45.840565972585246" lon="8.891987603387454"><ele>331.79999999999995</ele><time>2026-03-28T11:50:16Z</time></trkpt><trkpt lat="45.840663451452905" lon="8.892042241225369"><ele>330.4</ele><time>2026-03-28T11:50:18Z</time></trkpt><trkpt lat="45.8407442641342" lon="8.8921350398821"><ele>329.0</ele><time>2026-03-28T11:50:20Z</time></trkpt><trkpt lat="45.84081734458477" lon="8.892199630420347"><ele>329.0</ele><time>2026-03-28T11:50:22Z</time></trkpt><trkpt lat="45.84089893386648" lon="8.892254747882161"><ele>329.0</ele><time>2026-03-28T11:50:24Z</time></trkpt><trkpt lat="45.84097339890268" lon="8.892354212045916"><ele>329.0</ele><time>2026-03-28T11:50:26Z</time></trkpt><trkpt lat="45.841057516390784" lon="8.892452182881541"><ele>329.0</ele><time>2026-03-28T11:50:28Z</time></trkpt><trkpt lat="45.84112951115059" lon="8.89252945927864"><ele>329.0</ele><time>2026-03-28T11:50:30Z</time></trkpt><trkpt lat="45.84120380492341" lon="8.892608146339766"><ele>329.2</ele><time>2026-03-28T11:50:32Z</time></trkpt><trkpt lat="45.84130074362937" lon="8.892700773226728"><ele>329.4</ele><time>2026-03-28T11:50:34Z</time></trkpt><trkpt lat="45.841380259438495" lon="8.892812404909996"><ele>329.6</ele><time>2026-03-28T11:50:36Z</time></trkpt><trkpt lat="45.841452054543765" lon="8.892909720212737"><ele>329.8</ele><time>2026-03-28T11:50:38Z</time></trkpt><trkpt lat="45.84152175627002" lon="8.892996186781245"><ele>330.0</ele><time>2026-03-28T11:50:40Z</time></trkpt><trkpt lat="45.84156553199092" lon="8.893071142934945"><ele>330.0</ele><time>2026-03-28T11:50:41Z</time></trkpt><trkpt lat="45.841621431109225" lon="8.893141982081378"><ele>330.0</ele><time>2026-03-28T11:50:42Z</time></trkpt><trkpt lat="45.84168033700081" lon="8.893217429608448"><ele>330.0</ele><time>2026-03-28T11:50:43Z</time></trkpt><trkpt lat="45.84174520405295" lon="8.893293155469962"><ele>330.0</ele><time>2026-03-28T11:50:44Z</time></trkpt><trkpt lat="45.841798597959816" lon="8.893342655773514"><ele>330.0</ele><time>2026-03-28T11:50:45Z</time></trkpt><trkpt lat="45.841854952021436" lon="8.8933977775515"><ele>330.0</ele><time>2026-03-28T11:50:46Z</time></trkpt><trkpt lat="45.8419272013664" lon="8.893454347342528"><ele>330.0</ele><time>2026-03-28T11:50:47Z</time></trkpt><trkpt lat="45.842001604633445" lon="8.893508372202096"><ele>330.0</ele><time>2026-03-28T11:50:48Z</time></trkpt><trkpt lat="45.84207110411899" lon="8.893554326142727"><ele>330.0</ele><time>2026-03-28T11:50:49Z</time></trkpt><trkpt lat="45.84214259903509" lon="8.893630409798979"><ele>330.0</ele><time>2026-03-28T11:50:50Z</time></trkpt><trkpt lat="45.842204149362914" lon="8.893653301724092"><ele>330.0</ele><time>2026-03-28T11:50:51Z</time></trkpt><trkpt lat="45.84229492243444" lon="8.89371717661136"><ele>330.0</ele><time>2026-03-28T11:50:52Z</time></trkpt><trkpt lat="45.84238837018727" lon="8.89380792399031"><ele>330.0</ele><time>2026-03-28T11:50:53Z</time></trkpt><trkpt lat="45.84249251585746" lon="8.893883661778185"><ele>330.0</ele><time>2026-03-28T11:50:54Z</time></trkpt><trkpt lat="45.8425808428428" lon="8.893990397916493"><ele>330.0</ele><time>2026-03-28T11:50:55Z</time></trkpt><trkpt lat="45.84265355667572" lon="8.894121465518475"><ele>330.0</ele><time>2026-03-28T11:50:56Z</time></trkpt><trkpt lat="45.84273581855715" lon="8.894211636737456"><ele>329.8333333333333</ele><time>2026-03-28T11:50:57Z</time></trkpt><trkpt lat="45.84279642623823" lon="8.894301863358486"><ele>329.6666666666667</ele><time>2026-03-28T11:50:58Z</time></trkpt><trkpt lat="45.8428604768484" lon="8.894390904569237"><ele>329.5</ele><time>2026-03-28T11:50:59Z</time></trkpt><trkpt lat="45.84291633330228" lon="8.894479636700256"><ele>329.33333333333337</ele><time>2026-03-28T11:51:00Z</time></trkpt><trkpt lat="45.842966708303074" lon="8.894568455121389"><ele>329.1666666666667</ele><time>2026-03-28T11:51:01Z</time></trkpt><trkpt lat="45.843028194180384" lon="8.894605300000777"><ele>329.0</ele><time>2026-03-28T11:51:02Z</time></trkpt><trkpt lat="45.843137600168" lon="8.894686973442214"><ele>329.0</ele><time>2026-03-28T11:51:04Z</time></trkpt><trkpt lat="45.843213442385206" lon="8.894728017087903"><ele>329.0</ele><time>2026-03-28T11:51:06Z</time></trkpt><trkpt lat="45.84331261224011" lon="8.894545943256515"><ele>329.0</ele><time>2026-03-28T11:51:07Z</time></trkpt><trkpt lat="45.84337184072075" lon="8.894464949971963"><ele>329.0</ele><time>2026-03-28T11:51:08Z</time></trkpt><trkpt lat="45.84343524009184" lon="8.894377417248755"><ele>329.0</ele><time>2026-03-28T11:51:09Z</time></trkpt><trkpt lat="45.843500955479165" lon="8.89429231292727"><ele>328.1666666666667</ele><time>2026-03-28T11:51:10Z</time></trkpt><trkpt lat="45.84355988633228" lon="8.89421693798003"><ele>327.33333333333337</ele><time>2026-03-28T11:51:11Z</time></trkpt><trkpt lat="45.843616048127906" lon="8.894151050208"><ele>326.5</ele><time>2026-03-28T11:51:12Z</time></trkpt><trkpt lat="45.84366956434288" lon="8.894084140589953"><ele>325.6666666666667</ele><time>2026-03-28T11:51:13Z</time></trkpt><trkpt lat="45.84374945639672" lon="8.893995243276168"><ele>324.8333333333333</ele><time>2026-03-28T11:51:15Z</time></trkpt><trkpt lat="45.84383384105159" lon="8.893899814098342"><ele>324.0</ele><time>2026-03-28T11:51:17Z</time></trkpt><trkpt lat="45.843929667772564" lon="8.893779598016929"><ele>324.0</ele><time>2026-03-28T11:51:19Z</time></trkpt><trkpt lat="45.84398262298674" lon="8.89372083191824"><ele>324.0</ele><time>2026-03-28T11:51:20Z</time></trkpt><trkpt lat="45.844041057005796" lon="8.893658857171756"><ele>324.0</ele><time>2026-03-28T11:51:21Z</time></trkpt><trkpt lat="45.84409802647769" lon="8.893607100260269"><ele>324.0</ele><time>2026-03-28T11:51:22Z</time></trkpt><trkpt lat="45.84415854749757" lon="8.893555895114591"><ele>324.0</ele><time>2026-03-28T11:51:23Z</time></trkpt><trkpt lat="45.84422036299827" lon="8.893503471529774"><ele>324.0</ele><time>2026-03-28T11:51:24Z</time></trkpt><trkpt lat="45.844280761612175" lon="8.893451000557086"><ele>324.0</ele><time>2026-03-28T11:51:25Z</time></trkpt><trkpt lat="45.84434601895797" lon="8.893396191513077"><ele>324.5</ele><time>2026-03-28T11:51:26Z</time></trkpt><trkpt lat="45.84441294280875" lon="8.89333834216196"><ele>325.0</ele><time>2026-03-28T11:51:27Z</time></trkpt><trkpt lat="45.844474201827204" lon="8.893286402471459"><ele>325.5</ele><time>2026-03-28T11:51:28Z</time></trkpt><trkpt lat="45.84452882363033" lon="8.893240430958878"><ele>326.0</ele><time>2026-03-28T11:51:29Z</time></trkpt><trkpt lat="45.84463408522998" lon="8.893159563419067"><ele>326.5</ele><time>2026-03-28T11:51:31Z</time></trkpt><trkpt lat="45.84469617795269" lon="8.89311087583156"><ele>327.0</ele><time>2026-03-28T11:51:32Z</time></trkpt><trkpt lat="45.844753234037164" lon="8.89306077288929"><ele>327.0</ele><time>2026-03-28T11:51:33Z</time></trkpt><trkpt lat="45.84481362959606" lon="8.893011431555362"><ele>327.0</ele><time>2026-03-28T11:51:34Z</time></trkpt><trkpt lat="45.84487745861861" lon="8.892962859556537"><ele>327.0</ele><time>2026-03-28T11:51:35Z</time></trkpt><trkpt lat="45.84494284699835" lon="8.892912325849709"><ele>327.0</ele><time>2026-03-28T11:51:36Z</time></trkpt><trkpt lat="45.84500971121191" lon="8.89285820858522"><ele>327.0</ele><time>2026-03-28T11:51:37Z</time></trkpt><trkpt lat="45.84507820419284" lon="8.892799816617716"><ele>327.0</ele><time>2026-03-28T11:51:38Z</time></trkpt><trkpt lat="45.84514494414521" lon="8.892744937824407"><ele>327.0</ele><time>2026-03-28T11:51:39Z</time></trkpt><trkpt lat="45.84520529672061" lon="8.892694954836228"><ele>327.5</ele><time>2026-03-28T11:51:40Z</time></trkpt><trkpt lat="45.84529865478294" lon="8.892616757717468"><ele>328.0</ele><time>2026-03-28T11:51:42Z</time></trkpt><trkpt lat="45.84541082716702" lon="8.89252245341784"><ele>328.5</ele><time>2026-03-28T11:51:44Z</time></trkpt><trkpt lat="45.84547043589105" lon="8.892470636199834"><ele>329.0</ele><time>2026-03-28T11:51:45Z</time></trkpt><trkpt lat="45.84553036794424" lon="8.892419367583916"><ele>329.5</ele><time>2026-03-28T11:51:46Z</time></trkpt><trkpt lat="45.84558473282459" lon="8.89237241477805"><ele>330.0</ele><time>2026-03-28T11:51:47Z</time></trkpt><trkpt lat="45.845694772262945" lon="8.892285267155858"><ele>330.0</ele><time>2026-03-28T11:51:49Z</time></trkpt><trkpt lat="45.845755307399486" lon="8.892235596588428"><ele>330.0</ele><time>2026-03-28T11:51:50Z</time></trkpt><trkpt lat="45.845826438258634" lon="8.89216950136999"><ele>330.0</ele><time>2026-03-28T11:51:51Z</time></trkpt><trkpt lat="45.84589595125239" lon="8.892103727736533"><ele>330.0</ele><time>2026-03-28T11:51:52Z</time></trkpt><trkpt lat="45.84596412368658" lon="8.892045282126189"><ele>330.0</ele><time>2026-03-28T11:51:53Z</time></trkpt><trkpt lat="45.84603057394728" lon="8.891991084205538"><ele>330.0</ele><time>2026-03-28T11:51:54Z</time></trkpt><trkpt lat="45.846099487013774" lon="8.891934895174222"><ele>330.3333333333333</ele><time>2026-03-28T11:51:55Z</time></trkpt><trkpt lat="45.84616499387852" lon="8.89187668514709"><ele>330.6666666666667</ele><time>2026-03-28T11:51:56Z</time></trkpt><trkpt lat="45.84626940599619" lon="8.891805722899655"><ele>331.0</ele><time>2026-03-28T11:51:58Z</time></trkpt><trkpt lat="45.84633256924581" lon="8.8917512127599"><ele>331.33333333333337</ele><time>2026-03-28T11:51:59Z</time></trkpt><trkpt lat="45.84639257746841" lon="8.891704211863583"><ele>331.6666666666667</ele><time>2026-03-28T11:52:00Z</time></trkpt><trkpt lat="45.846484740451174" lon="8.89162815663162"><ele>332.0</ele><time>2026-03-28T11:52:02Z</time></trkpt><trkpt lat="45.846595514455075" lon="8.891535663809053"><ele>332.0</ele><time>2026-03-28T11:52:04Z</time></trkpt><trkpt lat="45.846678024206845" lon="8.891465102013335"><ele>332.0</ele><time>2026-03-28T11:52:05Z</time></trkpt><trkpt lat="45.846754283905426" lon="8.89140354525154"><ele>332.0</ele><time>2026-03-28T11:52:06Z</time></trkpt><trkpt lat="45.84681253917353" lon="8.891357455899875"><ele>332.0</ele><time>2026-03-28T11:52:07Z</time></trkpt><trkpt lat="45.84690931416259" lon="8.891279809651818"><ele>332.0</ele><time>2026-03-28T11:52:09Z</time></trkpt><trkpt lat="45.84700740725823" lon="8.891199925791723"><ele>332.5</ele><time>2026-03-28T11:52:11Z</time></trkpt><trkpt lat="45.84706789319021" lon="8.891155384000372"><ele>333.0</ele><time>2026-03-28T11:52:12Z</time></trkpt><trkpt lat="45.84712878879182" lon="8.89110946947282"><ele>333.5</ele><time>2026-03-28T11:52:13Z</time></trkpt><trkpt lat="45.84722687866078" lon="8.89103466676164"><ele>334.0</ele><time>2026-03-28T11:52:15Z</time></trkpt><trkpt lat="45.84729707871508" lon="8.890971967848328"><ele>334.5</ele><time>2026-03-28T11:52:17Z</time></trkpt><trkpt lat="45.84737142924089" lon="8.890918043581998"><ele>335.0</ele><time>2026-03-28T11:52:19Z</time></trkpt><trkpt lat="45.847492394848864" lon="8.890881312763398"><ele>335.5</ele><time>2026-03-28T11:52:21Z</time></trkpt><trkpt lat="45.84756923540705" lon="8.890863145240722"><ele>336.0</ele><time>2026-03-28T11:52:22Z</time></trkpt><trkpt lat="45.8476606913223" lon="8.890843719726858"><ele>336.5</ele><time>2026-03-28T11:52:23Z</time></trkpt><trkpt lat="45.84772990479087" lon="8.890833688361873"><ele>337.0</ele><time>2026-03-28T11:52:24Z</time></trkpt><trkpt lat="45.847809875153764" lon="8.89081950309173"><ele>337.5</ele><time>2026-03-28T11:52:25Z</time></trkpt><trkpt lat="45.84790073866798" lon="8.89080063410516"><ele>338.0</ele><time>2026-03-28T11:52:26Z</time></trkpt><trkpt lat="45.84799410956694" lon="8.890780773391691"><ele>338.2</ele><time>2026-03-28T11:52:27Z</time></trkpt><trkpt lat="45.84807764388076" lon="8.890756784910113"><ele>338.4</ele><time>2026-03-28T11:52:28Z</time></trkpt><trkpt lat="45.84817499338598" lon="8.89073060466851"><ele>338.59999999999997</ele><time>2026-03-28T11:52:29Z</time></trkpt><trkpt lat="45.84827337246252" lon="8.890704155844885"><ele>338.79999999999995</ele><time>2026-03-28T11:52:30Z</time></trkpt><trkpt lat="45.84838115925188" lon="8.890676204484773"><ele>339.0</ele><time>2026-03-28T11:52:31Z</time></trkpt><trkpt lat="45.84848222595527" lon="8.89065271946968"><ele>339.0</ele><time>2026-03-28T11:52:32Z</time></trkpt><trkpt lat="45.848566084372486" lon="8.890632748155399"><ele>339.0</ele><time>2026-03-28T11:52:33Z</time></trkpt><trkpt lat="45.848646528227384" lon="8.890615167751294"><ele>339.0</ele><time>2026-03-28T11:52:34Z</time></trkpt><trkpt lat="45.848726853771055" lon="8.890596653383003"><ele>339.0</ele><time>2026-03-28T11:52:35Z</time></trkpt><trkpt lat="45.848807404268285" lon="8.890582528956436"><ele>339.0</ele><time>2026-03-28T11:52:36Z</time></trkpt><trkpt lat="45.84889614131491" lon="8.890565966176903"><ele>339.0</ele><time>2026-03-28T11:52:37Z</time></trkpt><trkpt lat="45.84898085081337" lon="8.890540782560217"><ele>339.0</ele><time>2026-03-28T11:52:38Z</time></trkpt><trkpt lat="45.849059172722434" lon="8.890518376773791"><ele>339.0</ele><time>2026-03-28T11:52:39Z</time></trkpt><trkpt lat="45.8491459805047" lon="8.89050092122948"><ele>339.0</ele><time>2026-03-28T11:52:40Z</time></trkpt><trkpt lat="45.84922453423627" lon="8.890484093194162"><ele>339.0</ele><time>2026-03-28T11:52:41Z</time></trkpt><trkpt lat="45.849294912657136" lon="8.89046955458261"><ele>339.0</ele><time>2026-03-28T11:52:42Z</time></trkpt><trkpt lat="45.849359993233016" lon="8.890467701055258"><ele>339.0</ele><time>2026-03-28T11:52:43Z</time></trkpt><trkpt lat="45.849486458357426" lon="8.890448730266884"><ele>339.4</ele><time>2026-03-28T11:52:45Z</time></trkpt><trkpt lat="45.84955867937924" lon="8.890440180318574"><ele>339.79999999999995</ele><time>2026-03-28T11:52:47Z</time></trkpt><trkpt lat="45.84962764869733" lon="8.890421748741405"><ele>340.20000000000005</ele><time>2026-03-28T11:53:01Z</time></trkpt><trkpt lat="45.84972911440646" lon="8.89039315080647"><ele>340.6</ele><time>2026-03-28T11:53:03Z</time></trkpt><trkpt lat="45.84981693025698" lon="8.89036644606168"><ele>341.0</ele><time>2026-03-28T11:53:05Z</time></trkpt><trkpt lat="45.849930938348" lon="8.890340319368027"><ele>341.0</ele><time>2026-03-28T11:53:07Z</time></trkpt><trkpt lat="45.850043947021945" lon="8.890323882410062"><ele>341.0</ele><time>2026-03-28T11:53:09Z</time></trkpt><trkpt lat="45.8501462907112" lon="8.89029679413017"><ele>341.0</ele><time>2026-03-28T11:53:11Z</time></trkpt><trkpt lat="45.85021299325739" lon="8.890281425734896"><ele>341.0</ele><time>2026-03-28T11:53:12Z</time></trkpt><trkpt lat="45.850282752658536" lon="8.890265977587735"><ele>341.0</ele><time>2026-03-28T11:53:13Z</time></trkpt><trkpt lat="45.85035985506082" lon="8.8902489575776"><ele>341.0</ele><time>2026-03-28T11:53:14Z</time></trkpt><trkpt lat="45.850432437179414" lon="8.890231369730774"><ele>341.6666666666667</ele><time>2026-03-28T11:53:15Z</time></trkpt><trkpt lat="45.85049781041014" lon="8.890216567624334"><ele>342.33333333333337</ele><time>2026-03-28T11:53:16Z</time></trkpt><trkpt lat="45.8506254440963" lon="8.890191412070365"><ele>343.0</ele><time>2026-03-28T11:53:18Z</time></trkpt><trkpt lat="45.85069423163996" lon="8.890175289774596"><ele>343.6666666666667</ele><time>2026-03-28T11:53:19Z</time></trkpt><trkpt lat="45.8507664998134" lon="8.890158846839562"><ele>344.3333333333333</ele><time>2026-03-28T11:53:20Z</time></trkpt><trkpt lat="45.850841560081186" lon="8.890142602753103"><ele>345.0</ele><time>2026-03-28T11:53:21Z</time></trkpt><trkpt lat="45.85091356078998" lon="8.890127976211463"><ele>345.0</ele><time>2026-03-28T11:53:22Z</time></trkpt><trkpt lat="45.85098652928136" lon="8.890111846866176"><ele>345.0</ele><time>2026-03-28T11:53:23Z</time></trkpt><trkpt lat="45.85106468186221" lon="8.89009250704958"><ele>345.0</ele><time>2026-03-28T11:53:24Z</time></trkpt><trkpt lat="45.851136601039705" lon="8.890070090037389"><ele>345.0</ele><time>2026-03-28T11:53:25Z</time></trkpt><trkpt lat="45.8512013136776" lon="8.890041454946475"><ele>345.0</ele><time>2026-03-28T11:53:26Z</time></trkpt><trkpt lat="45.85126523096716" lon="8.890005530104531"><ele>345.0</ele><time>2026-03-28T11:53:27Z</time></trkpt><trkpt lat="45.85132850116219" lon="8.889961385775193"><ele>345.0</ele><time>2026-03-28T11:53:28Z</time></trkpt><trkpt lat="45.85138571953376" lon="8.889912768520817"><ele>345.0</ele><time>2026-03-28T11:53:29Z</time></trkpt><trkpt lat="45.85143874268512" lon="8.889858899299856"><ele>345.0</ele><time>2026-03-28T11:53:30Z</time></trkpt><trkpt lat="45.851493904251996" lon="8.889800778598698"><ele>345.0</ele><time>2026-03-28T11:53:31Z</time></trkpt><trkpt lat="45.85154998688818" lon="8.88974534663692"><ele>345.0</ele><time>2026-03-28T11:53:32Z</time></trkpt><trkpt lat="45.85160742301243" lon="8.889684157424911"><ele>345.0</ele><time>2026-03-28T11:53:33Z</time></trkpt><trkpt lat="45.851668756633785" lon="8.88961862380221"><ele>345.0</ele><time>2026-03-28T11:53:34Z</time></trkpt><trkpt lat="45.85173442379621" lon="8.889552727049802"><ele>345.0</ele><time>2026-03-28T11:53:35Z</time></trkpt><trkpt lat="45.8518018254391" lon="8.889491025269281"><ele>344.6666666666667</ele><time>2026-03-28T11:53:36Z</time></trkpt><trkpt lat="45.85186237451508" lon="8.889433642571367"><ele>344.3333333333333</ele><time>2026-03-28T11:53:37Z</time></trkpt><trkpt lat="45.8519203016647" lon="8.88938173192372"><ele>344.0</ele><time>2026-03-28T11:53:38Z</time></trkpt><trkpt lat="45.851983801067966" lon="8.889332439435716"><ele>343.66666666666663</ele><time>2026-03-28T11:53:39Z</time></trkpt><trkpt lat="45.85204794518252" lon="8.889279343293895"><ele>343.3333333333333</ele><time>2026-03-28T11:53:40Z</time></trkpt><trkpt lat="45.852116522351245" lon="8.889219791616634"><ele>343.0</ele><time>2026-03-28T11:53:41Z</time></trkpt><trkpt lat="45.85219886552606" lon="8.88914512594009"><ele>343.66666666666663</ele><time>2026-03-28T11:53:42Z</time></trkpt><trkpt lat="45.852288899758406" lon="8.889050966222847"><ele>344.3333333333333</ele><time>2026-03-28T11:53:43Z</time></trkpt><trkpt lat="45.85239217173587" lon="8.888976949874891"><ele>345.0</ele><time>2026-03-28T11:53:45Z</time></trkpt><trkpt lat="45.85244942110167" lon="8.88892903922565"><ele>345.6666666666667</ele><time>2026-03-28T11:53:46Z</time></trkpt><trkpt lat="45.85250477674112" lon="8.888878021537735"><ele>346.33333333333337</ele><time>2026-03-28T11:53:47Z</time></trkpt><trkpt lat="45.852560540877406" lon="8.88883179643001"><ele>347.0</ele><time>2026-03-28T11:53:48Z</time></trkpt><trkpt lat="45.85264121928683" lon="8.888753260851278"><ele>346.5</ele><time>2026-03-28T11:53:50Z</time></trkpt><trkpt lat="45.85269956814193" lon="8.888706737862318"><ele>346.0</ele><time>2026-03-28T11:53:52Z</time></trkpt><trkpt lat="45.852645697271605" lon="8.888468138792039"><ele>345.5</ele><time>2026-03-28T11:53:54Z</time></trkpt><trkpt lat="45.85254326367775" lon="8.888304823615304"><ele>345.0</ele><time>2026-03-28T11:53:56Z</time></trkpt><trkpt lat="45.85245091735887" lon="8.888225281054906"><ele>345.0</ele><time>2026-03-28T11:53:57Z</time></trkpt><trkpt lat="45.85234846646614" lon="8.888172249185507"><ele>345.0</ele><time>2026-03-28T11:53:58Z</time></trkpt><trkpt lat="45.85224700842277" lon="8.888149174602459"><ele>345.0</ele><time>2026-03-28T11:53:59Z</time></trkpt><trkpt lat="45.85214313398886" lon="8.888151409308449"><ele>345.0</ele><time>2026-03-28T11:54:00Z</time></trkpt><trkpt lat="45.85203676463692" lon="8.888181064891313"><ele>345.0</ele><time>2026-03-28T11:54:01Z</time></trkpt><trkpt lat="45.851935370860566" lon="8.888237810014603"><ele>345.0</ele><time>2026-03-28T11:54:02Z</time></trkpt><trkpt lat="45.85183591073117" lon="8.888318581389852"><ele>345.0</ele><time>2026-03-28T11:54:03Z</time></trkpt><trkpt lat="45.85169754632193" lon="8.888413599947592"><ele>345.0</ele><time>2026-03-28T11:54:04Z</time></trkpt><trkpt lat="45.85153126789472" lon="8.888519825254036"><ele>345.0</ele><time>2026-03-28T11:54:05Z</time></trkpt><trkpt lat="45.851351333897696" lon="8.888636817205212"><ele>345.0</ele><time>2026-03-28T11:54:06Z</time></trkpt><trkpt lat="45.851198576259534" lon="8.888728333869558"><ele>345.0</ele><time>2026-03-28T11:54:07Z</time></trkpt><trkpt lat="45.85106896196627" lon="8.888801819857289"><ele>346.75</ele><time>2026-03-28T11:54:08Z</time></trkpt><trkpt lat="45.850911847259944" lon="8.888804310667862"><ele>348.5</ele><time>2026-03-28T11:54:09Z</time></trkpt><trkpt lat="45.85075308344067" lon="8.888801849205358"><ele>350.25</ele><time>2026-03-28T11:54:10Z</time></trkpt><trkpt lat="45.850621820190554" lon="8.88876631099747"><ele>352.0</ele><time>2026-03-28T11:54:11Z</time></trkpt><trkpt lat="45.85049103903136" lon="8.88870453890226"><ele>352.0</ele><time>2026-03-28T11:54:12Z</time></trkpt><trkpt lat="45.850352628336346" lon="8.888607785175019"><ele>352.0</ele><time>2026-03-28T11:54:13Z</time></trkpt><trkpt lat="45.85021750938667" lon="8.88847177049649"><ele>352.0</ele><time>2026-03-28T11:54:14Z</time></trkpt><trkpt lat="45.85012482504952" lon="8.888333723415528"><ele>354.5</ele><time>2026-03-28T11:54:15Z</time></trkpt><trkpt lat="45.850043638489424" lon="8.88817007153339"><ele>357.0</ele><time>2026-03-28T11:54:16Z</time></trkpt><trkpt lat="45.84996572535096" lon="8.887984227044145"><ele>359.5</ele><time>2026-03-28T11:54:17Z</time></trkpt><trkpt lat="45.84990308631763" lon="8.887829275154678"><ele>362.0</ele><time>2026-03-28T11:54:18Z</time></trkpt><trkpt lat="45.84984145373876" lon="8.88770448399929"><ele>362.5</ele><time>2026-03-28T11:54:19Z</time></trkpt><trkpt lat="45.84979496034449" lon="8.887591164414617"><ele>363.0</ele><time>2026-03-28T11:54:20Z</time></trkpt><trkpt lat="45.84975219171507" lon="8.887487660965622"><ele>363.5</ele><time>2026-03-28T11:54:21Z</time></trkpt><trkpt lat="45.84971207086368" lon="8.887379229976927"><ele>364.0</ele><time>2026-03-28T11:54:22Z</time></trkpt><trkpt lat="45.849665603678645" lon="8.887261166689337"><ele>364.5</ele><time>2026-03-28T11:54:23Z</time></trkpt><trkpt lat="45.84963148786958" lon="8.887168591906576"><ele>365.0</ele><time>2026-03-28T11:54:24Z</time></trkpt><trkpt lat="45.84959516397317" lon="8.887080897197768"><ele>365.0</ele><time>2026-03-28T11:54:25Z</time></trkpt><trkpt lat="45.84955863358078" lon="8.887001797230218"><ele>365.0</ele><time>2026-03-28T11:54:26Z</time></trkpt><trkpt lat="45.84952780691862" lon="8.886920791026975"><ele>365.0</ele><time>2026-03-28T11:54:27Z</time></trkpt><trkpt lat="45.84947754351418" lon="8.886774525249425"><ele>365.0</ele><time>2026-03-28T11:54:29Z</time></trkpt><trkpt lat="45.84944229057836" lon="8.88669143247419"><ele>365.0</ele><time>2026-03-28T11:54:30Z</time></trkpt><trkpt lat="45.849381842339795" lon="8.886553086874747"><ele>365.0</ele><time>2026-03-28T11:54:32Z</time></trkpt><trkpt lat="45.84932167332676" lon="8.88642044790028"><ele>365.6666666666667</ele><time>2026-03-28T11:54:34Z</time></trkpt><trkpt lat="45.84927709208026" lon="8.886349719125382"><ele>366.33333333333337</ele><time>2026-03-28T11:54:35Z</time></trkpt><trkpt lat="45.849240497317005" lon="8.886275490602307"><ele>367.0</ele><time>2026-03-28T11:54:36Z</time></trkpt><trkpt lat="45.84919135857131" lon="8.886156647408818"><ele>367.6666666666667</ele><time>2026-03-28T11:54:38Z</time></trkpt><trkpt lat="45.84913481948134" lon="8.886042899990104"><ele>368.3333333333333</ele><time>2026-03-28T11:54:40Z</time></trkpt><trkpt lat="45.84908308674297" lon="8.885913609475411"><ele>369.0</ele><time>2026-03-28T11:54:42Z</time></trkpt><trkpt lat="45.849042829845764" lon="8.885834036375305"><ele>369.3333333333333</ele><time>2026-03-28T11:54:43Z</time></trkpt><trkpt lat="45.84900541125567" lon="8.88575418621533"><ele>369.6666666666667</ele><time>2026-03-28T11:54:44Z</time></trkpt><trkpt lat="45.848969041559606" lon="8.885671003321143"><ele>370.0</ele><time>2026-03-28T11:54:45Z</time></trkpt><trkpt lat="45.848910249444515" lon="8.885536146495825"><ele>370.33333333333337</ele><time>2026-03-28T11:54:47Z</time></trkpt><trkpt lat="45.84885379666699" lon="8.885392979256817"><ele>370.6666666666667</ele><time>2026-03-28T11:54:49Z</time></trkpt><trkpt lat="45.84881563258944" lon="8.885300589531813"><ele>371.0</ele><time>2026-03-28T11:54:50Z</time></trkpt><trkpt lat="45.84876060776778" lon="8.885171661744808"><ele>371.33333333333337</ele><time>2026-03-28T11:54:52Z</time></trkpt><trkpt lat="45.84872213949887" lon="8.885043892741578"><ele>371.6666666666667</ele><time>2026-03-28T11:54:55Z</time></trkpt><trkpt lat="45.84872969552503" lon="8.88493598714586"><ele>372.0</ele><time>2026-03-28T11:54:57Z</time></trkpt><trkpt lat="45.84873154341302" lon="8.884817413122787"><ele>372.3333333333333</ele><time>2026-03-28T11:54:59Z</time></trkpt><trkpt lat="45.84872225463167" lon="8.884645026429572"><ele>372.66666666666663</ele><time>2026-03-28T11:55:01Z</time></trkpt><trkpt lat="45.84873211499378" lon="8.884550448107902"><ele>373.0</ele><time>2026-03-28T11:55:02Z</time></trkpt><trkpt lat="45.848740927967405" lon="8.88443221718937"><ele>373.0</ele><time>2026-03-28T11:55:04Z</time></trkpt><trkpt lat="45.848704375260105" lon="8.884288943874473"><ele>373.0</ele><time>2026-03-28T11:55:06Z</time></trkpt><trkpt lat="45.848650052180815" lon="8.884152240687602"><ele>373.0</ele><time>2026-03-28T11:55:08Z</time></trkpt><trkpt lat="45.84860779560039" lon="8.884024802832847"><ele>373.0</ele><time>2026-03-28T11:55:10Z</time></trkpt><trkpt lat="45.84855501057936" lon="8.883906871626351"><ele>373.0</ele><time>2026-03-28T11:55:12Z</time></trkpt><trkpt lat="45.84852980750903" lon="8.883767066342978"><ele>374.5</ele><time>2026-03-28T11:55:14Z</time></trkpt><trkpt lat="45.84853655387128" lon="8.883662509971987"><ele>376.0</ele><time>2026-03-28T11:55:15Z</time></trkpt><trkpt lat="45.84854374316648" lon="8.883538395816746"><ele>377.5</ele><time>2026-03-28T11:55:16Z</time></trkpt><trkpt lat="45.84855894808528" lon="8.883448119163726"><ele>379.0</ele><time>2026-03-28T11:55:17Z</time></trkpt><trkpt lat="45.848581941532835" lon="8.88335369166383"><ele>380.5</ele><time>2026-03-28T11:55:18Z</time></trkpt><trkpt lat="45.848608035912896" lon="8.883234086982002"><ele>382.0</ele><time>2026-03-28T11:55:19Z</time></trkpt><trkpt lat="45.84862801315418" lon="8.883120246445822"><ele>383.20000000000005</ele><time>2026-03-28T11:55:20Z</time></trkpt><trkpt lat="45.848645625363034" lon="8.883007782374507"><ele>384.4</ele><time>2026-03-28T11:55:21Z</time></trkpt><trkpt lat="45.84866921500572" lon="8.882871588531188"><ele>385.6</ele><time>2026-03-28T11:55:23Z</time></trkpt><trkpt lat="45.848730441250986" lon="8.882692672778452"><ele>386.79999999999995</ele><time>2026-03-28T11:55:25Z</time></trkpt><trkpt lat="45.84876976152916" lon="8.882604191241713"><ele>388.0</ele><time>2026-03-28T11:55:26Z</time></trkpt><trkpt lat="45.84880954940847" lon="8.882519403202052"><ele>388.2</ele><time>2026-03-28T11:55:27Z</time></trkpt><trkpt lat="45.848846188864655" lon="8.882423673653802"><ele>388.4</ele><time>2026-03-28T11:55:28Z</time></trkpt><trkpt lat="45.84887807463146" lon="8.88232465550348"><ele>388.59999999999997</ele><time>2026-03-28T11:55:29Z</time></trkpt><trkpt lat="45.84891421688949" lon="8.882233621957882"><ele>388.79999999999995</ele><time>2026-03-28T11:55:30Z</time></trkpt><trkpt lat="45.8489650481762" lon="8.882100904413527"><ele>389.0</ele><time>2026-03-28T11:55:32Z</time></trkpt><trkpt lat="45.84886975639531" lon="8.881914212968118"><ele>388.99999999999994</ele><time>2026-03-28T11:55:34Z</time></trkpt><trkpt lat="45.848812149672305" lon="8.88183271464623"><ele>389.0</ele><time>2026-03-28T11:55:35Z</time></trkpt><trkpt lat="45.848749059566615" lon="8.881738278132183"><ele>389.0</ele><time>2026-03-28T11:55:36Z</time></trkpt><trkpt lat="45.84867525490509" lon="8.881619971250213"><ele>389.0</ele><time>2026-03-28T11:55:37Z</time></trkpt><trkpt lat="45.84863513390277" lon="8.881519996806395"><ele>388.99999999999994</ele><time>2026-03-28T11:55:38Z</time></trkpt><trkpt lat="45.848571057177786" lon="8.881436966291966"><ele>389.0</ele><time>2026-03-28T11:55:40Z</time></trkpt><trkpt lat="45.848542349627195" lon="8.881353894759098"><ele>388.99999999999994</ele><time>2026-03-28T11:55:41Z</time></trkpt><trkpt lat="45.848506253241545" lon="8.881247082317607"><ele>389.0</ele><time>2026-03-28T11:55:42Z</time></trkpt><trkpt lat="45.848471877301215" lon="8.881145248190032"><ele>389.0</ele><time>2026-03-28T11:55:43Z</time></trkpt><trkpt lat="45.84844780409249" lon="8.881056225256964"><ele>389.0</ele><time>2026-03-28T11:55:44Z</time></trkpt><trkpt lat="45.84842152862084" lon="8.880964573526526"><ele>388.99999999999994</ele><time>2026-03-28T11:55:45Z</time></trkpt><trkpt lat="45.84839061754786" lon="8.880860807009855"><ele>389.0</ele><time>2026-03-28T11:55:46Z</time></trkpt><trkpt lat="45.84835943180683" lon="8.880755321616903"><ele>388.99999999999994</ele><time>2026-03-28T11:55:47Z</time></trkpt><trkpt lat="45.848331124925316" lon="8.880661843001205"><ele>389.0</ele><time>2026-03-28T11:55:48Z</time></trkpt><trkpt lat="45.84830666773041" lon="8.88057108972209"><ele>389.0</ele><time>2026-03-28T11:55:49Z</time></trkpt><trkpt lat="45.84827547728019" lon="8.880468414973116"><ele>389.0</ele><time>2026-03-28T11:55:50Z</time></trkpt><trkpt lat="45.8482387023703" lon="8.880359941414765"><ele>388.99999999999994</ele><time>2026-03-28T11:55:51Z</time></trkpt><trkpt lat="45.848197575522015" lon="8.880239783610389"><ele>389.0</ele><time>2026-03-28T11:55:52Z</time></trkpt><trkpt lat="45.84815751240135" lon="8.880113765645083"><ele>388.99999999999994</ele><time>2026-03-28T11:55:53Z</time></trkpt><trkpt lat="45.84812547143012" lon="8.880005824929231"><ele>389.0</ele><time>2026-03-28T11:55:54Z</time></trkpt><trkpt lat="45.84810051081375" lon="8.879916789619912"><ele>389.0</ele><time>2026-03-28T11:55:55Z</time></trkpt><trkpt lat="45.84807897546838" lon="8.879807748512384"><ele>389.0</ele><time>2026-03-28T11:55:56Z</time></trkpt><trkpt lat="45.84805298855231" lon="8.879675844139296"><ele>388.99999999999994</ele><time>2026-03-28T11:55:57Z</time></trkpt><trkpt lat="45.84803170395395" lon="8.879523660422533"><ele>389.0</ele><time>2026-03-28T11:55:58Z</time></trkpt><trkpt lat="45.84801280525503" lon="8.879353634064813"><ele>388.8333333333333</ele><time>2026-03-28T11:55:59Z</time></trkpt><trkpt lat="45.847993583240175" lon="8.879208451388996"><ele>388.66666666666663</ele><time>2026-03-28T11:56:00Z</time></trkpt><trkpt lat="45.84797722033762" lon="8.87909963041865"><ele>388.5</ele><time>2026-03-28T11:56:01Z</time></trkpt><trkpt lat="45.84795803438928" lon="8.879001980991612"><ele>388.33333333333337</ele><time>2026-03-28T11:56:02Z</time></trkpt><trkpt lat="45.84792752026234" lon="8.878911679880044"><ele>388.1666666666667</ele><time>2026-03-28T11:56:03Z</time></trkpt><trkpt lat="45.8478962462072" lon="8.878826081938044"><ele>388.0</ele><time>2026-03-28T11:56:04Z</time></trkpt><trkpt lat="45.847853450578505" lon="8.87872973121116"><ele>388.0</ele><time>2026-03-28T11:56:05Z</time></trkpt><trkpt lat="45.84779443454964" lon="8.878612031918978"><ele>388.0</ele><time>2026-03-28T11:56:06Z</time></trkpt><trkpt lat="45.847749081279225" lon="8.878477511110951"><ele>388.0</ele><time>2026-03-28T11:56:07Z</time></trkpt><trkpt lat="45.84774253788701" lon="8.87833109945407"><ele>388.0</ele><time>2026-03-28T11:56:08Z</time></trkpt><trkpt lat="45.847739643364626" lon="8.878204721601238"><ele>388.0</ele><time>2026-03-28T11:56:09Z</time></trkpt><trkpt lat="45.847744018519045" lon="8.87806497573658"><ele>388.00000000000006</ele><time>2026-03-28T11:56:10Z</time></trkpt><trkpt lat="45.84774027519332" lon="8.877919550896715"><ele>388.0</ele><time>2026-03-28T11:56:11Z</time></trkpt><trkpt lat="45.847749627506616" lon="8.877779829720712"><ele>388.0</ele><time>2026-03-28T11:56:12Z</time></trkpt><trkpt lat="45.84775573604539" lon="8.87764846358735"><ele>388.0</ele><time>2026-03-28T11:56:13Z</time></trkpt><trkpt lat="45.847761758922005" lon="8.87753509798012"><ele>388.00000000000006</ele><time>2026-03-28T11:56:14Z</time></trkpt><trkpt lat="45.8477659024348" lon="8.877431192316974"><ele>388.0</ele><time>2026-03-28T11:56:15Z</time></trkpt><trkpt lat="45.84776806577739" lon="8.877307962858131"><ele>388.0</ele><time>2026-03-28T11:56:16Z</time></trkpt><trkpt lat="45.84776428729211" lon="8.877157588508014"><ele>388.0</ele><time>2026-03-28T11:56:17Z</time></trkpt><trkpt lat="45.8477605136492" lon="8.876993980233648"><ele>388.0</ele><time>2026-03-28T11:56:18Z</time></trkpt><trkpt lat="45.84775509327206" lon="8.876836023703143"><ele>388.0</ele><time>2026-03-28T11:56:19Z</time></trkpt><trkpt lat="45.847739047904284" lon="8.876715700953511"><ele>388.0</ele><time>2026-03-28T11:56:20Z</time></trkpt><trkpt lat="45.84771292206777" lon="8.876622628661956"><ele>387.83333333333337</ele><time>2026-03-28T11:56:21Z</time></trkpt><trkpt lat="45.84767684058021" lon="8.876511268959854"><ele>387.6666666666667</ele><time>2026-03-28T11:56:22Z</time></trkpt><trkpt lat="45.84763114913038" lon="8.876391471072871"><ele>387.5</ele><time>2026-03-28T11:56:23Z</time></trkpt><trkpt lat="45.84757436621408" lon="8.87626352746783"><ele>387.33333333333337</ele><time>2026-03-28T11:56:24Z</time></trkpt><trkpt lat="45.847540067566534" lon="8.876160535807912"><ele>387.1666666666667</ele><time>2026-03-28T11:56:25Z</time></trkpt><trkpt lat="45.84754100561929" lon="8.876053273998403"><ele>387.0</ele><time>2026-03-28T11:56:27Z</time></trkpt><trkpt lat="45.8475382480929" lon="8.875955502788596"><ele>388.7142857142857</ele><time>2026-03-28T11:56:30Z</time></trkpt><trkpt lat="45.84747772871367" lon="8.875888282047791"><ele>390.42857142857144</ele><time>2026-03-28T11:56:37Z</time></trkpt><trkpt lat="45.8474164465859" lon="8.875850168380067"><ele>392.1428571428571</ele><time>2026-03-28T11:56:38Z</time></trkpt><trkpt lat="45.84739408472775" lon="8.875763216413624"><ele>393.8571428571429</ele><time>2026-03-28T11:56:39Z</time></trkpt><trkpt lat="45.84735646933383" lon="8.875681549884074"><ele>395.57142857142856</ele><time>2026-03-28T11:56:40Z</time></trkpt><trkpt lat="45.84731258875804" lon="8.875587107299124"><ele>397.2857142857143</ele><time>2026-03-28T11:56:41Z</time></trkpt><trkpt lat="45.84726199696481" lon="8.875503043433369"><ele>399.0</ele><time>2026-03-28T11:56:42Z</time></trkpt><trkpt lat="45.84721555914952" lon="8.875405313183817"><ele>399.0</ele><time>2026-03-28T11:56:43Z</time></trkpt><trkpt lat="45.847151986945164" lon="8.875298950704565"><ele>399.0</ele><time>2026-03-28T11:56:44Z</time></trkpt><trkpt lat="45.84709549921261" lon="8.8751683187277"><ele>399.0</ele><time>2026-03-28T11:56:45Z</time></trkpt><trkpt lat="45.84702152754502" lon="8.875116101543943"><ele>399.0</ele><time>2026-03-28T11:56:46Z</time></trkpt><trkpt lat="45.84693220881968" lon="8.875008438737515"><ele>399.0</ele><time>2026-03-28T11:56:48Z</time></trkpt><trkpt lat="45.84688580170158" lon="8.874898030966342"><ele>401.4</ele><time>2026-03-28T11:56:50Z</time></trkpt><trkpt lat="45.84690934672781" lon="8.874810676460257"><ele>403.79999999999995</ele><time>2026-03-28T11:56:51Z</time></trkpt><trkpt lat="45.84697066002255" lon="8.874742235822545"><ele>406.20000000000005</ele><time>2026-03-28T11:56:52Z</time></trkpt><trkpt lat="45.84702212494832" lon="8.874624977401979"><ele>408.6</ele><time>2026-03-28T11:56:53Z</time></trkpt><trkpt lat="45.84711052916645" lon="8.874502596384792"><ele>411.0</ele><time>2026-03-28T11:56:54Z</time></trkpt><trkpt lat="45.847200801547785" lon="8.874369176977954"><ele>411.1666666666667</ele><time>2026-03-28T11:56:55Z</time></trkpt><trkpt lat="45.84727479882819" lon="8.874258245964375"><ele>411.33333333333337</ele><time>2026-03-28T11:56:56Z</time></trkpt><trkpt lat="45.84733443031165" lon="8.87419513525168"><ele>411.5</ele><time>2026-03-28T11:56:57Z</time></trkpt><trkpt lat="45.847397889597026" lon="8.874139957831282"><ele>411.6666666666667</ele><time>2026-03-28T11:56:58Z</time></trkpt><trkpt lat="45.84746886956096" lon="8.874099640513325"><ele>411.83333333333337</ele><time>2026-03-28T11:56:59Z</time></trkpt><trkpt lat="45.84756573938017" lon="8.874044460204031"><ele>412.0</ele><time>2026-03-28T11:57:01Z</time></trkpt><trkpt lat="45.84764549311984" lon="8.873969633678017"><ele>412.00000000000006</ele><time>2026-03-28T11:57:03Z</time></trkpt><trkpt lat="45.84771515152048" lon="8.873890301751088"><ele>412.0</ele><time>2026-03-28T11:57:05Z</time></trkpt><trkpt lat="45.84771224333038" lon="8.873793821301858"><ele>412.0</ele><time>2026-03-28T11:57:06Z</time></trkpt><trkpt lat="45.84768180245444" lon="8.873701442010098"><ele>412.0</ele><time>2026-03-28T11:57:07Z</time></trkpt><trkpt lat="45.84760596569013" lon="8.873617711498326"><ele>412.00000000000006</ele><time>2026-03-28T11:57:08Z</time></trkpt><trkpt lat="45.847544463948196" lon="8.873514441982966"><ele>412.0</ele><time>2026-03-28T11:57:09Z</time></trkpt><trkpt lat="45.84748575695093" lon="8.87340137674998"><ele>414.1666666666667</ele><time>2026-03-28T11:57:10Z</time></trkpt><trkpt lat="45.84743973871484" lon="8.873269457739072"><ele>416.33333333333337</ele><time>2026-03-28T11:57:11Z</time></trkpt><trkpt lat="45.847385935627344" lon="8.873154009580547"><ele>418.5</ele><time>2026-03-28T11:57:12Z</time></trkpt><trkpt lat="45.847329113636604" lon="8.87303143940405"><ele>420.66666666666663</ele><time>2026-03-28T11:57:13Z</time></trkpt><trkpt lat="45.847273209137526" lon="8.872947545010303"><ele>422.8333333333333</ele><time>2026-03-28T11:57:14Z</time></trkpt><trkpt lat="45.84723940344095" lon="8.872869674668252"><ele>425.0</ele><time>2026-03-28T11:57:15Z</time></trkpt><trkpt lat="45.84718271295997" lon="8.872749988150465"><ele>426.75</ele><time>2026-03-28T11:57:17Z</time></trkpt><trkpt lat="45.847119575839955" lon="8.872586082848775"><ele>428.5</ele><time>2026-03-28T11:57:19Z</time></trkpt><trkpt lat="45.84706046408896" lon="8.87250021212144"><ele>430.25</ele><time>2026-03-28T11:57:20Z</time></trkpt><trkpt lat="45.84702351577093" lon="8.87241400260314"><ele>432.0</ele><time>2026-03-28T11:57:23Z</time></trkpt><trkpt lat="45.84715766562646" lon="8.872259951037657"><ele>432.0</ele><time>2026-03-28T11:57:29Z</time></trkpt><trkpt lat="45.84725233754022" lon="8.872191266242071"><ele>432.00000000000006</ele><time>2026-03-28T11:57:31Z</time></trkpt><trkpt lat="45.84733728761678" lon="8.872113501291091"><ele>432.00000000000006</ele><time>2026-03-28T11:57:33Z</time></trkpt><trkpt lat="45.84742154368163" lon="8.872041692246594"><ele>432.0</ele><time>2026-03-28T11:57:35Z</time></trkpt><trkpt lat="45.84753193491457" lon="8.871940542550561"><ele>432.0</ele><time>2026-03-28T11:57:37Z</time></trkpt><trkpt lat="45.84759704819058" lon="8.871883356170539"><ele>432.6666666666667</ele><time>2026-03-28T11:57:38Z</time></trkpt><trkpt lat="45.84767742507621" lon="8.871824147082423"><ele>433.33333333333337</ele><time>2026-03-28T11:57:39Z</time></trkpt><trkpt lat="45.847739333357175" lon="8.871770289628344"><ele>434.0</ele><time>2026-03-28T11:57:40Z</time></trkpt><trkpt lat="45.84782334680078" lon="8.87170462725246"><ele>434.6666666666667</ele><time>2026-03-28T11:57:42Z</time></trkpt><trkpt lat="45.84792017891571" lon="8.871622413992748"><ele>435.33333333333337</ele><time>2026-03-28T11:57:44Z</time></trkpt><trkpt lat="45.84797374393517" lon="8.871544192472125"><ele>436.0</ele><time>2026-03-28T11:57:46Z</time></trkpt><trkpt lat="45.84797442901789" lon="8.871428002254167"><ele>436.50000000000006</ele><time>2026-03-28T11:57:48Z</time></trkpt><trkpt lat="45.84792451076609" lon="8.871297653830617"><ele>437.0</ele><time>2026-03-28T11:57:50Z</time></trkpt><trkpt lat="45.847887322052756" lon="8.87117404528269"><ele>437.5</ele><time>2026-03-28T11:57:52Z</time></trkpt><trkpt lat="45.84784841988344" lon="8.871073579707758"><ele>438.0</ele><time>2026-03-28T11:57:54Z</time></trkpt><trkpt lat="45.8478153113757" lon="8.870972184514983"><ele>438.50000000000006</ele><time>2026-03-28T11:57:56Z</time></trkpt><trkpt lat="45.8478562440758" lon="8.870876926196049"><ele>439.0</ele><time>2026-03-28T11:57:58Z</time></trkpt><trkpt lat="45.847920829671615" lon="8.870876527408823"><ele>439.00000000000006</ele><time>2026-03-28T11:57:59Z</time></trkpt><trkpt lat="45.84799953788633" lon="8.870735122579573"><ele>439.0</ele><time>2026-03-28T11:58:01Z</time></trkpt><trkpt lat="45.8480557560063" lon="8.87065359561281"><ele>439.0</ele><time>2026-03-28T11:58:02Z</time></trkpt><trkpt lat="45.84813137008746" lon="8.870585926435165"><ele>439.0</ele><time>2026-03-28T11:58:03Z</time></trkpt><trkpt lat="45.84819321982833" lon="8.870508567555708"><ele>439.00000000000006</ele><time>2026-03-28T11:58:04Z</time></trkpt><trkpt lat="45.84824239885672" lon="8.870450348471813"><ele>439.0</ele><time>2026-03-28T11:58:05Z</time></trkpt><trkpt lat="45.84829594739172" lon="8.870390737486135"><ele>439.00000000000006</ele><time>2026-03-28T11:58:06Z</time></trkpt><trkpt lat="45.8483634348782" lon="8.870320447402364"><ele>439.0</ele><time>2026-03-28T11:58:07Z</time></trkpt><trkpt lat="45.84843090516247" lon="8.870254627093695"><ele>439.0</ele><time>2026-03-28T11:58:08Z</time></trkpt><trkpt lat="45.84849700330989" lon="8.870190152504708"><ele>439.0</ele><time>2026-03-28T11:58:09Z</time></trkpt><trkpt lat="45.84856131267304" lon="8.870125654519365"><ele>439.00000000000006</ele><time>2026-03-28T11:58:10Z</time></trkpt><trkpt lat="45.848622638769335" lon="8.87006084920606"><ele>439.0</ele><time>2026-03-28T11:58:11Z</time></trkpt><trkpt lat="45.84867734861369" lon="8.870002806792542"><ele>437.83333333333337</ele><time>2026-03-28T11:58:12Z</time></trkpt><trkpt lat="45.84873139048173" lon="8.869945473032448"><ele>436.6666666666667</ele><time>2026-03-28T11:58:13Z</time></trkpt><trkpt lat="45.84877455314379" lon="8.869870194676844"><ele>435.5</ele><time>2026-03-28T11:58:14Z</time></trkpt><trkpt lat="45.84883658417209" lon="8.869835510517792"><ele>434.33333333333337</ele><time>2026-03-28T11:58:15Z</time></trkpt><trkpt lat="45.84893054967313" lon="8.869740295635921"><ele>433.1666666666667</ele><time>2026-03-28T11:58:17Z</time></trkpt><trkpt lat="45.849015042108114" lon="8.869629973871177"><ele>432.0</ele><time>2026-03-28T11:58:19Z</time></trkpt><trkpt lat="45.84906483364912" lon="8.86953333217664"><ele>432.0</ele><time>2026-03-28T11:58:21Z</time></trkpt><trkpt lat="45.84910804361613" lon="8.869432492837438"><ele>432.0</ele><time>2026-03-28T11:58:23Z</time></trkpt><trkpt lat="45.84916601083469" lon="8.869324566726846"><ele>432.0</ele><time>2026-03-28T11:58:25Z</time></trkpt><trkpt lat="45.849278052111565" lon="8.869318402439287"><ele>432.0</ele><time>2026-03-28T11:58:27Z</time></trkpt><trkpt lat="45.84934126930089" lon="8.869311615587748"><ele>432.0</ele><time>2026-03-28T11:58:28Z</time></trkpt><trkpt lat="45.84940657209042" lon="8.86929990885499"><ele>432.0</ele><time>2026-03-28T11:58:29Z</time></trkpt><trkpt lat="45.849478123571664" lon="8.869279086277235"><ele>429.5</ele><time>2026-03-28T11:58:30Z</time></trkpt><trkpt lat="45.84954933599839" lon="8.869250208743289"><ele>427.0</ele><time>2026-03-28T11:58:31Z</time></trkpt><trkpt lat="45.84962894781821" lon="8.869218368763034"><ele>424.5</ele><time>2026-03-28T11:58:32Z</time></trkpt><trkpt lat="45.84970978017895" lon="8.869215531961892"><ele>422.0</ele><time>2026-03-28T11:58:33Z</time></trkpt><trkpt lat="45.849785586279516" lon="8.869180199113227"><ele>419.5</ele><time>2026-03-28T11:58:34Z</time></trkpt><trkpt lat="45.849858060671345" lon="8.869213204422714"><ele>417.0</ele><time>2026-03-28T11:58:35Z</time></trkpt><trkpt lat="45.849932313508994" lon="8.869216315670474"><ele>417.0</ele><time>2026-03-28T11:58:36Z</time></trkpt><trkpt lat="45.85000205525727" lon="8.869210345073038"><ele>417.0</ele><time>2026-03-28T11:58:37Z</time></trkpt><trkpt lat="45.850068884329914" lon="8.86917580573757"><ele>417.0</ele><time>2026-03-28T11:58:38Z</time></trkpt><trkpt lat="45.85013305469459" lon="8.86917259203396"><ele>417.0</ele><time>2026-03-28T11:58:39Z</time></trkpt><trkpt lat="45.850196472658965" lon="8.869169402057146"><ele>417.0</ele><time>2026-03-28T11:58:40Z</time></trkpt><trkpt lat="45.850264852910385" lon="8.869183142098464"><ele>417.0</ele><time>2026-03-28T11:58:41Z</time></trkpt><trkpt lat="45.850328542157115" lon="8.869206874906"><ele>417.0</ele><time>2026-03-28T11:58:42Z</time></trkpt><trkpt lat="45.850396535215616" lon="8.869230600368956"><ele>413.20000000000005</ele><time>2026-03-28T11:58:43Z</time></trkpt><trkpt lat="45.85045958758322" lon="8.869251134569744"><ele>409.4</ele><time>2026-03-28T11:58:44Z</time></trkpt><trkpt lat="45.85052501348693" lon="8.869257537513535"><ele>405.6</ele><time>2026-03-28T11:58:45Z</time></trkpt><trkpt lat="45.85063739926781" lon="8.869251500136683"><ele>401.79999999999995</ele><time>2026-03-28T11:58:47Z</time></trkpt><trkpt lat="45.85073222040154" lon="8.869155857783044"><ele>398.0</ele><time>2026-03-28T11:58:49Z</time></trkpt><trkpt lat="45.85075095067802" lon="8.868969224287278"><ele>397.99999999999994</ele><time>2026-03-28T11:58:51Z</time></trkpt><trkpt lat="45.85073887655537" lon="8.868853673752792"><ele>398.0</ele><time>2026-03-28T11:58:52Z</time></trkpt><trkpt lat="45.85074277875352" lon="8.868730435884403"><ele>398.0</ele><time>2026-03-28T11:58:53Z</time></trkpt><trkpt lat="45.85074480840023" lon="8.868588349844735"><ele>398.0</ele><time>2026-03-28T11:58:54Z</time></trkpt><trkpt lat="45.85074550330786" lon="8.868470576384826"><ele>397.99999999999994</ele><time>2026-03-28T11:58:55Z</time></trkpt><trkpt lat="45.850746379181835" lon="8.86835277254913"><ele>398.0</ele><time>2026-03-28T11:58:56Z</time></trkpt><trkpt lat="45.85074356455308" lon="8.868203853176391"><ele>397.0</ele><time>2026-03-28T11:58:57Z</time></trkpt><trkpt lat="45.850743189410096" lon="8.868035346423273"><ele>396.0</ele><time>2026-03-28T11:58:58Z</time></trkpt><trkpt lat="45.850735740906096" lon="8.867863628954995"><ele>395.0</ele><time>2026-03-28T11:58:59Z</time></trkpt><trkpt lat="45.850737558399906" lon="8.867685300638694"><ele>394.0</ele><time>2026-03-28T11:59:00Z</time></trkpt><trkpt lat="45.850737735185895" lon="8.867500471461627"><ele>393.6</ele><time>2026-03-28T11:59:01Z</time></trkpt><trkpt lat="45.85073195446662" lon="8.867311636790387"><ele>393.2</ele><time>2026-03-28T11:59:02Z</time></trkpt><trkpt lat="45.85072785496031" lon="8.867149222008173"><ele>392.8</ele><time>2026-03-28T11:59:03Z</time></trkpt><trkpt lat="45.85072559125181" lon="8.867006405762929"><ele>392.40000000000003</ele><time>2026-03-28T11:59:04Z</time></trkpt><trkpt lat="45.85071325475892" lon="8.86687178047862"><ele>392.0</ele><time>2026-03-28T11:59:05Z</time></trkpt><trkpt lat="45.850683675723694" lon="8.866733784946572"><ele>391.0</ele><time>2026-03-28T11:59:06Z</time></trkpt><trkpt lat="45.85065606256134" lon="8.866590385270458"><ele>390.0</ele><time>2026-03-28T11:59:07Z</time></trkpt><trkpt lat="45.850617292754606" lon="8.866460123303133"><ele>389.0</ele><time>2026-03-28T11:59:08Z</time></trkpt><trkpt lat="45.850561438237115" lon="8.86634517878039"><ele>388.0</ele><time>2026-03-28T11:59:09Z</time></trkpt><trkpt lat="45.85049877625585" lon="8.866240538517074"><ele>387.0</ele><time>2026-03-28T11:59:10Z</time></trkpt><trkpt lat="45.850450098099074" lon="8.866102133333772"><ele>387.0</ele><time>2026-03-28T11:59:11Z</time></trkpt><trkpt lat="45.850409115413505" lon="8.865957455988864"><ele>387.0</ele><time>2026-03-28T11:59:12Z</time></trkpt><trkpt lat="45.85037362618181" lon="8.8658107842915"><ele>387.0</ele><time>2026-03-28T11:59:13Z</time></trkpt><trkpt lat="45.850333881015004" lon="8.865702023444534"><ele>387.0</ele><time>2026-03-28T11:59:14Z</time></trkpt><trkpt lat="45.85029055830597" lon="8.865598588820822"><ele>387.0</ele><time>2026-03-28T11:59:15Z</time></trkpt><trkpt lat="45.850232910597" lon="8.865486042824012"><ele>386.6</ele><time>2026-03-28T11:59:16Z</time></trkpt><trkpt lat="45.85015437999722" lon="8.865385519396725"><ele>386.20000000000005</ele><time>2026-03-28T11:59:17Z</time></trkpt><trkpt lat="45.85006582472731" lon="8.865318493176565"><ele>385.8</ele><time>2026-03-28T11:59:18Z</time></trkpt><trkpt lat="45.84999311782127" lon="8.865261904053263"><ele>385.4</ele><time>2026-03-28T11:59:19Z</time></trkpt><trkpt lat="45.84992146904937" lon="8.865213769558967"><ele>385.0</ele><time>2026-03-28T11:59:20Z</time></trkpt><trkpt lat="45.84983649438043" lon="8.865174145404266"><ele>385.8</ele><time>2026-03-28T11:59:21Z</time></trkpt><trkpt lat="45.8497474845043" lon="8.865113148100663"><ele>386.6</ele><time>2026-03-28T11:59:22Z</time></trkpt><trkpt lat="45.84964026990131" lon="8.865052866686861"><ele>387.4</ele><time>2026-03-28T11:59:23Z</time></trkpt><trkpt lat="45.8495199473408" lon="8.865006113808219"><ele>388.2</ele><time>2026-03-28T11:59:24Z</time></trkpt><trkpt lat="45.84942246491389" lon="8.864979788208682"><ele>389.0</ele><time>2026-03-28T11:59:25Z</time></trkpt><trkpt lat="45.849336884337035" lon="8.864960831397362"><ele>389.66666666666663</ele><time>2026-03-28T11:59:26Z</time></trkpt><trkpt lat="45.84924468449652" lon="8.864945809222082"><ele>390.3333333333333</ele><time>2026-03-28T11:59:27Z</time></trkpt><trkpt lat="45.84915636215166" lon="8.864938999653225"><ele>391.0</ele><time>2026-03-28T11:59:28Z</time></trkpt><trkpt lat="45.84907259500558" lon="8.864946687178412"><ele>391.66666666666663</ele><time>2026-03-28T11:59:29Z</time></trkpt><trkpt lat="45.849003449247455" lon="8.864954297701646"><ele>392.3333333333333</ele><time>2026-03-28T11:59:30Z</time></trkpt><trkpt lat="45.84893921101479" lon="8.864950233953024"><ele>393.0</ele><time>2026-03-28T11:59:31Z</time></trkpt><trkpt lat="45.848840487833655" lon="8.864898674329533"><ele>393.0</ele><time>2026-03-28T11:59:33Z</time></trkpt><trkpt lat="45.84878423775572" lon="8.864789278192307"><ele>393.0</ele><time>2026-03-28T11:59:35Z</time></trkpt><trkpt lat="45.848814864577605" lon="8.864642540413481"><ele>393.0</ele><time>2026-03-28T11:59:37Z</time></trkpt><trkpt lat="45.84882700837723" lon="8.864528129271733"><ele>393.0</ele><time>2026-03-28T11:59:38Z</time></trkpt><trkpt lat="45.84881921501974" lon="8.864403951205322"><ele>393.0</ele><time>2026-03-28T11:59:39Z</time></trkpt><trkpt lat="45.84883351768375" lon="8.864268142907438"><ele>392.1666666666667</ele><time>2026-03-28T11:59:40Z</time></trkpt><trkpt lat="45.84884927179228" lon="8.86412666844715"><ele>391.33333333333337</ele><time>2026-03-28T11:59:41Z</time></trkpt><trkpt lat="45.84885087100191" lon="8.863999412717753"><ele>390.5</ele><time>2026-03-28T11:59:42Z</time></trkpt><trkpt lat="45.84883787609965" lon="8.863888872941416"><ele>389.6666666666667</ele><time>2026-03-28T11:59:43Z</time></trkpt><trkpt lat="45.84883406354269" lon="8.86379488402383"><ele>388.83333333333337</ele><time>2026-03-28T11:59:44Z</time></trkpt><trkpt lat="45.84881876241808" lon="8.863646842540554"><ele>388.0</ele><time>2026-03-28T11:59:46Z</time></trkpt><trkpt lat="45.84879377273265" lon="8.863518879920655"><ele>388.1666666666667</ele><time>2026-03-28T11:59:48Z</time></trkpt><trkpt lat="45.84878795313967" lon="8.863394174365645"><ele>388.33333333333337</ele><time>2026-03-28T11:59:50Z</time></trkpt><trkpt lat="45.84876546666382" lon="8.863239526939672"><ele>388.5</ele><time>2026-03-28T11:59:52Z</time></trkpt><trkpt lat="45.848773676236135" lon="8.863149646387907"><ele>388.66666666666663</ele><time>2026-03-28T11:59:54Z</time></trkpt><trkpt lat="45.84885623766762" lon="8.86313312651911"><ele>388.8333333333333</ele><time>2026-03-28T12:00:08Z</time></trkpt><trkpt lat="45.848917161629046" lon="8.863161440405971"><ele>389.0</ele><time>2026-03-28T12:00:09Z</time></trkpt><trkpt lat="45.84898666370278" lon="8.863204284109845"><ele>389.0</ele><time>2026-03-28T12:00:10Z</time></trkpt><trkpt lat="45.8490499997769" lon="8.863213851219864"><ele>389.0</ele><time>2026-03-28T12:00:11Z</time></trkpt><trkpt lat="45.84911871332156" lon="8.86321137987495"><ele>389.0</ele><time>2026-03-28T12:00:12Z</time></trkpt><trkpt lat="45.84919617460361" lon="8.863028613382058"><ele>389.0</ele><time>2026-03-28T12:00:14Z</time></trkpt><trkpt lat="45.849203434180545" lon="8.862903898107755"><ele>389.0</ele><time>2026-03-28T12:00:15Z</time></trkpt><trkpt lat="45.849221259162135" lon="8.862777014718949"><ele>389.0</ele><time>2026-03-28T12:00:16Z</time></trkpt><trkpt lat="45.849272257835935" lon="8.8626642226624"><ele>389.0</ele><time>2026-03-28T12:00:17Z</time></trkpt><trkpt lat="45.84934518317626" lon="8.862593231984102"><ele>389.0</ele><time>2026-03-28T12:00:18Z</time></trkpt><trkpt lat="45.84942995492801" lon="8.862555569300119"><ele>389.0</ele><time>2026-03-28T12:00:19Z</time></trkpt><trkpt lat="45.8495305878937" lon="8.862529619122137"><ele>389.0</ele><time>2026-03-28T12:00:20Z</time></trkpt><trkpt lat="45.849642409316914" lon="8.862497857431073"><ele>389.25</ele><time>2026-03-28T12:00:21Z</time></trkpt><trkpt lat="45.849762448067175" lon="8.862454820846638"><ele>389.5</ele><time>2026-03-28T12:00:22Z</time></trkpt><trkpt lat="45.84988040926472" lon="8.862408752056702"><ele>389.75</ele><time>2026-03-28T12:00:23Z</time></trkpt><trkpt lat="45.84998631158593" lon="8.862370080681005"><ele>390.0</ele><time>2026-03-28T12:00:24Z</time></trkpt><trkpt lat="45.8500841562841" lon="8.862331655392772"><ele>389.8</ele><time>2026-03-28T12:00:25Z</time></trkpt><trkpt lat="45.85018783913985" lon="8.862290078770577"><ele>389.6</ele><time>2026-03-28T12:00:26Z</time></trkpt><trkpt lat="45.85029228820596" lon="8.862251453972572"><ele>389.4</ele><time>2026-03-28T12:00:27Z</time></trkpt><trkpt lat="45.85040056393552" lon="8.862212042424003"><ele>389.2</ele><time>2026-03-28T12:00:28Z</time></trkpt><trkpt lat="45.85049380710451" lon="8.862177174329958"><ele>389.0</ele><time>2026-03-28T12:00:29Z</time></trkpt><trkpt lat="45.85058031447613" lon="8.862142828002407"><ele>389.0</ele><time>2026-03-28T12:00:30Z</time></trkpt><trkpt lat="45.85066876754625" lon="8.862111253645038"><ele>389.0</ele><time>2026-03-28T12:00:31Z</time></trkpt><trkpt lat="45.85075225426151" lon="8.862081950241862"><ele>389.0</ele><time>2026-03-28T12:00:32Z</time></trkpt><trkpt lat="45.850834755316384" lon="8.86204899384637"><ele>389.0</ele><time>2026-03-28T12:00:33Z</time></trkpt><trkpt lat="45.850928697826056" lon="8.862011851005201"><ele>389.0</ele><time>2026-03-28T12:00:34Z</time></trkpt><trkpt lat="45.85103281639932" lon="8.861972285473348"><ele>388.0</ele><time>2026-03-28T12:00:35Z</time></trkpt><trkpt lat="45.851127971772996" lon="8.861937600954036"><ele>387.0</ele><time>2026-03-28T12:00:36Z</time></trkpt><trkpt lat="45.851220179540384" lon="8.861901221753016"><ele>386.0</ele><time>2026-03-28T12:00:37Z</time></trkpt><trkpt lat="45.85131185108633" lon="8.861862738879985"><ele>385.0</ele><time>2026-03-28T12:00:38Z</time></trkpt><trkpt lat="45.851413503550745" lon="8.861814912428008"><ele>384.0</ele><time>2026-03-28T12:00:39Z</time></trkpt><trkpt lat="45.85151359644989" lon="8.861767958599584"><ele>383.79999999999995</ele><time>2026-03-28T12:00:40Z</time></trkpt><trkpt lat="45.8516037594125" lon="8.861730079953052"><ele>383.59999999999997</ele><time>2026-03-28T12:00:41Z</time></trkpt><trkpt lat="45.85169239310465" lon="8.861691148983281"><ele>383.4</ele><time>2026-03-28T12:00:42Z</time></trkpt><trkpt lat="45.85179000915007" lon="8.861650448470824"><ele>383.2</ele><time>2026-03-28T12:00:43Z</time></trkpt><trkpt lat="45.85187701732249" lon="8.861615185798962"><ele>383.0</ele><time>2026-03-28T12:00:44Z</time></trkpt><trkpt lat="45.85197229441115" lon="8.86157436744144"><ele>382.59999999999997</ele><time>2026-03-28T12:00:45Z</time></trkpt><trkpt lat="45.85207179863539" lon="8.861529395848477"><ele>382.2</ele><time>2026-03-28T12:00:46Z</time></trkpt><trkpt lat="45.852162646268134" lon="8.861487396895836"><ele>381.8</ele><time>2026-03-28T12:00:47Z</time></trkpt><trkpt lat="45.85224197661367" lon="8.861443345241977"><ele>381.4</ele><time>2026-03-28T12:00:48Z</time></trkpt><trkpt lat="45.85231796581242" lon="8.861394719966501"><ele>381.0</ele><time>2026-03-28T12:00:49Z</time></trkpt><trkpt lat="45.85239333478975" lon="8.861342731923882"><ele>381.0</ele><time>2026-03-28T12:00:50Z</time></trkpt><trkpt lat="45.85247724134269" lon="8.861297974855148"><ele>381.0</ele><time>2026-03-28T12:00:51Z</time></trkpt><trkpt lat="45.85256882598098" lon="8.861267058607014"><ele>381.0</ele><time>2026-03-28T12:00:52Z</time></trkpt><trkpt lat="45.85265868584204" lon="8.861251159948313"><ele>381.0</ele><time>2026-03-28T12:00:53Z</time></trkpt><trkpt lat="45.852737797638284" lon="8.861243808843046"><ele>381.0</ele><time>2026-03-28T12:00:54Z</time></trkpt><trkpt lat="45.852812013967004" lon="8.861239666999747"><ele>381.0</ele><time>2026-03-28T12:00:55Z</time></trkpt><trkpt lat="45.852885824818095" lon="8.861228750706548"><ele>380.8333333333333</ele><time>2026-03-28T12:00:56Z</time></trkpt><trkpt lat="45.85295715964334" lon="8.86121057902225"><ele>380.6666666666667</ele><time>2026-03-28T12:00:57Z</time></trkpt><trkpt lat="45.853037109216324" lon="8.861186207033592"><ele>380.5</ele><time>2026-03-28T12:00:58Z</time></trkpt><trkpt lat="45.85311291565652" lon="8.861159299965431"><ele>380.33333333333337</ele><time>2026-03-28T12:00:59Z</time></trkpt><trkpt lat="45.85318742423749" lon="8.861129990749975"><ele>380.1666666666667</ele><time>2026-03-28T12:01:00Z</time></trkpt><trkpt lat="45.853271215432514" lon="8.861099597578239"><ele>380.0</ele><time>2026-03-28T12:01:01Z</time></trkpt><trkpt lat="45.85336138569999" lon="8.861065885250598"><ele>380.0</ele><time>2026-03-28T12:01:02Z</time></trkpt><trkpt lat="45.853451557642174" lon="8.861034692718704"><ele>380.0</ele><time>2026-03-28T12:01:03Z</time></trkpt><trkpt lat="45.85353818829948" lon="8.861001926777934"><ele>380.0</ele><time>2026-03-28T12:01:04Z</time></trkpt><trkpt lat="45.853627603535585" lon="8.860974207795447"><ele>380.0</ele><time>2026-03-28T12:01:05Z</time></trkpt><trkpt lat="45.8537226815817" lon="8.860946023205443"><ele>380.0</ele><time>2026-03-28T12:01:06Z</time></trkpt><trkpt lat="45.85382508814908" lon="8.860917192221063"><ele>380.2</ele><time>2026-03-28T12:01:07Z</time></trkpt><trkpt lat="45.853926533653876" lon="8.86089179388553"><ele>380.4</ele><time>2026-03-28T12:01:08Z</time></trkpt><trkpt lat="45.85404137505693" lon="8.860872468105562"><ele>380.6</ele><time>2026-03-28T12:01:09Z</time></trkpt><trkpt lat="45.854127798320164" lon="8.860855529524951"><ele>380.8</ele><time>2026-03-28T12:01:10Z</time></trkpt><trkpt lat="45.85421225337064" lon="8.860838376343814"><ele>381.0</ele><time>2026-03-28T12:01:11Z</time></trkpt><trkpt lat="45.85428578610154" lon="8.860825199055512"><ele>380.8</ele><time>2026-03-28T12:01:12Z</time></trkpt><trkpt lat="45.8543699552205" lon="8.86078578691957"><ele>380.6</ele><time>2026-03-28T12:01:14Z</time></trkpt><trkpt lat="45.85444113912006" lon="8.860767137244139"><ele>380.4</ele><time>2026-03-28T12:01:16Z</time></trkpt><trkpt lat="45.8544328664284" lon="8.860626365494612"><ele>380.2</ele><time>2026-03-28T12:01:17Z</time></trkpt><trkpt lat="45.85441045332461" lon="8.860519502435617"><ele>380.0</ele><time>2026-03-28T12:01:19Z</time></trkpt><trkpt lat="45.854353326730504" lon="8.860344278137502"><ele>380.0</ele><time>2026-03-28T12:01:21Z</time></trkpt><trkpt lat="45.85432523034289" lon="8.86023284511223"><ele>380.0</ele><time>2026-03-28T12:01:22Z</time></trkpt><trkpt lat="45.854307200708924" lon="8.860129310206474"><ele>380.0</ele><time>2026-03-28T12:01:23Z</time></trkpt><trkpt lat="45.854294591430225" lon="8.860029872341888"><ele>380.0</ele><time>2026-03-28T12:01:24Z</time></trkpt><trkpt lat="45.85429457268962" lon="8.85991762210112"><ele>380.0</ele><time>2026-03-28T12:01:25Z</time></trkpt><trkpt lat="45.85430673227919" lon="8.859792841751378"><ele>380.0</ele><time>2026-03-28T12:01:26Z</time></trkpt><trkpt lat="45.85432649459111" lon="8.859641790692217"><ele>380.4</ele><time>2026-03-28T12:01:27Z</time></trkpt><trkpt lat="45.85435044881234" lon="8.859521097410276"><ele>380.8</ele><time>2026-03-28T12:01:28Z</time></trkpt><trkpt lat="45.85437995995879" lon="8.859389788212752"><ele>381.20000000000005</ele><time>2026-03-28T12:01:29Z</time></trkpt><trkpt lat="45.85441695352261" lon="8.8592495680242"><ele>381.6</ele><time>2026-03-28T12:01:30Z</time></trkpt><trkpt lat="45.854449048527435" lon="8.859111644560068"><ele>382.0</ele><time>2026-03-28T12:01:31Z</time></trkpt><trkpt lat="45.85449312433404" lon="8.858961314686836"><ele>382.0</ele><time>2026-03-28T12:01:32Z</time></trkpt><trkpt lat="45.854530110818395" lon="8.858818138755469"><ele>382.0</ele><time>2026-03-28T12:01:33Z</time></trkpt><trkpt lat="45.854559660104066" lon="8.858683258529254"><ele>382.0</ele><time>2026-03-28T12:01:34Z</time></trkpt><trkpt lat="45.85458703255273" lon="8.858543700468998"><ele>382.0</ele><time>2026-03-28T12:01:35Z</time></trkpt><trkpt lat="45.854611924159066" lon="8.858405218584668"><ele>382.0</ele><time>2026-03-28T12:01:36Z</time></trkpt><trkpt lat="45.85463565371115" lon="8.858313580548486"><ele>381.75</ele><time>2026-03-28T12:01:37Z</time></trkpt><trkpt lat="45.85468738478939" lon="8.858024625503884"><ele>381.5</ele><time>2026-03-28T12:01:39Z</time></trkpt><trkpt lat="45.85470641549291" lon="8.857897983945707"><ele>381.25</ele><time>2026-03-28T12:01:40Z</time></trkpt><trkpt lat="45.8547399372118" lon="8.857768926355636"><ele>381.0</ele><time>2026-03-28T12:01:41Z</time></trkpt><trkpt lat="45.854779489335996" lon="8.857632348442296"><ele>381.0</ele><time>2026-03-28T12:01:42Z</time></trkpt><trkpt lat="45.85482543844028" lon="8.857490315663238"><ele>381.0</ele><time>2026-03-28T12:01:43Z</time></trkpt><trkpt lat="45.854870824751124" lon="8.857351809393453"><ele>381.0</ele><time>2026-03-28T12:01:44Z</time></trkpt><trkpt lat="45.85492478238859" lon="8.857240760257705"><ele>381.0</ele><time>2026-03-28T12:01:45Z</time></trkpt><trkpt lat="45.85498736478247" lon="8.857142420307198"><ele>381.0</ele><time>2026-03-28T12:01:46Z</time></trkpt><trkpt lat="45.85505990629755" lon="8.857064675026187"><ele>381.20000000000005</ele><time>2026-03-28T12:01:47Z</time></trkpt><trkpt lat="45.85515910913162" lon="8.857035079060203"><ele>381.40000000000003</ele><time>2026-03-28T12:01:48Z</time></trkpt><trkpt lat="45.855258223040856" lon="8.856985318045439"><ele>381.6</ele><time>2026-03-28T12:01:49Z</time></trkpt><trkpt lat="45.8553580398959" lon="8.856925392266378"><ele>381.8</ele><time>2026-03-28T12:01:50Z</time></trkpt><trkpt lat="45.855455850562755" lon="8.856889181183497"><ele>382.0</ele><time>2026-03-28T12:01:51Z</time></trkpt><trkpt lat="45.855537725577946" lon="8.856850655209808"><ele>382.0</ele><time>2026-03-28T12:01:52Z</time></trkpt><trkpt lat="45.85561233020444" lon="8.856818154247149"><ele>382.0</ele><time>2026-03-28T12:01:53Z</time></trkpt><trkpt lat="45.85568015465836" lon="8.856793268012536"><ele>382.0</ele><time>2026-03-28T12:01:54Z</time></trkpt><trkpt lat="45.85575139479783" lon="8.856753086858333"><ele>382.0</ele><time>2026-03-28T12:01:56Z</time></trkpt><trkpt lat="45.85573171827213" lon="8.856557731183578"><ele>382.0</ele><time>2026-03-28T12:01:58Z</time></trkpt><trkpt lat="45.85568961688127" lon="8.856479805113196"><ele>382.0</ele><time>2026-03-28T12:01:59Z</time></trkpt><trkpt lat="45.85562736786399" lon="8.8563893690688"><ele>382.0</ele><time>2026-03-28T12:02:00Z</time></trkpt><trkpt lat="45.855543583353224" lon="8.856280975019887"><ele>382.0</ele><time>2026-03-28T12:02:01Z</time></trkpt><trkpt lat="45.855469242927164" lon="8.856154588589582"><ele>382.0</ele><time>2026-03-28T12:02:02Z</time></trkpt><trkpt lat="45.855402984860525" lon="8.85602917201202"><ele>382.0</ele><time>2026-03-28T12:02:03Z</time></trkpt><trkpt lat="45.85533033963734" lon="8.855864503573892"><ele>382.0</ele><time>2026-03-28T12:02:04Z</time></trkpt><trkpt lat="45.85526152974533" lon="8.85561848789388"><ele>382.0</ele><time>2026-03-28T12:02:05Z</time></trkpt><trkpt lat="45.8551793600407" lon="8.855407950278927"><ele>382.0</ele><time>2026-03-28T12:02:06Z</time></trkpt><trkpt lat="45.855133917186144" lon="8.855221362248823"><ele>382.75</ele><time>2026-03-28T12:02:07Z</time></trkpt><trkpt lat="45.85510133379721" lon="8.855058435738748"><ele>383.5</ele><time>2026-03-28T12:02:08Z</time></trkpt><trkpt lat="45.855066796441584" lon="8.854893889339033"><ele>384.25</ele><time>2026-03-28T12:02:09Z</time></trkpt><trkpt lat="45.85503169375597" lon="8.854725487491361"><ele>385.0</ele><time>2026-03-28T12:02:10Z</time></trkpt><trkpt lat="45.8550053089675" lon="8.85454490532905"><ele>385.0</ele><time>2026-03-28T12:02:11Z</time></trkpt><trkpt lat="45.8549869885098" lon="8.854372915721953"><ele>385.0</ele><time>2026-03-28T12:02:12Z</time></trkpt><trkpt lat="45.854968664461374" lon="8.854206274256963"><ele>385.0</ele><time>2026-03-28T12:02:13Z</time></trkpt><trkpt lat="45.854950193264706" lon="8.854032005858144"><ele>385.0</ele><time>2026-03-28T12:02:14Z</time></trkpt><trkpt lat="45.854937982363126" lon="8.853859020699911"><ele>384.75</ele><time>2026-03-28T12:02:15Z</time></trkpt><trkpt lat="45.85493615297338" lon="8.853691544491186"><ele>384.5</ele><time>2026-03-28T12:02:16Z</time></trkpt><trkpt lat="45.85494724793062" lon="8.85352887504168"><ele>384.25</ele><time>2026-03-28T12:02:17Z</time></trkpt><trkpt lat="45.854965806118706" lon="8.853369552953342"><ele>384.0</ele><time>2026-03-28T12:02:18Z</time></trkpt><trkpt lat="45.854986400211054" lon="8.85320709090543"><ele>384.0</ele><time>2026-03-28T12:02:19Z</time></trkpt><trkpt lat="45.855004814172084" lon="8.853045260565137"><ele>384.0</ele><time>2026-03-28T12:02:20Z</time></trkpt><trkpt lat="45.855016300585255" lon="8.852875667204293"><ele>384.0</ele><time>2026-03-28T12:02:21Z</time></trkpt><trkpt lat="45.85502190631484" lon="8.852702043271185"><ele>384.0</ele><time>2026-03-28T12:02:22Z</time></trkpt><trkpt lat="45.8550216335298" lon="8.852527210663295"><ele>385.0</ele><time>2026-03-28T12:02:23Z</time></trkpt><trkpt lat="45.85501320939737" lon="8.85235570891981"><ele>386.0</ele><time>2026-03-28T12:02:24Z</time></trkpt><trkpt lat="45.85498853649176" lon="8.852217056993219"><ele>387.0</ele><time>2026-03-28T12:02:25Z</time></trkpt><trkpt lat="45.85496964831497" lon="8.852080745907177"><ele>388.0</ele><time>2026-03-28T12:02:26Z</time></trkpt><trkpt lat="45.85494166924715" lon="8.851939975565694"><ele>389.0</ele><time>2026-03-28T12:02:27Z</time></trkpt><trkpt lat="45.8549103854364" lon="8.851791051005247"><ele>389.75</ele><time>2026-03-28T12:02:28Z</time></trkpt><trkpt lat="45.854874813111394" lon="8.851636384790226"><ele>390.5</ele><time>2026-03-28T12:02:29Z</time></trkpt><trkpt lat="45.85483514543868" lon="8.851474076528197"><ele>391.25</ele><time>2026-03-28T12:02:30Z</time></trkpt><trkpt lat="45.85478042912723" lon="8.851322330078906"><ele>392.0</ele><time>2026-03-28T12:02:31Z</time></trkpt><trkpt lat="45.85471195132189" lon="8.851175261859755"><ele>392.0</ele><time>2026-03-28T12:02:32Z</time></trkpt><trkpt lat="45.85463238342063" lon="8.851021167716015"><ele>392.0</ele><time>2026-03-28T12:02:33Z</time></trkpt><trkpt lat="45.85454627130087" lon="8.850863336431164"><ele>392.0</ele><time>2026-03-28T12:02:34Z</time></trkpt><trkpt lat="45.85445103707583" lon="8.850704425298812"><ele>392.0</ele><time>2026-03-28T12:02:35Z</time></trkpt><trkpt lat="45.8543617497668" lon="8.850584226189778"><ele>393.20000000000005</ele><time>2026-03-28T12:02:36Z</time></trkpt><trkpt lat="45.85427753507181" lon="8.850477640996495"><ele>394.4</ele><time>2026-03-28T12:02:37Z</time></trkpt><trkpt lat="45.85419906824199" lon="8.850390939833082"><ele>395.6</ele><time>2026-03-28T12:02:38Z</time></trkpt><trkpt lat="45.85412806405967" lon="8.850299507987968"><ele>396.79999999999995</ele><time>2026-03-28T12:02:39Z</time></trkpt><trkpt lat="45.85405324179394" lon="8.850211567210689"><ele>398.0</ele><time>2026-03-28T12:02:40Z</time></trkpt><trkpt lat="45.853983240763014" lon="8.850108094727766"><ele>397.99999999999994</ele><time>2026-03-28T12:02:41Z</time></trkpt><trkpt lat="45.85391928443717" lon="8.850019231928842"><ele>398.0</ele><time>2026-03-28T12:02:42Z</time></trkpt><trkpt lat="45.8538681212003" lon="8.849928112938551"><ele>398.0</ele><time>2026-03-28T12:02:43Z</time></trkpt><trkpt lat="45.853823845623744" lon="8.849847064606426"><ele>398.0</ele><time>2026-03-28T12:02:44Z</time></trkpt><trkpt lat="45.85378437289119" lon="8.84976494337476"><ele>398.0</ele><time>2026-03-28T12:02:45Z</time></trkpt><trkpt lat="45.85375113304053" lon="8.849686936324012"><ele>397.99999999999994</ele><time>2026-03-28T12:02:46Z</time></trkpt><trkpt lat="45.85371841620213" lon="8.849603897590221"><ele>398.0</ele><time>2026-03-28T12:02:47Z</time></trkpt><trkpt lat="45.85368990299262" lon="8.849514819624755"><ele>398.0</ele><time>2026-03-28T12:02:48Z</time></trkpt><trkpt lat="45.85366530820505" lon="8.849370704994312"><ele>398.0</ele><time>2026-03-28T12:02:50Z</time></trkpt><trkpt lat="45.85367411230787" lon="8.849206459496175"><ele>398.0</ele><time>2026-03-28T12:02:52Z</time></trkpt><trkpt lat="45.853751127993476" lon="8.849125550512841"><ele>398.0</ele><time>2026-03-28T12:02:54Z</time></trkpt><trkpt lat="45.85381961643948" lon="8.849108019642337"><ele>398.0</ele><time>2026-03-28T12:02:56Z</time></trkpt><trkpt lat="45.85391368340783" lon="8.849148728546497"><ele>397.99999999999994</ele><time>2026-03-28T12:02:59Z</time></trkpt><trkpt lat="45.853955161724606" lon="8.849236386675821"><ele>398.0</ele><time>2026-03-28T12:03:01Z</time></trkpt><trkpt lat="45.85400149563415" lon="8.849359819368859"><ele>398.0</ele><time>2026-03-28T12:03:03Z</time></trkpt><trkpt lat="45.854040663723595" lon="8.849458519316238"><ele>398.0</ele><time>2026-03-28T12:03:05Z</time></trkpt><trkpt lat="45.85408838601358" lon="8.849544349763608"><ele>397.99999999999994</ele><time>2026-03-28T12:03:13Z</time></trkpt><trkpt lat="45.85413555878297" lon="8.849655434370439"><ele>398.0</ele><time>2026-03-28T12:03:15Z</time></trkpt><trkpt lat="45.85419716573644" lon="8.84979252355667"><ele>398.0</ele><time>2026-03-28T12:03:17Z</time></trkpt><trkpt lat="45.85426275396371" lon="8.849916041399165"><ele>398.0</ele><time>2026-03-28T12:03:19Z</time></trkpt><trkpt lat="45.85432350954211" lon="8.85003267680678"><ele>398.0</ele><time>2026-03-28T12:03:21Z</time></trkpt><trkpt lat="45.85437001357239" lon="8.8501286120923"><ele>398.0</ele><time>2026-03-28T12:03:23Z</time></trkpt><trkpt lat="45.85440928174456" lon="8.850225096632451"><ele>398.0</ele><time>2026-03-28T12:03:25Z</time></trkpt><trkpt lat="45.85445528693932" lon="8.850328385122637"><ele>396.79999999999995</ele><time>2026-03-28T12:03:27Z</time></trkpt><trkpt lat="45.85452461964402" lon="8.850467276082778"><ele>395.6</ele><time>2026-03-28T12:03:29Z</time></trkpt><trkpt lat="45.85458535593665" lon="8.850583775991256"><ele>394.4</ele><time>2026-03-28T12:03:31Z</time></trkpt><trkpt lat="45.854624111195974" lon="8.850665662541982"><ele>393.20000000000005</ele><time>2026-03-28T12:03:33Z</time></trkpt><trkpt lat="45.854672189287996" lon="8.850736750285838"><ele>392.0</ele><time>2026-03-28T12:03:36Z</time></trkpt><trkpt lat="45.85477882957038" lon="8.850664338899929"><ele>392.0</ele><time>2026-03-28T12:03:50Z</time></trkpt><trkpt lat="45.85482900847515" lon="8.850510226744726"><ele>392.0</ele><time>2026-03-28T12:03:52Z</time></trkpt><trkpt lat="45.854898475403104" lon="8.85038115139211"><ele>392.0</ele><time>2026-03-28T12:03:54Z</time></trkpt><trkpt lat="45.854958464593" lon="8.850266537117673"><ele>392.0</ele><time>2026-03-28T12:03:56Z</time></trkpt><trkpt lat="45.855013330208" lon="8.850142597937658"><ele>392.0</ele><time>2026-03-28T12:03:58Z</time></trkpt><trkpt lat="45.855053061754475" lon="8.850064306293946"><ele>393.5</ele><time>2026-03-28T12:04:00Z</time></trkpt><trkpt lat="45.855218609139456" lon="8.850078096375384"><ele>395.0</ele><time>2026-03-28T12:04:02Z</time></trkpt><trkpt lat="45.855281300979904" lon="8.850059145210972"><ele>396.5</ele><time>2026-03-28T12:04:03Z</time></trkpt><trkpt lat="45.85539989081904" lon="8.850011959030867"><ele>398.0</ele><time>2026-03-28T12:04:05Z</time></trkpt><trkpt lat="45.85550932218429" lon="8.849967110585554"><ele>398.0</ele><time>2026-03-28T12:04:07Z</time></trkpt><trkpt lat="45.85562128755449" lon="8.849934355926091"><ele>398.0</ele><time>2026-03-28T12:04:09Z</time></trkpt><trkpt lat="45.85570668489415" lon="8.849907068523292"><ele>398.0</ele><time>2026-03-28T12:04:11Z</time></trkpt><trkpt lat="45.85578915356343" lon="8.849869007969785"><ele>398.0</ele><time>2026-03-28T12:04:13Z</time></trkpt><trkpt lat="45.8559165717019" lon="8.849823336901082"><ele>398.0</ele><time>2026-03-28T12:04:15Z</time></trkpt><trkpt lat="45.85599535990347" lon="8.849800487116799"><ele>398.79999999999995</ele><time>2026-03-28T12:04:16Z</time></trkpt><trkpt lat="45.85608143674686" lon="8.849770817151486"><ele>399.6</ele><time>2026-03-28T12:04:17Z</time></trkpt><trkpt lat="45.85619738241588" lon="8.849728108384955"><ele>400.4</ele><time>2026-03-28T12:04:19Z</time></trkpt><trkpt lat="45.85627956759897" lon="8.849694626050228"><ele>401.20000000000005</ele><time>2026-03-28T12:04:21Z</time></trkpt><trkpt lat="45.856348434673315" lon="8.849661732227329"><ele>402.0</ele><time>2026-03-28T12:04:26Z</time></trkpt><trkpt lat="45.856409198841106" lon="8.849783254035973"><ele>402.0</ele><time>2026-03-28T12:04:28Z</time></trkpt><trkpt lat="45.85644951120139" lon="8.849862784686836"><ele>402.0</ele><time>2026-03-28T12:04:29Z</time></trkpt><trkpt lat="45.85648623233667" lon="8.849975295588887"><ele>402.0</ele><time>2026-03-28T12:04:30Z</time></trkpt><trkpt lat="45.856536643067706" lon="8.850103487103572"><ele>402.0</ele><time>2026-03-28T12:04:31Z</time></trkpt><trkpt lat="45.85658654412822" lon="8.850223298764753"><ele>402.0</ele><time>2026-03-28T12:04:32Z</time></trkpt><trkpt lat="45.85661907978017" lon="8.850318468037093"><ele>402.0</ele><time>2026-03-28T12:04:33Z</time></trkpt><trkpt lat="45.856661356478426" lon="8.850422340404476"><ele>402.1666666666667</ele><time>2026-03-28T12:04:34Z</time></trkpt><trkpt lat="45.856711275664374" lon="8.850547472364116"><ele>402.33333333333337</ele><time>2026-03-28T12:04:35Z</time></trkpt><trkpt lat="45.856753992301336" lon="8.85066488476384"><ele>402.5</ele><time>2026-03-28T12:04:36Z</time></trkpt><trkpt lat="45.856792371181946" lon="8.850767806163805"><ele>402.6666666666667</ele><time>2026-03-28T12:04:37Z</time></trkpt><trkpt lat="45.85683034330791" lon="8.850865769126598"><ele>402.83333333333337</ele><time>2026-03-28T12:04:38Z</time></trkpt><trkpt lat="45.856869935493094" lon="8.850955036887205"><ele>403.0</ele><time>2026-03-28T12:04:39Z</time></trkpt><trkpt lat="45.85690999941775" lon="8.851046862748827"><ele>401.6666666666667</ele><time>2026-03-28T12:04:40Z</time></trkpt><trkpt lat="45.85694867514578" lon="8.851144444568027"><ele>400.33333333333337</ele><time>2026-03-28T12:04:41Z</time></trkpt><trkpt lat="45.856985621494175" lon="8.851233868002794"><ele>399.0</ele><time>2026-03-28T12:04:42Z</time></trkpt><trkpt lat="45.857018588306225" lon="8.851317525922838"><ele>397.66666666666663</ele><time>2026-03-28T12:04:43Z</time></trkpt><trkpt lat="45.857040647925" lon="8.851404834206061"><ele>396.3333333333333</ele><time>2026-03-28T12:04:44Z</time></trkpt><trkpt lat="45.85704807905213" lon="8.851588052476586"><ele>395.0</ele><time>2026-03-28T12:04:46Z</time></trkpt><trkpt lat="45.85701881806884" lon="8.851695325983815"><ele>394.2</ele><time>2026-03-28T12:04:47Z</time></trkpt><trkpt lat="45.85697308669285" lon="8.851812235410982"><ele>393.4</ele><time>2026-03-28T12:04:48Z</time></trkpt><trkpt lat="45.85694564754122" lon="8.851911298666915"><ele>392.6</ele><time>2026-03-28T12:04:49Z</time></trkpt><trkpt lat="45.857003954282675" lon="8.852080283114306"><ele>391.8</ele><time>2026-03-28T12:04:51Z</time></trkpt><trkpt lat="45.857084749722446" lon="8.852140234917298"><ele>391.0</ele><time>2026-03-28T12:04:52Z</time></trkpt><trkpt lat="45.857186137614065" lon="8.852167177918872"><ele>391.0</ele><time>2026-03-28T12:04:53Z</time></trkpt><trkpt lat="45.85730294811364" lon="8.852202524283646"><ele>391.0</ele><time>2026-03-28T12:04:54Z</time></trkpt><trkpt lat="45.857401118512136" lon="8.852302765794857"><ele>391.0</ele><time>2026-03-28T12:04:55Z</time></trkpt><trkpt lat="45.857472404446426" lon="8.852426687980326"><ele>391.0</ele><time>2026-03-28T12:04:56Z</time></trkpt><trkpt lat="45.85752904027925" lon="8.85257252776386"><ele>390.6</ele><time>2026-03-28T12:04:57Z</time></trkpt><trkpt lat="45.85758064387808" lon="8.852714886152397"><ele>390.20000000000005</ele><time>2026-03-28T12:04:58Z</time></trkpt><trkpt lat="45.8576257732841" lon="8.852848231884469"><ele>389.79999999999995</ele><time>2026-03-28T12:04:59Z</time></trkpt><trkpt lat="45.85766717331713" lon="8.852962953347685"><ele>389.4</ele><time>2026-03-28T12:05:00Z</time></trkpt><trkpt lat="45.857706752926184" lon="8.85306532440347"><ele>389.0</ele><time>2026-03-28T12:05:01Z</time></trkpt><trkpt lat="45.857743536264095" lon="8.853159794278724"><ele>388.99999999999994</ele><time>2026-03-28T12:05:02Z</time></trkpt><trkpt lat="45.857778652869925" lon="8.85324852238176"><ele>389.0</ele><time>2026-03-28T12:05:03Z</time></trkpt><trkpt lat="45.8578175424863" lon="8.85334447267056"><ele>389.0</ele><time>2026-03-28T12:05:04Z</time></trkpt><trkpt lat="45.85786371781638" lon="8.853454454383414"><ele>389.0</ele><time>2026-03-28T12:05:05Z</time></trkpt><trkpt lat="45.857912666462994" lon="8.853579721455707"><ele>388.99999999999994</ele><time>2026-03-28T12:05:06Z</time></trkpt><trkpt lat="45.857958853997985" lon="8.8536956048022"><ele>389.0</ele><time>2026-03-28T12:05:07Z</time></trkpt><trkpt lat="45.85800340973981" lon="8.853801194217748"><ele>389.0</ele><time>2026-03-28T12:05:08Z</time></trkpt><trkpt lat="45.85804740848962" lon="8.8539119114765"><ele>389.0</ele><time>2026-03-28T12:05:09Z</time></trkpt><trkpt lat="45.85809864279284" lon="8.854038988526542"><ele>389.0</ele><time>2026-03-28T12:05:10Z</time></trkpt><trkpt lat="45.85815388522126" lon="8.854165973648954"><ele>389.0</ele><time>2026-03-28T12:05:11Z</time></trkpt><trkpt lat="45.858206987793196" lon="8.854298301502402"><ele>389.0</ele><time>2026-03-28T12:05:12Z</time></trkpt><trkpt lat="45.858253782285615" lon="8.854418792711694"><ele>388.8333333333333</ele><time>2026-03-28T12:05:13Z</time></trkpt><trkpt lat="45.85829383717839" lon="8.854521290839736"><ele>388.66666666666663</ele><time>2026-03-28T12:05:14Z</time></trkpt><trkpt lat="45.85833309838046" lon="8.854619443310026"><ele>388.5</ele><time>2026-03-28T12:05:15Z</time></trkpt><trkpt lat="45.85837715840736" lon="8.854721108413823"><ele>388.33333333333337</ele><time>2026-03-28T12:05:16Z</time></trkpt><trkpt lat="45.85842515152646" lon="8.854822834310273"><ele>388.1666666666667</ele><time>2026-03-28T12:05:17Z</time></trkpt><trkpt lat="45.858473327066704" lon="8.85493376280337"><ele>388.0</ele><time>2026-03-28T12:05:18Z</time></trkpt><trkpt lat="45.85851907431701" lon="8.85505525823034"><ele>388.4</ele><time>2026-03-28T12:05:19Z</time></trkpt><trkpt lat="45.85856828406299" lon="8.855183446773514"><ele>388.79999999999995</ele><time>2026-03-28T12:05:20Z</time></trkpt><trkpt lat="45.858619609715326" lon="8.855316061949459"><ele>389.2</ele><time>2026-03-28T12:05:21Z</time></trkpt><trkpt lat="45.85866262689173" lon="8.855427557751948"><ele>389.6</ele><time>2026-03-28T12:05:22Z</time></trkpt><trkpt lat="45.85870794056401" lon="8.855542153962615"><ele>390.0</ele><time>2026-03-28T12:05:23Z</time></trkpt><trkpt lat="45.85875760742705" lon="8.855665473915675"><ele>390.0</ele><time>2026-03-28T12:05:24Z</time></trkpt><trkpt lat="45.858810095280354" lon="8.855794695829186"><ele>390.0</ele><time>2026-03-28T12:05:25Z</time></trkpt><trkpt lat="45.85886589745215" lon="8.855931418046199"><ele>390.0</ele><time>2026-03-28T12:05:26Z</time></trkpt><trkpt lat="45.858921200148636" lon="8.856055913439233"><ele>390.0</ele><time>2026-03-28T12:05:27Z</time></trkpt><trkpt lat="45.85897397329625" lon="8.856186748183632"><ele>390.0</ele><time>2026-03-28T12:05:28Z</time></trkpt><trkpt lat="45.85901573338844" lon="8.856302899870327"><ele>389.4</ele><time>2026-03-28T12:05:29Z</time></trkpt><trkpt lat="45.85905413032335" lon="8.85640832943482"><ele>388.8</ele><time>2026-03-28T12:05:30Z</time></trkpt><trkpt lat="45.8590964764959" lon="8.856518844451633"><ele>388.20000000000005</ele><time>2026-03-28T12:05:31Z</time></trkpt><trkpt lat="45.85914912529202" lon="8.856638924803645"><ele>387.6</ele><time>2026-03-28T12:05:32Z</time></trkpt><trkpt lat="45.859205148859374" lon="8.856767080446211"><ele>387.0</ele><time>2026-03-28T12:05:33Z</time></trkpt><trkpt lat="45.85925022551909" lon="8.856887542783825"><ele>388.0</ele><time>2026-03-28T12:05:34Z</time></trkpt><trkpt lat="45.85929047113542" lon="8.857000282737454"><ele>389.0</ele><time>2026-03-28T12:05:35Z</time></trkpt><trkpt lat="45.85933482755175" lon="8.857126211078839"><ele>390.0</ele><time>2026-03-28T12:05:36Z</time></trkpt><trkpt lat="45.85938499978807" lon="8.857252813625527"><ele>391.0</ele><time>2026-03-28T12:05:37Z</time></trkpt><trkpt lat="45.859444101015804" lon="8.857391524869659"><ele>392.0</ele><time>2026-03-28T12:05:38Z</time></trkpt><trkpt lat="45.85949620794031" lon="8.85753356072326"><ele>391.3333333333333</ele><time>2026-03-28T12:05:39Z</time></trkpt><trkpt lat="45.8595498453831" lon="8.857661278074715"><ele>390.66666666666663</ele><time>2026-03-28T12:05:40Z</time></trkpt><trkpt lat="45.85959584859443" lon="8.857772564136834"><ele>390.0</ele><time>2026-03-28T12:05:41Z</time></trkpt><trkpt lat="45.859634205929915" lon="8.857872289306563"><ele>389.33333333333337</ele><time>2026-03-28T12:05:42Z</time></trkpt><trkpt lat="45.85967282184636" lon="8.857966098682823"><ele>388.6666666666667</ele><time>2026-03-28T12:05:43Z</time></trkpt><trkpt lat="45.85971101561835" lon="8.858069972572059"><ele>388.0</ele><time>2026-03-28T12:05:44Z</time></trkpt><trkpt lat="45.85975643698979" lon="8.858178000884667"><ele>388.00000000000006</ele><time>2026-03-28T12:05:45Z</time></trkpt><trkpt lat="45.859800417688966" lon="8.858275787817858"><ele>388.0</ele><time>2026-03-28T12:05:46Z</time></trkpt><trkpt lat="45.85984122140652" lon="8.858358106093648"><ele>388.0</ele><time>2026-03-28T12:05:47Z</time></trkpt><trkpt lat="45.85988188941765" lon="8.85845419230938"><ele>388.0</ele><time>2026-03-28T12:05:49Z</time></trkpt><trkpt lat="45.85993088895734" lon="8.858574301594512"><ele>388.00000000000006</ele><time>2026-03-28T12:05:55Z</time></trkpt><trkpt lat="45.85997575058654" lon="8.858685441065443"><ele>388.0</ele><time>2026-03-28T12:05:57Z</time></trkpt><trkpt lat="45.86004173933659" lon="8.85885047734701"><ele>388.1666666666667</ele><time>2026-03-28T12:05:59Z</time></trkpt><trkpt lat="45.86007186257706" lon="8.858936339049734"><ele>388.33333333333337</ele><time>2026-03-28T12:06:00Z</time></trkpt><trkpt lat="45.86011108776383" lon="8.859041189483213"><ele>388.5</ele><time>2026-03-28T12:06:01Z</time></trkpt><trkpt lat="45.860156726989466" lon="8.859151123923724"><ele>388.66666666666663</ele><time>2026-03-28T12:06:02Z</time></trkpt><trkpt lat="45.86019409681732" lon="8.859235538432733"><ele>388.8333333333333</ele><time>2026-03-28T12:06:03Z</time></trkpt><trkpt lat="45.86025459163175" lon="8.859405881082274"><ele>389.0</ele><time>2026-03-28T12:06:05Z</time></trkpt><trkpt lat="45.86029970521153" lon="8.859499608550315"><ele>389.0</ele><time>2026-03-28T12:06:06Z</time></trkpt><trkpt lat="45.86034476297322" lon="8.859605986233154"><ele>389.0</ele><time>2026-03-28T12:06:07Z</time></trkpt><trkpt lat="45.86038908746223" lon="8.85969573523016"><ele>389.0</ele><time>2026-03-28T12:06:08Z</time></trkpt><trkpt lat="45.86045273272679" lon="8.859775531793762"><ele>389.0</ele><time>2026-03-28T12:06:09Z</time></trkpt><trkpt lat="45.86050965184109" lon="8.859886613927834"><ele>389.0</ele><time>2026-03-28T12:06:10Z</time></trkpt><trkpt lat="45.86060523247091" lon="8.860009385113994"><ele>388.66666666666663</ele><time>2026-03-28T12:06:11Z</time></trkpt><trkpt lat="45.860678330419915" lon="8.860150207935655"><ele>388.3333333333333</ele><time>2026-03-28T12:06:12Z</time></trkpt><trkpt lat="45.86074610118666" lon="8.860260439544025"><ele>388.0</ele><time>2026-03-28T12:06:13Z</time></trkpt><trkpt lat="45.86080286414347" lon="8.860345604472363"><ele>387.66666666666663</ele><time>2026-03-28T12:06:14Z</time></trkpt><trkpt lat="45.86085784102079" lon="8.860418644854557"><ele>387.3333333333333</ele><time>2026-03-28T12:06:15Z</time></trkpt><trkpt lat="45.86090774300864" lon="8.860483407950552"><ele>387.0</ele><time>2026-03-28T12:06:16Z</time></trkpt><trkpt lat="45.86099129899183" lon="8.86058458304923"><ele>386.8333333333333</ele><time>2026-03-28T12:06:18Z</time></trkpt><trkpt lat="45.86107952707056" lon="8.860664479447278"><ele>386.66666666666663</ele><time>2026-03-28T12:06:20Z</time></trkpt><trkpt lat="45.86113873355263" lon="8.860706465435598"><ele>386.5</ele><time>2026-03-28T12:06:21Z</time></trkpt><trkpt lat="45.86119310258291" lon="8.860752749269981"><ele>386.3333333333333</ele><time>2026-03-28T12:06:22Z</time></trkpt><trkpt lat="45.86128971774385" lon="8.860770517210808"><ele>386.16666666666663</ele><time>2026-03-28T12:06:24Z</time></trkpt><trkpt lat="45.8613549248715" lon="8.860787684371468"><ele>386.0</ele><time>2026-03-28T12:06:27Z</time></trkpt><trkpt lat="45.86147638373942" lon="8.860850760723674"><ele>385.99999999999994</ele><time>2026-03-28T12:06:31Z</time></trkpt><trkpt lat="45.861582575479524" lon="8.860871954040796"><ele>386.0</ele><time>2026-03-28T12:06:32Z</time></trkpt><trkpt lat="45.86167462913431" lon="8.860907764727836"><ele>386.0</ele><time>2026-03-28T12:06:33Z</time></trkpt><trkpt lat="45.86175307631523" lon="8.860928078200354"><ele>386.0</ele><time>2026-03-28T12:06:34Z</time></trkpt><trkpt lat="45.86182365535985" lon="8.86097261740902"><ele>385.99999999999994</ele><time>2026-03-28T12:06:35Z</time></trkpt><trkpt lat="45.86189764597303" lon="8.860997357977272"><ele>386.0</ele><time>2026-03-28T12:06:36Z</time></trkpt><trkpt lat="45.86197060014896" lon="8.861031609020547"><ele>384.6</ele><time>2026-03-28T12:06:37Z</time></trkpt><trkpt lat="45.86203636094152" lon="8.861059489912135"><ele>383.20000000000005</ele><time>2026-03-28T12:06:38Z</time></trkpt><trkpt lat="45.86209665419292" lon="8.861123624759637"><ele>381.79999999999995</ele><time>2026-03-28T12:06:39Z</time></trkpt><trkpt lat="45.86216446400949" lon="8.86121798480942"><ele>380.4</ele><time>2026-03-28T12:06:40Z</time></trkpt><trkpt lat="45.86224327442157" lon="8.861344035535538"><ele>379.0</ele><time>2026-03-28T12:06:41Z</time></trkpt><trkpt lat="45.86231586013902" lon="8.861463566392224"><ele>379.0</ele><time>2026-03-28T12:06:42Z</time></trkpt><trkpt lat="45.862386491095485" lon="8.861583191652143"><ele>379.0</ele><time>2026-03-28T12:06:43Z</time></trkpt><trkpt lat="45.86245853220419" lon="8.861710949135812"><ele>379.0</ele><time>2026-03-28T12:06:44Z</time></trkpt><trkpt lat="45.862525035809135" lon="8.861828329900904"><ele>379.0</ele><time>2026-03-28T12:06:45Z</time></trkpt><trkpt lat="45.862588258007264" lon="8.86193419338581"><ele>379.0</ele><time>2026-03-28T12:06:46Z</time></trkpt><trkpt lat="45.86265473759001" lon="8.862042169904829"><ele>376.5</ele><time>2026-03-28T12:06:47Z</time></trkpt><trkpt lat="45.862725779665425" lon="8.862156839788629"><ele>374.0</ele><time>2026-03-28T12:06:48Z</time></trkpt><trkpt lat="45.862804012746714" lon="8.86228244128503"><ele>371.5</ele><time>2026-03-28T12:06:49Z</time></trkpt><trkpt lat="45.862888157449426" lon="8.862415757956821"><ele>369.0</ele><time>2026-03-28T12:06:50Z</time></trkpt><trkpt lat="45.86296672728992" lon="8.862541043292156"><ele>367.6</ele><time>2026-03-28T12:06:51Z</time></trkpt><trkpt lat="45.863042179814535" lon="8.862664217360871"><ele>366.2</ele><time>2026-03-28T12:06:52Z</time></trkpt><trkpt lat="45.86310609250699" lon="8.86276594226956"><ele>364.8</ele><time>2026-03-28T12:06:53Z</time></trkpt><trkpt lat="45.86316863976859" lon="8.86286598780498"><ele>363.40000000000003</ele><time>2026-03-28T12:06:54Z</time></trkpt><trkpt lat="45.863227323953126" lon="8.862962944626476"><ele>362.0</ele><time>2026-03-28T12:06:55Z</time></trkpt><trkpt lat="45.863287628844446" lon="8.863060118145988"><ele>362.0</ele><time>2026-03-28T12:06:56Z</time></trkpt><trkpt lat="45.86334336183121" lon="8.863144107702489"><ele>362.0</ele><time>2026-03-28T12:06:57Z</time></trkpt><trkpt lat="45.863399918127364" lon="8.863228539173992"><ele>362.0</ele><time>2026-03-28T12:06:58Z</time></trkpt><trkpt lat="45.86345358913815" lon="8.863305366562694"><ele>362.0</ele><time>2026-03-28T12:06:59Z</time></trkpt><trkpt lat="45.86350943903128" lon="8.863381762988872"><ele>362.0</ele><time>2026-03-28T12:07:00Z</time></trkpt><trkpt lat="45.86357110506645" lon="8.863456976514437"><ele>362.0</ele><time>2026-03-28T12:07:01Z</time></trkpt><trkpt lat="45.8636470063801" lon="8.863528482221838"><ele>361.5</ele><time>2026-03-28T12:07:02Z</time></trkpt><trkpt lat="45.86371810291093" lon="8.863585706209141"><ele>361.0</ele><time>2026-03-28T12:07:03Z</time></trkpt><trkpt lat="45.86379030335267" lon="8.863622811793649"><ele>360.5</ele><time>2026-03-28T12:07:04Z</time></trkpt><trkpt lat="45.863875694490986" lon="8.863664473910141"><ele>360.0</ele><time>2026-03-28T12:07:05Z</time></trkpt><trkpt lat="45.86396796198483" lon="8.8636999032054"><ele>359.5</ele><time>2026-03-28T12:07:06Z</time></trkpt><trkpt lat="45.86406817179493" lon="8.863743985978099"><ele>359.0</ele><time>2026-03-28T12:07:07Z</time></trkpt><trkpt lat="45.864190212671375" lon="8.863802294587794"><ele>360.0</ele><time>2026-03-28T12:07:08Z</time></trkpt><trkpt lat="45.864325454843026" lon="8.86385433139249"><ele>361.0</ele><time>2026-03-28T12:07:09Z</time></trkpt><trkpt lat="45.86445973276156" lon="8.863916518066826"><ele>362.0</ele><time>2026-03-28T12:07:10Z</time></trkpt><trkpt lat="45.86460110136304" lon="8.863978926501652"><ele>363.0</ele><time>2026-03-28T12:07:11Z</time></trkpt><trkpt lat="45.86474620339579" lon="8.864056919894246"><ele>363.0</ele><time>2026-03-28T12:07:12Z</time></trkpt><trkpt lat="45.864898356300365" lon="8.864136132134735"><ele>363.0</ele><time>2026-03-28T12:07:13Z</time></trkpt><trkpt lat="45.8650396065724" lon="8.864234623294456"><ele>363.0</ele><time>2026-03-28T12:07:14Z</time></trkpt><trkpt lat="45.86516810692389" lon="8.864333133942875"><ele>363.75</ele><time>2026-03-28T12:07:15Z</time></trkpt><trkpt lat="45.86528177772739" lon="8.864419064601206"><ele>364.5</ele><time>2026-03-28T12:07:16Z</time></trkpt><trkpt lat="45.865399390981395" lon="8.864501171449797"><ele>365.25</ele><time>2026-03-28T12:07:17Z</time></trkpt><trkpt lat="45.86551862091204" lon="8.864590996128307"><ele>366.0</ele><time>2026-03-28T12:07:18Z</time></trkpt><trkpt lat="45.865648375243325" lon="8.864689237219693"><ele>366.0</ele><time>2026-03-28T12:07:19Z</time></trkpt><trkpt lat="45.865778828331436" lon="8.864801888756388"><ele>366.0</ele><time>2026-03-28T12:07:20Z</time></trkpt><trkpt lat="45.865900057063854" lon="8.864908458703896"><ele>366.0</ele><time>2026-03-28T12:07:21Z</time></trkpt><trkpt lat="45.86600456631835" lon="8.865005302049715"><ele>366.0</ele><time>2026-03-28T12:07:22Z</time></trkpt><trkpt lat="45.86611024666364" lon="8.865099528307873"><ele>365.75</ele><time>2026-03-28T12:07:23Z</time></trkpt><trkpt lat="45.86621340687707" lon="8.865197305806317"><ele>365.5</ele><time>2026-03-28T12:07:24Z</time></trkpt><trkpt lat="45.8663119553153" lon="8.865286251648941"><ele>365.25</ele><time>2026-03-28T12:07:25Z</time></trkpt><trkpt lat="45.86640339556369" lon="8.865370209362629"><ele>365.0</ele><time>2026-03-28T12:07:26Z</time></trkpt><trkpt lat="45.866486226277345" lon="8.865460644832522"><ele>365.0</ele><time>2026-03-28T12:07:27Z</time></trkpt><trkpt lat="45.866567292563154" lon="8.86553783543566"><ele>365.0</ele><time>2026-03-28T12:07:28Z</time></trkpt><trkpt lat="45.86665765415326" lon="8.865615246012624"><ele>365.0</ele><time>2026-03-28T12:07:29Z</time></trkpt><trkpt lat="45.86675547362938" lon="8.86570045762697"><ele>365.0</ele><time>2026-03-28T12:07:30Z</time></trkpt><trkpt lat="45.86686047750741" lon="8.865797819924298"><ele>365.0</ele><time>2026-03-28T12:07:31Z</time></trkpt><trkpt lat="45.866976981012414" lon="8.865899433104437"><ele>365.25</ele><time>2026-03-28T12:07:32Z</time></trkpt><trkpt lat="45.8670992998255" lon="8.865989951148467"><ele>365.5</ele><time>2026-03-28T12:07:33Z</time></trkpt><trkpt lat="45.86720830205729" lon="8.866070141343354"><ele>365.75</ele><time>2026-03-28T12:07:34Z</time></trkpt><trkpt lat="45.86732545241072" lon="8.8661473116586"><ele>366.0</ele><time>2026-03-28T12:07:35Z</time></trkpt><trkpt lat="45.86745328075472" lon="8.866233970018545"><ele>366.0</ele><time>2026-03-28T12:07:36Z</time></trkpt><trkpt lat="45.867577909228075" lon="8.866333155802684"><ele>366.0</ele><time>2026-03-28T12:07:37Z</time></trkpt><trkpt lat="45.86771200412944" lon="8.866425019191233"><ele>366.0</ele><time>2026-03-28T12:07:38Z</time></trkpt><trkpt lat="45.86783855349124" lon="8.866527384557841"><ele>366.0</ele><time>2026-03-28T12:07:39Z</time></trkpt><trkpt lat="45.86795837049013" lon="8.86662882555092"><ele>365.8333333333333</ele><time>2026-03-28T12:07:40Z</time></trkpt><trkpt lat="45.86805030105723" lon="8.866713886244952"><ele>365.6666666666667</ele><time>2026-03-28T12:07:41Z</time></trkpt><trkpt lat="45.86812523684833" lon="8.866789364872567"><ele>365.5</ele><time>2026-03-28T12:07:42Z</time></trkpt><trkpt lat="45.8681994373174" lon="8.86686102879543"><ele>365.33333333333337</ele><time>2026-03-28T12:07:43Z</time></trkpt><trkpt lat="45.86826213256882" lon="8.866918091154247"><ele>365.1666666666667</ele><time>2026-03-28T12:07:44Z</time></trkpt><trkpt lat="45.868323978975084" lon="8.866978060686614"><ele>365.0</ele><time>2026-03-28T12:07:45Z</time></trkpt><trkpt lat="45.86838471674062" lon="8.867033881651576"><ele>365.0</ele><time>2026-03-28T12:07:46Z</time></trkpt><trkpt lat="45.868439779313114" lon="8.86708218642739"><ele>365.0</ele><time>2026-03-28T12:07:47Z</time></trkpt><trkpt lat="45.868516768242834" lon="8.867159006476616"><ele>365.0</ele><time>2026-03-28T12:07:49Z</time></trkpt><trkpt lat="45.86859072900903" lon="8.867039823145806"><ele>365.0</ele><time>2026-03-28T12:07:50Z</time></trkpt><trkpt lat="45.86862770538198" lon="8.86696385573145"><ele>365.0</ele><time>2026-03-28T12:07:51Z</time></trkpt><trkpt lat="45.868692807335734" lon="8.866902702528952"><ele>365.0</ele><time>2026-03-28T12:07:52Z</time></trkpt><trkpt lat="45.86876392799106" lon="8.866828032118264"><ele>365.0</ele><time>2026-03-28T12:07:53Z</time></trkpt><trkpt lat="45.86884364124507" lon="8.866742863483802"><ele>365.0</ele><time>2026-03-28T12:07:54Z</time></trkpt><trkpt lat="45.86892081985466" lon="8.866639553926127"><ele>365.0</ele><time>2026-03-28T12:07:55Z</time></trkpt><trkpt lat="45.86899680764637" lon="8.866545714041361"><ele>365.0</ele><time>2026-03-28T12:07:56Z</time></trkpt><trkpt lat="45.86907426850206" lon="8.866441856147537"><ele>365.0</ele><time>2026-03-28T12:07:57Z</time></trkpt><trkpt lat="45.8691379514591" lon="8.866342065594209"><ele>365.0</ele><time>2026-03-28T12:07:58Z</time></trkpt><trkpt lat="45.86920212701662" lon="8.866235504328895"><ele>365.0</ele><time>2026-03-28T12:07:59Z</time></trkpt><trkpt lat="45.86928115871834" lon="8.86611481088545"><ele>365.0</ele><time>2026-03-28T12:08:00Z</time></trkpt><trkpt lat="45.86935840913093" lon="8.865989680810785"><ele>365.0</ele><time>2026-03-28T12:08:01Z</time></trkpt><trkpt lat="45.86943142743812" lon="8.865849390016518"><ele>366.0</ele><time>2026-03-28T12:08:02Z</time></trkpt><trkpt lat="45.86961639775504" lon="8.86545006895266"><ele>367.0</ele><time>2026-03-28T12:08:05Z</time></trkpt><trkpt lat="45.86967783545765" lon="8.865324986660372"><ele>368.0</ele><time>2026-03-28T12:08:06Z</time></trkpt><trkpt lat="45.869751107348776" lon="8.86520604039723"><ele>369.4</ele><time>2026-03-28T12:08:07Z</time></trkpt><trkpt lat="45.86980452070752" lon="8.865099006788654"><ele>370.79999999999995</ele><time>2026-03-28T12:08:08Z</time></trkpt><trkpt lat="45.86984891710397" lon="8.865013131509821"><ele>372.2</ele><time>2026-03-28T12:08:09Z</time></trkpt><trkpt lat="45.869893999202574" lon="8.864906165017118"><ele>373.6</ele><time>2026-03-28T12:08:11Z</time></trkpt><trkpt lat="45.870032864762194" lon="8.864875500034914"><ele>375.0</ele><time>2026-03-28T12:08:14Z</time></trkpt><trkpt lat="45.87010547668694" lon="8.864884290439498"><ele>376.4</ele><time>2026-03-28T12:08:15Z</time></trkpt><trkpt lat="45.87019558375295" lon="8.86488168039832"><ele>377.8</ele><time>2026-03-28T12:08:16Z</time></trkpt><trkpt lat="45.87029380317504" lon="8.8648837464718"><ele>379.20000000000005</ele><time>2026-03-28T12:08:17Z</time></trkpt><trkpt lat="45.870396415145976" lon="8.86492111061907"><ele>380.6</ele><time>2026-03-28T12:08:18Z</time></trkpt><trkpt lat="45.87048780453807" lon="8.864945239668117"><ele>382.0</ele><time>2026-03-28T12:08:19Z</time></trkpt><trkpt lat="45.87056623245438" lon="8.86495583847703"><ele>382.0</ele><time>2026-03-28T12:08:20Z</time></trkpt><trkpt lat="45.87063856822483" lon="8.864994952841254"><ele>382.0</ele><time>2026-03-28T12:08:21Z</time></trkpt><trkpt lat="45.87070871638759" lon="8.865025123362097"><ele>382.0</ele><time>2026-03-28T12:08:22Z</time></trkpt><trkpt lat="45.870809544041926" lon="8.86505574346548"><ele>382.0</ele><time>2026-03-28T12:08:24Z</time></trkpt><trkpt lat="45.870875159779025" lon="8.865034762597551"><ele>382.0</ele><time>2026-03-28T12:09:27Z</time></trkpt><trkpt lat="45.87080756780471" lon="8.865056983271181"><ele>382.0</ele><time>2026-03-28T12:09:36Z</time></trkpt><trkpt lat="45.87074710280268" lon="8.865130026440742"><ele>382.0</ele><time>2026-03-28T12:09:39Z</time></trkpt><trkpt lat="45.87065163210623" lon="8.864993949224626"><ele>382.0</ele><time>2026-03-28T12:09:40Z</time></trkpt><trkpt lat="45.87054389726703" lon="8.864934350360091"><ele>382.0</ele><time>2026-03-28T12:09:42Z</time></trkpt><trkpt lat="45.870421155610956" lon="8.864892277210414"><ele>382.0</ele><time>2026-03-28T12:09:44Z</time></trkpt><trkpt lat="45.87029222058676" lon="8.864873348269288"><ele>382.0</ele><time>2026-03-28T12:09:46Z</time></trkpt><trkpt lat="45.87021787157889" lon="8.864870914287572"><ele>382.0</ele><time>2026-03-28T12:09:47Z</time></trkpt><trkpt lat="45.87014499576166" lon="8.864868122533299"><ele>382.0</ele><time>2026-03-28T12:09:48Z</time></trkpt><trkpt lat="45.870081236223534" lon="8.86486385030668"><ele>382.0</ele><time>2026-03-28T12:09:49Z</time></trkpt><trkpt lat="45.869985345291134" lon="8.864851407808054"><ele>382.0</ele><time>2026-03-28T12:09:51Z</time></trkpt><trkpt lat="45.86991771096299" lon="8.864877521748157"><ele>382.0</ele><time>2026-03-28T12:09:54Z</time></trkpt><trkpt lat="45.869863102062766" lon="8.86493650567434"><ele>382.0</ele><time>2026-03-28T12:09:57Z</time></trkpt><trkpt lat="45.869807727633344" lon="8.865006574264353"><ele>380.8333333333333</ele><time>2026-03-28T12:09:59Z</time></trkpt><trkpt lat="45.86976423055295" lon="8.865099106090272"><ele>379.66666666666663</ele><time>2026-03-28T12:10:01Z</time></trkpt><trkpt lat="45.86972020332839" lon="8.865211515310138"><ele>378.5</ele><time>2026-03-28T12:10:03Z</time></trkpt><trkpt lat="45.869655159566896" lon="8.865341555346063"><ele>377.3333333333333</ele><time>2026-03-28T12:10:05Z</time></trkpt><trkpt lat="45.86961272901633" lon="8.865415585140608"><ele>376.1666666666667</ele><time>2026-03-28T12:10:06Z</time></trkpt><trkpt lat="45.869574077020395" lon="8.865489833131697"><ele>375.0</ele><time>2026-03-28T12:10:07Z</time></trkpt><trkpt lat="45.869540191737215" lon="8.865571407687137"><ele>373.6</ele><time>2026-03-28T12:10:08Z</time></trkpt><trkpt lat="45.86949910207618" lon="8.865659664689646"><ele>372.2</ele><time>2026-03-28T12:10:09Z</time></trkpt><trkpt lat="45.8694632077519" lon="8.865742668269787"><ele>370.79999999999995</ele><time>2026-03-28T12:10:10Z</time></trkpt><trkpt lat="45.869420093953416" lon="8.865814213723656"><ele>369.4</ele><time>2026-03-28T12:10:11Z</time></trkpt><trkpt lat="45.869353011182596" lon="8.865953472591585"><ele>368.0</ele><time>2026-03-28T12:10:13Z</time></trkpt><trkpt lat="45.86927515126998" lon="8.866099537571355"><ele>367.5</ele><time>2026-03-28T12:10:15Z</time></trkpt><trkpt lat="45.869221893991394" lon="8.866175874639428"><ele>367.0</ele><time>2026-03-28T12:10:16Z</time></trkpt><trkpt lat="45.86916103975989" lon="8.866260989958919"><ele>366.5</ele><time>2026-03-28T12:10:17Z</time></trkpt><trkpt lat="45.86909552624992" lon="8.866354129024291"><ele>366.0</ele><time>2026-03-28T12:10:18Z</time></trkpt><trkpt lat="45.86902456598486" lon="8.866452989439859"><ele>365.5</ele><time>2026-03-28T12:10:19Z</time></trkpt><trkpt lat="45.868962337171965" lon="8.86654107382391"><ele>365.0</ele><time>2026-03-28T12:10:20Z</time></trkpt><trkpt lat="45.86890675413446" lon="8.866604415567995"><ele>365.0</ele><time>2026-03-28T12:10:21Z</time></trkpt><trkpt lat="45.86880389539423" lon="8.866720912555639"><ele>365.0</ele><time>2026-03-28T12:10:23Z</time></trkpt><trkpt lat="45.868743559181745" lon="8.866788598803812"><ele>365.0</ele><time>2026-03-28T12:10:24Z</time></trkpt><trkpt lat="45.86867748513924" lon="8.86685554335232"><ele>365.0</ele><time>2026-03-28T12:10:25Z</time></trkpt><trkpt lat="45.86859675865433" lon="8.86693613564115"><ele>365.0</ele><time>2026-03-28T12:10:27Z</time></trkpt><trkpt lat="45.868540687382904" lon="8.86702349525443"><ele>365.0</ele><time>2026-03-28T12:10:30Z</time></trkpt><trkpt lat="45.86848328343129" lon="8.867110372312387"><ele>365.0</ele><time>2026-03-28T12:10:36Z</time></trkpt><trkpt lat="45.86860916699245" lon="8.867270169445876"><ele>365.0</ele><time>2026-03-28T12:10:38Z</time></trkpt><trkpt lat="45.86868750059805" lon="8.867330936657481"><ele>365.0</ele><time>2026-03-28T12:10:39Z</time></trkpt><trkpt lat="45.868754941669884" lon="8.867401941897198"><ele>365.0</ele><time>2026-03-28T12:10:40Z</time></trkpt><trkpt lat="45.8688313468911" lon="8.867477138005887"><ele>365.0</ele><time>2026-03-28T12:10:41Z</time></trkpt><trkpt lat="45.86889782936905" lon="8.867536260851645"><ele>365.0</ele><time>2026-03-28T12:10:42Z</time></trkpt><trkpt lat="45.868955416311714" lon="8.86757827244101"><ele>365.0</ele><time>2026-03-28T12:10:43Z</time></trkpt><trkpt lat="45.86902256665087" lon="8.867618863549055"><ele>365.0</ele><time>2026-03-28T12:10:44Z</time></trkpt><trkpt lat="45.86910411859152" lon="8.867669478740611"><ele>365.0</ele><time>2026-03-28T12:10:45Z</time></trkpt><trkpt lat="45.869190814838674" lon="8.867719837973903"><ele>365.0</ele><time>2026-03-28T12:10:46Z</time></trkpt><trkpt lat="45.86927975178768" lon="8.867767043991734"><ele>363.6666666666667</ele><time>2026-03-28T12:10:47Z</time></trkpt><trkpt lat="45.86935572321021" lon="8.867805755296095"><ele>362.33333333333337</ele><time>2026-03-28T12:10:48Z</time></trkpt><trkpt lat="45.869428908265334" lon="8.8678424015051"><ele>361.0</ele><time>2026-03-28T12:10:49Z</time></trkpt><trkpt lat="45.86950885658167" lon="8.86787936946256"><ele>359.6666666666667</ele><time>2026-03-28T12:10:50Z</time></trkpt><trkpt lat="45.86959445224444" lon="8.867912879339903"><ele>358.3333333333333</ele><time>2026-03-28T12:10:51Z</time></trkpt><trkpt lat="45.86967669056825" lon="8.867941013818117"><ele>357.0</ele><time>2026-03-28T12:10:52Z</time></trkpt><trkpt lat="45.86974743972269" lon="8.86796817906823"><ele>357.0</ele><time>2026-03-28T12:10:53Z</time></trkpt><trkpt lat="45.86980958905791" lon="8.867994880182902"><ele>357.0</ele><time>2026-03-28T12:10:54Z</time></trkpt><trkpt lat="45.869921293670664" lon="8.86805124599636"><ele>357.0</ele><time>2026-03-28T12:10:56Z</time></trkpt><trkpt lat="45.86998444590639" lon="8.868078741618378"><ele>357.0</ele><time>2026-03-28T12:10:57Z</time></trkpt><trkpt lat="45.87005266491355" lon="8.86810887024155"><ele>357.0</ele><time>2026-03-28T12:10:58Z</time></trkpt><trkpt lat="45.87011660195303" lon="8.8681367279675"><ele>357.0</ele><time>2026-03-28T12:10:59Z</time></trkpt><trkpt lat="45.87018128692684" lon="8.868166393616002"><ele>357.0</ele><time>2026-03-28T12:11:00Z</time></trkpt><trkpt lat="45.87025288127098" lon="8.868206234393071"><ele>357.0</ele><time>2026-03-28T12:11:01Z</time></trkpt><trkpt lat="45.870322074116075" lon="8.868246838622337"><ele>357.0</ele><time>2026-03-28T12:11:02Z</time></trkpt><trkpt lat="45.87038229098065" lon="8.868294768239227"><ele>357.0</ele><time>2026-03-28T12:11:03Z</time></trkpt><trkpt lat="45.87043941471252" lon="8.868343368955497"><ele>357.0</ele><time>2026-03-28T12:11:04Z</time></trkpt><trkpt lat="45.8705472898177" lon="8.868419667220355"><ele>357.0</ele><time>2026-03-28T12:11:06Z</time></trkpt><trkpt lat="45.87060238007621" lon="8.868467175931302"><ele>357.1666666666667</ele><time>2026-03-28T12:11:07Z</time></trkpt><trkpt lat="45.87067000114865" lon="8.868519661669357"><ele>357.3333333333333</ele><time>2026-03-28T12:11:08Z</time></trkpt><trkpt lat="45.87073504250365" lon="8.868578054507463"><ele>357.5</ele><time>2026-03-28T12:11:09Z</time></trkpt><trkpt lat="45.87081556310796" lon="8.86865245548831"><ele>357.66666666666663</ele><time>2026-03-28T12:11:10Z</time></trkpt><trkpt lat="45.870890341755725" lon="8.868726250379796"><ele>357.8333333333333</ele><time>2026-03-28T12:11:11Z</time></trkpt><trkpt lat="45.87094929812188" lon="8.868789806645735"><ele>358.0</ele><time>2026-03-28T12:11:12Z</time></trkpt><trkpt lat="45.871004876526946" lon="8.868853067641808"><ele>358.0</ele><time>2026-03-28T12:11:13Z</time></trkpt><trkpt lat="45.87105495941001" lon="8.868915594144887"><ele>358.0</ele><time>2026-03-28T12:11:14Z</time></trkpt><trkpt lat="45.871115620299136" lon="8.868991775394633"><ele>358.0</ele><time>2026-03-28T12:11:15Z</time></trkpt><trkpt lat="45.87118254316493" lon="8.869068469758462"><ele>358.0</ele><time>2026-03-28T12:11:16Z</time></trkpt><trkpt lat="45.87124561849455" lon="8.869147815471763"><ele>358.0</ele><time>2026-03-28T12:11:17Z</time></trkpt><trkpt lat="45.87129857276993" lon="8.869212243385947"><ele>358.0</ele><time>2026-03-28T12:11:18Z</time></trkpt><trkpt lat="45.8713602185105" lon="8.869286481252436"><ele>357.3333333333333</ele><time>2026-03-28T12:11:19Z</time></trkpt><trkpt lat="45.87142028031675" lon="8.869360316134"><ele>356.66666666666663</ele><time>2026-03-28T12:11:20Z</time></trkpt><trkpt lat="45.871487556426885" lon="8.869431233415655"><ele>356.0</ele><time>2026-03-28T12:11:21Z</time></trkpt><trkpt lat="45.871557435624524" lon="8.869502343902825"><ele>355.3333333333333</ele><time>2026-03-28T12:11:22Z</time></trkpt><trkpt lat="45.87162433276792" lon="8.869570016214674"><ele>354.6666666666667</ele><time>2026-03-28T12:11:23Z</time></trkpt><trkpt lat="45.87168175684811" lon="8.869621665052682"><ele>354.0</ele><time>2026-03-28T12:11:24Z</time></trkpt><trkpt lat="45.87174069447472" lon="8.869671720106538"><ele>354.1666666666667</ele><time>2026-03-28T12:11:25Z</time></trkpt><trkpt lat="45.87180426341007" lon="8.869721632964929"><ele>354.3333333333333</ele><time>2026-03-28T12:11:26Z</time></trkpt><trkpt lat="45.87187126800884" lon="8.869772462100148"><ele>354.5</ele><time>2026-03-28T12:11:27Z</time></trkpt><trkpt lat="45.87194003431686" lon="8.869819372375034"><ele>354.66666666666663</ele><time>2026-03-28T12:11:28Z</time></trkpt><trkpt lat="45.87200837204583" lon="8.869863141108224"><ele>354.8333333333333</ele><time>2026-03-28T12:11:29Z</time></trkpt><trkpt lat="45.872080308076654" lon="8.869912516380625"><ele>355.0</ele><time>2026-03-28T12:11:30Z</time></trkpt><trkpt lat="45.87215391362871" lon="8.869962431542662"><ele>355.0</ele><time>2026-03-28T12:11:31Z</time></trkpt><trkpt lat="45.87223514695073" lon="8.87002423499143"><ele>355.0</ele><time>2026-03-28T12:11:32Z</time></trkpt><trkpt lat="45.872342416624306" lon="8.870098460460795"><ele>355.0</ele><time>2026-03-28T12:11:33Z</time></trkpt><trkpt lat="45.87245088085695" lon="8.870169337483519"><ele>355.0</ele><time>2026-03-28T12:11:34Z</time></trkpt><trkpt lat="45.87253925304472" lon="8.87023025034486"><ele>355.0</ele><time>2026-03-28T12:11:35Z</time></trkpt><trkpt lat="45.8726165639833" lon="8.870279038035095"><ele>354.8</ele><time>2026-03-28T12:11:36Z</time></trkpt><trkpt lat="45.87270329323927" lon="8.87033365699962"><ele>354.6</ele><time>2026-03-28T12:11:37Z</time></trkpt><trkpt lat="45.87278437331398" lon="8.870389540456857"><ele>354.4</ele><time>2026-03-28T12:11:38Z</time></trkpt><trkpt lat="45.872871435652925" lon="8.870447333797472"><ele>354.2</ele><time>2026-03-28T12:11:39Z</time></trkpt><trkpt lat="45.87296574812102" lon="8.870506950612077"><ele>354.0</ele><time>2026-03-28T12:11:40Z</time></trkpt><trkpt lat="45.87306788810461" lon="8.870579084142014"><ele>354.0</ele><time>2026-03-28T12:11:41Z</time></trkpt><trkpt lat="45.873168917252364" lon="8.870647552637124"><ele>354.0</ele><time>2026-03-28T12:11:42Z</time></trkpt><trkpt lat="45.87326151237242" lon="8.870709454624656"><ele>354.0</ele><time>2026-03-28T12:11:43Z</time></trkpt><trkpt lat="45.873339964923815" lon="8.870762302197601"><ele>354.0</ele><time>2026-03-28T12:11:44Z</time></trkpt><trkpt lat="45.87342105479241" lon="8.870822395977795"><ele>354.0</ele><time>2026-03-28T12:11:45Z</time></trkpt><trkpt lat="45.873491992222505" lon="8.870874157655516"><ele>355.0</ele><time>2026-03-28T12:11:46Z</time></trkpt><trkpt lat="45.873548646364576" lon="8.870919195330103"><ele>356.0</ele><time>2026-03-28T12:11:47Z</time></trkpt><trkpt lat="45.87362621040587" lon="8.870980477163078"><ele>357.0</ele><time>2026-03-28T12:11:49Z</time></trkpt><trkpt lat="45.87371770939166" lon="8.87106993769119"><ele>358.0</ele><time>2026-03-28T12:12:09Z</time></trkpt><trkpt lat="45.87378877171133" lon="8.871142302102735"><ele>359.0</ele><time>2026-03-28T12:12:11Z</time></trkpt><trkpt lat="45.87387766717541" lon="8.871217817983808"><ele>359.0</ele><time>2026-03-28T12:12:14Z</time></trkpt><trkpt lat="45.87394766171074" lon="8.871272274305479"><ele>359.0</ele><time>2026-03-28T12:12:17Z</time></trkpt><trkpt lat="45.87404415396978" lon="8.87134070544"><ele>359.0</ele><time>2026-03-28T12:12:20Z</time></trkpt><trkpt lat="45.87410241094895" lon="8.87137502507186"><ele>359.0</ele><time>2026-03-28T12:12:21Z</time></trkpt><trkpt lat="45.87417056950498" lon="8.871415965435515"><ele>359.0</ele><time>2026-03-28T12:12:22Z</time></trkpt><trkpt lat="45.87424362206048" lon="8.871460170320134"><ele>359.0</ele><time>2026-03-28T12:12:23Z</time></trkpt><trkpt lat="45.87431495999856" lon="8.87150620237326"><ele>359.0</ele><time>2026-03-28T12:12:24Z</time></trkpt><trkpt lat="45.87439919399162" lon="8.871565106302974"><ele>359.0</ele><time>2026-03-28T12:12:25Z</time></trkpt><trkpt lat="45.874468104117284" lon="8.871605796021536"><ele>359.0</ele><time>2026-03-28T12:12:26Z</time></trkpt><trkpt lat="45.87456474113079" lon="8.871666840786272"><ele>359.0</ele><time>2026-03-28T12:12:28Z</time></trkpt><trkpt lat="45.874672518566456" lon="8.871740970513027"><ele>359.0</ele><time>2026-03-28T12:12:30Z</time></trkpt><trkpt lat="45.87474734446409" lon="8.87178391713221"><ele>359.0</ele><time>2026-03-28T12:12:32Z</time></trkpt><trkpt lat="45.874805454806534" lon="8.871830059982734"><ele>359.0</ele><time>2026-03-28T12:12:34Z</time></trkpt><trkpt lat="45.87488069176928" lon="8.871898939080598"><ele>359.0</ele><time>2026-03-28T12:12:37Z</time></trkpt><trkpt lat="45.87498736780215" lon="8.872018018999867"><ele>359.0</ele><time>2026-03-28T12:12:39Z</time></trkpt><trkpt lat="45.87506359129781" lon="8.872088237606977"><ele>359.0</ele><time>2026-03-28T12:12:40Z</time></trkpt><trkpt lat="45.87512873172639" lon="8.872180388489989"><ele>358.33333333333337</ele><time>2026-03-28T12:12:41Z</time></trkpt><trkpt lat="45.87518749546242" lon="8.872239831747196"><ele>357.6666666666667</ele><time>2026-03-28T12:12:42Z</time></trkpt><trkpt lat="45.87530081991957" lon="8.872327708093655"><ele>357.0</ele><time>2026-03-28T12:12:44Z</time></trkpt><trkpt lat="45.87536633580512" lon="8.872386294513843"><ele>356.3333333333333</ele><time>2026-03-28T12:12:45Z</time></trkpt><trkpt lat="45.875429842033135" lon="8.872433707324497"><ele>355.66666666666663</ele><time>2026-03-28T12:12:46Z</time></trkpt><trkpt lat="45.8755085105364" lon="8.872486115850222"><ele>355.0</ele><time>2026-03-28T12:12:47Z</time></trkpt><trkpt lat="45.87558345871453" lon="8.872514073662"><ele>355.0</ele><time>2026-03-28T12:12:48Z</time></trkpt><trkpt lat="45.87567685590744" lon="8.872542328503046"><ele>355.0</ele><time>2026-03-28T12:12:49Z</time></trkpt><trkpt lat="45.87579567841868" lon="8.87258339640585"><ele>355.0</ele><time>2026-03-28T12:12:50Z</time></trkpt><trkpt lat="45.87594500830762" lon="8.87263849048855"><ele>355.0</ele><time>2026-03-28T12:12:51Z</time></trkpt><trkpt lat="45.876086345216095" lon="8.87268764084887"><ele>353.4</ele><time>2026-03-28T12:12:52Z</time></trkpt><trkpt lat="45.87621131201596" lon="8.872729926362485"><ele>351.8</ele><time>2026-03-28T12:12:53Z</time></trkpt><trkpt lat="45.87633008610353" lon="8.872770382721619"><ele>350.20000000000005</ele><time>2026-03-28T12:12:54Z</time></trkpt><trkpt lat="45.87642669115428" lon="8.87280003852213"><ele>348.6</ele><time>2026-03-28T12:12:55Z</time></trkpt><trkpt lat="45.876505485633295" lon="8.872824716667726"><ele>347.0</ele><time>2026-03-28T12:12:56Z</time></trkpt><trkpt lat="45.87656930395934" lon="8.872844204595351"><ele>347.0</ele><time>2026-03-28T12:12:57Z</time></trkpt><trkpt lat="45.87668475988534" lon="8.872872760263066"><ele>347.0</ele><time>2026-03-28T12:12:59Z</time></trkpt><trkpt lat="45.87674405034713" lon="8.872921626228214"><ele>347.0</ele><time>2026-03-28T12:13:01Z</time></trkpt><trkpt lat="45.87684133148777" lon="8.873007669440103"><ele>347.0</ele><time>2026-03-28T12:13:03Z</time></trkpt><trkpt lat="45.87691432587357" lon="8.87305042681056"><ele>347.0</ele><time>2026-03-28T12:13:04Z</time></trkpt><trkpt lat="45.87699069746172" lon="8.873049077989709"><ele>347.6</ele><time>2026-03-28T12:13:05Z</time></trkpt><trkpt lat="45.87704773867366" lon="8.872991476207527"><ele>348.20000000000005</ele><time>2026-03-28T12:13:06Z</time></trkpt><trkpt lat="45.87708098330662" lon="8.872897483840356"><ele>348.8</ele><time>2026-03-28T12:13:07Z</time></trkpt><trkpt lat="45.8770804249691" lon="8.87277220717254"><ele>349.4</ele><time>2026-03-28T12:13:08Z</time></trkpt><trkpt lat="45.87704831629525" lon="8.872602742064153"><ele>350.0</ele><time>2026-03-28T12:13:09Z</time></trkpt><trkpt lat="45.87704749792724" lon="8.872436253844924"><ele>350.0</ele><time>2026-03-28T12:13:10Z</time></trkpt><trkpt lat="45.87709823667263" lon="8.872266899840323"><ele>350.0</ele><time>2026-03-28T12:13:11Z</time></trkpt><trkpt lat="45.87715000893343" lon="8.872079013630636"><ele>350.0</ele><time>2026-03-28T12:13:12Z</time></trkpt><trkpt lat="45.87718944761179" lon="8.871889501139256"><ele>350.0</ele><time>2026-03-28T12:13:13Z</time></trkpt><trkpt lat="45.87725946946441" lon="8.871651552628606"><ele>350.25</ele><time>2026-03-28T12:13:14Z</time></trkpt><trkpt lat="45.87732906396093" lon="8.871422562575692"><ele>350.5</ele><time>2026-03-28T12:13:15Z</time></trkpt><trkpt lat="45.877377087160305" lon="8.871245204678534"><ele>350.75</ele><time>2026-03-28T12:13:16Z</time></trkpt><trkpt lat="45.87741679464506" lon="8.87110200386028"><ele>351.0</ele><time>2026-03-28T12:13:17Z</time></trkpt><trkpt lat="45.877447624019354" lon="8.870998344618341"><ele>352.20000000000005</ele><time>2026-03-28T12:13:18Z</time></trkpt><trkpt lat="45.87748962001156" lon="8.870885639948224"><ele>353.40000000000003</ele><time>2026-03-28T12:13:20Z</time></trkpt><trkpt lat="45.877528981594274" lon="8.870777024031812"><ele>354.6</ele><time>2026-03-28T12:13:23Z</time></trkpt><trkpt lat="45.877459567956315" lon="8.870592829706748"><ele>355.8</ele><time>2026-03-28T12:13:26Z</time></trkpt><trkpt lat="45.877346693852225" lon="8.870562827607381"><ele>357.0</ele><time>2026-03-28T12:13:28Z</time></trkpt><trkpt lat="45.87728490661057" lon="8.870582467099451"><ele>357.0</ele><time>2026-03-28T12:13:29Z</time></trkpt><trkpt lat="45.87722300800726" lon="8.870622504239536"><ele>357.0</ele><time>2026-03-28T12:13:31Z</time></trkpt><trkpt lat="45.87725237128038" lon="8.870710317634806"><ele>357.0</ele><time>2026-03-28T12:14:19Z</time></trkpt><trkpt lat="45.87736136624918" lon="8.870736448354306"><ele>357.0</ele><time>2026-03-28T12:14:21Z</time></trkpt><trkpt lat="45.87742472273637" lon="8.870769847091307"><ele>357.0</ele><time>2026-03-28T12:14:23Z</time></trkpt><trkpt lat="45.87751285201691" lon="8.87074882259906"><ele>357.0</ele><time>2026-03-28T12:14:26Z</time></trkpt><trkpt lat="45.87755803108343" lon="8.870684551518384"><ele>355.20000000000005</ele><time>2026-03-28T12:14:27Z</time></trkpt><trkpt lat="45.877614719193446" lon="8.870590776084601"><ele>353.4</ele><time>2026-03-28T12:14:28Z</time></trkpt><trkpt lat="45.87768766112912" lon="8.870499926680425"><ele>351.6</ele><time>2026-03-28T12:14:29Z</time></trkpt><trkpt lat="45.87776151578956" lon="8.870422633946664"><ele>349.79999999999995</ele><time>2026-03-28T12:14:30Z</time></trkpt><trkpt lat="45.8778204121297" lon="8.87037022703074"><ele>348.0</ele><time>2026-03-28T12:14:31Z</time></trkpt><trkpt lat="45.87793534163404" lon="8.870294004058799"><ele>348.0</ele><time>2026-03-28T12:14:33Z</time></trkpt><trkpt lat="45.87800975395024" lon="8.870256638246705"><ele>348.0</ele><time>2026-03-28T12:14:34Z</time></trkpt><trkpt lat="45.87810415046423" lon="8.870211594518857"><ele>348.0</ele><time>2026-03-28T12:14:35Z</time></trkpt><trkpt lat="45.87819346592384" lon="8.870168043278692"><ele>348.0</ele><time>2026-03-28T12:14:36Z</time></trkpt><trkpt lat="45.87828231444174" lon="8.870123323987647"><ele>348.0</ele><time>2026-03-28T12:14:37Z</time></trkpt><trkpt lat="45.8783669005847" lon="8.870078226243463"><ele>348.5</ele><time>2026-03-28T12:14:38Z</time></trkpt><trkpt lat="45.87844643837549" lon="8.87004165854006"><ele>349.0</ele><time>2026-03-28T12:14:39Z</time></trkpt><trkpt lat="45.87852879347256" lon="8.870000984401035"><ele>349.5</ele><time>2026-03-28T12:14:40Z</time></trkpt><trkpt lat="45.8786191153757" lon="8.86995570382213"><ele>350.0</ele><time>2026-03-28T12:14:41Z</time></trkpt><trkpt lat="45.878699762539156" lon="8.86991477308321"><ele>350.5</ele><time>2026-03-28T12:14:42Z</time></trkpt><trkpt lat="45.87877238352815" lon="8.869877567470263"><ele>351.0</ele><time>2026-03-28T12:14:43Z</time></trkpt><trkpt lat="45.87884677733624" lon="8.86984048232101"><ele>351.0</ele><time>2026-03-28T12:14:44Z</time></trkpt><trkpt lat="45.87891592677114" lon="8.869804389189305"><ele>351.0</ele><time>2026-03-28T12:14:45Z</time></trkpt><trkpt lat="45.878981589313184" lon="8.869770288339273"><ele>351.0</ele><time>2026-03-28T12:14:46Z</time></trkpt><trkpt lat="45.87904685364106" lon="8.869736700770762"><ele>351.0</ele><time>2026-03-28T12:14:47Z</time></trkpt><trkpt lat="45.87912222381138" lon="8.869698762096354"><ele>351.0</ele><time>2026-03-28T12:14:48Z</time></trkpt><trkpt lat="45.87919564500033" lon="8.869662048198432"><ele>351.0</ele><time>2026-03-28T12:14:49Z</time></trkpt><trkpt lat="45.8792794432496" lon="8.869625979371174"><ele>350.0</ele><time>2026-03-28T12:14:50Z</time></trkpt><trkpt lat="45.87937215891697" lon="8.869579692065015"><ele>349.0</ele><time>2026-03-28T12:14:51Z</time></trkpt><trkpt lat="45.87948108332152" lon="8.869526611986267"><ele>348.0</ele><time>2026-03-28T12:14:52Z</time></trkpt><trkpt lat="45.87959846544868" lon="8.869475692320913"><ele>347.0</ele><time>2026-03-28T12:14:53Z</time></trkpt><trkpt lat="45.8796952437571" lon="8.86944366584741"><ele>346.0</ele><time>2026-03-28T12:14:54Z</time></trkpt><trkpt lat="45.87979516824836" lon="8.869418395743597"><ele>346.0</ele><time>2026-03-28T12:14:55Z</time></trkpt><trkpt lat="45.8799105505834" lon="8.869407656052134"><ele>346.0</ele><time>2026-03-28T12:14:56Z</time></trkpt><trkpt lat="45.880018008365425" lon="8.869398988119189"><ele>346.0</ele><time>2026-03-28T12:14:57Z</time></trkpt><trkpt lat="45.88011223725788" lon="8.869396515963581"><ele>346.0</ele><time>2026-03-28T12:14:58Z</time></trkpt><trkpt lat="45.88021931964422" lon="8.869404604288935"><ele>346.0</ele><time>2026-03-28T12:14:59Z</time></trkpt><trkpt lat="45.880320233957335" lon="8.869410971102328"><ele>346.6</ele><time>2026-03-28T12:15:00Z</time></trkpt><trkpt lat="45.8804045042792" lon="8.869418030128761"><ele>347.20000000000005</ele><time>2026-03-28T12:15:01Z</time></trkpt><trkpt lat="45.880495171184805" lon="8.869430078605866"><ele>347.79999999999995</ele><time>2026-03-28T12:15:02Z</time></trkpt><trkpt lat="45.88058429880907" lon="8.869444169266904"><ele>348.4</ele><time>2026-03-28T12:15:03Z</time></trkpt><trkpt lat="45.88070686805462" lon="8.86946051113683"><ele>349.0</ele><time>2026-03-28T12:15:05Z</time></trkpt><trkpt lat="45.880769964252195" lon="8.869466952001776"><ele>349.0</ele><time>2026-03-28T12:15:06Z</time></trkpt><trkpt lat="45.88087604943839" lon="8.869473838635296"><ele>349.0</ele><time>2026-03-28T12:15:08Z</time></trkpt><trkpt lat="45.88092473953686" lon="8.869345249596524"><ele>349.0</ele><time>2026-03-28T12:15:14Z</time></trkpt><trkpt lat="45.88087258215258" lon="8.869404495350743"><ele>349.0</ele><time>2026-03-28T12:15:26Z</time></trkpt><trkpt lat="45.880816886612934" lon="8.869452757829775"><ele>349.0</ele><time>2026-03-28T12:15:28Z</time></trkpt><trkpt lat="45.880685590709966" lon="8.86941563365604"><ele>349.0</ele><time>2026-03-28T12:15:30Z</time></trkpt><trkpt lat="45.880595148987" lon="8.869397617455197"><ele>349.0</ele><time>2026-03-28T12:15:31Z</time></trkpt><trkpt lat="45.88050853637992" lon="8.869392518268699"><ele>349.0</ele><time>2026-03-28T12:15:32Z</time></trkpt><trkpt lat="45.88041747671602" lon="8.869382825071336"><ele>349.0</ele><time>2026-03-28T12:15:34Z</time></trkpt><trkpt lat="45.880408702050666" lon="8.86924754753731"><ele>349.0</ele><time>2026-03-28T12:15:37Z</time></trkpt><trkpt lat="45.88041654340184" lon="8.869070186212939"><ele>349.66666666666663</ele><time>2026-03-28T12:15:39Z</time></trkpt><trkpt lat="45.88041241204018" lon="8.868978346399329"><ele>350.3333333333333</ele><time>2026-03-28T12:15:40Z</time></trkpt><trkpt lat="45.8803915045338" lon="8.86887975096434"><ele>351.0</ele><time>2026-03-28T12:15:41Z</time></trkpt><trkpt lat="45.88034659572478" lon="8.868784274842298"><ele>351.6666666666667</ele><time>2026-03-28T12:15:42Z</time></trkpt><trkpt lat="45.880348129170315" lon="8.868664415000358"><ele>352.33333333333337</ele><time>2026-03-28T12:15:43Z</time></trkpt><trkpt lat="45.88033883600687" lon="8.868542271298585"><ele>353.0</ele><time>2026-03-28T12:15:44Z</time></trkpt><trkpt lat="45.880331284765056" lon="8.868426836486435"><ele>354.4</ele><time>2026-03-28T12:15:45Z</time></trkpt><trkpt lat="45.88032553425427" lon="8.868328283880377"><ele>355.79999999999995</ele><time>2026-03-28T12:15:46Z</time></trkpt><trkpt lat="45.880315765288564" lon="8.868145930809355"><ele>357.2</ele><time>2026-03-28T12:15:48Z</time></trkpt><trkpt lat="45.88030991875344" lon="8.868034231604662"><ele>358.6</ele><time>2026-03-28T12:15:49Z</time></trkpt><trkpt lat="45.88030337534171" lon="8.867910132409307"><ele>360.0</ele><time>2026-03-28T12:15:50Z</time></trkpt><trkpt lat="45.88029642822555" lon="8.867778376843514"><ele>360.0</ele><time>2026-03-28T12:15:51Z</time></trkpt><trkpt lat="45.88028014161522" lon="8.86764618931907"><ele>360.0</ele><time>2026-03-28T12:15:52Z</time></trkpt><trkpt lat="45.88027591562337" lon="8.867524148571816"><ele>360.0</ele><time>2026-03-28T12:15:53Z</time></trkpt><trkpt lat="45.88027113148939" lon="8.867380046565524"><ele>360.0</ele><time>2026-03-28T12:15:55Z</time></trkpt><trkpt lat="45.88027518435919" lon="8.867286297327151"><ele>360.0</ele><time>2026-03-28T12:16:13Z</time></trkpt><trkpt lat="45.88027279620767" lon="8.867422175206716"><ele>360.0</ele><time>2026-03-28T12:16:25Z</time></trkpt><trkpt lat="45.88025257981714" lon="8.86755242582563"><ele>360.0</ele><time>2026-03-28T12:16:27Z</time></trkpt><trkpt lat="45.88025881966199" lon="8.867693934731959"><ele>360.0</ele><time>2026-03-28T12:16:29Z</time></trkpt><trkpt lat="45.88027432557925" lon="8.867834890012592"><ele>360.0</ele><time>2026-03-28T12:16:31Z</time></trkpt><trkpt lat="45.880277132610914" lon="8.86797973517323"><ele>360.0</ele><time>2026-03-28T12:16:33Z</time></trkpt><trkpt lat="45.88028012228674" lon="8.868139683182703"><ele>360.0</ele><time>2026-03-28T12:16:35Z</time></trkpt><trkpt lat="45.880287592539524" lon="8.868233638397342"><ele>360.0</ele><time>2026-03-28T12:16:36Z</time></trkpt><trkpt lat="45.880295830587436" lon="8.86833142783952"><ele>360.0</ele><time>2026-03-28T12:16:37Z</time></trkpt><trkpt lat="45.88030510903253" lon="8.868468509174457"><ele>360.0</ele><time>2026-03-28T12:16:39Z</time></trkpt><trkpt lat="45.88031675758594" lon="8.868618984228588"><ele>360.0</ele><time>2026-03-28T12:16:41Z</time></trkpt><trkpt lat="45.88032855413229" lon="8.868778122827708"><ele>360.0</ele><time>2026-03-28T12:16:44Z</time></trkpt><trkpt lat="45.880343779426646" lon="8.868883663586738"><ele>358.8333333333333</ele><time>2026-03-28T12:16:49Z</time></trkpt><trkpt lat="45.88037219785331" lon="8.868978468566503"><ele>357.6666666666667</ele><time>2026-03-28T12:16:52Z</time></trkpt><trkpt lat="45.88040754375917" lon="8.869057563887713"><ele>356.5</ele><time>2026-03-28T12:16:54Z</time></trkpt><trkpt lat="45.88039820299491" lon="8.869150317680873"><ele>355.33333333333337</ele><time>2026-03-28T12:16:56Z</time></trkpt><trkpt lat="45.880377018402136" lon="8.869247739885152"><ele>354.1666666666667</ele><time>2026-03-28T12:16:59Z</time></trkpt><trkpt lat="45.88037018280888" lon="8.869340766622868"><ele>353.0</ele><time>2026-03-28T12:17:26Z</time></trkpt><trkpt lat="45.88024865299451" lon="8.869352822211528"><ele>352.33333333333337</ele><time>2026-03-28T12:17:29Z</time></trkpt><trkpt lat="45.880173485168136" lon="8.869360880059192"><ele>351.6666666666667</ele><time>2026-03-28T12:17:30Z</time></trkpt><trkpt lat="45.88010128575998" lon="8.869347196497516"><ele>351.0</ele><time>2026-03-28T12:17:31Z</time></trkpt><trkpt lat="45.88002289879133" lon="8.869340336895895"><ele>350.3333333333333</ele><time>2026-03-28T12:17:32Z</time></trkpt><trkpt lat="45.879940397326145" lon="8.869341614630025"><ele>349.66666666666663</ele><time>2026-03-28T12:17:33Z</time></trkpt><trkpt lat="45.879851506122876" lon="8.869342332166122"><ele>349.0</ele><time>2026-03-28T12:17:34Z</time></trkpt><trkpt lat="45.87975495736078" lon="8.86934287410677"><ele>348.4</ele><time>2026-03-28T12:17:35Z</time></trkpt><trkpt lat="45.87965267457236" lon="8.869392665692411"><ele>347.79999999999995</ele><time>2026-03-28T12:17:37Z</time></trkpt><trkpt lat="45.879528487927324" lon="8.869439275547862"><ele>347.20000000000005</ele><time>2026-03-28T12:17:39Z</time></trkpt><trkpt lat="45.87945953250122" lon="8.869467417697766"><ele>346.6</ele><time>2026-03-28T12:17:40Z</time></trkpt><trkpt lat="45.879389931570394" lon="8.869507092359246"><ele>346.0</ele><time>2026-03-28T12:17:41Z</time></trkpt><trkpt lat="45.87931774271833" lon="8.869543567237995"><ele>347.0</ele><time>2026-03-28T12:17:42Z</time></trkpt><trkpt lat="45.87923028926901" lon="8.869589472043149"><ele>348.0</ele><time>2026-03-28T12:17:43Z</time></trkpt><trkpt lat="45.879133310352195" lon="8.869638703018788"><ele>349.0</ele><time>2026-03-28T12:17:44Z</time></trkpt><trkpt lat="45.87905730846457" lon="8.86968121686068"><ele>350.0</ele><time>2026-03-28T12:17:45Z</time></trkpt><trkpt lat="45.87896610581416" lon="8.869724743595205"><ele>351.0</ele><time>2026-03-28T12:17:46Z</time></trkpt><trkpt lat="45.878865815111766" lon="8.869772554403589"><ele>351.0</ele><time>2026-03-28T12:17:47Z</time></trkpt><trkpt lat="45.87875621126679" lon="8.86982493752888"><ele>351.0</ele><time>2026-03-28T12:17:48Z</time></trkpt><trkpt lat="45.87866104613357" lon="8.86986387721461"><ele>351.0</ele><time>2026-03-28T12:17:49Z</time></trkpt><trkpt lat="45.87856948695207" lon="8.869914054871108"><ele>351.0</ele><time>2026-03-28T12:17:50Z</time></trkpt><trkpt lat="45.878474642662184" lon="8.869965886288544"><ele>351.0</ele><time>2026-03-28T12:17:51Z</time></trkpt><trkpt lat="45.878376982094046" lon="8.870016722122587"><ele>350.4</ele><time>2026-03-28T12:17:52Z</time></trkpt><trkpt lat="45.87827379424753" lon="8.870072368671451"><ele>349.8</ele><time>2026-03-28T12:17:53Z</time></trkpt><trkpt lat="45.878171928085045" lon="8.870120056625446"><ele>349.2</ele><time>2026-03-28T12:17:54Z</time></trkpt><trkpt lat="45.87806946269655" lon="8.870174867662918"><ele>348.59999999999997</ele><time>2026-03-28T12:17:55Z</time></trkpt><trkpt lat="45.87797193993236" lon="8.870228341127666"><ele>348.0</ele><time>2026-03-28T12:17:56Z</time></trkpt><trkpt lat="45.877882306952394" lon="8.870279950845315"><ele>348.0</ele><time>2026-03-28T12:17:57Z</time></trkpt><trkpt lat="45.87781162960244" lon="8.870314519418862"><ele>348.0</ele><time>2026-03-28T12:17:58Z</time></trkpt><trkpt lat="45.87772999582767" lon="8.870356224088237"><ele>348.0</ele><time>2026-03-28T12:17:59Z</time></trkpt><trkpt lat="45.877656075717546" lon="8.870397411780969"><ele>348.0</ele><time>2026-03-28T12:18:00Z</time></trkpt><trkpt lat="45.87757721777997" lon="8.870444980653797"><ele>348.0</ele><time>2026-03-28T12:18:01Z</time></trkpt><trkpt lat="45.87749218632855" lon="8.870480716422295"><ele>348.0</ele><time>2026-03-28T12:18:02Z</time></trkpt><trkpt lat="45.877414219451964" lon="8.870516400830088"><ele>349.5</ele><time>2026-03-28T12:18:03Z</time></trkpt><trkpt lat="45.87734850148992" lon="8.870550773767416"><ele>351.0</ele><time>2026-03-28T12:18:04Z</time></trkpt><trkpt lat="45.877238414061715" lon="8.870608707909373"><ele>352.5</ele><time>2026-03-28T12:18:06Z</time></trkpt><trkpt lat="45.877174965413516" lon="8.87064105296065"><ele>354.0</ele><time>2026-03-28T12:18:07Z</time></trkpt><trkpt lat="45.87710842849815" lon="8.870673746133113"><ele>355.5</ele><time>2026-03-28T12:18:08Z</time></trkpt><trkpt lat="45.87704637083184" lon="8.870703813058277"><ele>357.0</ele><time>2026-03-28T12:18:09Z</time></trkpt><trkpt lat="45.87693830379888" lon="8.87076656222327"><ele>357.0</ele><time>2026-03-28T12:18:11Z</time></trkpt><trkpt lat="45.876870613777896" lon="8.87080597925537"><ele>357.0</ele><time>2026-03-28T12:18:12Z</time></trkpt><trkpt lat="45.87679836029058" lon="8.870823255850176"><ele>357.0</ele><time>2026-03-28T12:18:13Z</time></trkpt><trkpt lat="45.87672803156653" lon="8.870856619432368"><ele>357.0</ele><time>2026-03-28T12:18:14Z</time></trkpt><trkpt lat="45.876652604158124" lon="8.870892401793885"><ele>357.0</ele><time>2026-03-28T12:18:15Z</time></trkpt><trkpt lat="45.87657752446066" lon="8.870950638402649"><ele>357.0</ele><time>2026-03-28T12:18:16Z</time></trkpt><trkpt lat="45.87649586670271" lon="8.870980895212853"><ele>357.0</ele><time>2026-03-28T12:18:17Z</time></trkpt><trkpt lat="45.8764332546187" lon="8.871025391299721"><ele>357.0</ele><time>2026-03-28T12:18:18Z</time></trkpt><trkpt lat="45.87633341430799" lon="8.871081903778123"><ele>357.0</ele><time>2026-03-28T12:18:20Z</time></trkpt><trkpt lat="45.87626886227189" lon="8.871164800062774"><ele>357.0</ele><time>2026-03-28T12:18:22Z</time></trkpt><trkpt lat="45.87619708969237" lon="8.871270671836967"><ele>357.0</ele><time>2026-03-28T12:18:24Z</time></trkpt><trkpt lat="45.87613051082788" lon="8.871352611745307"><ele>357.0</ele><time>2026-03-28T12:18:26Z</time></trkpt><trkpt lat="45.876071863323155" lon="8.871444045436107"><ele>357.0</ele><time>2026-03-28T12:18:28Z</time></trkpt><trkpt lat="45.876007333752064" lon="8.871528207678404"><ele>357.0</ele><time>2026-03-28T12:18:30Z</time></trkpt><trkpt lat="45.875947714566344" lon="8.871594822950406"><ele>357.0</ele><time>2026-03-28T12:18:32Z</time></trkpt><trkpt lat="45.87588235121999" lon="8.871708327075293"><ele>357.0</ele><time>2026-03-28T12:18:34Z</time></trkpt><trkpt lat="45.875817783011506" lon="8.871824624781071"><ele>356.6666666666667</ele><time>2026-03-28T12:18:36Z</time></trkpt><trkpt lat="45.875835766953834" lon="8.871912089231891"><ele>356.3333333333333</ele><time>2026-03-28T12:18:37Z</time></trkpt><trkpt lat="45.87581478782655" lon="8.872040106134966"><ele>356.0</ele><time>2026-03-28T12:18:39Z</time></trkpt><trkpt lat="45.87574259507418" lon="8.872142755848058"><ele>355.66666666666663</ele><time>2026-03-28T12:18:41Z</time></trkpt><trkpt lat="45.87566736380623" lon="8.872229716254528"><ele>355.3333333333333</ele><time>2026-03-28T12:18:43Z</time></trkpt><trkpt lat="45.87562511995925" lon="8.872305195957631"><ele>355.0</ele><time>2026-03-28T12:18:45Z</time></trkpt><trkpt lat="45.87557242242891" lon="8.87235784937072"><ele>355.0</ele><time>2026-03-28T12:18:58Z</time></trkpt><trkpt lat="45.87551626581857" lon="8.872424235408445"><ele>355.0</ele><time>2026-03-28T12:19:04Z</time></trkpt><trkpt lat="45.87545095859249" lon="8.87246278293041"><ele>355.0</ele><time>2026-03-28T12:19:07Z</time></trkpt><trkpt lat="45.8753524011492" lon="8.87234055745882"><ele>355.0</ele><time>2026-03-28T12:19:08Z</time></trkpt><trkpt lat="45.875235631539105" lon="8.872223057384787"><ele>355.0</ele><time>2026-03-28T12:19:10Z</time></trkpt><trkpt lat="45.87516332987635" lon="8.87214961798241"><ele>355.66666666666663</ele><time>2026-03-28T12:19:11Z</time></trkpt><trkpt lat="45.87507791431425" lon="8.872063665954729"><ele>356.3333333333333</ele><time>2026-03-28T12:19:12Z</time></trkpt><trkpt lat="45.87500935114349" lon="8.871991799309049"><ele>357.0</ele><time>2026-03-28T12:19:13Z</time></trkpt><trkpt lat="45.87490483301687" lon="8.8719000334795"><ele>357.6666666666667</ele><time>2026-03-28T12:19:15Z</time></trkpt><trkpt lat="45.87485840635344" lon="8.871834478906761"><ele>358.33333333333337</ele><time>2026-03-28T12:19:16Z</time></trkpt><trkpt lat="45.87480658264047" lon="8.871779954467746"><ele>359.0</ele><time>2026-03-28T12:19:17Z</time></trkpt><trkpt lat="45.87474215587975" lon="8.871734106804153"><ele>359.0</ele><time>2026-03-28T12:19:18Z</time></trkpt><trkpt lat="45.87467407826779" lon="8.871695455546543"><ele>359.0</ele><time>2026-03-28T12:19:19Z</time></trkpt><trkpt lat="45.87460568476834" lon="8.871650782104819"><ele>359.0</ele><time>2026-03-28T12:19:20Z</time></trkpt><trkpt lat="45.87454235136552" lon="8.871604961609522"><ele>359.0</ele><time>2026-03-28T12:19:21Z</time></trkpt><trkpt lat="45.874470599147216" lon="8.871557300587817"><ele>359.0</ele><time>2026-03-28T12:19:22Z</time></trkpt><trkpt lat="45.87440320535028" lon="8.871518846666348"><ele>359.0</ele><time>2026-03-28T12:19:23Z</time></trkpt><trkpt lat="45.87433657299474" lon="8.871476679715661"><ele>359.0</ele><time>2026-03-28T12:19:24Z</time></trkpt><trkpt lat="45.874267472275804" lon="8.871428684343249"><ele>359.0</ele><time>2026-03-28T12:19:25Z</time></trkpt><trkpt lat="45.874202595846874" lon="8.871383784191964"><ele>359.0</ele><time>2026-03-28T12:19:26Z</time></trkpt><trkpt lat="45.874145801374404" lon="8.871338729202872"><ele>359.0</ele><time>2026-03-28T12:19:27Z</time></trkpt><trkpt lat="45.87405523478739" lon="8.871269090181022"><ele>359.0</ele><time>2026-03-28T12:19:29Z</time></trkpt><trkpt lat="45.87399567065399" lon="8.871189046186021"><ele>359.0</ele><time>2026-03-28T12:19:31Z</time></trkpt><trkpt lat="45.8739117412847" lon="8.871101619067112"><ele>359.0</ele><time>2026-03-28T12:19:33Z</time></trkpt><trkpt lat="45.87382031087984" lon="8.871050630111212"><ele>359.0</ele><time>2026-03-28T12:19:35Z</time></trkpt><trkpt lat="45.87375034061104" lon="8.871012080021641"><ele>359.0</ele><time>2026-03-28T12:19:37Z</time></trkpt><trkpt lat="45.873679753611455" lon="8.870956459652536"><ele>359.0</ele><time>2026-03-28T12:19:39Z</time></trkpt><trkpt lat="45.87359616184571" lon="8.87088891719548"><ele>359.0</ele><time>2026-03-28T12:19:41Z</time></trkpt><trkpt lat="45.87348105463257" lon="8.870807657256929"><ele>359.0</ele><time>2026-03-28T12:19:43Z</time></trkpt><trkpt lat="45.8734192067994" lon="8.870759267607866"><ele>358.1666666666667</ele><time>2026-03-28T12:19:44Z</time></trkpt><trkpt lat="45.87335182288814" lon="8.870709545172042"><ele>357.33333333333337</ele><time>2026-03-28T12:19:45Z</time></trkpt><trkpt lat="45.87329123129723" lon="8.87065135710497"><ele>356.5</ele><time>2026-03-28T12:19:46Z</time></trkpt><trkpt lat="45.87321444961711" lon="8.870595935592778"><ele>355.6666666666667</ele><time>2026-03-28T12:19:47Z</time></trkpt><trkpt lat="45.873138758483776" lon="8.870546980014991"><ele>354.8333333333333</ele><time>2026-03-28T12:19:48Z</time></trkpt><trkpt lat="45.87306549188024" lon="8.870500977933908"><ele>354.0</ele><time>2026-03-28T12:19:49Z</time></trkpt><trkpt lat="45.87298769409374" lon="8.870454516037622"><ele>354.0</ele><time>2026-03-28T12:19:50Z</time></trkpt><trkpt lat="45.872906620663336" lon="8.870405525689534"><ele>354.0</ele><time>2026-03-28T12:19:51Z</time></trkpt><trkpt lat="45.87282298501804" lon="8.870355188995903"><ele>354.0</ele><time>2026-03-28T12:19:52Z</time></trkpt><trkpt lat="45.87273739510045" lon="8.870291451849495"><ele>354.0</ele><time>2026-03-28T12:19:53Z</time></trkpt><trkpt lat="45.872655962826265" lon="8.87024408469026"><ele>354.0</ele><time>2026-03-28T12:19:54Z</time></trkpt><trkpt lat="45.872546286140775" lon="8.870168062237976"><ele>354.25</ele><time>2026-03-28T12:19:55Z</time></trkpt><trkpt lat="45.8724443168515" lon="8.87009109074829"><ele>354.5</ele><time>2026-03-28T12:19:56Z</time></trkpt><trkpt lat="45.87233756531855" lon="8.870017950339456"><ele>354.75</ele><time>2026-03-28T12:19:57Z</time></trkpt><trkpt lat="45.87222874817662" lon="8.869945654229147"><ele>355.0</ele><time>2026-03-28T12:19:58Z</time></trkpt><trkpt lat="45.87212804456098" lon="8.869876513737106"><ele>355.0</ele><time>2026-03-28T12:19:59Z</time></trkpt><trkpt lat="45.87204393285696" lon="8.869812218243087"><ele>355.0</ele><time>2026-03-28T12:20:00Z</time></trkpt><trkpt lat="45.87196842046838" lon="8.869757666942245"><ele>355.0</ele><time>2026-03-28T12:20:01Z</time></trkpt><trkpt lat="45.871896663106064" lon="8.869707214517529"><ele>355.0</ele><time>2026-03-28T12:20:02Z</time></trkpt><trkpt lat="45.87181534547349" lon="8.86965040926115"><ele>355.0</ele><time>2026-03-28T12:20:03Z</time></trkpt><trkpt lat="45.871737574366385" lon="8.869589126425076"><ele>355.0</ele><time>2026-03-28T12:20:04Z</time></trkpt><trkpt lat="45.87165311042429" lon="8.869522931710076"><ele>354.8</ele><time>2026-03-28T12:20:05Z</time></trkpt><trkpt lat="45.871571252964756" lon="8.869445371094965"><ele>354.6</ele><time>2026-03-28T12:20:06Z</time></trkpt><trkpt lat="45.871488095873495" lon="8.869358059136532"><ele>354.4</ele><time>2026-03-28T12:20:07Z</time></trkpt><trkpt lat="45.87140152425821" lon="8.869256305452206"><ele>354.2</ele><time>2026-03-28T12:20:08Z</time></trkpt><trkpt lat="45.871309654627346" lon="8.869150378646054"><ele>354.0</ele><time>2026-03-28T12:20:09Z</time></trkpt><trkpt lat="45.871212564541786" lon="8.869032109485248"><ele>354.25</ele><time>2026-03-28T12:20:10Z</time></trkpt><trkpt lat="45.871114430072716" lon="8.868915417204612"><ele>354.5</ele><time>2026-03-28T12:20:11Z</time></trkpt><trkpt lat="45.871005604921784" lon="8.86879380769969"><ele>354.75</ele><time>2026-03-28T12:20:12Z</time></trkpt><trkpt lat="45.87089943005104" lon="8.868672100822186"><ele>355.0</ele><time>2026-03-28T12:20:13Z</time></trkpt><trkpt lat="45.870810066398114" lon="8.868580136191786"><ele>355.0</ele><time>2026-03-28T12:20:14Z</time></trkpt><trkpt lat="45.87072061605408" lon="8.868507065969037"><ele>355.0</ele><time>2026-03-28T12:20:15Z</time></trkpt><trkpt lat="45.870625886643126" lon="8.868430556390345"><ele>355.0</ele><time>2026-03-28T12:20:16Z</time></trkpt><trkpt lat="45.87052123240233" lon="8.868352222353241"><ele>355.0</ele><time>2026-03-28T12:20:17Z</time></trkpt><trkpt lat="45.87042028758584" lon="8.868279551217556"><ele>355.0</ele><time>2026-03-28T12:20:18Z</time></trkpt><trkpt lat="45.87031444422603" lon="8.868199814504047"><ele>355.66666666666663</ele><time>2026-03-28T12:20:19Z</time></trkpt><trkpt lat="45.87017572359835" lon="8.86811134613528"><ele>356.3333333333333</ele><time>2026-03-28T12:20:20Z</time></trkpt><trkpt lat="45.870011689773555" lon="8.868036293617026"><ele>357.0</ele><time>2026-03-28T12:20:21Z</time></trkpt><trkpt lat="45.86983091985373" lon="8.867963288538911"><ele>357.0</ele><time>2026-03-28T12:20:22Z</time></trkpt><trkpt lat="45.8696778259295" lon="8.867893607621644"><ele>357.0</ele><time>2026-03-28T12:20:23Z</time></trkpt><trkpt lat="45.869539516484835" lon="8.867830170515585"><ele>357.0</ele><time>2026-03-28T12:20:24Z</time></trkpt><trkpt lat="45.86942029842352" lon="8.867780802262338"><ele>357.0</ele><time>2026-03-28T12:20:25Z</time></trkpt><trkpt lat="45.86931132938782" lon="8.867733568399506"><ele>357.75</ele><time>2026-03-28T12:20:26Z</time></trkpt><trkpt lat="45.86918723978621" lon="8.867668100295901"><ele>358.5</ele><time>2026-03-28T12:20:27Z</time></trkpt><trkpt lat="45.86908520197649" lon="8.867611436536878"><ele>359.25</ele><time>2026-03-28T12:20:28Z</time></trkpt><trkpt lat="45.86897827812066" lon="8.867539823306146"><ele>360.0</ele><time>2026-03-28T12:20:29Z</time></trkpt><trkpt lat="45.8688692639384" lon="8.867465151054034"><ele>361.0</ele><time>2026-03-28T12:20:30Z</time></trkpt><trkpt lat="45.868778698955474" lon="8.867368856429847"><ele>362.0</ele><time>2026-03-28T12:20:31Z</time></trkpt><trkpt lat="45.86869620611435" lon="8.867278464075136"><ele>363.0</ele><time>2026-03-28T12:20:32Z</time></trkpt><trkpt lat="45.868624851040515" lon="8.867203200961818"><ele>364.0</ele><time>2026-03-28T12:20:33Z</time></trkpt><trkpt lat="45.86855254472654" lon="8.867106158286383"><ele>365.0</ele><time>2026-03-28T12:20:35Z</time></trkpt><trkpt lat="45.868601575613404" lon="8.86694497036555"><ele>365.0</ele><time>2026-03-28T12:20:38Z</time></trkpt><trkpt lat="45.86867255209844" lon="8.86692325118199"><ele>365.0</ele><time>2026-03-28T12:20:39Z</time></trkpt><trkpt lat="45.86873463761866" lon="8.866859328688093"><ele>365.0</ele><time>2026-03-28T12:20:40Z</time></trkpt><trkpt lat="45.86879348661671" lon="8.866790414371101"><ele>365.0</ele><time>2026-03-28T12:20:41Z</time></trkpt><trkpt lat="45.86889831825959" lon="8.866665153105494"><ele>365.0</ele><time>2026-03-28T12:20:43Z</time></trkpt><trkpt lat="45.86896693418885" lon="8.866580673275244"><ele>365.0</ele><time>2026-03-28T12:20:44Z</time></trkpt><trkpt lat="45.86903720792697" lon="8.866492817617317"><ele>365.0</ele><time>2026-03-28T12:20:45Z</time></trkpt><trkpt lat="45.86910692265522" lon="8.866400994876289"><ele>365.0</ele><time>2026-03-28T12:20:46Z</time></trkpt><trkpt lat="45.86917315712209" lon="8.866308923150163"><ele>365.0</ele><time>2026-03-28T12:20:47Z</time></trkpt><trkpt lat="45.86923209393594" lon="8.866215632909636"><ele>365.0</ele><time>2026-03-28T12:20:48Z</time></trkpt><trkpt lat="45.869291461977745" lon="8.866125859554502"><ele>365.2</ele><time>2026-03-28T12:20:49Z</time></trkpt><trkpt lat="45.8693449076101" lon="8.866015806812568"><ele>365.4</ele><time>2026-03-28T12:20:50Z</time></trkpt><trkpt lat="45.86939824650781" lon="8.865910385031423"><ele>365.6</ele><time>2026-03-28T12:20:51Z</time></trkpt><trkpt lat="45.86945795420712" lon="8.86579535170647"><ele>365.8</ele><time>2026-03-28T12:20:52Z</time></trkpt><trkpt lat="45.869520589048555" lon="8.865677088495117"><ele>366.0</ele><time>2026-03-28T12:20:53Z</time></trkpt><trkpt lat="45.86957810792324" lon="8.865543784163092"><ele>366.4</ele><time>2026-03-28T12:20:54Z</time></trkpt><trkpt lat="45.86962998394376" lon="8.865424477524567"><ele>366.8</ele><time>2026-03-28T12:20:55Z</time></trkpt><trkpt lat="45.86968627871547" lon="8.865307620982104"><ele>367.2</ele><time>2026-03-28T12:20:56Z</time></trkpt><trkpt lat="45.86974009328967" lon="8.865193967522758"><ele>367.59999999999997</ele><time>2026-03-28T12:20:57Z</time></trkpt><trkpt lat="45.8697857232696" lon="8.865107216250978"><ele>368.0</ele><time>2026-03-28T12:20:58Z</time></trkpt><trkpt lat="45.86984715255881" lon="8.86498017960975"><ele>369.4</ele><time>2026-03-28T12:21:00Z</time></trkpt><trkpt lat="45.8699321579031" lon="8.864856266247141"><ele>370.79999999999995</ele><time>2026-03-28T12:21:02Z</time></trkpt><trkpt lat="45.870022636117206" lon="8.86489324224381"><ele>372.2</ele><time>2026-03-28T12:21:03Z</time></trkpt><trkpt lat="45.87010427278337" lon="8.864899253483411"><ele>373.6</ele><time>2026-03-28T12:21:04Z</time></trkpt><trkpt lat="45.87019509945372" lon="8.864885492729256"><ele>375.0</ele><time>2026-03-28T12:21:05Z</time></trkpt><trkpt lat="45.87028592085462" lon="8.864881692986517"><ele>376.1666666666667</ele><time>2026-03-28T12:21:06Z</time></trkpt><trkpt lat="45.87037271417203" lon="8.864915494600785"><ele>377.3333333333333</ele><time>2026-03-28T12:21:07Z</time></trkpt><trkpt lat="45.87047109516161" lon="8.864919796761958"><ele>378.5</ele><time>2026-03-28T12:21:08Z</time></trkpt><trkpt lat="45.87056266697014" lon="8.864964316210848"><ele>379.66666666666663</ele><time>2026-03-28T12:21:09Z</time></trkpt><trkpt lat="45.870647157947765" lon="8.865000128691632"><ele>380.8333333333333</ele><time>2026-03-28T12:21:10Z</time></trkpt><trkpt lat="45.8707085716164" lon="8.865028655981575"><ele>382.0</ele><time>2026-03-28T12:21:11Z</time></trkpt><trkpt lat="45.87080233181042" lon="8.865057554857533"><ele>382.0</ele><time>2026-03-28T12:21:13Z</time></trkpt><trkpt lat="45.87086734409639" lon="8.865015380075258"><ele>382.0</ele><time>2026-03-28T12:21:15Z</time></trkpt><trkpt lat="45.870944395756055" lon="8.864960070122567"><ele>382.0</ele><time>2026-03-28T12:21:18Z</time></trkpt><trkpt lat="45.870997751927355" lon="8.864909925344719"><ele>382.0</ele><time>2026-03-28T12:21:21Z</time></trkpt><trkpt lat="45.87105591093317" lon="8.864855266802417"><ele>382.0</ele><time>2026-03-28T12:21:24Z</time></trkpt><trkpt lat="45.8709966415364" lon="8.864573217754836"><ele>383.3333333333333</ele><time>2026-03-28T12:21:26Z</time></trkpt><trkpt lat="45.871030654610216" lon="8.864455009119773"><ele>384.66666666666663</ele><time>2026-03-28T12:21:33Z</time></trkpt><trkpt lat="45.87107143086729" lon="8.864366290798193"><ele>386.0</ele><time>2026-03-28T12:21:36Z</time></trkpt><trkpt lat="45.87113787086475" lon="8.864303648268889"><ele>387.3333333333333</ele><time>2026-03-28T12:21:41Z</time></trkpt><trkpt lat="45.87119927616013" lon="8.864239608611651"><ele>388.6666666666667</ele><time>2026-03-28T12:21:47Z</time></trkpt><trkpt lat="45.87125114001747" lon="8.86417613600464"><ele>390.0</ele><time>2026-03-28T12:21:49Z</time></trkpt><trkpt lat="45.8713086824025" lon="8.864131452507044"><ele>392.85714285714283</ele><time>2026-03-28T12:21:53Z</time></trkpt><trkpt lat="45.87136004096211" lon="8.864074263148135"><ele>395.71428571428567</ele><time>2026-03-28T12:22:00Z</time></trkpt><trkpt lat="45.87141965772778" lon="8.863989565532954"><ele>398.57142857142856</ele><time>2026-03-28T12:23:44Z</time></trkpt><trkpt lat="45.87147547901436" lon="8.863939201052407"><ele>401.42857142857144</ele><time>2026-03-28T12:24:02Z</time></trkpt><trkpt lat="45.871541269490145" lon="8.863941479205293"><ele>404.2857142857143</ele><time>2026-03-28T12:24:06Z</time></trkpt><trkpt lat="45.871468885505216" lon="8.863936240662822"><ele>407.14285714285717</ele><time>2026-03-28T12:26:16Z</time></trkpt><trkpt lat="45.87141482381895" lon="8.86398257830841"><ele>410.0</ele><time>2026-03-28T12:26:22Z</time></trkpt><trkpt lat="45.87135898484256" lon="8.864036373101433"><ele>410.0</ele><time>2026-03-28T12:26:30Z</time></trkpt><trkpt lat="45.87130969148889" lon="8.864097550208504"><ele>410.0</ele><time>2026-03-28T12:26:43Z</time></trkpt><trkpt lat="45.87124604992938" lon="8.864167543960344"><ele>410.0</ele><time>2026-03-28T12:26:47Z</time></trkpt><trkpt lat="45.871190647891304" lon="8.86423022373936"><ele>410.0</ele><time>2026-03-28T12:26:49Z</time></trkpt><trkpt lat="45.87112810498098" lon="8.864283252516877"><ele>410.0</ele><time>2026-03-28T12:26:52Z</time></trkpt><trkpt lat="45.87106976828955" lon="8.86433710460132"><ele>410.0</ele><time>2026-03-28T12:26:56Z</time></trkpt><trkpt lat="45.87104454995142" lon="8.864422054648767"><ele>410.0</ele><time>2026-03-28T12:27:00Z</time></trkpt><trkpt lat="45.871006399681626" lon="8.86455730873414"><ele>406.66666666666663</ele><time>2026-03-28T12:27:03Z</time></trkpt><trkpt lat="45.87096844444312" lon="8.864663809114642"><ele>403.3333333333333</ele><time>2026-03-28T12:27:05Z</time></trkpt><trkpt lat="45.870937716831236" lon="8.864783484906594"><ele>400.0</ele><time>2026-03-28T12:27:07Z</time></trkpt><trkpt lat="45.87090315065668" lon="8.8648887442801"><ele>396.66666666666663</ele><time>2026-03-28T12:27:09Z</time></trkpt><trkpt lat="45.870874235032325" lon="8.864969981724485"><ele>393.3333333333333</ele><time>2026-03-28T12:27:12Z</time></trkpt><trkpt lat="45.87081803103377" lon="8.865036610597048"><ele>390.0</ele><time>2026-03-28T12:36:56Z</time></trkpt><trkpt lat="45.87075626646472" lon="8.86501194571141"><ele>388.6666666666667</ele><time>2026-03-28T12:37:01Z</time></trkpt><trkpt lat="45.870691784340515" lon="8.864994455761792"><ele>387.3333333333333</ele><time>2026-03-28T12:40:52Z</time></trkpt><trkpt lat="45.87062632826213" lon="8.864963312990922"><ele>386.0</ele><time>2026-03-28T12:40:58Z</time></trkpt><trkpt lat="45.8705561323433" lon="8.864938089431666"><ele>384.66666666666663</ele><time>2026-03-28T12:41:02Z</time></trkpt><trkpt lat="45.870467668438486" lon="8.864897156047176"><ele>383.3333333333333</ele><time>2026-03-28T12:41:05Z</time></trkpt><trkpt lat="45.87040393148419" lon="8.864868454517048"><ele>382.0</ele><time>2026-03-28T12:41:07Z</time></trkpt><trkpt lat="45.87032063256473" lon="8.86485638182985"><ele>382.0</ele><time>2026-03-28T12:41:09Z</time></trkpt><trkpt lat="45.87022526249839" lon="8.864855850776818"><ele>382.0</ele><time>2026-03-28T12:41:11Z</time></trkpt><trkpt lat="45.870126544686485" lon="8.864855107476762"><ele>382.0</ele><time>2026-03-28T12:41:13Z</time></trkpt><trkpt lat="45.870017175843174" lon="8.864852960156625"><ele>382.0</ele><time>2026-03-28T12:41:15Z</time></trkpt><trkpt lat="45.869918250528045" lon="8.864842459760556"><ele>382.0</ele><time>2026-03-28T12:41:17Z</time></trkpt><trkpt lat="45.869831278919705" lon="8.864981527760962"><ele>380.6</ele><time>2026-03-28T12:41:20Z</time></trkpt><trkpt lat="45.86977129898542" lon="8.865096072241833"><ele>379.20000000000005</ele><time>2026-03-28T12:41:22Z</time></trkpt><trkpt lat="45.86970901970768" lon="8.865238818468104"><ele>377.8</ele><time>2026-03-28T12:41:24Z</time></trkpt><trkpt lat="45.86963772705646" lon="8.86538139653426"><ele>376.4</ele><time>2026-03-28T12:41:26Z</time></trkpt><trkpt lat="45.8695981842748" lon="8.865457807143878"><ele>375.0</ele><time>2026-03-28T12:41:27Z</time></trkpt><trkpt lat="45.86955893310753" lon="8.865536791477913"><ele>374.0</ele><time>2026-03-28T12:41:28Z</time></trkpt><trkpt lat="45.86952279643172" lon="8.8656184079033"><ele>373.0</ele><time>2026-03-28T12:41:29Z</time></trkpt><trkpt lat="45.86948793595664" lon="8.865700033509507"><ele>372.0</ele><time>2026-03-28T12:41:30Z</time></trkpt><trkpt lat="45.86944904824542" lon="8.865787761982189"><ele>371.0</ele><time>2026-03-28T12:41:31Z</time></trkpt><trkpt lat="45.86941061691202" lon="8.865868264071487"><ele>370.0</ele><time>2026-03-28T12:41:32Z</time></trkpt><trkpt lat="45.86936961217021" lon="8.86594820506427"><ele>369.0</ele><time>2026-03-28T12:41:33Z</time></trkpt><trkpt lat="45.86932634013376" lon="8.866029625520396"><ele>368.0</ele><time>2026-03-28T12:41:34Z</time></trkpt><trkpt lat="45.86926773725519" lon="8.866095361521303"><ele>367.5714285714286</ele><time>2026-03-28T12:41:35Z</time></trkpt><trkpt lat="45.86922117578546" lon="8.866170988881763"><ele>367.1428571428571</ele><time>2026-03-28T12:41:36Z</time></trkpt><trkpt lat="45.86917160444732" lon="8.866244071795116"><ele>366.7142857142857</ele><time>2026-03-28T12:41:37Z</time></trkpt><trkpt lat="45.869122242660865" lon="8.866314427140379"><ele>366.28571428571433</ele><time>2026-03-28T12:41:38Z</time></trkpt><trkpt lat="45.869082886521745" lon="8.86640227743803"><ele>365.8571428571429</ele><time>2026-03-28T12:41:39Z</time></trkpt><trkpt lat="45.86902941484233" lon="8.866467036706986"><ele>365.42857142857144</ele><time>2026-03-28T12:41:40Z</time></trkpt><trkpt lat="45.868975184433786" lon="8.866541071415893"><ele>365.0</ele><time>2026-03-28T12:41:41Z</time></trkpt><trkpt lat="45.868919676135725" lon="8.866609458030089"><ele>365.00000000000006</ele><time>2026-03-28T12:41:42Z</time></trkpt><trkpt lat="45.86886450461361" lon="8.866673737426726"><ele>365.0</ele><time>2026-03-28T12:41:43Z</time></trkpt><trkpt lat="45.86880982380354" lon="8.86673824749667"><ele>365.0</ele><time>2026-03-28T12:41:44Z</time></trkpt><trkpt lat="45.868754937770845" lon="8.866798072852593"><ele>365.0</ele><time>2026-03-28T12:41:45Z</time></trkpt><trkpt lat="45.86870371420357" lon="8.866855608819186"><ele>365.0</ele><time>2026-03-28T12:41:46Z</time></trkpt><trkpt lat="45.86865202146945" lon="8.866907702871341"><ele>365.00000000000006</ele><time>2026-03-28T12:41:47Z</time></trkpt><trkpt lat="45.86859371898228" lon="8.86696016662418"><ele>365.0</ele><time>2026-03-28T12:41:48Z</time></trkpt><trkpt lat="45.86853302840716" lon="8.867048321834435"><ele>365.0</ele><time>2026-03-28T12:41:50Z</time></trkpt><trkpt lat="45.8684696623593" lon="8.867066330156527"><ele>365.0</ele><time>2026-03-28T12:42:12Z</time></trkpt><trkpt lat="45.868491638323654" lon="8.86715607367666"><ele>365.0</ele><time>2026-03-28T12:42:16Z</time></trkpt><trkpt lat="45.86860160894776" lon="8.867258571096333"><ele>365.0</ele><time>2026-03-28T12:42:20Z</time></trkpt><trkpt lat="45.868660441624556" lon="8.867322680276517"><ele>365.0</ele><time>2026-03-28T12:42:22Z</time></trkpt><trkpt lat="45.868726081715614" lon="8.867383847522568"><ele>365.0</ele><time>2026-03-28T12:42:24Z</time></trkpt><trkpt lat="45.86879847297573" lon="8.867453886612664"><ele>365.0</ele><time>2026-03-28T12:42:26Z</time></trkpt><trkpt lat="45.86887274901348" lon="8.86752321415837"><ele>365.0</ele><time>2026-03-28T12:42:28Z</time></trkpt><trkpt lat="45.86894400212262" lon="8.867579403396427"><ele>365.0</ele><time>2026-03-28T12:42:30Z</time></trkpt><trkpt lat="45.86899439041895" lon="8.86764740720333"><ele>365.0</ele><time>2026-03-28T12:42:34Z</time></trkpt><trkpt lat="45.86907006282941" lon="8.867666842006056"><ele>365.0</ele><time>2026-03-28T12:43:58Z</time></trkpt><trkpt lat="45.869147408778346" lon="8.867696113974002"><ele>365.0</ele><time>2026-03-28T12:44:01Z</time></trkpt><trkpt lat="45.86921675141795" lon="8.86774682904078"><ele>363.4</ele><time>2026-03-28T12:44:03Z</time></trkpt><trkpt lat="45.86931569887492" lon="8.867790013047193"><ele>361.8</ele><time>2026-03-28T12:44:05Z</time></trkpt><trkpt lat="45.86943366688384" lon="8.867845759740707"><ele>360.20000000000005</ele><time>2026-03-28T12:44:07Z</time></trkpt><trkpt lat="45.86950123496392" lon="8.867873598829217"><ele>358.6</ele><time>2026-03-28T12:44:08Z</time></trkpt><trkpt lat="45.86957503766398" lon="8.867896525125506"><ele>357.0</ele><time>2026-03-28T12:44:09Z</time></trkpt><trkpt lat="45.8696481677341" lon="8.867928547859881"><ele>357.0</ele><time>2026-03-28T12:44:10Z</time></trkpt><trkpt lat="45.86972638307869" lon="8.867959861078985"><ele>357.0</ele><time>2026-03-28T12:44:11Z</time></trkpt><trkpt lat="45.86980100691173" lon="8.867988251006063"><ele>357.0</ele><time>2026-03-28T12:44:12Z</time></trkpt><trkpt lat="45.86987701433298" lon="8.868023169610991"><ele>357.0</ele><time>2026-03-28T12:44:13Z</time></trkpt><trkpt lat="45.869957846039206" lon="8.868058034885673"><ele>357.0</ele><time>2026-03-28T12:44:14Z</time></trkpt><trkpt lat="45.870038708325346" lon="8.868096129442087"><ele>357.0</ele><time>2026-03-28T12:44:15Z</time></trkpt><trkpt lat="45.870123627203895" lon="8.868137315289404"><ele>357.0</ele><time>2026-03-28T12:44:16Z</time></trkpt><trkpt lat="45.87021228463863" lon="8.868189106270867"><ele>357.0</ele><time>2026-03-28T12:44:17Z</time></trkpt><trkpt lat="45.87029669367091" lon="8.868236329680753"><ele>357.0</ele><time>2026-03-28T12:44:18Z</time></trkpt><trkpt lat="45.87038204125337" lon="8.868295477550376"><ele>357.0</ele><time>2026-03-28T12:44:19Z</time></trkpt><trkpt lat="45.87045812505538" lon="8.8683587836511"><ele>357.0</ele><time>2026-03-28T12:44:20Z</time></trkpt><trkpt lat="45.87053396330311" lon="8.86842610691649"><ele>357.1666666666667</ele><time>2026-03-28T12:44:21Z</time></trkpt><trkpt lat="45.8706122827596" lon="8.868487226749348"><ele>357.3333333333333</ele><time>2026-03-28T12:44:22Z</time></trkpt><trkpt lat="45.87069474249422" lon="8.868547733340467"><ele>357.5</ele><time>2026-03-28T12:44:23Z</time></trkpt><trkpt lat="45.87077398604725" lon="8.86861607787768"><ele>357.66666666666663</ele><time>2026-03-28T12:44:24Z</time></trkpt><trkpt lat="45.870844948187795" lon="8.868681272276525"><ele>357.8333333333333</ele><time>2026-03-28T12:44:25Z</time></trkpt><trkpt lat="45.870912920626914" lon="8.868753792634454"><ele>358.0</ele><time>2026-03-28T12:44:26Z</time></trkpt><trkpt lat="45.870990332099204" lon="8.868835160068462"><ele>358.0</ele><time>2026-03-28T12:44:27Z</time></trkpt><trkpt lat="45.871058699659805" lon="8.86891832987156"><ele>358.0</ele><time>2026-03-28T12:44:28Z</time></trkpt><trkpt lat="45.87112112917642" lon="8.869001814245888"><ele>358.0</ele><time>2026-03-28T12:44:28.999Z</time></trkpt><trkpt lat="45.87118240268642" lon="8.869078957482719"><ele>358.0</ele><time>2026-03-28T12:44:30Z</time></trkpt><trkpt lat="45.87124609472064" lon="8.869152281967132"><ele>358.0</ele><time>2026-03-28T12:44:31Z</time></trkpt><trkpt lat="45.87131033017085" lon="8.869235650129555"><ele>358.0</ele><time>2026-03-28T12:44:32Z</time></trkpt><trkpt lat="45.87137685514681" lon="8.869314677306201"><ele>357.5</ele><time>2026-03-28T12:44:33Z</time></trkpt><trkpt lat="45.87143904131707" lon="8.869383950073523"><ele>357.0</ele><time>2026-03-28T12:44:33.999Z</time></trkpt><trkpt lat="45.87149757365492" lon="8.869463263664015"><ele>356.5</ele><time>2026-03-28T12:44:34.999Z</time></trkpt><trkpt lat="45.87156446217908" lon="8.869534102344963"><ele>356.0</ele><time>2026-03-28T12:44:36Z</time></trkpt><trkpt lat="45.87162881507498" lon="8.869606530177059"><ele>355.5</ele><time>2026-03-28T12:44:37Z</time></trkpt><trkpt lat="45.87170079187441" lon="8.869660328316066"><ele>355.0</ele><time>2026-03-28T12:44:38Z</time></trkpt><trkpt lat="45.87177756789291" lon="8.869708095145889"><ele>355.0</ele><time>2026-03-28T12:44:39Z</time></trkpt><trkpt lat="45.871854036937215" lon="8.86975898659605"><ele>355.0</ele><time>2026-03-28T12:44:40Z</time></trkpt><trkpt lat="45.87192817773232" lon="8.86980571121263"><ele>355.0</ele><time>2026-03-28T12:44:41Z</time></trkpt><trkpt lat="45.872004150457855" lon="8.86985378836538"><ele>355.0</ele><time>2026-03-28T12:44:42Z</time></trkpt><trkpt lat="45.87208011410807" lon="8.869906004313975"><ele>355.0</ele><time>2026-03-28T12:44:43Z</time></trkpt><trkpt lat="45.87215444936493" lon="8.869960647818296"><ele>355.0</ele><time>2026-03-28T12:44:44Z</time></trkpt><trkpt lat="45.872230237701004" lon="8.870011302878476"><ele>355.0</ele><time>2026-03-28T12:44:45Z</time></trkpt><trkpt lat="45.872301555705846" lon="8.87006283212699"><ele>355.0</ele><time>2026-03-28T12:44:46Z</time></trkpt><trkpt lat="45.8723767986602" lon="8.870108806370569"><ele>355.0</ele><time>2026-03-28T12:44:47Z</time></trkpt><trkpt lat="45.872452123784086" lon="8.87016044408657"><ele>355.0</ele><time>2026-03-28T12:44:48Z</time></trkpt><trkpt lat="45.87252750504357" lon="8.870216859619282"><ele>355.0</ele><time>2026-03-28T12:44:49Z</time></trkpt><trkpt lat="45.87260548631687" lon="8.870263284770562"><ele>355.0</ele><time>2026-03-28T12:44:50Z</time></trkpt><trkpt lat="45.872755006876844" lon="8.870361381434995"><ele>354.8333333333333</ele><time>2026-03-28T12:44:52Z</time></trkpt><trkpt lat="45.87283446934038" lon="8.870410104190576"><ele>354.66666666666663</ele><time>2026-03-28T12:44:53Z</time></trkpt><trkpt lat="45.872910702286084" lon="8.870458180618956"><ele>354.5</ele><time>2026-03-28T12:44:54Z</time></trkpt><trkpt lat="45.872985362320655" lon="8.870509032122811"><ele>354.3333333333333</ele><time>2026-03-28T12:44:55Z</time></trkpt><trkpt lat="45.87306232324681" lon="8.870561949870417"><ele>354.1666666666667</ele><time>2026-03-28T12:44:56Z</time></trkpt><trkpt lat="45.873137238036485" lon="8.870611885046415"><ele>354.0</ele><time>2026-03-28T12:44:57Z</time></trkpt><trkpt lat="45.87321448583302" lon="8.870671369715504"><ele>354.0</ele><time>2026-03-28T12:44:58Z</time></trkpt><trkpt lat="45.87328494465642" lon="8.870719790893766"><ele>354.0</ele><time>2026-03-28T12:44:59Z</time></trkpt><trkpt lat="45.87336058836066" lon="8.87077101058452"><ele>354.0</ele><time>2026-03-28T12:45:00Z</time></trkpt><trkpt lat="45.873433258783415" lon="8.870823130820424"><ele>354.0</ele><time>2026-03-28T12:45:01Z</time></trkpt><trkpt lat="45.87350632952052" lon="8.870884270975097"><ele>354.0</ele><time>2026-03-28T12:45:02Z</time></trkpt><trkpt lat="45.873578729420196" lon="8.870939805508224"><ele>354.0</ele><time>2026-03-28T12:45:03Z</time></trkpt><trkpt lat="45.87364944042789" lon="8.871000224062017"><ele>354.8333333333333</ele><time>2026-03-28T12:45:04Z</time></trkpt><trkpt lat="45.87371798788893" lon="8.871058276717122"><ele>355.6666666666667</ele><time>2026-03-28T12:45:05Z</time></trkpt><trkpt lat="45.87378591645453" lon="8.871123931291079"><ele>356.5</ele><time>2026-03-28T12:45:06Z</time></trkpt><trkpt lat="45.87384940219266" lon="8.871191140321306"><ele>357.33333333333337</ele><time>2026-03-28T12:45:07Z</time></trkpt><trkpt lat="45.87390986351002" lon="8.8712490550899"><ele>358.1666666666667</ele><time>2026-03-28T12:45:08Z</time></trkpt><trkpt lat="45.873965854432626" lon="8.871317526068676"><ele>359.0</ele><time>2026-03-28T12:45:09Z</time></trkpt><trkpt lat="45.874003983436715" lon="8.871389799798203"><ele>359.0</ele><time>2026-03-28T12:45:10Z</time></trkpt><trkpt lat="45.87395005628084" lon="8.871633679146116"><ele>359.0</ele><time>2026-03-28T12:45:13Z</time></trkpt><trkpt lat="45.87389104370261" lon="8.871789940451965"><ele>359.0</ele><time>2026-03-28T12:45:15Z</time></trkpt><trkpt lat="45.87386779086097" lon="8.87187901127278"><ele>359.0</ele><time>2026-03-28T12:45:16Z</time></trkpt><trkpt lat="45.87384295967246" lon="8.871971194321112"><ele>359.0</ele><time>2026-03-28T12:45:17Z</time></trkpt><trkpt lat="45.87381576137471" lon="8.872063488168711"><ele>359.0</ele><time>2026-03-28T12:45:18Z</time></trkpt><trkpt lat="45.87378834192064" lon="8.87216204206793"><ele>359.0</ele><time>2026-03-28T12:45:19Z</time></trkpt><trkpt lat="45.873763345032515" lon="8.872261487764598"><ele>359.0</ele><time>2026-03-28T12:45:20Z</time></trkpt><trkpt lat="45.87373913291912" lon="8.872364530741557"><ele>359.0</ele><time>2026-03-28T12:45:21Z</time></trkpt><trkpt lat="45.87371706572039" lon="8.872469911819493"><ele>359.0</ele><time>2026-03-28T12:45:22Z</time></trkpt><trkpt lat="45.87369689550341" lon="8.872579272702358"><ele>359.0</ele><time>2026-03-28T12:45:23Z</time></trkpt><trkpt lat="45.87367767790022" lon="8.872685835724713"><ele>358.0</ele><time>2026-03-28T12:45:24Z</time></trkpt><trkpt lat="45.87366458320326" lon="8.872792889922493"><ele>357.0</ele><time>2026-03-28T12:45:25Z</time></trkpt><trkpt lat="45.8736567623083" lon="8.872901602676713"><ele>356.0</ele><time>2026-03-28T12:45:26Z</time></trkpt><trkpt lat="45.87364968958018" lon="8.873010682248143"><ele>355.0</ele><time>2026-03-28T12:45:27Z</time></trkpt><trkpt lat="45.873642639075904" lon="8.87311912881736"><ele>354.0</ele><time>2026-03-28T12:45:28Z</time></trkpt><trkpt lat="45.87363411175646" lon="8.87323076067658"><ele>353.0</ele><time>2026-03-28T12:45:29Z</time></trkpt><trkpt lat="45.87362175178873" lon="8.8733461530264"><ele>352.0</ele><time>2026-03-28T12:45:30Z</time></trkpt><trkpt lat="45.87360659571267" lon="8.87345337315154"><ele>351.0</ele><time>2026-03-28T12:45:31Z</time></trkpt><trkpt lat="45.873588599859296" lon="8.8735641128164"><ele>350.0</ele><time>2026-03-28T12:45:32Z</time></trkpt><trkpt lat="45.87357109927541" lon="8.873675208982263"><ele>349.0</ele><time>2026-03-28T12:45:33Z</time></trkpt><trkpt lat="45.87355369908311" lon="8.873789817168536"><ele>348.0</ele><time>2026-03-28T12:45:34Z</time></trkpt><trkpt lat="45.87353614900004" lon="8.873898101560002"><ele>347.0</ele><time>2026-03-28T12:45:35Z</time></trkpt><trkpt lat="45.873518824396186" lon="8.874007956042336"><ele>347.0</ele><time>2026-03-28T12:45:36Z</time></trkpt><trkpt lat="45.87350175415456" lon="8.874118094962393"><ele>347.0</ele><time>2026-03-28T12:45:37Z</time></trkpt><trkpt lat="45.873487693414475" lon="8.874225357786633"><ele>347.0</ele><time>2026-03-28T12:45:38Z</time></trkpt><trkpt lat="45.87346827910478" lon="8.874335466248581"><ele>347.0</ele><time>2026-03-28T12:45:39Z</time></trkpt><trkpt lat="45.87345066138731" lon="8.874447316640532"><ele>347.0</ele><time>2026-03-28T12:45:40Z</time></trkpt><trkpt lat="45.87343542134313" lon="8.874548979835327"><ele>347.0</ele><time>2026-03-28T12:45:41Z</time></trkpt><trkpt lat="45.87341719503618" lon="8.8746581742014"><ele>347.14285714285717</ele><time>2026-03-28T12:45:42Z</time></trkpt><trkpt lat="45.87340015747892" lon="8.874765151725938"><ele>347.2857142857143</ele><time>2026-03-28T12:45:43Z</time></trkpt><trkpt lat="45.87338053784084" lon="8.874870279786338"><ele>347.42857142857144</ele><time>2026-03-28T12:45:44Z</time></trkpt><trkpt lat="45.8733729588775" lon="8.874978374489778"><ele>347.57142857142856</ele><time>2026-03-28T12:45:45Z</time></trkpt><trkpt lat="45.873379248271476" lon="8.87507285520271"><ele>347.7142857142857</ele><time>2026-03-28T12:45:46Z</time></trkpt><trkpt lat="45.87340983147184" lon="8.875173413625813"><ele>347.85714285714283</ele><time>2026-03-28T12:45:47Z</time></trkpt><trkpt lat="45.87344277222494" lon="8.875265114839667"><ele>348.0</ele><time>2026-03-28T12:45:48Z</time></trkpt><trkpt lat="45.87352617283228" lon="8.87540053885837"><ele>348.0</ele><time>2026-03-28T12:45:50Z</time></trkpt><trkpt lat="45.8735688997877" lon="8.87546798320126"><ele>348.0</ele><time>2026-03-28T12:45:51Z</time></trkpt><trkpt lat="45.873650614451705" lon="8.87559582762185"><ele>348.0</ele><time>2026-03-28T12:45:53Z</time></trkpt><trkpt lat="45.87372469159246" lon="8.875728914844435"><ele>348.0</ele><time>2026-03-28T12:45:55Z</time></trkpt><trkpt lat="45.87379615613621" lon="8.875856778934475"><ele>348.0</ele><time>2026-03-28T12:45:57Z</time></trkpt><trkpt lat="45.87386924944686" lon="8.875982445892305"><ele>348.4</ele><time>2026-03-28T12:45:59Z</time></trkpt><trkpt lat="45.87392958743199" lon="8.876117646292936"><ele>348.79999999999995</ele><time>2026-03-28T12:46:01Z</time></trkpt><trkpt lat="45.87399886039318" lon="8.876247112383961"><ele>349.2</ele><time>2026-03-28T12:46:03Z</time></trkpt><trkpt lat="45.874055553868835" lon="8.876366817541804"><ele>349.6</ele><time>2026-03-28T12:46:05Z</time></trkpt><trkpt lat="45.8741159966748" lon="8.876476850609615"><ele>350.0</ele><time>2026-03-28T12:46:07Z</time></trkpt><trkpt lat="45.87417494131976" lon="8.876601732155228"><ele>350.0</ele><time>2026-03-28T12:46:09Z</time></trkpt><trkpt lat="45.87423642659123" lon="8.876730085864466"><ele>350.0</ele><time>2026-03-28T12:46:11Z</time></trkpt><trkpt lat="45.87428554029799" lon="8.87686458612042"><ele>350.0</ele><time>2026-03-28T12:46:13Z</time></trkpt><trkpt lat="45.874330968278976" lon="8.877005613365649"><ele>350.0</ele><time>2026-03-28T12:46:15Z</time></trkpt><trkpt lat="45.874369908435476" lon="8.877148560442857"><ele>350.0</ele><time>2026-03-28T12:46:17Z</time></trkpt><trkpt lat="45.87441469750501" lon="8.87728808125267"><ele>349.75</ele><time>2026-03-28T12:46:19Z</time></trkpt><trkpt lat="45.874470559873394" lon="8.877426464498928"><ele>349.5</ele><time>2026-03-28T12:46:21Z</time></trkpt><trkpt lat="45.87454717203446" lon="8.87753675726068"><ele>349.25</ele><time>2026-03-28T12:46:23Z</time></trkpt><trkpt lat="45.87463544597984" lon="8.87764381221159"><ele>349.0</ele><time>2026-03-28T12:46:25Z</time></trkpt><trkpt lat="45.874731532707656" lon="8.877747668454596"><ele>349.0</ele><time>2026-03-28T12:46:27Z</time></trkpt><trkpt lat="45.874839106514585" lon="8.877832380530695"><ele>349.0</ele><time>2026-03-28T12:46:29Z</time></trkpt><trkpt lat="45.87489297373148" lon="8.877880570981905"><ele>349.0</ele><time>2026-03-28T12:46:30Z</time></trkpt><trkpt lat="45.87494263825951" lon="8.877949248560142"><ele>349.0</ele><time>2026-03-28T12:46:31Z</time></trkpt><trkpt lat="45.87497902371164" lon="8.878033804975859"><ele>349.0</ele><time>2026-03-28T12:46:32Z</time></trkpt><trkpt lat="45.87501365480535" lon="8.878118999642782"><ele>349.0</ele><time>2026-03-28T12:46:33Z</time></trkpt><trkpt lat="45.875032041401106" lon="8.878211161655107"><ele>349.0</ele><time>2026-03-28T12:46:34Z</time></trkpt><trkpt lat="45.87502816097186" lon="8.878310418910361"><ele>349.0</ele><time>2026-03-28T12:46:35Z</time></trkpt><trkpt lat="45.87502678253338" lon="8.878410819583316"><ele>349.0</ele><time>2026-03-28T12:46:36Z</time></trkpt><trkpt lat="45.875023988400834" lon="8.878504699561796"><ele>349.0</ele><time>2026-03-28T12:46:37Z</time></trkpt><trkpt lat="45.87502360286277" lon="8.878599357200233"><ele>349.0</ele><time>2026-03-28T12:46:38Z</time></trkpt><trkpt lat="45.87502113337444" lon="8.878692360928657"><ele>349.0</ele><time>2026-03-28T12:46:39Z</time></trkpt><trkpt lat="45.87501810792741" lon="8.878874962699886"><ele>348.79999999999995</ele><time>2026-03-28T12:46:41Z</time></trkpt><trkpt lat="45.87501416299409" lon="8.878966612695905"><ele>348.59999999999997</ele><time>2026-03-28T12:46:42Z</time></trkpt><trkpt lat="45.87501911883566" lon="8.879057785205559"><ele>348.4</ele><time>2026-03-28T12:46:43Z</time></trkpt><trkpt lat="45.87503063101369" lon="8.879237106615609"><ele>348.2</ele><time>2026-03-28T12:46:45Z</time></trkpt><trkpt lat="45.875055420155036" lon="8.87942152135773"><ele>348.0</ele><time>2026-03-28T12:46:47Z</time></trkpt><trkpt lat="45.875039531704445" lon="8.879579375932138"><ele>347.57142857142856</ele><time>2026-03-28T12:46:49Z</time></trkpt><trkpt lat="45.8749621354367" lon="8.879717685090736"><ele>347.14285714285717</ele><time>2026-03-28T12:46:51Z</time></trkpt><trkpt lat="45.874903686019934" lon="8.879761227615043"><ele>346.7142857142857</ele><time>2026-03-28T12:46:52Z</time></trkpt><trkpt lat="45.874840226830095" lon="8.879767402372613"><ele>346.2857142857143</ele><time>2026-03-28T12:46:53Z</time></trkpt><trkpt lat="45.87477425075753" lon="8.879751083077325"><ele>345.85714285714283</ele><time>2026-03-28T12:46:54Z</time></trkpt><trkpt lat="45.87470888842473" lon="8.879736653791774"><ele>345.42857142857144</ele><time>2026-03-28T12:46:55Z</time></trkpt><trkpt lat="45.8746483971452" lon="8.879710834576983"><ele>345.0</ele><time>2026-03-28T12:46:56Z</time></trkpt><trkpt lat="45.87458794520776" lon="8.879683969335796"><ele>345.0</ele><time>2026-03-28T12:46:57Z</time></trkpt><trkpt lat="45.874470167524045" lon="8.879640179115054"><ele>345.0</ele><time>2026-03-28T12:46:59Z</time></trkpt><trkpt lat="45.87435758739973" lon="8.879592412431268"><ele>345.0</ele><time>2026-03-28T12:47:01Z</time></trkpt><trkpt lat="45.874251037812115" lon="8.879554533374067"><ele>345.0</ele><time>2026-03-28T12:47:03Z</time></trkpt><trkpt lat="45.874156402818286" lon="8.879510859887585"><ele>345.0</ele><time>2026-03-28T12:47:05Z</time></trkpt><trkpt lat="45.87406778628776" lon="8.879476861462306"><ele>345.5</ele><time>2026-03-28T12:47:07Z</time></trkpt><trkpt lat="45.87398901558077" lon="8.87944520354636"><ele>346.0</ele><time>2026-03-28T12:47:09Z</time></trkpt><trkpt lat="45.873908006426426" lon="8.879413812212466"><ele>346.5</ele><time>2026-03-28T12:47:11Z</time></trkpt><trkpt lat="45.87382072517397" lon="8.879382266029776"><ele>347.0</ele><time>2026-03-28T12:47:13Z</time></trkpt><trkpt lat="45.873735309257846" lon="8.87937695884031"><ele>347.5</ele><time>2026-03-28T12:47:15Z</time></trkpt><trkpt lat="45.873649273011225" lon="8.879328578125701"><ele>348.0</ele><time>2026-03-28T12:47:17Z</time></trkpt><trkpt lat="45.87355664263807" lon="8.879290431415335"><ele>348.1666666666667</ele><time>2026-03-28T12:47:19Z</time></trkpt><trkpt lat="45.873456636658354" lon="8.879250225844762"><ele>348.3333333333333</ele><time>2026-03-28T12:47:21Z</time></trkpt><trkpt lat="45.87337313967876" lon="8.879224407093615"><ele>348.5</ele><time>2026-03-28T12:47:23Z</time></trkpt><trkpt lat="45.873300629167176" lon="8.879194924476744"><ele>348.66666666666663</ele><time>2026-03-28T12:47:25Z</time></trkpt><trkpt lat="45.87322677478263" lon="8.879169563763933"><ele>348.8333333333333</ele><time>2026-03-28T12:47:27Z</time></trkpt><trkpt lat="45.87315613933289" lon="8.87914330690699"><ele>349.0</ele><time>2026-03-28T12:47:29Z</time></trkpt><trkpt lat="45.87308884253661" lon="8.879124557278702"><ele>349.5</ele><time>2026-03-28T12:47:31Z</time></trkpt><trkpt lat="45.873022186498105" lon="8.879093662991535"><ele>350.0</ele><time>2026-03-28T12:47:33Z</time></trkpt><trkpt lat="45.872957348553925" lon="8.879045815487029"><ele>350.5</ele><time>2026-03-28T12:47:35Z</time></trkpt><trkpt lat="45.872874892972284" lon="8.879003551878732"><ele>351.0</ele><time>2026-03-28T12:47:38Z</time></trkpt><trkpt lat="45.87278876048962" lon="8.878963497644548"><ele>351.5</ele><time>2026-03-28T12:47:41Z</time></trkpt><trkpt lat="45.8726975824496" lon="8.878922564299518"><ele>352.0</ele><time>2026-03-28T12:47:44Z</time></trkpt><trkpt lat="45.8726292557893" lon="8.87889494092356"><ele>354.0</ele><time>2026-03-28T12:47:46Z</time></trkpt><trkpt lat="45.87256615095973" lon="8.878875515722056"><ele>356.0</ele><time>2026-03-28T12:47:48Z</time></trkpt><trkpt lat="45.872501586118574" lon="8.878832937471179"><ele>358.0</ele><time>2026-03-28T12:47:50Z</time></trkpt><trkpt lat="45.872436869488176" lon="8.87879658134238"><ele>360.0</ele><time>2026-03-28T12:47:52Z</time></trkpt><trkpt lat="45.87236936235897" lon="8.878761492573366"><ele>362.0</ele><time>2026-03-28T12:47:54Z</time></trkpt><trkpt lat="45.8723003907364" lon="8.878726453166049"><ele>364.0</ele><time>2026-03-28T12:47:56Z</time></trkpt><trkpt lat="45.87221407728826" lon="8.878684967129944"><ele>366.0</ele><time>2026-03-28T12:47:59Z</time></trkpt><trkpt lat="45.872142867235894" lon="8.878641202993887"><ele>366.0</ele><time>2026-03-28T12:48:02Z</time></trkpt><trkpt lat="45.872076962868476" lon="8.878599961073082"><ele>366.0</ele><time>2026-03-28T12:48:05Z</time></trkpt><trkpt lat="45.872014824999376" lon="8.878560332101292"><ele>366.0</ele><time>2026-03-28T12:48:09Z</time></trkpt><trkpt lat="45.87194050285888" lon="8.87850319749901"><ele>366.0</ele><time>2026-03-28T12:48:28Z</time></trkpt><trkpt lat="45.87187163812338" lon="8.878463914378266"><ele>366.0</ele><time>2026-03-28T12:48:32Z</time></trkpt><trkpt lat="45.87180231412399" lon="8.878418583358359"><ele>366.0</ele><time>2026-03-28T12:48:35Z</time></trkpt><trkpt lat="45.87171741991996" lon="8.878362461970456"><ele>364.5</ele><time>2026-03-28T12:48:38Z</time></trkpt><trkpt lat="45.87165234244015" lon="8.878318828842794"><ele>363.0</ele><time>2026-03-28T12:48:40Z</time></trkpt><trkpt lat="45.871582359253914" lon="8.878270022529561"><ele>361.5</ele><time>2026-03-28T12:48:42Z</time></trkpt><trkpt lat="45.871510052147045" lon="8.878220950258438"><ele>360.0</ele><time>2026-03-28T12:48:44Z</time></trkpt><trkpt lat="45.871436203143915" lon="8.878169951794707"><ele>358.5</ele><time>2026-03-28T12:48:46Z</time></trkpt><trkpt lat="45.871355893101565" lon="8.878117278441705"><ele>357.0</ele><time>2026-03-28T12:48:48Z</time></trkpt><trkpt lat="45.87127247755028" lon="8.878060335722166"><ele>357.0</ele><time>2026-03-28T12:48:50Z</time></trkpt><trkpt lat="45.87119174820504" lon="8.878005214323649"><ele>357.0</ele><time>2026-03-28T12:48:52Z</time></trkpt><trkpt lat="45.87111383154962" lon="8.87794756000932"><ele>357.0</ele><time>2026-03-28T12:48:54Z</time></trkpt><trkpt lat="45.87103384422987" lon="8.87789480858996"><ele>357.0</ele><time>2026-03-28T12:48:56Z</time></trkpt><trkpt lat="45.870954109610565" lon="8.877842042455208"><ele>357.0</ele><time>2026-03-28T12:48:58Z</time></trkpt><trkpt lat="45.870868965165116" lon="8.877791627897231"><ele>357.0</ele><time>2026-03-28T12:49:00Z</time></trkpt><trkpt lat="45.87078727536964" lon="8.877736912012717"><ele>356.0</ele><time>2026-03-28T12:49:02Z</time></trkpt><trkpt lat="45.870702527181" lon="8.877685048059526"><ele>355.0</ele><time>2026-03-28T12:49:04Z</time></trkpt><trkpt lat="45.87061711292575" lon="8.877634788791003"><ele>354.0</ele><time>2026-03-28T12:49:06Z</time></trkpt><trkpt lat="45.87052782046538" lon="8.87758199329394"><ele>353.0</ele><time>2026-03-28T12:49:08Z</time></trkpt><trkpt lat="45.87043369140342" lon="8.877530125796751"><ele>352.0</ele><time>2026-03-28T12:49:10Z</time></trkpt><trkpt lat="45.870342660018686" lon="8.877476929869061"><ele>352.0</ele><time>2026-03-28T12:49:12Z</time></trkpt><trkpt lat="45.870253792101735" lon="8.877425965696053"><ele>352.0</ele><time>2026-03-28T12:49:14Z</time></trkpt><trkpt lat="45.870160027191574" lon="8.877378510351038"><ele>352.0</ele><time>2026-03-28T12:49:16Z</time></trkpt><trkpt lat="45.87006708203307" lon="8.877332190116032"><ele>352.0</ele><time>2026-03-28T12:49:18Z</time></trkpt><trkpt lat="45.869972877683665" lon="8.87728398243277"><ele>352.0</ele><time>2026-03-28T12:49:20Z</time></trkpt><trkpt lat="45.86988146978763" lon="8.87723553222891"><ele>353.40000000000003</ele><time>2026-03-28T12:49:22Z</time></trkpt><trkpt lat="45.86979003493874" lon="8.877190406258434"><ele>354.8</ele><time>2026-03-28T12:49:24Z</time></trkpt><trkpt lat="45.869702415082315" lon="8.877141837504475"><ele>356.2</ele><time>2026-03-28T12:49:26Z</time></trkpt><trkpt lat="45.869616445080624" lon="8.877098477579521"><ele>357.6</ele><time>2026-03-28T12:49:28Z</time></trkpt><trkpt lat="45.86953138700749" lon="8.877056006620526"><ele>359.0</ele><time>2026-03-28T12:49:30Z</time></trkpt><trkpt lat="45.86944957872719" lon="8.8770139620979"><ele>359.0</ele><time>2026-03-28T12:49:32Z</time></trkpt><trkpt lat="45.869370889313416" lon="8.87697450028244"><ele>359.0</ele><time>2026-03-28T12:49:34Z</time></trkpt><trkpt lat="45.86929275929213" lon="8.876933576204179"><ele>359.0</ele><time>2026-03-28T12:49:36Z</time></trkpt><trkpt lat="45.86921426241778" lon="8.87689645565505"><ele>359.0</ele><time>2026-03-28T12:49:38Z</time></trkpt><trkpt lat="45.86913420171705" lon="8.876855817918022"><ele>359.0</ele><time>2026-03-28T12:49:40Z</time></trkpt><trkpt lat="45.86905654282706" lon="8.876816911780166"><ele>359.0</ele><time>2026-03-28T12:49:42Z</time></trkpt><trkpt lat="45.868976712001086" lon="8.876775411118802"><ele>358.0</ele><time>2026-03-28T12:49:44Z</time></trkpt><trkpt lat="45.868899766158556" lon="8.876737031359177"><ele>357.0</ele><time>2026-03-28T12:49:46Z</time></trkpt><trkpt lat="45.868821000599205" lon="8.876696481634688"><ele>356.0</ele><time>2026-03-28T12:49:48Z</time></trkpt><trkpt lat="45.86874095480809" lon="8.876658232236808"><ele>355.0</ele><time>2026-03-28T12:49:50Z</time></trkpt><trkpt lat="45.86866045438507" lon="8.876617880696179"><ele>354.0</ele><time>2026-03-28T12:49:52Z</time></trkpt><trkpt lat="45.86858253262261" lon="8.876576853326066"><ele>353.0</ele><time>2026-03-28T12:49:54Z</time></trkpt><trkpt lat="45.868504293062" lon="8.876538272600554"><ele>356.0</ele><time>2026-03-28T12:49:56Z</time></trkpt><trkpt lat="45.868424320975805" lon="8.876492023963069"><ele>359.0</ele><time>2026-03-28T12:49:58Z</time></trkpt><trkpt lat="45.86833825587048" lon="8.876444194367496"><ele>362.0</ele><time>2026-03-28T12:50:00Z</time></trkpt><trkpt lat="45.86824274344349" lon="8.87638820581794"><ele>365.0</ele><time>2026-03-28T12:50:02Z</time></trkpt><trkpt lat="45.86814167787906" lon="8.876323542908292"><ele>368.0</ele><time>2026-03-28T12:50:04Z</time></trkpt><trkpt lat="45.86803681296221" lon="8.87625396017815"><ele>368.0</ele><time>2026-03-28T12:50:06Z</time></trkpt><trkpt lat="45.86793182722784" lon="8.876177611599989"><ele>368.0</ele><time>2026-03-28T12:50:08Z</time></trkpt><trkpt lat="45.86782717947466" lon="8.876090542393946"><ele>368.0</ele><time>2026-03-28T12:50:10Z</time></trkpt><trkpt lat="45.86777007197594" lon="8.876043152314441"><ele>368.0</ele><time>2026-03-28T12:50:11Z</time></trkpt><trkpt lat="45.867717421773996" lon="8.875992716846193"><ele>368.0</ele><time>2026-03-28T12:50:12Z</time></trkpt><trkpt lat="45.86766379210534" lon="8.875940183159818"><ele>368.0</ele><time>2026-03-28T12:50:13Z</time></trkpt><trkpt lat="45.86760946283715" lon="8.875884922582474"><ele>366.5714285714286</ele><time>2026-03-28T12:50:14Z</time></trkpt><trkpt lat="45.86755692261865" lon="8.875829674985793"><ele>365.1428571428571</ele><time>2026-03-28T12:50:15Z</time></trkpt><trkpt lat="45.86750429524235" lon="8.875771496303809"><ele>363.7142857142857</ele><time>2026-03-28T12:50:16Z</time></trkpt><trkpt lat="45.86745314203597" lon="8.875712655508048"><ele>362.28571428571433</ele><time>2026-03-28T12:50:17Z</time></trkpt><trkpt lat="45.867398499616456" lon="8.875654298783349"><ele>360.8571428571429</ele><time>2026-03-28T12:50:18Z</time></trkpt><trkpt lat="45.8673453890942" lon="8.875595259936057"><ele>359.42857142857144</ele><time>2026-03-28T12:50:19Z</time></trkpt><trkpt lat="45.867292368548284" lon="8.875530797293589"><ele>358.0</ele><time>2026-03-28T12:50:20Z</time></trkpt><trkpt lat="45.86723838665555" lon="8.875468192840263"><ele>358.00000000000006</ele><time>2026-03-28T12:50:21Z</time></trkpt><trkpt lat="45.86718566787403" lon="8.87540791405978"><ele>358.0</ele><time>2026-03-28T12:50:22Z</time></trkpt><trkpt lat="45.86713240812577" lon="8.875342193519575"><ele>358.0</ele><time>2026-03-28T12:50:23Z</time></trkpt><trkpt lat="45.86707663492203" lon="8.875283632087278"><ele>358.0</ele><time>2026-03-28T12:50:24Z</time></trkpt><trkpt lat="45.867018238510795" lon="8.875224328675849"><ele>358.0</ele><time>2026-03-28T12:50:25Z</time></trkpt><trkpt lat="45.86695655589703" lon="8.875162650348164"><ele>358.00000000000006</ele><time>2026-03-28T12:50:26Z</time></trkpt><trkpt lat="45.866893351630985" lon="8.875101324587977"><ele>358.0</ele><time>2026-03-28T12:50:27Z</time></trkpt><trkpt lat="45.86682951264819" lon="8.875044689298774"><ele>357.7142857142857</ele><time>2026-03-28T12:50:28Z</time></trkpt><trkpt lat="45.866764367883356" lon="8.874990188487503"><ele>357.42857142857144</ele><time>2026-03-28T12:50:29Z</time></trkpt><trkpt lat="45.866699633557005" lon="8.87494068495138"><ele>357.1428571428571</ele><time>2026-03-28T12:50:30Z</time></trkpt><trkpt lat="45.86663201910001" lon="8.874896345007313"><ele>356.8571428571429</ele><time>2026-03-28T12:50:31Z</time></trkpt><trkpt lat="45.86655950386748" lon="8.874850906881067"><ele>356.57142857142856</ele><time>2026-03-28T12:50:32Z</time></trkpt><trkpt lat="45.86648962053496" lon="8.874812313347416"><ele>356.2857142857143</ele><time>2026-03-28T12:50:33Z</time></trkpt><trkpt lat="45.86642275983197" lon="8.874778262293184"><ele>356.0</ele><time>2026-03-28T12:50:34Z</time></trkpt><trkpt lat="45.866351781474535" lon="8.874742233857337"><ele>356.0</ele><time>2026-03-28T12:50:35Z</time></trkpt><trkpt lat="45.866278124111396" lon="8.874707345967233"><ele>356.0</ele><time>2026-03-28T12:50:36Z</time></trkpt><trkpt lat="45.86620429058069" lon="8.87467525013707"><ele>356.0</ele><time>2026-03-28T12:50:37Z</time></trkpt><trkpt lat="45.86613381006101" lon="8.87464330836176"><ele>356.0</ele><time>2026-03-28T12:50:38Z</time></trkpt><trkpt lat="45.86606409491531" lon="8.87461097486173"><ele>356.0</ele><time>2026-03-28T12:50:39Z</time></trkpt><trkpt lat="45.86599026036212" lon="8.874578837016887"><ele>356.0</ele><time>2026-03-28T12:50:40Z</time></trkpt><trkpt lat="45.86591751210069" lon="8.874545088397804"><ele>358.1666666666667</ele><time>2026-03-28T12:50:41Z</time></trkpt><trkpt lat="45.865847629462166" lon="8.874517317286347"><ele>360.33333333333337</ele><time>2026-03-28T12:50:42Z</time></trkpt><trkpt lat="45.86578196749174" lon="8.874489278847019"><ele>362.5</ele><time>2026-03-28T12:50:43Z</time></trkpt><trkpt lat="45.865694472334745" lon="8.87443746149962"><ele>364.6666666666667</ele><time>2026-03-28T12:50:44Z</time></trkpt><trkpt lat="45.86562061791391" lon="8.874407308559245"><ele>366.8333333333333</ele><time>2026-03-28T12:50:45Z</time></trkpt><trkpt lat="45.865546744598234" lon="8.874376811159378"><ele>369.0</ele><time>2026-03-28T12:50:46Z</time></trkpt><trkpt lat="45.86547280526905" lon="8.87435341629123"><ele>369.0</ele><time>2026-03-28T12:50:47Z</time></trkpt><trkpt lat="45.86539811075442" lon="8.874326698257521"><ele>369.0</ele><time>2026-03-28T12:50:48Z</time></trkpt><trkpt lat="45.86532301685011" lon="8.874297321802079"><ele>369.0</ele><time>2026-03-28T12:50:49Z</time></trkpt><trkpt lat="45.86524834009955" lon="8.874259846507574"><ele>369.0</ele><time>2026-03-28T12:50:50Z</time></trkpt><trkpt lat="45.865170249833405" lon="8.874231482595292"><ele>369.0</ele><time>2026-03-28T12:50:51Z</time></trkpt><trkpt lat="45.86508918932994" lon="8.874200817758082"><ele>369.0</ele><time>2026-03-28T12:50:52Z</time></trkpt><trkpt lat="45.86501182243309" lon="8.874171841846241"><ele>368.3333333333333</ele><time>2026-03-28T12:50:53Z</time></trkpt><trkpt lat="45.86493304305958" lon="8.874144431043202"><ele>367.6666666666667</ele><time>2026-03-28T12:50:54Z</time></trkpt><trkpt lat="45.86485133562879" lon="8.874106163748419"><ele>367.0</ele><time>2026-03-28T12:50:55Z</time></trkpt><trkpt lat="45.86477353456027" lon="8.874069436282399"><ele>366.33333333333337</ele><time>2026-03-28T12:50:56Z</time></trkpt><trkpt lat="45.864699372222404" lon="8.8740333600306"><ele>365.6666666666667</ele><time>2026-03-28T12:50:57Z</time></trkpt><trkpt lat="45.864619851700034" lon="8.873983970205865"><ele>365.0</ele><time>2026-03-28T12:50:58Z</time></trkpt><trkpt lat="45.86454480203289" lon="8.873920527226735"><ele>365.0</ele><time>2026-03-28T12:50:59Z</time></trkpt><trkpt lat="45.864474208030416" lon="8.873859034858386"><ele>365.0</ele><time>2026-03-28T12:51:00Z</time></trkpt><trkpt lat="45.864411685621775" lon="8.873787960599083"><ele>365.0</ele><time>2026-03-28T12:51:01Z</time></trkpt><trkpt lat="45.86435060088378" lon="8.873720409460923"><ele>365.0</ele><time>2026-03-28T12:51:02Z</time></trkpt><trkpt lat="45.86428979957838" lon="8.87366952007178"><ele>365.0</ele><time>2026-03-28T12:51:03Z</time></trkpt><trkpt lat="45.86420928412342" lon="8.873703787255259"><ele>365.0</ele><time>2026-03-28T12:51:04Z</time></trkpt><trkpt lat="45.86414405499217" lon="8.87374547359747"><ele>364.42857142857144</ele><time>2026-03-28T12:51:05Z</time></trkpt><trkpt lat="45.86408164552886" lon="8.873787546248524"><ele>363.8571428571429</ele><time>2026-03-28T12:51:06Z</time></trkpt><trkpt lat="45.864014523286414" lon="8.87381163731998"><ele>363.28571428571433</ele><time>2026-03-28T12:51:07Z</time></trkpt><trkpt lat="45.863942088220654" lon="8.873822437412523"><ele>362.7142857142857</ele><time>2026-03-28T12:51:08Z</time></trkpt><trkpt lat="45.86387237640413" lon="8.873827945103377"><ele>362.1428571428571</ele><time>2026-03-28T12:51:09Z</time></trkpt><trkpt lat="45.86380557114374" lon="8.873840678924548"><ele>361.5714285714286</ele><time>2026-03-28T12:51:10Z</time></trkpt><trkpt lat="45.863735609799114" lon="8.873860943762626"><ele>361.0</ele><time>2026-03-28T12:51:11Z</time></trkpt><trkpt lat="45.86366892975586" lon="8.873880738748323"><ele>361.0</ele><time>2026-03-28T12:51:12Z</time></trkpt><trkpt lat="45.863603171325614" lon="8.873908374093428"><ele>361.0</ele><time>2026-03-28T12:51:13Z</time></trkpt><trkpt lat="45.86353542239628" lon="8.873944158841983"><ele>361.0</ele><time>2026-03-28T12:51:14Z</time></trkpt><trkpt lat="45.86347278942771" lon="8.873986659485391"><ele>361.0</ele><time>2026-03-28T12:51:15Z</time></trkpt><trkpt lat="45.86340868522719" lon="8.874035520564956"><ele>361.0</ele><time>2026-03-28T12:51:16Z</time></trkpt><trkpt lat="45.863346371081384" lon="8.874088051738903"><ele>361.0</ele><time>2026-03-28T12:51:17Z</time></trkpt><trkpt lat="45.863287270291636" lon="8.874137006977888"><ele>361.0</ele><time>2026-03-28T12:51:18Z</time></trkpt><trkpt lat="45.863233733379346" lon="8.874201667369874"><ele>361.42857142857144</ele><time>2026-03-28T12:51:19Z</time></trkpt><trkpt lat="45.863180371686106" lon="8.874267079474926"><ele>361.85714285714283</ele><time>2026-03-28T12:51:20Z</time></trkpt><trkpt lat="45.863128605755456" lon="8.874335411210934"><ele>362.2857142857143</ele><time>2026-03-28T12:51:21Z</time></trkpt><trkpt lat="45.8630799684785" lon="8.874406487426944"><ele>362.7142857142857</ele><time>2026-03-28T12:51:22Z</time></trkpt><trkpt lat="45.86303115959023" lon="8.874482746384185"><ele>363.1428571428571</ele><time>2026-03-28T12:51:23Z</time></trkpt><trkpt lat="45.86298834806628" lon="8.874560248116069"><ele>363.57142857142856</ele><time>2026-03-28T12:51:24Z</time></trkpt><trkpt lat="45.862943041331455" lon="8.874641646376974"><ele>364.0</ele><time>2026-03-28T12:51:25Z</time></trkpt><trkpt lat="45.862899152910465" lon="8.874721897104122"><ele>364.0</ele><time>2026-03-28T12:51:26Z</time></trkpt><trkpt lat="45.862855125523154" lon="8.874798880333376"><ele>364.0</ele><time>2026-03-28T12:51:27Z</time></trkpt><trkpt lat="45.862810551261305" lon="8.874878554579528"><ele>364.0</ele><time>2026-03-28T12:51:28Z</time></trkpt><trkpt lat="45.86276118529769" lon="8.874960260607585"><ele>364.0</ele><time>2026-03-28T12:51:29Z</time></trkpt><trkpt lat="45.86271990226182" lon="8.875042276894904"><ele>364.0</ele><time>2026-03-28T12:51:30Z</time></trkpt><trkpt lat="45.86267878893475" lon="8.875120659032163"><ele>364.0</ele><time>2026-03-28T12:51:31Z</time></trkpt><trkpt lat="45.86263202790543" lon="8.875198364465538"><ele>364.0</ele><time>2026-03-28T12:51:32Z</time></trkpt><trkpt lat="45.86259100356937" lon="8.875279619602487"><ele>364.2857142857143</ele><time>2026-03-28T12:51:33Z</time></trkpt><trkpt lat="45.862547240759234" lon="8.87536038431795"><ele>364.57142857142856</ele><time>2026-03-28T12:51:34Z</time></trkpt><trkpt lat="45.862499404122254" lon="8.875434679269045"><ele>364.8571428571429</ele><time>2026-03-28T12:51:35Z</time></trkpt><trkpt lat="45.86244931989074" lon="8.875509364992132"><ele>365.1428571428571</ele><time>2026-03-28T12:51:36Z</time></trkpt><trkpt lat="45.862399600568125" lon="8.875585180134857"><ele>365.42857142857144</ele><time>2026-03-28T12:51:37Z</time></trkpt><trkpt lat="45.8623500579364" lon="8.875658330003935"><ele>365.7142857142857</ele><time>2026-03-28T12:51:38Z</time></trkpt><trkpt lat="45.862299191056685" lon="8.87573110958401"><ele>366.0</ele><time>2026-03-28T12:51:39Z</time></trkpt><trkpt lat="45.86224457809856" lon="8.875796535877955"><ele>366.0</ele><time>2026-03-28T12:51:40Z</time></trkpt><trkpt lat="45.86218780726628" lon="8.875862700201154"><ele>366.0</ele><time>2026-03-28T12:51:41Z</time></trkpt><trkpt lat="45.86213528385078" lon="8.875925298099048"><ele>366.0</ele><time>2026-03-28T12:51:42Z</time></trkpt><trkpt lat="45.86207902727997" lon="8.875991215308451"><ele>366.0</ele><time>2026-03-28T12:51:43Z</time></trkpt><trkpt lat="45.86202269831907" lon="8.876047974153074"><ele>366.0</ele><time>2026-03-28T12:51:44Z</time></trkpt><trkpt lat="45.861961828874854" lon="8.87610240778248"><ele>366.0</ele><time>2026-03-28T12:51:45Z</time></trkpt><trkpt lat="45.86190202374071" lon="8.87614942621726"><ele>366.0</ele><time>2026-03-28T12:51:46Z</time></trkpt><trkpt lat="45.86183993986939" lon="8.876193093889874"><ele>365.57142857142856</ele><time>2026-03-28T12:51:47Z</time></trkpt><trkpt lat="45.861780027798694" lon="8.876247459280732"><ele>365.14285714285717</ele><time>2026-03-28T12:51:48Z</time></trkpt><trkpt lat="45.86171890205501" lon="8.876296055954356"><ele>364.71428571428567</ele><time>2026-03-28T12:51:49Z</time></trkpt><trkpt lat="45.86165562294373" lon="8.87633433447786"><ele>364.2857142857143</ele><time>2026-03-28T12:51:50Z</time></trkpt><trkpt lat="45.86159188127862" lon="8.87637494351763"><ele>363.85714285714283</ele><time>2026-03-28T12:51:51Z</time></trkpt><trkpt lat="45.86153103499603" lon="8.87642050678434"><ele>363.4285714285714</ele><time>2026-03-28T12:51:52Z</time></trkpt><trkpt lat="45.861465461545684" lon="8.876448841477925"><ele>363.0</ele><time>2026-03-28T12:51:53Z</time></trkpt><trkpt lat="45.861396363093924" lon="8.876472584737442"><ele>362.99999999999994</ele><time>2026-03-28T12:51:54Z</time></trkpt><trkpt lat="45.86133533967764" lon="8.876506401063505"><ele>363.0</ele><time>2026-03-28T12:51:55Z</time></trkpt><trkpt lat="45.86127000576624" lon="8.876542918537885"><ele>363.0</ele><time>2026-03-28T12:51:56Z</time></trkpt><trkpt lat="45.86120677167447" lon="8.87657489010386"><ele>363.0</ele><time>2026-03-28T12:51:57Z</time></trkpt><trkpt lat="45.8611421110723" lon="8.876591011720874"><ele>363.0</ele><time>2026-03-28T12:51:58Z</time></trkpt><trkpt lat="45.861081605700775" lon="8.87662727519068"><ele>362.99999999999994</ele><time>2026-03-28T12:51:59Z</time></trkpt><trkpt lat="45.86101885006299" lon="8.876661750598478"><ele>363.0</ele><time>2026-03-28T12:52:00Z</time></trkpt><trkpt lat="45.8609557171815" lon="8.876681180907886"><ele>363.79999999999995</ele><time>2026-03-28T12:52:01Z</time></trkpt><trkpt lat="45.86089242480273" lon="8.876703540687942"><ele>364.6</ele><time>2026-03-28T12:52:02Z</time></trkpt><trkpt lat="45.860770774807804" lon="8.87674488963116"><ele>365.4</ele><time>2026-03-28T12:52:04Z</time></trkpt><trkpt lat="45.860709568222106" lon="8.876770779129002"><ele>366.20000000000005</ele><time>2026-03-28T12:52:05Z</time></trkpt><trkpt lat="45.86058733833853" lon="8.876806438716365"><ele>367.0</ele><time>2026-03-28T12:52:07Z</time></trkpt><trkpt lat="45.86046872756631" lon="8.876850206384328"><ele>367.0</ele><time>2026-03-28T12:52:09Z</time></trkpt><trkpt lat="45.86040639383879" lon="8.876868878307688"><ele>367.0</ele><time>2026-03-28T12:52:10Z</time></trkpt><trkpt lat="45.86034037247264" lon="8.876889090375009"><ele>367.0</ele><time>2026-03-28T12:52:11Z</time></trkpt><trkpt lat="45.8602772244056" lon="8.876910264866593"><ele>367.0</ele><time>2026-03-28T12:52:12Z</time></trkpt><trkpt lat="45.860214793689806" lon="8.876938214210252"><ele>367.0</ele><time>2026-03-28T12:52:13Z</time></trkpt><trkpt lat="45.860149987411475" lon="8.87695349668305"><ele>367.0</ele><time>2026-03-28T12:52:14Z</time></trkpt><trkpt lat="45.86008891022624" lon="8.876985260633415"><ele>367.0</ele><time>2026-03-28T12:52:15Z</time></trkpt><trkpt lat="45.86002454766572" lon="8.877002591136042"><ele>366.57142857142856</ele><time>2026-03-28T12:52:16Z</time></trkpt><trkpt lat="45.85995981830202" lon="8.877028373912676"><ele>366.14285714285717</ele><time>2026-03-28T12:52:17Z</time></trkpt><trkpt lat="45.85989382912267" lon="8.87705006745923"><ele>365.7142857142857</ele><time>2026-03-28T12:52:18Z</time></trkpt><trkpt lat="45.85982727738605" lon="8.877065043660673"><ele>365.2857142857143</ele><time>2026-03-28T12:52:19Z</time></trkpt><trkpt lat="45.859758718743116" lon="8.877042051914547"><ele>364.8571428571429</ele><time>2026-03-28T12:52:20Z</time></trkpt><trkpt lat="45.85969493278239" lon="8.877082100885936"><ele>364.42857142857144</ele><time>2026-03-28T12:52:21Z</time></trkpt><trkpt lat="45.859621916109475" lon="8.877132356982742"><ele>364.0</ele><time>2026-03-28T12:52:22Z</time></trkpt><trkpt lat="45.8595567545957" lon="8.877156989618987"><ele>364.0</ele><time>2026-03-28T12:52:23Z</time></trkpt><trkpt lat="45.85948620485103" lon="8.877179510371278"><ele>364.0</ele><time>2026-03-28T12:52:24Z</time></trkpt><trkpt lat="45.85941670670989" lon="8.877205548827344"><ele>364.0</ele><time>2026-03-28T12:52:25Z</time></trkpt><trkpt lat="45.859346242123884" lon="8.877232043931443"><ele>364.0</ele><time>2026-03-28T12:52:26Z</time></trkpt><trkpt lat="45.85927728036608" lon="8.877259077541767"><ele>364.0</ele><time>2026-03-28T12:52:27Z</time></trkpt><trkpt lat="45.85921041277892" lon="8.877280956174522"><ele>364.0</ele><time>2026-03-28T12:52:28Z</time></trkpt><trkpt lat="45.859143676291275" lon="8.877305667564205"><ele>364.0</ele><time>2026-03-28T12:52:29Z</time></trkpt><trkpt lat="45.85907388739922" lon="8.877329151261588"><ele>363.5</ele><time>2026-03-28T12:52:30Z</time></trkpt><trkpt lat="45.85900090804596" lon="8.877352630013489"><ele>363.0</ele><time>2026-03-28T12:52:31Z</time></trkpt><trkpt lat="45.85892728434886" lon="8.877377183117174"><ele>362.5</ele><time>2026-03-28T12:52:32Z</time></trkpt><trkpt lat="45.85885562309324" lon="8.877402958342973"><ele>362.0</ele><time>2026-03-28T12:52:33Z</time></trkpt><trkpt lat="45.858783174913185" lon="8.877427838982086"><ele>361.5</ele><time>2026-03-28T12:52:34Z</time></trkpt><trkpt lat="45.858709157267924" lon="8.877449137569304"><ele>361.0</ele><time>2026-03-28T12:52:35Z</time></trkpt><trkpt lat="45.858633689847494" lon="8.877473158032"><ele>361.0</ele><time>2026-03-28T12:52:36Z</time></trkpt><trkpt lat="45.85856166337797" lon="8.877493266209997"><ele>361.0</ele><time>2026-03-28T12:52:37Z</time></trkpt><trkpt lat="45.8584892190526" lon="8.877515397324187"><ele>361.0</ele><time>2026-03-28T12:52:38Z</time></trkpt><trkpt lat="45.85841914238369" lon="8.8775349209979"><ele>361.0</ele><time>2026-03-28T12:52:39Z</time></trkpt><trkpt lat="45.858343595897864" lon="8.8775562552885"><ele>361.0</ele><time>2026-03-28T12:52:40Z</time></trkpt><trkpt lat="45.85827329904083" lon="8.877576288993168"><ele>361.0</ele><time>2026-03-28T12:52:41Z</time></trkpt><trkpt lat="45.858206623439486" lon="8.877593396457122"><ele>361.0</ele><time>2026-03-28T12:52:42Z</time></trkpt><trkpt lat="45.85813528996025" lon="8.877610608185579"><ele>361.2857142857143</ele><time>2026-03-28T12:52:43Z</time></trkpt><trkpt lat="45.85806921694846" lon="8.877625066425892"><ele>361.57142857142856</ele><time>2026-03-28T12:52:44Z</time></trkpt><trkpt lat="45.8579987556371" lon="8.87764152441754"><ele>361.85714285714283</ele><time>2026-03-28T12:52:45.001Z</time></trkpt><trkpt lat="45.857930481534034" lon="8.877656103512642"><ele>362.1428571428571</ele><time>2026-03-28T12:52:46.001Z</time></trkpt><trkpt lat="45.8578619832019" lon="8.877671801786148"><ele>362.42857142857144</ele><time>2026-03-28T12:52:47.001Z</time></trkpt><trkpt lat="45.857794543063754" lon="8.877684589277175"><ele>362.71428571428567</ele><time>2026-03-28T12:52:48.001Z</time></trkpt><trkpt lat="45.85771963437258" lon="8.877698609411544"><ele>363.0</ele><time>2026-03-28T12:52:49.001Z</time></trkpt><trkpt lat="45.85765024841319" lon="8.877711711794069"><ele>362.99999999999994</ele><time>2026-03-28T12:52:50.001Z</time></trkpt><trkpt lat="45.85758086021465" lon="8.877717993399578"><ele>363.0</ele><time>2026-03-28T12:52:51.001Z</time></trkpt><trkpt lat="45.85750840192193" lon="8.877724789816032"><ele>363.0</ele><time>2026-03-28T12:52:52.001Z</time></trkpt><trkpt lat="45.85743792802075" lon="8.87773474590082"><ele>363.0</ele><time>2026-03-28T12:52:53.001Z</time></trkpt><trkpt lat="45.857368012914534" lon="8.87774144453693"><ele>363.0</ele><time>2026-03-28T12:52:54.001Z</time></trkpt><trkpt lat="45.85729813582368" lon="8.877747122567541"><ele>362.99999999999994</ele><time>2026-03-28T12:52:55.001Z</time></trkpt><trkpt lat="45.85722664673701" lon="8.877753196655984"><ele>363.0</ele><time>2026-03-28T12:52:56.001Z</time></trkpt><trkpt lat="45.85715855586167" lon="8.877759278638734"><ele>362.99999999999994</ele><time>2026-03-28T12:52:57.001Z</time></trkpt><trkpt lat="45.85708815318789" lon="8.877766517097621"><ele>363.0</ele><time>2026-03-28T12:52:58.001Z</time></trkpt><trkpt lat="45.85701887961882" lon="8.877771915932525"><ele>363.0</ele><time>2026-03-28T12:52:59.001Z</time></trkpt><trkpt lat="45.856950387742394" lon="8.877773974595296"><ele>363.0</ele><time>2026-03-28T12:53:00Z</time></trkpt><trkpt lat="45.85688258176811" lon="8.877777216214048"><ele>363.0</ele><time>2026-03-28T12:53:01Z</time></trkpt><trkpt lat="45.856812267516645" lon="8.87778159908819"><ele>362.99999999999994</ele><time>2026-03-28T12:53:02Z</time></trkpt><trkpt lat="45.8567479223178" lon="8.87778796905684"><ele>363.0</ele><time>2026-03-28T12:53:03Z</time></trkpt><trkpt lat="45.85667684343416" lon="8.877786945276167"><ele>363.1428571428571</ele><time>2026-03-28T12:53:04Z</time></trkpt><trkpt lat="45.85660807462049" lon="8.87778884251391"><ele>363.2857142857143</ele><time>2026-03-28T12:53:05Z</time></trkpt><trkpt lat="45.8565398042264" lon="8.877796586644882"><ele>363.42857142857144</ele><time>2026-03-28T12:53:06Z</time></trkpt><trkpt lat="45.85646935721531" lon="8.877799785402287"><ele>363.57142857142856</ele><time>2026-03-28T12:53:07Z</time></trkpt><trkpt lat="45.85640063213041" lon="8.87780736977974"><ele>363.7142857142857</ele><time>2026-03-28T12:53:08Z</time></trkpt><trkpt lat="45.856330559062826" lon="8.877805242476741"><ele>363.85714285714283</ele><time>2026-03-28T12:53:09Z</time></trkpt><trkpt lat="45.85626170147905" lon="8.877809071041174"><ele>364.0</ele><time>2026-03-28T12:53:10Z</time></trkpt><trkpt lat="45.85619129857483" lon="8.877819094464698"><ele>364.0</ele><time>2026-03-28T12:53:11Z</time></trkpt><trkpt lat="45.85612056545871" lon="8.877822796034872"><ele>364.0</ele><time>2026-03-28T12:53:12Z</time></trkpt><trkpt lat="45.85605121488918" lon="8.877823107854933"><ele>364.0</ele><time>2026-03-28T12:53:13Z</time></trkpt><trkpt lat="45.85597768490664" lon="8.8778223964561"><ele>364.0</ele><time>2026-03-28T12:53:14Z</time></trkpt><trkpt lat="45.855906839201836" lon="8.877833905377432"><ele>364.0</ele><time>2026-03-28T12:53:15Z</time></trkpt><trkpt lat="45.855841451742165" lon="8.877838043767328"><ele>364.0</ele><time>2026-03-28T12:53:16Z</time></trkpt><trkpt lat="45.85577272454091" lon="8.877841141312333"><ele>364.0</ele><time>2026-03-28T12:53:17Z</time></trkpt><trkpt lat="45.85570095181635" lon="8.877843377364675"><ele>365.0</ele><time>2026-03-28T12:53:18Z</time></trkpt><trkpt lat="45.855632748353464" lon="8.877855689930241"><ele>366.0</ele><time>2026-03-28T12:53:19Z</time></trkpt><trkpt lat="45.85556873285945" lon="8.877849174007059"><ele>367.0</ele><time>2026-03-28T12:53:20Z</time></trkpt><trkpt lat="45.8554969252909" lon="8.87786038526726"><ele>368.0</ele><time>2026-03-28T12:53:21Z</time></trkpt><trkpt lat="45.855432846382946" lon="8.877867967959835"><ele>369.0</ele><time>2026-03-28T12:53:22Z</time></trkpt><trkpt lat="45.855366237473504" lon="8.877867676857324"><ele>370.0</ele><time>2026-03-28T12:53:23Z</time></trkpt><trkpt lat="45.85529772801953" lon="8.877869923684155"><ele>371.0</ele><time>2026-03-28T12:53:24Z</time></trkpt><trkpt lat="45.85522843469309" lon="8.877882747441769"><ele>371.0</ele><time>2026-03-28T12:53:25Z</time></trkpt><trkpt lat="45.855164067290346" lon="8.877881373949629"><ele>371.0</ele><time>2026-03-28T12:53:26Z</time></trkpt><trkpt lat="45.855100595990166" lon="8.877881652708528"><ele>371.0</ele><time>2026-03-28T12:53:27Z</time></trkpt><trkpt lat="45.8550323020601" lon="8.877886749599009"><ele>371.0</ele><time>2026-03-28T12:53:28Z</time></trkpt><trkpt lat="45.85496540897316" lon="8.877888883468607"><ele>371.0</ele><time>2026-03-28T12:53:29Z</time></trkpt><trkpt lat="45.8548377578884" lon="8.877896825495833"><ele>371.0</ele><time>2026-03-28T12:53:31Z</time></trkpt><trkpt lat="45.85477421127124" lon="8.877902752284454"><ele>371.0</ele><time>2026-03-28T12:53:32Z</time></trkpt><trkpt lat="45.8547065659287" lon="8.877908104508236"><ele>371.0</ele><time>2026-03-28T12:53:33Z</time></trkpt><trkpt lat="45.854577092179625" lon="8.877915598166707"><ele>371.0</ele><time>2026-03-28T12:53:35Z</time></trkpt><trkpt lat="45.85451368408358" lon="8.877921565562694"><ele>371.0</ele><time>2026-03-28T12:53:36Z</time></trkpt><trkpt lat="45.85438670915397" lon="8.877931226064517"><ele>371.0</ele><time>2026-03-28T12:53:38Z</time></trkpt><trkpt lat="45.854321509610216" lon="8.877939025705496"><ele>370.4</ele><time>2026-03-28T12:53:39Z</time></trkpt><trkpt lat="45.85418994853953" lon="8.877959931602778"><ele>369.8</ele><time>2026-03-28T12:53:41Z</time></trkpt><trkpt lat="45.85412153795751" lon="8.877956558915892"><ele>369.2</ele><time>2026-03-28T12:53:42Z</time></trkpt><trkpt lat="45.854012791316464" lon="8.877925160640014"><ele>368.59999999999997</ele><time>2026-03-28T12:53:44Z</time></trkpt><trkpt lat="45.8539176875049" lon="8.877842281504588"><ele>368.0</ele><time>2026-03-28T12:53:46Z</time></trkpt><trkpt lat="45.853797841366735" lon="8.877811146229972"><ele>368.0</ele><time>2026-03-28T12:53:48Z</time></trkpt><trkpt lat="45.85373923941593" lon="8.877858530190306"><ele>368.0</ele><time>2026-03-28T12:53:49Z</time></trkpt><trkpt lat="45.853697962329655" lon="8.878027381012863"><ele>368.0</ele><time>2026-03-28T12:53:51Z</time></trkpt><trkpt lat="45.85373373438136" lon="8.878112318585938"><ele>368.0</ele><time>2026-03-28T12:53:52Z</time></trkpt><trkpt lat="45.85378835118269" lon="8.878251032401812"><ele>368.0</ele><time>2026-03-28T12:53:54Z</time></trkpt><trkpt lat="45.853817436427796" lon="8.878412525538078"><ele>367.59999999999997</ele><time>2026-03-28T12:53:56Z</time></trkpt><trkpt lat="45.85381749588888" lon="8.878572839978949"><ele>367.2</ele><time>2026-03-28T12:53:58Z</time></trkpt><trkpt lat="45.85381528754172" lon="8.878726044294131"><ele>366.8</ele><time>2026-03-28T12:54:00Z</time></trkpt><trkpt lat="45.85381260717211" lon="8.878868294514763"><ele>366.4</ele><time>2026-03-28T12:54:02Z</time></trkpt><trkpt lat="45.85381189998084" lon="8.87899619810956"><ele>366.0</ele><time>2026-03-28T12:54:04Z</time></trkpt><trkpt lat="45.85381735594796" lon="8.879114187066524"><ele>366.0</ele><time>2026-03-28T12:54:06Z</time></trkpt><trkpt lat="45.853822307982675" lon="8.879255781180778"><ele>366.0</ele><time>2026-03-28T12:54:08Z</time></trkpt><trkpt lat="45.853828115056224" lon="8.87940556801835"><ele>366.0</ele><time>2026-03-28T12:54:10Z</time></trkpt><trkpt lat="45.853828850806934" lon="8.879565525695934"><ele>366.0</ele><time>2026-03-28T12:54:12Z</time></trkpt><trkpt lat="45.85383513828033" lon="8.879749103509862"><ele>366.0</ele><time>2026-03-28T12:54:14Z</time></trkpt><trkpt lat="45.85383733739892" lon="8.879848303878596"><ele>366.8333333333333</ele><time>2026-03-28T12:54:15Z</time></trkpt><trkpt lat="45.85384002245017" lon="8.879950190023811"><ele>367.6666666666667</ele><time>2026-03-28T12:54:16Z</time></trkpt><trkpt lat="45.85383730325774" lon="8.880057255779848"><ele>368.5</ele><time>2026-03-28T12:54:17Z</time></trkpt><trkpt lat="45.85384531478407" lon="8.880161573488797"><ele>369.33333333333337</ele><time>2026-03-28T12:54:18Z</time></trkpt><trkpt lat="45.853848077200304" lon="8.88027688342459"><ele>370.1666666666667</ele><time>2026-03-28T12:54:19Z</time></trkpt><trkpt lat="45.853843586142844" lon="8.880388672257297"><ele>371.0</ele><time>2026-03-28T12:54:20Z</time></trkpt><trkpt lat="45.85384990067603" lon="8.880494335655541"><ele>371.0</ele><time>2026-03-28T12:54:21Z</time></trkpt><trkpt lat="45.85384853651692" lon="8.880608073396173"><ele>371.0</ele><time>2026-03-28T12:54:22Z</time></trkpt><trkpt lat="45.85385343873391" lon="8.88072057315292"><ele>371.0</ele><time>2026-03-28T12:54:23Z</time></trkpt><trkpt lat="45.85386579959656" lon="8.880837523748115"><ele>371.0</ele><time>2026-03-28T12:54:24Z</time></trkpt><trkpt lat="45.85387411632634" lon="8.88094766940418"><ele>371.0</ele><time>2026-03-28T12:54:25Z</time></trkpt><trkpt lat="45.85388606455143" lon="8.881056645703191"><ele>371.0</ele><time>2026-03-28T12:54:26Z</time></trkpt><trkpt lat="45.853896741948134" lon="8.881164985159522"><ele>370.1666666666667</ele><time>2026-03-28T12:54:27Z</time></trkpt><trkpt lat="45.85391320361807" lon="8.881272001158244"><ele>369.33333333333337</ele><time>2026-03-28T12:54:28Z</time></trkpt><trkpt lat="45.853928363572884" lon="8.881380755155089"><ele>368.5</ele><time>2026-03-28T12:54:29Z</time></trkpt><trkpt lat="45.85395270445307" lon="8.881489866657088"><ele>367.6666666666667</ele><time>2026-03-28T12:54:30Z</time></trkpt><trkpt lat="45.85398130632051" lon="8.881604091092155"><ele>366.8333333333333</ele><time>2026-03-28T12:54:31Z</time></trkpt><trkpt lat="45.85401906028963" lon="8.88171813975755"><ele>366.0</ele><time>2026-03-28T12:54:32Z</time></trkpt><trkpt lat="45.85406654175508" lon="8.88181859404436"><ele>366.5</ele><time>2026-03-28T12:54:33Z</time></trkpt><trkpt lat="45.85410819238305" lon="8.881924513319303"><ele>367.0</ele><time>2026-03-28T12:54:34Z</time></trkpt><trkpt lat="45.85416765656767" lon="8.882024718621494"><ele>367.5</ele><time>2026-03-28T12:54:35Z</time></trkpt><trkpt lat="45.85422246404121" lon="8.882130617029654"><ele>368.0</ele><time>2026-03-28T12:54:36Z</time></trkpt><trkpt lat="45.85427293534629" lon="8.88223123219403"><ele>368.5</ele><time>2026-03-28T12:54:37Z</time></trkpt><trkpt lat="45.85432157445985" lon="8.882306242791095"><ele>369.0</ele><time>2026-03-28T12:54:38Z</time></trkpt><trkpt lat="45.85436491354926" lon="8.882384238061283"><ele>369.0</ele><time>2026-03-28T12:54:39Z</time></trkpt><trkpt lat="45.85440745456553" lon="8.882468042563039"><ele>369.0</ele><time>2026-03-28T12:54:40Z</time></trkpt><trkpt lat="45.85445079783522" lon="8.882546106710658"><ele>369.0</ele><time>2026-03-28T12:54:41Z</time></trkpt><trkpt lat="45.85449503752827" lon="8.882623413543396"><ele>369.0</ele><time>2026-03-28T12:54:42Z</time></trkpt><trkpt lat="45.854525371788824" lon="8.88271130378846"><ele>369.0</ele><time>2026-03-28T12:54:43Z</time></trkpt><trkpt lat="45.85454445850601" lon="8.882809538235444"><ele>369.0</ele><time>2026-03-28T12:54:44Z</time></trkpt><trkpt lat="45.85453859617668" lon="8.88290928287643"><ele>369.0</ele><time>2026-03-28T12:54:45Z</time></trkpt><trkpt lat="45.854561986427804" lon="8.883002592189284"><ele>368.0</ele><time>2026-03-28T12:54:46Z</time></trkpt><trkpt lat="45.85457812254439" lon="8.883099868994746"><ele>367.0</ele><time>2026-03-28T12:54:47Z</time></trkpt><trkpt lat="45.85460022597428" lon="8.883192742848237"><ele>366.0</ele><time>2026-03-28T12:54:48Z</time></trkpt><trkpt lat="45.854622123248504" lon="8.883288941871877"><ele>365.0</ele><time>2026-03-28T12:54:49Z</time></trkpt><trkpt lat="45.85465521940339" lon="8.883385200590714"><ele>364.0</ele><time>2026-03-28T12:54:50Z</time></trkpt><trkpt lat="45.854693650589134" lon="8.883479723784921"><ele>363.0</ele><time>2026-03-28T12:54:51.001Z</time></trkpt><trkpt lat="45.85473472446702" lon="8.88357017501878"><ele>362.0</ele><time>2026-03-28T12:54:52.001Z</time></trkpt><trkpt lat="45.85477611863108" lon="8.88366078626027"><ele>362.0</ele><time>2026-03-28T12:54:53.001Z</time></trkpt><trkpt lat="45.85482068422546" lon="8.883757677058266"><ele>362.0</ele><time>2026-03-28T12:54:54.001Z</time></trkpt><trkpt lat="45.854863699870165" lon="8.883853218437816"><ele>362.0</ele><time>2026-03-28T12:54:55.001Z</time></trkpt><trkpt lat="45.854904737405214" lon="8.883945749652097"><ele>362.0</ele><time>2026-03-28T12:54:56.001Z</time></trkpt><trkpt lat="45.85494873893868" lon="8.88404921460959"><ele>362.0</ele><time>2026-03-28T12:54:57.001Z</time></trkpt><trkpt lat="45.85498836511687" lon="8.88414656402346"><ele>362.0</ele><time>2026-03-28T12:54:58.001Z</time></trkpt><trkpt lat="45.855025473693594" lon="8.88422600088534"><ele>361.5</ele><time>2026-03-28T12:54:59.001Z</time></trkpt><trkpt lat="45.85507010078544" lon="8.88434671516622"><ele>361.0</ele><time>2026-03-28T12:55:00.001Z</time></trkpt><trkpt lat="45.855101408103" lon="8.884458888856495"><ele>360.5</ele><time>2026-03-28T12:55:01.001Z</time></trkpt><trkpt lat="45.85512913582039" lon="8.884568888767689"><ele>360.0</ele><time>2026-03-28T12:55:02.001Z</time></trkpt><trkpt lat="45.85515886767735" lon="8.884678182304691"><ele>359.5</ele><time>2026-03-28T12:55:03.001Z</time></trkpt><trkpt lat="45.855188544482594" lon="8.884781556668843"><ele>359.0</ele><time>2026-03-28T12:55:04.001Z</time></trkpt><trkpt lat="45.8552191762392" lon="8.884886347654671"><ele>359.0</ele><time>2026-03-28T12:55:05.001Z</time></trkpt><trkpt lat="45.855246182298565" lon="8.884993975401791"><ele>359.0</ele><time>2026-03-28T12:55:06Z</time></trkpt><trkpt lat="45.855277919976174" lon="8.88510051810679"><ele>359.0</ele><time>2026-03-28T12:55:07Z</time></trkpt><trkpt lat="45.85531770785974" lon="8.885206071490165"><ele>359.0</ele><time>2026-03-28T12:55:08Z</time></trkpt><trkpt lat="45.8553708137459" lon="8.885301127463288"><ele>359.0</ele><time>2026-03-28T12:55:09Z</time></trkpt><trkpt lat="45.85542687400157" lon="8.885400263447137"><ele>359.0</ele><time>2026-03-28T12:55:10Z</time></trkpt><trkpt lat="45.85548514642938" lon="8.885495558045646"><ele>357.4</ele><time>2026-03-28T12:55:11Z</time></trkpt><trkpt lat="45.85554274892525" lon="8.885594573291222"><ele>355.79999999999995</ele><time>2026-03-28T12:55:12Z</time></trkpt><trkpt lat="45.85559942824807" lon="8.885696397246376"><ele>354.20000000000005</ele><time>2026-03-28T12:55:13Z</time></trkpt><trkpt lat="45.855658329727525" lon="8.885795502412611"><ele>352.6</ele><time>2026-03-28T12:55:14Z</time></trkpt><trkpt lat="45.85571601109326" lon="8.885896911139152"><ele>351.0</ele><time>2026-03-28T12:55:15Z</time></trkpt><trkpt lat="45.85577034383528" lon="8.885995289041459"><ele>352.0</ele><time>2026-03-28T12:55:16Z</time></trkpt><trkpt lat="45.855828283718466" lon="8.886092173036326"><ele>353.0</ele><time>2026-03-28T12:55:17Z</time></trkpt><trkpt lat="45.855884894847115" lon="8.886184592330208"><ele>354.0</ele><time>2026-03-28T12:55:18Z</time></trkpt><trkpt lat="45.85594268536978" lon="8.886278134168919"><ele>355.0</ele><time>2026-03-28T12:55:19Z</time></trkpt><trkpt lat="45.855992459275356" lon="8.886378801530157"><ele>356.0</ele><time>2026-03-28T12:55:20Z</time></trkpt><trkpt lat="45.85596626524026" lon="8.886522477824395"><ele>356.0</ele><time>2026-03-28T12:55:21Z</time></trkpt><trkpt lat="45.85598882809892" lon="8.88660879147731"><ele>356.0</ele><time>2026-03-28T12:55:22Z</time></trkpt><trkpt lat="45.85594959051008" lon="8.886791568830873"><ele>356.0</ele><time>2026-03-28T12:55:23Z</time></trkpt><trkpt lat="45.85609166392578" lon="8.886757967037935"><ele>356.0</ele><time>2026-03-28T12:55:24Z</time></trkpt><trkpt lat="45.85614512402595" lon="8.886816223263438"><ele>356.0</ele><time>2026-03-28T12:55:25Z</time></trkpt><trkpt lat="45.85610572682072" lon="8.886981054395624"><ele>354.6666666666667</ele><time>2026-03-28T12:55:26Z</time></trkpt><trkpt lat="45.856091865399975" lon="8.88709636834536"><ele>353.33333333333337</ele><time>2026-03-28T12:55:27Z</time></trkpt><trkpt lat="45.85607130516052" lon="8.887213366987963"><ele>352.0</ele><time>2026-03-28T12:55:28Z</time></trkpt><trkpt lat="45.85606583626462" lon="8.887337066708039"><ele>350.6666666666667</ele><time>2026-03-28T12:55:29Z</time></trkpt><trkpt lat="45.85604184500132" lon="8.887453782858927"><ele>349.3333333333333</ele><time>2026-03-28T12:55:30Z</time></trkpt><trkpt lat="45.85602288324601" lon="8.887572455419086"><ele>348.0</ele><time>2026-03-28T12:55:31Z</time></trkpt><trkpt lat="45.85600567934892" lon="8.887691663103373"><ele>345.59999999999997</ele><time>2026-03-28T12:55:32Z</time></trkpt><trkpt lat="45.855990074574166" lon="8.887814294303997"><ele>343.2</ele><time>2026-03-28T12:55:33Z</time></trkpt><trkpt lat="45.85597643567419" lon="8.887941589833511"><ele>340.8</ele><time>2026-03-28T12:55:34Z</time></trkpt><trkpt lat="45.855959615555236" lon="8.888074196951015"><ele>338.4</ele><time>2026-03-28T12:55:35Z</time></trkpt><trkpt lat="45.855945187193" lon="8.888206376252107"><ele>336.0</ele><time>2026-03-28T12:55:36Z</time></trkpt><trkpt lat="45.85593013678214" lon="8.88833450547313"><ele>335.20000000000005</ele><time>2026-03-28T12:55:37Z</time></trkpt><trkpt lat="45.855912076030066" lon="8.888466512300235"><ele>334.40000000000003</ele><time>2026-03-28T12:55:38Z</time></trkpt><trkpt lat="45.8558973577947" lon="8.88859456231657"><ele>333.6</ele><time>2026-03-28T12:55:39Z</time></trkpt><trkpt lat="45.85587696942982" lon="8.88871928830989"><ele>332.8</ele><time>2026-03-28T12:55:40Z</time></trkpt><trkpt lat="45.85585684007851" lon="8.888843979625934"><ele>332.0</ele><time>2026-03-28T12:55:41Z</time></trkpt><trkpt lat="45.85583587885352" lon="8.888972120132841"><ele>332.0</ele><time>2026-03-28T12:55:42Z</time></trkpt><trkpt lat="45.85581592801731" lon="8.889091979196436"><ele>332.0</ele><time>2026-03-28T12:55:43Z</time></trkpt><trkpt lat="45.855796441015066" lon="8.889218056311078"><ele>332.0</ele><time>2026-03-28T12:55:44Z</time></trkpt><trkpt lat="45.85577658733414" lon="8.889331776881177"><ele>332.0</ele><time>2026-03-28T12:55:45Z</time></trkpt><trkpt lat="45.85575837504899" lon="8.889449250887441"><ele>332.0</ele><time>2026-03-28T12:55:46Z</time></trkpt><trkpt lat="45.85573801944048" lon="8.889557635444154"><ele>332.0</ele><time>2026-03-28T12:55:47Z</time></trkpt><trkpt lat="45.85571852321698" lon="8.88966817840515"><ele>331.5</ele><time>2026-03-28T12:55:48Z</time></trkpt><trkpt lat="45.85570366385043" lon="8.889777987341642"><ele>331.0</ele><time>2026-03-28T12:55:49Z</time></trkpt><trkpt lat="45.85568557395333" lon="8.889893492844335"><ele>330.5</ele><time>2026-03-28T12:55:50Z</time></trkpt><trkpt lat="45.855664319470876" lon="8.890004500470573"><ele>330.0</ele><time>2026-03-28T12:55:51Z</time></trkpt><trkpt lat="45.85564394335286" lon="8.890117270761333"><ele>329.5</ele><time>2026-03-28T12:55:52Z</time></trkpt><trkpt lat="45.85562677953431" lon="8.890233027052044"><ele>329.0</ele><time>2026-03-28T12:55:53Z</time></trkpt><trkpt lat="45.85560511709266" lon="8.8903498917226"><ele>328.6666666666667</ele><time>2026-03-28T12:55:54Z</time></trkpt><trkpt lat="45.85558441888486" lon="8.890460887102376"><ele>328.33333333333337</ele><time>2026-03-28T12:55:55Z</time></trkpt><trkpt lat="45.8555633006776" lon="8.890568886723749"><ele>328.0</ele><time>2026-03-28T12:55:56Z</time></trkpt><trkpt lat="45.85554195245069" lon="8.8906843112698"><ele>327.6666666666667</ele><time>2026-03-28T12:55:57Z</time></trkpt><trkpt lat="45.855519099663425" lon="8.890794690290607"><ele>327.3333333333333</ele><time>2026-03-28T12:55:58Z</time></trkpt><trkpt lat="45.85549444888263" lon="8.890905026048479"><ele>327.0</ele><time>2026-03-28T12:55:59Z</time></trkpt><trkpt lat="45.85547363288326" lon="8.891009882405706"><ele>327.85714285714283</ele><time>2026-03-28T12:56:00Z</time></trkpt><trkpt lat="45.855448064127735" lon="8.891112562544226"><ele>328.7142857142857</ele><time>2026-03-28T12:56:01Z</time></trkpt><trkpt lat="45.85542416196136" lon="8.89121303352186"><ele>329.57142857142856</ele><time>2026-03-28T12:56:02Z</time></trkpt><trkpt lat="45.85539900434234" lon="8.891313003677956"><ele>330.42857142857144</ele><time>2026-03-28T12:56:03Z</time></trkpt><trkpt lat="45.855370878707866" lon="8.89141014154699"><ele>331.2857142857143</ele><time>2026-03-28T12:56:04Z</time></trkpt><trkpt lat="45.85533020183722" lon="8.891501444395326"><ele>332.14285714285717</ele><time>2026-03-28T12:56:05Z</time></trkpt><trkpt lat="45.85529670998907" lon="8.891587159449568"><ele>333.0</ele><time>2026-03-28T12:56:06Z</time></trkpt><trkpt lat="45.85525963211095" lon="8.891670242262249"><ele>333.0</ele><time>2026-03-28T12:56:07Z</time></trkpt><trkpt lat="45.855219709170484" lon="8.891745646004049"><ele>333.0</ele><time>2026-03-28T12:56:08Z</time></trkpt><trkpt lat="45.85518207304812" lon="8.891818253429484"><ele>333.0</ele><time>2026-03-28T12:56:09Z</time></trkpt><trkpt lat="45.855143527887506" lon="8.89189445512576"><ele>333.0</ele><time>2026-03-28T12:56:10Z</time></trkpt><trkpt lat="45.85509985071066" lon="8.891970155430787"><ele>333.0</ele><time>2026-03-28T12:56:11Z</time></trkpt><trkpt lat="45.855054023308945" lon="8.892052095371046"><ele>333.0</ele><time>2026-03-28T12:56:12Z</time></trkpt><trkpt lat="45.85500864988075" lon="8.892130757906614"><ele>333.0</ele><time>2026-03-28T12:56:13Z</time></trkpt><trkpt lat="45.85496207204804" lon="8.892211087863531"><ele>333.6666666666667</ele><time>2026-03-28T12:56:14Z</time></trkpt><trkpt lat="45.854913678779134" lon="8.892296384185814"><ele>334.3333333333333</ele><time>2026-03-28T12:56:15Z</time></trkpt><trkpt lat="45.85486461357666" lon="8.892379054772539"><ele>335.0</ele><time>2026-03-28T12:56:16Z</time></trkpt><trkpt lat="45.85481454785207" lon="8.892465814968837"><ele>335.66666666666663</ele><time>2026-03-28T12:56:17Z</time></trkpt><trkpt lat="45.85476244474471" lon="8.892552640588596"><ele>336.3333333333333</ele><time>2026-03-28T12:56:18Z</time></trkpt><trkpt lat="45.8547077227174" lon="8.892639836013194"><ele>337.0</ele><time>2026-03-28T12:56:19Z</time></trkpt><trkpt lat="45.85464096703185" lon="8.892718153920118"><ele>338.0</ele><time>2026-03-28T12:56:20Z</time></trkpt><trkpt lat="45.85457478007586" lon="8.892796377777156"><ele>339.0</ele><time>2026-03-28T12:56:21Z</time></trkpt><trkpt lat="45.854504378608794" lon="8.892874620864319"><ele>340.0</ele><time>2026-03-28T12:56:22Z</time></trkpt><trkpt lat="45.854434896649664" lon="8.892949406720485"><ele>341.0</ele><time>2026-03-28T12:56:23Z</time></trkpt><trkpt lat="45.85436463701943" lon="8.893024242625073"><ele>342.0</ele><time>2026-03-28T12:56:24Z</time></trkpt><trkpt lat="45.854297403608776" lon="8.893100182652644"><ele>343.0</ele><time>2026-03-28T12:56:25Z</time></trkpt><trkpt lat="45.854228015896275" lon="8.893179060436214"><ele>343.0</ele><time>2026-03-28T12:56:26Z</time></trkpt><trkpt lat="45.85415137956217" lon="8.893250805414384"><ele>343.0</ele><time>2026-03-28T12:56:27Z</time></trkpt><trkpt lat="45.85407898982564" lon="8.893326282723885"><ele>343.0</ele><time>2026-03-28T12:56:28Z</time></trkpt><trkpt lat="45.85400813211963" lon="8.893402838726143"><ele>343.0</ele><time>2026-03-28T12:56:29Z</time></trkpt><trkpt lat="45.85394041487024" lon="8.893482846951958"><ele>343.0</ele><time>2026-03-28T12:56:30Z</time></trkpt><trkpt lat="45.853871653239494" lon="8.89356513485052"><ele>343.0</ele><time>2026-03-28T12:56:31Z</time></trkpt><trkpt lat="45.85379763701821" lon="8.89364316804291"><ele>343.5</ele><time>2026-03-28T12:56:32Z</time></trkpt><trkpt lat="45.85373621832754" lon="8.893738640681619"><ele>344.0</ele><time>2026-03-28T12:56:33Z</time></trkpt><trkpt lat="45.853671076028434" lon="8.893822941006842"><ele>344.5</ele><time>2026-03-28T12:56:34Z</time></trkpt><trkpt lat="45.853607609943" lon="8.893909912874038"><ele>345.0</ele><time>2026-03-28T12:56:35Z</time></trkpt><trkpt lat="45.85354557980561" lon="8.89400454268153"><ele>345.5</ele><time>2026-03-28T12:56:36Z</time></trkpt><trkpt lat="45.85348333060965" lon="8.89409352546788"><ele>346.0</ele><time>2026-03-28T12:56:37Z</time></trkpt><trkpt lat="45.853419300257855" lon="8.894182492300734"><ele>345.0</ele><time>2026-03-28T12:56:38Z</time></trkpt><trkpt lat="45.85335580292627" lon="8.894277719113179"><ele>344.0</ele><time>2026-03-28T12:56:39Z</time></trkpt><trkpt lat="45.85328814614103" lon="8.894364120364852"><ele>343.0</ele><time>2026-03-28T12:56:40Z</time></trkpt><trkpt lat="45.85322909733384" lon="8.894458405229065"><ele>342.0</ele><time>2026-03-28T12:56:41Z</time></trkpt><trkpt lat="45.853167155680545" lon="8.894553713270122"><ele>341.0</ele><time>2026-03-28T12:56:42Z</time></trkpt><trkpt lat="45.853103368886806" lon="8.894650043608342"><ele>341.0</ele><time>2026-03-28T12:56:43Z</time></trkpt><trkpt lat="45.85303833922531" lon="8.89474274385743"><ele>341.0</ele><time>2026-03-28T12:56:44Z</time></trkpt><trkpt lat="45.85297145864992" lon="8.894832932925283"><ele>341.0</ele><time>2026-03-28T12:56:45Z</time></trkpt><trkpt lat="45.85290681837655" lon="8.894923411159963"><ele>341.0</ele><time>2026-03-28T12:56:46Z</time></trkpt><trkpt lat="45.85283996801338" lon="8.895010023265707"><ele>341.0</ele><time>2026-03-28T12:56:47Z</time></trkpt><trkpt lat="45.85277738262477" lon="8.89509431118505"><ele>342.1666666666667</ele><time>2026-03-28T12:56:48Z</time></trkpt><trkpt lat="45.85271165193642" lon="8.895183559596713"><ele>343.33333333333337</ele><time>2026-03-28T12:56:49Z</time></trkpt><trkpt lat="45.852653652747975" lon="8.895267922911174"><ele>344.5</ele><time>2026-03-28T12:56:50Z</time></trkpt><trkpt lat="45.852590783514984" lon="8.895353803359411"><ele>345.6666666666667</ele><time>2026-03-28T12:56:51Z</time></trkpt><trkpt lat="45.85252916418275" lon="8.895438096316294"><ele>346.8333333333333</ele><time>2026-03-28T12:56:52Z</time></trkpt><trkpt lat="45.85246900458191" lon="8.895528006489185"><ele>348.0</ele><time>2026-03-28T12:56:53Z</time></trkpt><trkpt lat="45.85240354830085" lon="8.89560563532628"><ele>347.0</ele><time>2026-03-28T12:56:54Z</time></trkpt><trkpt lat="45.85234287848401" lon="8.895696805963707"><ele>346.0</ele><time>2026-03-28T12:56:55Z</time></trkpt><trkpt lat="45.85228178373044" lon="8.895784308023828"><ele>345.0</ele><time>2026-03-28T12:56:56Z</time></trkpt><trkpt lat="45.852218878754876" lon="8.895862415695756"><ele>344.0</ele><time>2026-03-28T12:56:57Z</time></trkpt><trkpt lat="45.85214696940558" lon="8.895939258594641"><ele>343.0</ele><time>2026-03-28T12:56:58Z</time></trkpt><trkpt lat="45.8520720773554" lon="8.89600802557567"><ele>342.0</ele><time>2026-03-28T12:56:59Z</time></trkpt><trkpt lat="45.851998938903016" lon="8.896081594764548"><ele>342.0</ele><time>2026-03-28T12:57:00Z</time></trkpt><trkpt lat="45.851921715153644" lon="8.89614522672728"><ele>342.0</ele><time>2026-03-28T12:57:01Z</time></trkpt><trkpt lat="45.85183996783529" lon="8.89621758774009"><ele>342.0</ele><time>2026-03-28T12:57:02Z</time></trkpt><trkpt lat="45.85176261888096" lon="8.896287188055904"><ele>342.0</ele><time>2026-03-28T12:57:03Z</time></trkpt><trkpt lat="45.851681585677746" lon="8.896359656876092"><ele>342.0</ele><time>2026-03-28T12:57:04Z</time></trkpt><trkpt lat="45.85160096291786" lon="8.896427524080934"><ele>341.3333333333333</ele><time>2026-03-28T12:57:05Z</time></trkpt><trkpt lat="45.85152286679408" lon="8.896500710001002"><ele>340.6666666666667</ele><time>2026-03-28T12:57:06Z</time></trkpt><trkpt lat="45.85144443046578" lon="8.896568576229377"><ele>340.0</ele><time>2026-03-28T12:57:07Z</time></trkpt><trkpt lat="45.851369013161744" lon="8.896634326359829"><ele>339.33333333333337</ele><time>2026-03-28T12:57:08Z</time></trkpt><trkpt lat="45.85128904612713" lon="8.896686379484342"><ele>338.6666666666667</ele><time>2026-03-28T12:57:09Z</time></trkpt><trkpt lat="45.85122010589404" lon="8.896746321877425"><ele>338.0</ele><time>2026-03-28T12:57:10Z</time></trkpt><trkpt lat="45.85114681935445" lon="8.89681004343513"><ele>338.0</ele><time>2026-03-28T12:57:11Z</time></trkpt><trkpt lat="45.85108313461517" lon="8.896866208613378"><ele>338.0</ele><time>2026-03-28T12:57:12Z</time></trkpt><trkpt lat="45.85102668525131" lon="8.896943162585877"><ele>338.0</ele><time>2026-03-28T12:57:13Z</time></trkpt><trkpt lat="45.85096511692116" lon="8.897008550683918"><ele>338.0</ele><time>2026-03-28T12:57:14Z</time></trkpt><trkpt lat="45.85092153499621" lon="8.897089585793406"><ele>338.0</ele><time>2026-03-28T12:57:15Z</time></trkpt><trkpt lat="45.85089264315075" lon="8.897178044902287"><ele>338.0</ele><time>2026-03-28T12:57:16Z</time></trkpt><trkpt lat="45.85087377354955" lon="8.897271532644673"><ele>338.0</ele><time>2026-03-28T12:57:17Z</time></trkpt><trkpt lat="45.85086851293693" lon="8.89736569478419"><ele>337.2</ele><time>2026-03-28T12:57:18Z</time></trkpt><trkpt lat="45.85087263922686" lon="8.897459763184665"><ele>336.4</ele><time>2026-03-28T12:57:19Z</time></trkpt><trkpt lat="45.850906252175314" lon="8.897632983281735"><ele>335.59999999999997</ele><time>2026-03-28T12:57:21Z</time></trkpt><trkpt lat="45.850950282317356" lon="8.897784787500173"><ele>334.79999999999995</ele><time>2026-03-28T12:57:23Z</time></trkpt><trkpt lat="45.8510023613729" lon="8.89792427355736"><ele>334.0</ele><time>2026-03-28T12:57:25Z</time></trkpt><trkpt lat="45.85104251114081" lon="8.898056814792495"><ele>334.5</ele><time>2026-03-28T12:57:27Z</time></trkpt><trkpt lat="45.85105384234955" lon="8.898186902611148"><ele>335.0</ele><time>2026-03-28T12:57:29Z</time></trkpt><trkpt lat="45.85105872598153" lon="8.898306337165677"><ele>335.5</ele><time>2026-03-28T12:57:31Z</time></trkpt><trkpt lat="45.85106103494421" lon="8.898418835702353"><ele>336.0</ele><time>2026-03-28T12:57:33Z</time></trkpt><trkpt lat="45.85106897800197" lon="8.898515985017685"><ele>336.5</ele><time>2026-03-28T12:57:35Z</time></trkpt><trkpt lat="45.85108024694591" lon="8.898616242683005"><ele>337.0</ele><time>2026-03-28T12:57:37Z</time></trkpt><trkpt lat="45.8510785706351" lon="8.898747330967778"><ele>337.0</ele><time>2026-03-28T12:57:39Z</time></trkpt><trkpt lat="45.85105931035225" lon="8.898895418832094"><ele>337.0</ele><time>2026-03-28T12:57:41Z</time></trkpt><trkpt lat="45.851043681387864" lon="8.899062926090979"><ele>337.0</ele><time>2026-03-28T12:57:43Z</time></trkpt><trkpt lat="45.85103214942754" lon="8.899156374708728"><ele>337.0</ele><time>2026-03-28T12:57:44Z</time></trkpt><trkpt lat="45.85102168196504" lon="8.899249379375709"><ele>337.0</ele><time>2026-03-28T12:57:45Z</time></trkpt><trkpt lat="45.851004522743274" lon="8.899420459921446"><ele>338.0</ele><time>2026-03-28T12:57:47Z</time></trkpt><trkpt lat="45.850986401135735" lon="8.899586147037148"><ele>339.0</ele><time>2026-03-28T12:57:49Z</time></trkpt><trkpt lat="45.850965901499855" lon="8.899756743449634"><ele>340.0</ele><time>2026-03-28T12:57:51Z</time></trkpt><trkpt lat="45.85094479780928" lon="8.899911207891545"><ele>341.0</ele><time>2026-03-28T12:57:53Z</time></trkpt><trkpt lat="45.850944242924406" lon="8.900039864560503"><ele>342.0</ele><time>2026-03-28T12:57:55Z</time></trkpt><trkpt lat="45.85096988554476" lon="8.90015052743065"><ele>346.0</ele><time>2026-03-28T12:57:57Z</time></trkpt><trkpt lat="45.851043334721474" lon="8.90021300767933"><ele>350.0</ele><time>2026-03-28T12:57:59Z</time></trkpt><trkpt lat="45.85112854460206" lon="8.900224838144826"><ele>354.0</ele><time>2026-03-28T12:58:01Z</time></trkpt><trkpt lat="45.85122203105402" lon="8.90022315476945"><ele>358.0</ele><time>2026-03-28T12:58:03Z</time></trkpt><trkpt lat="45.85131985780491" lon="8.900220572609276"><ele>362.0</ele><time>2026-03-28T12:58:05Z</time></trkpt><trkpt lat="45.85143546770699" lon="8.90021510945297"><ele>362.0</ele><time>2026-03-28T12:58:07Z</time></trkpt><trkpt lat="45.851498548646546" lon="8.900215348740115"><ele>362.0</ele><time>2026-03-28T12:58:08Z</time></trkpt><trkpt lat="45.85156635277395" lon="8.900214819145415"><ele>362.0</ele><time>2026-03-28T12:58:09Z</time></trkpt><trkpt lat="45.851639597069294" lon="8.900215364790283"><ele>362.0</ele><time>2026-03-28T12:58:10Z</time></trkpt><trkpt lat="45.851713967471625" lon="8.9002119354983"><ele>362.0</ele><time>2026-03-28T12:58:11Z</time></trkpt><trkpt lat="45.851789244429575" lon="8.900208645260856"><ele>362.0</ele><time>2026-03-28T12:58:12Z</time></trkpt><trkpt lat="45.8518646990302" lon="8.900214574112463"><ele>362.0</ele><time>2026-03-28T12:58:13Z</time></trkpt><trkpt lat="45.851937350576314" lon="8.900231581041423"><ele>361.7142857142857</ele><time>2026-03-28T12:58:14Z</time></trkpt><trkpt lat="45.852004981161215" lon="8.90025624201524"><ele>361.42857142857144</ele><time>2026-03-28T12:58:15Z</time></trkpt><trkpt lat="45.852065185371316" lon="8.900297621279433"><ele>361.1428571428571</ele><time>2026-03-28T12:58:16Z</time></trkpt><trkpt lat="45.852114338049354" lon="8.900358209972646"><ele>360.8571428571429</ele><time>2026-03-28T12:58:17Z</time></trkpt><trkpt lat="45.85215087664707" lon="8.900433815654635"><ele>360.5714285714286</ele><time>2026-03-28T12:58:18Z</time></trkpt><trkpt lat="45.85217240263477" lon="8.900523987694632"><ele>360.2857142857143</ele><time>2026-03-28T12:58:19Z</time></trkpt><trkpt lat="45.85222049443831" lon="8.900594130900274"><ele>360.0</ele><time>2026-03-28T12:58:20Z</time></trkpt><trkpt lat="45.85213875466303" lon="8.900789171381355"><ele>360.0</ele><time>2026-03-28T12:58:22Z</time></trkpt><trkpt lat="45.85209516068436" lon="8.900857159244959"><ele>360.0</ele><time>2026-03-28T12:58:23Z</time></trkpt><trkpt lat="45.852055834627635" lon="8.900930722684796"><ele>360.0</ele><time>2026-03-28T12:58:24Z</time></trkpt><trkpt lat="45.85198250212267" lon="8.901056711959427"><ele>360.0</ele><time>2026-03-28T12:58:26Z</time></trkpt><trkpt lat="45.85193640667424" lon="8.901204966696135"><ele>360.0</ele><time>2026-03-28T12:58:28Z</time></trkpt><trkpt lat="45.85191994285142" lon="8.901360196293744"><ele>361.8</ele><time>2026-03-28T12:58:30Z</time></trkpt><trkpt lat="45.851927606467974" lon="8.901503257285292"><ele>363.6</ele><time>2026-03-28T12:58:32Z</time></trkpt><trkpt lat="45.851974281396174" lon="8.901640489507672"><ele>365.4</ele><time>2026-03-28T12:58:34Z</time></trkpt><trkpt lat="45.85203919043202" lon="8.901757831901643"><ele>367.2</ele><time>2026-03-28T12:58:36Z</time></trkpt><trkpt lat="45.852112016846135" lon="8.901875690250083"><ele>369.0</ele><time>2026-03-28T12:58:38Z</time></trkpt><trkpt lat="45.85219125807607" lon="8.901998082868959"><ele>371.0</ele><time>2026-03-28T12:58:40Z</time></trkpt><trkpt lat="45.8522815971848" lon="8.902121144289772"><ele>373.0</ele><time>2026-03-28T12:58:42Z</time></trkpt><trkpt lat="45.85232910747869" lon="8.902185694500002"><ele>375.0</ele><time>2026-03-28T12:58:43Z</time></trkpt><trkpt lat="45.852378169771285" lon="8.902253642424556"><ele>377.0</ele><time>2026-03-28T12:58:44Z</time></trkpt><trkpt lat="45.85242675242972" lon="8.902322085290939"><ele>379.0</ele><time>2026-03-28T12:58:45Z</time></trkpt><trkpt lat="45.852475779013325" lon="8.902406328523048"><ele>381.0</ele><time>2026-03-28T12:58:46Z</time></trkpt><trkpt lat="45.852517860705355" lon="8.902497415466375"><ele>381.3333333333333</ele><time>2026-03-28T12:58:47Z</time></trkpt><trkpt lat="45.85255601878747" lon="8.902593987377113"><ele>381.6666666666667</ele><time>2026-03-28T12:58:48Z</time></trkpt><trkpt lat="45.8525964985842" lon="8.90269226694339"><ele>382.0</ele><time>2026-03-28T12:58:49Z</time></trkpt><trkpt lat="45.852636410020814" lon="8.902790364884382"><ele>382.33333333333337</ele><time>2026-03-28T12:58:50Z</time></trkpt><trkpt lat="45.85267569552719" lon="8.902893118705098"><ele>382.6666666666667</ele><time>2026-03-28T12:58:51Z</time></trkpt><trkpt lat="45.852714738787576" lon="8.90299079851401"><ele>383.0</ele><time>2026-03-28T12:58:52Z</time></trkpt><trkpt lat="45.8527562400723" lon="8.903086951173279"><ele>383.0</ele><time>2026-03-28T12:58:53Z</time></trkpt><trkpt lat="45.85278807269261" lon="8.903194300007373"><ele>383.0</ele><time>2026-03-28T12:58:54Z</time></trkpt><trkpt lat="45.85281941447928" lon="8.903295333782228"><ele>383.0</ele><time>2026-03-28T12:58:55Z</time></trkpt><trkpt lat="45.8528396823283" lon="8.903408339758379"><ele>383.0</ele><time>2026-03-28T12:58:56Z</time></trkpt><trkpt lat="45.852846954952966" lon="8.903529791826506"><ele>383.0</ele><time>2026-03-28T12:58:57Z</time></trkpt><trkpt lat="45.85283393168014" lon="8.903648375941996"><ele>383.0</ele><time>2026-03-28T12:58:58Z</time></trkpt><trkpt lat="45.852820811927984" lon="8.903752374367315"><ele>383.83333333333337</ele><time>2026-03-28T12:58:59Z</time></trkpt><trkpt lat="45.85280413272088" lon="8.903865724622863"><ele>384.6666666666667</ele><time>2026-03-28T12:59:00Z</time></trkpt><trkpt lat="45.85279620501899" lon="8.90397537233703"><ele>385.5</ele><time>2026-03-28T12:59:01Z</time></trkpt><trkpt lat="45.85278583064615" lon="8.904090228508123"><ele>386.33333333333337</ele><time>2026-03-28T12:59:02Z</time></trkpt><trkpt lat="45.85278080888927" lon="8.90420391081275"><ele>387.1666666666667</ele><time>2026-03-28T12:59:03Z</time></trkpt><trkpt lat="45.852766725193256" lon="8.904312081825148"><ele>388.0</ele><time>2026-03-28T12:59:04Z</time></trkpt><trkpt lat="45.85275835579215" lon="8.904430220708594"><ele>388.6666666666667</ele><time>2026-03-28T12:59:05Z</time></trkpt><trkpt lat="45.85275425881096" lon="8.904541089402992"><ele>389.33333333333337</ele><time>2026-03-28T12:59:06Z</time></trkpt><trkpt lat="45.852744404431476" lon="8.904655162800156"><ele>390.0</ele><time>2026-03-28T12:59:07Z</time></trkpt><trkpt lat="45.852738373641415" lon="8.904775502900696"><ele>390.66666666666663</ele><time>2026-03-28T12:59:08Z</time></trkpt><trkpt lat="45.85274510248378" lon="8.904891356727836"><ele>391.3333333333333</ele><time>2026-03-28T12:59:09Z</time></trkpt><trkpt lat="45.85274649979376" lon="8.905014746467186"><ele>392.0</ele><time>2026-03-28T12:59:10Z</time></trkpt><trkpt lat="45.85275171446713" lon="8.905133964891155"><ele>393.16666666666663</ele><time>2026-03-28T12:59:11Z</time></trkpt><trkpt lat="45.852766829965084" lon="8.905254320250412"><ele>394.3333333333333</ele><time>2026-03-28T12:59:12Z</time></trkpt><trkpt lat="45.85278653754832" lon="8.9053699983778"><ele>395.5</ele><time>2026-03-28T12:59:13Z</time></trkpt><trkpt lat="45.85280473405048" lon="8.905486283910609"><ele>396.66666666666663</ele><time>2026-03-28T12:59:14Z</time></trkpt><trkpt lat="45.852821447743004" lon="8.90559583613622"><ele>397.8333333333333</ele><time>2026-03-28T12:59:15Z</time></trkpt><trkpt lat="45.85282939038946" lon="8.905702208567947"><ele>399.0</ele><time>2026-03-28T12:59:16Z</time></trkpt><trkpt lat="45.852844159828045" lon="8.905819857707565"><ele>398.8333333333333</ele><time>2026-03-28T12:59:17Z</time></trkpt><trkpt lat="45.85283054023971" lon="8.905941127589703"><ele>398.66666666666663</ele><time>2026-03-28T12:59:18Z</time></trkpt><trkpt lat="45.852817395157984" lon="8.90605641486209"><ele>398.5</ele><time>2026-03-28T12:59:19Z</time></trkpt><trkpt lat="45.85281145466529" lon="8.906188244466092"><ele>398.3333333333333</ele><time>2026-03-28T12:59:20Z</time></trkpt><trkpt lat="45.852794469257454" lon="8.906307404302739"><ele>398.16666666666663</ele><time>2026-03-28T12:59:21Z</time></trkpt><trkpt lat="45.8527768384263" lon="8.906420948082783"><ele>398.0</ele><time>2026-03-28T12:59:22Z</time></trkpt><trkpt lat="45.85275445917711" lon="8.906545716617947"><ele>397.99999999999994</ele><time>2026-03-28T12:59:23Z</time></trkpt><trkpt lat="45.85273706076795" lon="8.90665832984078"><ele>398.0</ele><time>2026-03-28T12:59:24Z</time></trkpt><trkpt lat="45.8527179299184" lon="8.906778035062715"><ele>398.0</ele><time>2026-03-28T12:59:25Z</time></trkpt><trkpt lat="45.85269839919137" lon="8.906896966013747"><ele>398.0</ele><time>2026-03-28T12:59:26Z</time></trkpt><trkpt lat="45.852676102791676" lon="8.90701554952804"><ele>397.99999999999994</ele><time>2026-03-28T12:59:27Z</time></trkpt><trkpt lat="45.85263915599069" lon="8.907132554963711"><ele>398.0</ele><time>2026-03-28T12:59:28Z</time></trkpt><trkpt lat="45.85260100929034" lon="8.907245239885095"><ele>398.3333333333333</ele><time>2026-03-28T12:59:29Z</time></trkpt><trkpt lat="45.852531958330076" lon="8.907336192173194"><ele>398.66666666666663</ele><time>2026-03-28T12:59:30Z</time></trkpt><trkpt lat="45.852472574723585" lon="8.907426746252806"><ele>399.0</ele><time>2026-03-28T12:59:31Z</time></trkpt><trkpt lat="45.852412363066136" lon="8.907507749206607"><ele>399.33333333333337</ele><time>2026-03-28T12:59:32Z</time></trkpt><trkpt lat="45.85235586568976" lon="8.907605484194143"><ele>399.6666666666667</ele><time>2026-03-28T12:59:33Z</time></trkpt><trkpt lat="45.85228536106254" lon="8.907675462336298"><ele>400.0</ele><time>2026-03-28T12:59:34Z</time></trkpt><trkpt lat="45.85221767792391" lon="8.907747260509083"><ele>400.6666666666667</ele><time>2026-03-28T12:59:35Z</time></trkpt><trkpt lat="45.85214957109257" lon="8.907820522983737"><ele>401.33333333333337</ele><time>2026-03-28T12:59:36Z</time></trkpt><trkpt lat="45.85208370886158" lon="8.907893380786453"><ele>402.0</ele><time>2026-03-28T12:59:37Z</time></trkpt><trkpt lat="45.85201160684088" lon="8.907970337607651"><ele>402.66666666666663</ele><time>2026-03-28T12:59:38Z</time></trkpt><trkpt lat="45.85194322805327" lon="8.908043452746387"><ele>403.3333333333333</ele><time>2026-03-28T12:59:39Z</time></trkpt><trkpt lat="45.85187386226563" lon="8.908110614094813"><ele>404.0</ele><time>2026-03-28T12:59:40Z</time></trkpt><trkpt lat="45.851806018878825" lon="8.908189783404609"><ele>404.16666666666663</ele><time>2026-03-28T12:59:41Z</time></trkpt><trkpt lat="45.85174190111596" lon="8.908266209299654"><ele>404.3333333333333</ele><time>2026-03-28T12:59:42Z</time></trkpt><trkpt lat="45.85167658274515" lon="8.908348542849843"><ele>404.5</ele><time>2026-03-28T12:59:43Z</time></trkpt><trkpt lat="45.8516169905695" lon="8.908433299220869"><ele>404.66666666666663</ele><time>2026-03-28T12:59:44Z</time></trkpt><trkpt lat="45.851553856272865" lon="8.908518458868244"><ele>404.8333333333333</ele><time>2026-03-28T12:59:45Z</time></trkpt><trkpt lat="45.85148463611415" lon="8.908601703229396"><ele>405.0</ele><time>2026-03-28T12:59:46Z</time></trkpt><trkpt lat="45.85141794322694" lon="8.90866369811179"><ele>405.8333333333333</ele><time>2026-03-28T12:59:47Z</time></trkpt><trkpt lat="45.851354593971635" lon="8.908745959847753"><ele>406.66666666666663</ele><time>2026-03-28T12:59:48Z</time></trkpt><trkpt lat="45.85133187986896" lon="8.908837741799951"><ele>407.5</ele><time>2026-03-28T12:59:49Z</time></trkpt><trkpt lat="45.85124201846235" lon="8.90885907634194"><ele>408.3333333333333</ele><time>2026-03-28T12:59:50Z</time></trkpt><trkpt lat="45.85112181433388" lon="8.908861104861376"><ele>409.16666666666663</ele><time>2026-03-28T12:59:52Z</time></trkpt><trkpt lat="45.85105689268623" lon="8.908857089474564"><ele>410.0</ele><time>2026-03-28T12:59:53Z</time></trkpt><trkpt lat="45.85099336101177" lon="8.908861646325125"><ele>411.5</ele><time>2026-03-28T12:59:54Z</time></trkpt><trkpt lat="45.85087282076815" lon="8.9088743218535"><ele>413.0</ele><time>2026-03-28T12:59:56Z</time></trkpt><trkpt lat="45.850758786726516" lon="8.908890211722051"><ele>414.5</ele><time>2026-03-28T12:59:58Z</time></trkpt><trkpt lat="45.85064530921741" lon="8.908899724728531"><ele>416.0</ele><time>2026-03-28T13:00:00Z</time></trkpt><trkpt lat="45.850534102103396" lon="8.90890970785704"><ele>416.0</ele><time>2026-03-28T13:00:02Z</time></trkpt><trkpt lat="45.85041889738174" lon="8.908919853557375"><ele>416.0</ele><time>2026-03-28T13:00:04Z</time></trkpt><trkpt lat="45.85029879175504" lon="8.908925806894864"><ele>416.0</ele><time>2026-03-28T13:00:06Z</time></trkpt><trkpt lat="45.85017348840722" lon="8.908930710345743"><ele>416.0</ele><time>2026-03-28T13:00:08Z</time></trkpt><trkpt lat="45.85005242108139" lon="8.908930385461929"><ele>415.0</ele><time>2026-03-28T13:00:10Z</time></trkpt><trkpt lat="45.84992719206682" lon="8.9089395233471"><ele>414.0</ele><time>2026-03-28T13:00:12Z</time></trkpt><trkpt lat="45.8498055897234" lon="8.908944784675667"><ele>413.0</ele><time>2026-03-28T13:00:14Z</time></trkpt><trkpt lat="45.84968258507335" lon="8.908941802317875"><ele>412.0</ele><time>2026-03-28T13:00:16Z</time></trkpt><trkpt lat="45.849618779002256" lon="8.908936213952675"><ele>411.0</ele><time>2026-03-28T13:00:17Z</time></trkpt><trkpt lat="45.84955460302792" lon="8.908920969431751"><ele>411.0</ele><time>2026-03-28T13:00:18Z</time></trkpt><trkpt lat="45.84949319141697" lon="8.908898034447015"><ele>411.0</ele><time>2026-03-28T13:00:19Z</time></trkpt><trkpt lat="45.84943436201789" lon="8.908861707151068"><ele>411.0</ele><time>2026-03-28T13:00:20Z</time></trkpt><trkpt lat="45.84937725746208" lon="8.908816223554913"><ele>411.0</ele><time>2026-03-28T13:00:21Z</time></trkpt><trkpt lat="45.84925333557212" lon="8.90879650748907"><ele>411.0</ele><time>2026-03-28T13:00:23Z</time></trkpt><trkpt lat="45.84919029881522" lon="8.908823322131127"><ele>411.0</ele><time>2026-03-28T13:00:24Z</time></trkpt><trkpt lat="45.84912889546439" lon="8.90884578122971"><ele>411.0</ele><time>2026-03-28T13:00:25Z</time></trkpt><trkpt lat="45.849063176321586" lon="8.908839914309558"><ele>411.2857142857143</ele><time>2026-03-28T13:00:26Z</time></trkpt><trkpt lat="45.84900353585707" lon="8.90879908594551"><ele>411.57142857142856</ele><time>2026-03-28T13:00:27Z</time></trkpt><trkpt lat="45.8489470686233" lon="8.908743250845694"><ele>411.8571428571429</ele><time>2026-03-28T13:00:28Z</time></trkpt><trkpt lat="45.848895255742875" lon="8.908677902764998"><ele>412.1428571428571</ele><time>2026-03-28T13:00:29Z</time></trkpt><trkpt lat="45.84883110744255" lon="8.908653696398694"><ele>412.42857142857144</ele><time>2026-03-28T13:00:30Z</time></trkpt><trkpt lat="45.848756921148556" lon="8.908694060343006"><ele>412.7142857142857</ele><time>2026-03-28T13:00:31Z</time></trkpt><trkpt lat="45.84871326045194" lon="8.908786425826944"><ele>413.0</ele><time>2026-03-28T13:00:32Z</time></trkpt><trkpt lat="45.84861976082703" lon="8.908884841639708"><ele>413.0</ele><time>2026-03-28T13:00:34Z</time></trkpt><trkpt lat="45.84851056111856" lon="8.908947591631177"><ele>413.0</ele><time>2026-03-28T13:00:36Z</time></trkpt><trkpt lat="45.84839945283482" lon="8.908987838702782"><ele>413.0</ele><time>2026-03-28T13:00:38Z</time></trkpt><trkpt lat="45.848285085716824" lon="8.908998524266027"><ele>413.0</ele><time>2026-03-28T13:00:40Z</time></trkpt><trkpt lat="45.84817283828865" lon="8.909012558001622"><ele>413.75</ele><time>2026-03-28T13:00:42Z</time></trkpt><trkpt lat="45.84805987199754" lon="8.909015828474725"><ele>414.5</ele><time>2026-03-28T13:00:44Z</time></trkpt><trkpt lat="45.84794858296834" lon="8.909034124931434"><ele>415.25</ele><time>2026-03-28T13:00:46Z</time></trkpt><trkpt lat="45.84783301661967" lon="8.909046648131547"><ele>416.0</ele><time>2026-03-28T13:00:48Z</time></trkpt><trkpt lat="45.847722114954124" lon="8.909054873102743"><ele>415.25</ele><time>2026-03-28T13:00:50Z</time></trkpt><trkpt lat="45.84761158506249" lon="8.909064712312697"><ele>414.5</ele><time>2026-03-28T13:00:52Z</time></trkpt><trkpt lat="45.847495649089616" lon="8.909074309555235"><ele>413.75</ele><time>2026-03-28T13:00:54Z</time></trkpt><trkpt lat="45.84737995778583" lon="8.909088445032381"><ele>413.0</ele><time>2026-03-28T13:00:56Z</time></trkpt><trkpt lat="45.847259124678494" lon="8.90910214422995"><ele>412.99999999999994</ele><time>2026-03-28T13:00:58Z</time></trkpt><trkpt lat="45.847140056679656" lon="8.909111090114722"><ele>413.0</ele><time>2026-03-28T13:01:00Z</time></trkpt><trkpt lat="45.84707506351191" lon="8.909114504720739"><ele>413.0</ele><time>2026-03-28T13:01:01Z</time></trkpt><trkpt lat="45.846949106317766" lon="8.909131367735812"><ele>413.0</ele><time>2026-03-28T13:01:03Z</time></trkpt><trkpt lat="45.84688539258048" lon="8.909135629917598"><ele>412.99999999999994</ele><time>2026-03-28T13:01:04Z</time></trkpt><trkpt lat="45.8468216192843" lon="8.909141766094917"><ele>413.0</ele><time>2026-03-28T13:01:05Z</time></trkpt><trkpt lat="45.8467563381642" lon="8.90914759272159"><ele>412.57142857142856</ele><time>2026-03-28T13:01:06Z</time></trkpt><trkpt lat="45.84669152519661" lon="8.909156357330065"><ele>412.1428571428571</ele><time>2026-03-28T13:01:07Z</time></trkpt><trkpt lat="45.84662361019199" lon="8.909163358481056"><ele>411.7142857142857</ele><time>2026-03-28T13:01:08Z</time></trkpt><trkpt lat="45.846559743331404" lon="8.90916731105717"><ele>411.2857142857143</ele><time>2026-03-28T13:01:09Z</time></trkpt><trkpt lat="45.84649157139081" lon="8.909172348650191"><ele>410.85714285714283</ele><time>2026-03-28T13:01:10Z</time></trkpt><trkpt lat="45.84642599242226" lon="8.909180396445489"><ele>410.42857142857144</ele><time>2026-03-28T13:01:11Z</time></trkpt><trkpt lat="45.84635909987608" lon="8.909188943076966"><ele>410.0</ele><time>2026-03-28T13:01:12Z</time></trkpt><trkpt lat="45.846293770316194" lon="8.909193765982797"><ele>410.0</ele><time>2026-03-28T13:01:13Z</time></trkpt><trkpt lat="45.846225725288484" lon="8.909199402924326"><ele>410.0</ele><time>2026-03-28T13:01:14Z</time></trkpt><trkpt lat="45.84615868566616" lon="8.909202480568878"><ele>410.0</ele><time>2026-03-28T13:01:15Z</time></trkpt><trkpt lat="45.846091824903" lon="8.909195691067737"><ele>410.0</ele><time>2026-03-28T13:01:16Z</time></trkpt><trkpt lat="45.846021807019056" lon="8.909204302198914"><ele>410.0</ele><time>2026-03-28T13:01:17Z</time></trkpt><trkpt lat="45.84595571765314" lon="8.909196625123055"><ele>410.0</ele><time>2026-03-28T13:01:18Z</time></trkpt><trkpt lat="45.84588388283973" lon="8.909186907462368"><ele>410.0</ele><time>2026-03-28T13:01:19Z</time></trkpt><trkpt lat="45.84581620070064" lon="8.909183825897445"><ele>409.7142857142857</ele><time>2026-03-28T13:01:20Z</time></trkpt><trkpt lat="45.845742637749424" lon="8.909173306752885"><ele>409.4285714285714</ele><time>2026-03-28T13:01:21Z</time></trkpt><trkpt lat="45.84566940615224" lon="8.909163883208139"><ele>409.1428571428571</ele><time>2026-03-28T13:01:22Z</time></trkpt><trkpt lat="45.84559791370767" lon="8.909159762644958"><ele>408.8571428571429</ele><time>2026-03-28T13:01:23Z</time></trkpt><trkpt lat="45.845519997861636" lon="8.909150851954303"><ele>408.57142857142856</ele><time>2026-03-28T13:01:24Z</time></trkpt><trkpt lat="45.84544719286664" lon="8.909146292187446"><ele>408.2857142857143</ele><time>2026-03-28T13:01:25Z</time></trkpt><trkpt lat="45.845370676154594" lon="8.909140952456314"><ele>408.0</ele><time>2026-03-28T13:01:26Z</time></trkpt><trkpt lat="45.8452952755206" lon="8.90913484253786"><ele>408.0</ele><time>2026-03-28T13:01:27Z</time></trkpt><trkpt lat="45.84521472650579" lon="8.90912885333208"><ele>408.0</ele><time>2026-03-28T13:01:28Z</time></trkpt><trkpt lat="45.845140607801575" lon="8.90912624613674"><ele>408.0</ele><time>2026-03-28T13:01:29Z</time></trkpt><trkpt lat="45.84506233659896" lon="8.909116362504621"><ele>408.0</ele><time>2026-03-28T13:01:30Z</time></trkpt><trkpt lat="45.84498495544994" lon="8.909103948467544"><ele>408.0</ele><time>2026-03-28T13:01:31Z</time></trkpt><trkpt lat="45.84490245438196" lon="8.909100672978969"><ele>408.0</ele><time>2026-03-28T13:01:32Z</time></trkpt><trkpt lat="45.84483006808381" lon="8.909094676721315"><ele>407.8571428571429</ele><time>2026-03-28T13:01:33Z</time></trkpt><trkpt lat="45.84475306942057" lon="8.909092761138812"><ele>407.7142857142857</ele><time>2026-03-28T13:01:34Z</time></trkpt><trkpt lat="45.84467867972164" lon="8.90908033189742"><ele>407.57142857142856</ele><time>2026-03-28T13:01:35Z</time></trkpt><trkpt lat="45.84460698534731" lon="8.909067371318839"><ele>407.42857142857144</ele><time>2026-03-28T13:01:36Z</time></trkpt><trkpt lat="45.84452809383039" lon="8.909067019353321"><ele>407.2857142857143</ele><time>2026-03-28T13:01:37Z</time></trkpt><trkpt lat="45.84445621133863" lon="8.909066394874083"><ele>407.14285714285717</ele><time>2026-03-28T13:01:38Z</time></trkpt><trkpt lat="45.84438474791994" lon="8.90905926550317"><ele>407.0</ele><time>2026-03-28T13:01:39Z</time></trkpt><trkpt lat="45.84431239616352" lon="8.909053453928628"><ele>406.7142857142857</ele><time>2026-03-28T13:01:40Z</time></trkpt><trkpt lat="45.8442384344558" lon="8.909042523233751"><ele>406.42857142857144</ele><time>2026-03-28T13:01:41Z</time></trkpt><trkpt lat="45.844169687537274" lon="8.909035626796788"><ele>406.1428571428571</ele><time>2026-03-28T13:01:42Z</time></trkpt><trkpt lat="45.84409566963682" lon="8.909029758751407"><ele>405.8571428571429</ele><time>2026-03-28T13:01:43Z</time></trkpt><trkpt lat="45.844022589657484" lon="8.909017107373932"><ele>405.57142857142856</ele><time>2026-03-28T13:01:44Z</time></trkpt><trkpt lat="45.84394895223462" lon="8.909014559617178"><ele>405.2857142857143</ele><time>2026-03-28T13:01:45Z</time></trkpt><trkpt lat="45.84387397339586" lon="8.909002906182744"><ele>405.0</ele><time>2026-03-28T13:01:46Z</time></trkpt><trkpt lat="45.84380064961685" lon="8.908993934914525"><ele>405.0</ele><time>2026-03-28T13:01:47Z</time></trkpt><trkpt lat="45.843722574037926" lon="8.908989867953393"><ele>405.0</ele><time>2026-03-28T13:01:48Z</time></trkpt><trkpt lat="45.84364721494168" lon="8.908982711217474"><ele>405.0</ele><time>2026-03-28T13:01:49Z</time></trkpt><trkpt lat="45.843578620510876" lon="8.908966358224966"><ele>405.0</ele><time>2026-03-28T13:01:50Z</time></trkpt><trkpt lat="45.84349987679414" lon="8.908955212483969"><ele>405.0</ele><time>2026-03-28T13:01:51Z</time></trkpt><trkpt lat="45.843423721265665" lon="8.908941608297573"><ele>405.0</ele><time>2026-03-28T13:01:52Z</time></trkpt><trkpt lat="45.843350368108204" lon="8.908920144659799"><ele>403.8333333333333</ele><time>2026-03-28T13:01:53Z</time></trkpt><trkpt lat="45.84327481240712" lon="8.908899883841928"><ele>402.66666666666663</ele><time>2026-03-28T13:01:54Z</time></trkpt><trkpt lat="45.843201978668674" lon="8.908869343538692"><ele>401.5</ele><time>2026-03-28T13:01:55Z</time></trkpt><trkpt lat="45.843125363030936" lon="8.908837325101086"><ele>400.3333333333333</ele><time>2026-03-28T13:01:56Z</time></trkpt><trkpt lat="45.84305087211549" lon="8.908799814945729"><ele>399.16666666666663</ele><time>2026-03-28T13:01:57Z</time></trkpt><trkpt lat="45.84297692373919" lon="8.908754844475988"><ele>398.0</ele><time>2026-03-28T13:01:58Z</time></trkpt><trkpt lat="45.84290389286483" lon="8.908708439332385"><ele>398.0</ele><time>2026-03-28T13:01:59Z</time></trkpt><trkpt lat="45.842830689220605" lon="8.908663590957659"><ele>398.0</ele><time>2026-03-28T13:02:00Z</time></trkpt><trkpt lat="45.842756656491765" lon="8.908579469062044"><ele>398.0</ele><time>2026-03-28T13:02:01Z</time></trkpt><trkpt lat="45.84266890953124" lon="8.90849585585529"><ele>398.0</ele><time>2026-03-28T13:02:02Z</time></trkpt><trkpt lat="45.842537095624934" lon="8.90848211163135"><ele>398.0</ele><time>2026-03-28T13:02:04Z</time></trkpt><trkpt lat="45.84246037504408" lon="8.908446330968758"><ele>397.16666666666663</ele><time>2026-03-28T13:02:05Z</time></trkpt><trkpt lat="45.84237775441156" lon="8.908411936259682"><ele>396.3333333333333</ele><time>2026-03-28T13:02:06Z</time></trkpt><trkpt lat="45.842302746279714" lon="8.90839092026695"><ele>395.5</ele><time>2026-03-28T13:02:07Z</time></trkpt><trkpt lat="45.84222141916564" lon="8.908370924850592"><ele>394.66666666666663</ele><time>2026-03-28T13:02:08Z</time></trkpt><trkpt lat="45.842143514439854" lon="8.908353601495405"><ele>393.8333333333333</ele><time>2026-03-28T13:02:09Z</time></trkpt><trkpt lat="45.84206680041925" lon="8.908345442574229"><ele>393.0</ele><time>2026-03-28T13:02:10Z</time></trkpt><trkpt lat="45.84198774015193" lon="8.908333376845567"><ele>393.0</ele><time>2026-03-28T13:02:11Z</time></trkpt><trkpt lat="45.84190741766147" lon="8.908332440722745"><ele>393.0</ele><time>2026-03-28T13:02:12Z</time></trkpt><trkpt lat="45.84182674610863" lon="8.90834382829458"><ele>393.0</ele><time>2026-03-28T13:02:13Z</time></trkpt><trkpt lat="45.841746222498465" lon="8.908361204129507"><ele>393.0</ele><time>2026-03-28T13:02:14Z</time></trkpt><trkpt lat="45.84166620119543" lon="8.908398028613231"><ele>393.0</ele><time>2026-03-28T13:02:15Z</time></trkpt><trkpt lat="45.84159307107976" lon="8.908442647864142"><ele>393.0</ele><time>2026-03-28T13:02:16Z</time></trkpt><trkpt lat="45.84151369409364" lon="8.908490852381107"><ele>391.4</ele><time>2026-03-28T13:02:17Z</time></trkpt><trkpt lat="45.84144611225318" lon="8.90855928024851"><ele>389.79999999999995</ele><time>2026-03-28T13:02:18Z</time></trkpt><trkpt lat="45.8413837697887" lon="8.908628198117448"><ele>388.2</ele><time>2026-03-28T13:02:19Z</time></trkpt><trkpt lat="45.84128057639238" lon="8.908791726584306"><ele>386.6</ele><time>2026-03-28T13:02:21Z</time></trkpt><trkpt lat="45.841215237531905" lon="8.908878016454949"><ele>385.0</ele><time>2026-03-28T13:02:22Z</time></trkpt><trkpt lat="45.84114353744045" lon="8.908969217840559"><ele>385.00000000000006</ele><time>2026-03-28T13:02:23Z</time></trkpt><trkpt lat="45.84107933113387" lon="8.90905729287495"><ele>385.0</ele><time>2026-03-28T13:02:24Z</time></trkpt><trkpt lat="45.84101625887786" lon="8.90914065449838"><ele>385.0</ele><time>2026-03-28T13:02:25Z</time></trkpt><trkpt lat="45.840959125181584" lon="8.909221908228593"><ele>385.0</ele><time>2026-03-28T13:02:26Z</time></trkpt><trkpt lat="45.84090430848012" lon="8.909311238258752"><ele>385.00000000000006</ele><time>2026-03-28T13:02:27Z</time></trkpt><trkpt lat="45.840849835637904" lon="8.909397036059005"><ele>385.0</ele><time>2026-03-28T13:02:28Z</time></trkpt><trkpt lat="45.8407918578417" lon="8.909478727368422"><ele>384.83333333333337</ele><time>2026-03-28T13:02:29Z</time></trkpt><trkpt lat="45.840732038646415" lon="8.909562442619267"><ele>384.6666666666667</ele><time>2026-03-28T13:02:30Z</time></trkpt><trkpt lat="45.8406726492439" lon="8.909643458183677"><ele>384.5</ele><time>2026-03-28T13:02:31Z</time></trkpt><trkpt lat="45.84061404882815" lon="8.909724368064845"><ele>384.33333333333337</ele><time>2026-03-28T13:02:32Z</time></trkpt><trkpt lat="45.8405581523085" lon="8.909804570477105"><ele>384.1666666666667</ele><time>2026-03-28T13:02:33Z</time></trkpt><trkpt lat="45.84050576536734" lon="8.909886057503405"><ele>384.0</ele><time>2026-03-28T13:02:34Z</time></trkpt><trkpt lat="45.84045194577592" lon="8.909960827636814"><ele>384.0</ele><time>2026-03-28T13:02:35Z</time></trkpt><trkpt lat="45.84039720844248" lon="8.910036876016086"><ele>384.0</ele><time>2026-03-28T13:02:36Z</time></trkpt><trkpt lat="45.840354972528395" lon="8.910121042959577"><ele>384.0</ele><time>2026-03-28T13:02:37Z</time></trkpt><trkpt lat="45.84030283490296" lon="8.910192587685689"><ele>384.0</ele><time>2026-03-28T13:02:38Z</time></trkpt><trkpt lat="45.84024032248865" lon="8.910257609223974"><ele>384.0</ele><time>2026-03-28T13:02:39Z</time></trkpt><trkpt lat="45.840169715296305" lon="8.910302889657052"><ele>384.0</ele><time>2026-03-28T13:02:40Z</time></trkpt><trkpt lat="45.84009062964562" lon="8.91032189238215"><ele>383.4285714285714</ele><time>2026-03-28T13:02:41Z</time></trkpt><trkpt lat="45.84001442772094" lon="8.910317078512577"><ele>382.85714285714283</ele><time>2026-03-28T13:02:42Z</time></trkpt><trkpt lat="45.83994002302199" lon="8.910317440516994"><ele>382.2857142857143</ele><time>2026-03-28T13:02:43Z</time></trkpt><trkpt lat="45.839872383527656" lon="8.910316488506545"><ele>381.71428571428567</ele><time>2026-03-28T13:02:44Z</time></trkpt><trkpt lat="45.839801444609726" lon="8.91030526524012"><ele>381.14285714285717</ele><time>2026-03-28T13:02:45Z</time></trkpt><trkpt lat="45.839734940248334" lon="8.910292899731175"><ele>380.57142857142856</ele><time>2026-03-28T13:02:46Z</time></trkpt><trkpt lat="45.83966670259841" lon="8.910273405275595"><ele>380.0</ele><time>2026-03-28T13:02:47Z</time></trkpt><trkpt lat="45.83959764656006" lon="8.91025662599837"><ele>380.0</ele><time>2026-03-28T13:02:48Z</time></trkpt><trkpt lat="45.839533117086525" lon="8.910239271280966"><ele>380.0</ele><time>2026-03-28T13:02:49Z</time></trkpt><trkpt lat="45.83946357007987" lon="8.910216800660454"><ele>380.0</ele><time>2026-03-28T13:02:50Z</time></trkpt><trkpt lat="45.83940105845695" lon="8.910200388993655"><ele>380.0</ele><time>2026-03-28T13:02:51Z</time></trkpt><trkpt lat="45.83933648794598" lon="8.910177101411303"><ele>380.0</ele><time>2026-03-28T13:02:52Z</time></trkpt><trkpt lat="45.839265523044794" lon="8.91016524854281"><ele>380.0</ele><time>2026-03-28T13:02:53Z</time></trkpt><trkpt lat="45.839199333408125" lon="8.910167974404413"><ele>380.0</ele><time>2026-03-28T13:02:54Z</time></trkpt><trkpt lat="45.83913346495516" lon="8.910192989389001"><ele>379.75</ele><time>2026-03-28T13:02:55Z</time></trkpt><trkpt lat="45.83903947067234" lon="8.910284673883345"><ele>379.5</ele><time>2026-03-28T13:02:57Z</time></trkpt><trkpt lat="45.83892928032958" lon="8.910351284257565"><ele>379.25</ele><time>2026-03-28T13:02:59Z</time></trkpt><trkpt lat="45.838812119827274" lon="8.910322576508042"><ele>379.0</ele><time>2026-03-28T13:03:01Z</time></trkpt><trkpt lat="45.838720229625174" lon="8.910217155494612"><ele>379.0</ele><time>2026-03-28T13:03:03Z</time></trkpt><trkpt lat="45.83864066798214" lon="8.910105168157312"><ele>379.0</ele><time>2026-03-28T13:03:05Z</time></trkpt><trkpt lat="45.83856290217288" lon="8.909990896349997"><ele>379.0</ele><time>2026-03-28T13:03:07Z</time></trkpt><trkpt lat="45.83849230212516" lon="8.909874434788868"><ele>379.0</ele><time>2026-03-28T13:03:09Z</time></trkpt><trkpt lat="45.83844566397302" lon="8.909742591243427"><ele>379.0</ele><time>2026-03-28T13:03:11Z</time></trkpt><trkpt lat="45.83836399037474" lon="8.909654953072964"><ele>378.8333333333333</ele><time>2026-03-28T13:03:13Z</time></trkpt><trkpt lat="45.83829531903183" lon="8.909633843830717"><ele>378.66666666666663</ele><time>2026-03-28T13:03:15Z</time></trkpt><trkpt lat="45.83822611266669" lon="8.909696043087196"><ele>378.5</ele><time>2026-03-28T13:03:17Z</time></trkpt><trkpt lat="45.83818450768273" lon="8.909779775618775"><ele>378.3333333333333</ele><time>2026-03-28T13:03:19Z</time></trkpt><trkpt lat="45.83815934494785" lon="8.90988392206816"><ele>378.1666666666667</ele><time>2026-03-28T13:03:21Z</time></trkpt><trkpt lat="45.83811133142114" lon="8.909973797292174"><ele>378.0</ele><time>2026-03-28T13:03:23Z</time></trkpt><trkpt lat="45.83803567342927" lon="8.910001968080108"><ele>378.0</ele><time>2026-03-28T13:03:25Z</time></trkpt><trkpt lat="45.8379603798623" lon="8.909977284450918"><ele>378.0</ele><time>2026-03-28T13:03:27Z</time></trkpt><trkpt lat="45.83786606934195" lon="8.909943689171293"><ele>378.0</ele><time>2026-03-28T13:03:29Z</time></trkpt><trkpt lat="45.83775008239859" lon="8.909906801442956"><ele>378.0</ele><time>2026-03-28T13:03:31Z</time></trkpt><trkpt lat="45.83768748190673" lon="8.909879537945352"><ele>378.0</ele><time>2026-03-28T13:03:32Z</time></trkpt><trkpt lat="45.83761902830864" lon="8.909853294904737"><ele>378.0</ele><time>2026-03-28T13:03:33Z</time></trkpt><trkpt lat="45.83755276881974" lon="8.909825238951997"><ele>377.57142857142856</ele><time>2026-03-28T13:03:34Z</time></trkpt><trkpt lat="45.83748783349818" lon="8.90979135427023"><ele>377.1428571428571</ele><time>2026-03-28T13:03:35Z</time></trkpt><trkpt lat="45.83740856029528" lon="8.909831091684874"><ele>376.7142857142857</ele><time>2026-03-28T13:03:36Z</time></trkpt><trkpt lat="45.83734177032238" lon="8.909833944620095"><ele>376.2857142857143</ele><time>2026-03-28T13:03:37Z</time></trkpt><trkpt lat="45.83727270416924" lon="8.909830150538175"><ele>375.85714285714283</ele><time>2026-03-28T13:03:38Z</time></trkpt><trkpt lat="45.83720005126056" lon="8.909831517083525"><ele>375.42857142857144</ele><time>2026-03-28T13:03:39Z</time></trkpt><trkpt lat="45.83712890231668" lon="8.909813069053731"><ele>375.0</ele><time>2026-03-28T13:03:40Z</time></trkpt><trkpt lat="45.83705425351832" lon="8.909802598221832"><ele>375.0</ele><time>2026-03-28T13:03:41Z</time></trkpt><trkpt lat="45.836984235570476" lon="8.909795843211667"><ele>375.0</ele><time>2026-03-28T13:03:42Z</time></trkpt><trkpt lat="45.836909645173705" lon="8.90977969282379"><ele>375.0</ele><time>2026-03-28T13:03:43Z</time></trkpt><trkpt lat="45.836838931638766" lon="8.909770508203014"><ele>375.0</ele><time>2026-03-28T13:03:44Z</time></trkpt><trkpt lat="45.83676699949664" lon="8.909756042241566"><ele>375.0</ele><time>2026-03-28T13:03:45Z</time></trkpt><trkpt lat="45.83668958142976" lon="8.909745783535568"><ele>375.0</ele><time>2026-03-28T13:03:46Z</time></trkpt><trkpt lat="45.83662328576677" lon="8.90973386589153"><ele>375.0</ele><time>2026-03-28T13:03:47Z</time></trkpt><trkpt lat="45.836549741368295" lon="8.909727189106418"><ele>375.14285714285717</ele><time>2026-03-28T13:03:48Z</time></trkpt><trkpt lat="45.83648345988907" lon="8.909715885851917"><ele>375.2857142857143</ele><time>2026-03-28T13:03:49Z</time></trkpt><trkpt lat="45.83641277204096" lon="8.909710362881052"><ele>375.42857142857144</ele><time>2026-03-28T13:03:50Z</time></trkpt><trkpt lat="45.836341219445956" lon="8.909701063677957"><ele>375.57142857142856</ele><time>2026-03-28T13:03:51Z</time></trkpt><trkpt lat="45.836271589387735" lon="8.909685836423257"><ele>375.71428571428567</ele><time>2026-03-28T13:03:52Z</time></trkpt><trkpt lat="45.836203151876155" lon="8.909664566625041"><ele>375.85714285714283</ele><time>2026-03-28T13:03:53Z</time></trkpt><trkpt lat="45.836135080975254" lon="8.909628987360366"><ele>376.0</ele><time>2026-03-28T13:03:54Z</time></trkpt><trkpt lat="45.83607211133504" lon="8.90957782961773"><ele>376.0</ele><time>2026-03-28T13:03:55Z</time></trkpt><trkpt lat="45.836016425317126" lon="8.909520067707323"><ele>376.0</ele><time>2026-03-28T13:03:56Z</time></trkpt><trkpt lat="45.835961367604405" lon="8.909450497810283"><ele>376.0</ele><time>2026-03-28T13:03:57Z</time></trkpt><trkpt lat="45.83590622892116" lon="8.909403391005835"><ele>376.0</ele><time>2026-03-28T13:03:58Z</time></trkpt><trkpt lat="45.835857078051795" lon="8.909343486928943"><ele>376.0</ele><time>2026-03-28T13:03:59Z</time></trkpt><trkpt lat="45.83578185641208" lon="8.909356474093656"><ele>376.0</ele><time>2026-03-28T13:04:00Z</time></trkpt><trkpt lat="45.83570990768027" lon="8.909480724502727"><ele>375.7142857142857</ele><time>2026-03-28T13:04:01Z</time></trkpt><trkpt lat="45.835662170329876" lon="8.909550899451188"><ele>375.42857142857144</ele><time>2026-03-28T13:04:02Z</time></trkpt><trkpt lat="45.83559713074764" lon="8.909556317578266"><ele>375.1428571428571</ele><time>2026-03-28T13:04:03Z</time></trkpt><trkpt lat="45.83552653849352" lon="8.909555255676132"><ele>374.8571428571429</ele><time>2026-03-28T13:04:04Z</time></trkpt><trkpt lat="45.83545719236959" lon="8.90953858033556"><ele>374.5714285714286</ele><time>2026-03-28T13:04:05Z</time></trkpt><trkpt lat="45.835389310756796" lon="8.90952048642619"><ele>374.2857142857143</ele><time>2026-03-28T13:04:06Z</time></trkpt><trkpt lat="45.835323916913424" lon="8.909506368815304"><ele>374.0</ele><time>2026-03-28T13:04:07Z</time></trkpt><trkpt lat="45.83525236709938" lon="8.909492962552614"><ele>374.0</ele><time>2026-03-28T13:04:08Z</time></trkpt><trkpt lat="45.83518431740734" lon="8.909482375341145"><ele>374.0</ele><time>2026-03-28T13:04:09Z</time></trkpt><trkpt lat="45.83511521959121" lon="8.909468319861102"><ele>374.0</ele><time>2026-03-28T13:04:10Z</time></trkpt><trkpt lat="45.83504670668703" lon="8.90945570713639"><ele>374.0</ele><time>2026-03-28T13:04:11Z</time></trkpt><trkpt lat="45.8349772934002" lon="8.909443760184855"><ele>374.0</ele><time>2026-03-28T13:04:12Z</time></trkpt><trkpt lat="45.83490777222402" lon="8.90943090832895"><ele>374.0</ele><time>2026-03-28T13:04:13Z</time></trkpt><trkpt lat="45.83484017011519" lon="8.90941527335938"><ele>374.0</ele><time>2026-03-28T13:04:14Z</time></trkpt><trkpt lat="45.83477238031722" lon="8.909404409104052"><ele>374.1428571428571</ele><time>2026-03-28T13:04:15Z</time></trkpt><trkpt lat="45.834701683910566" lon="8.909393945976857"><ele>374.28571428571433</ele><time>2026-03-28T13:04:16Z</time></trkpt><trkpt lat="45.83463140660353" lon="8.909380155125517"><ele>374.42857142857144</ele><time>2026-03-28T13:04:17Z</time></trkpt><trkpt lat="45.83455963983827" lon="8.909379052227838"><ele>374.57142857142856</ele><time>2026-03-28T13:04:18Z</time></trkpt><trkpt lat="45.83449169141364" lon="8.909368774377022"><ele>374.71428571428567</ele><time>2026-03-28T13:04:19Z</time></trkpt><trkpt lat="45.834413172542256" lon="8.909338580249058"><ele>374.8571428571429</ele><time>2026-03-28T13:04:20Z</time></trkpt><trkpt lat="45.834348658657596" lon="8.909330640286907"><ele>375.0</ele><time>2026-03-28T13:04:21Z</time></trkpt><trkpt lat="45.834274623786186" lon="8.909319488970857"><ele>374.8571428571429</ele><time>2026-03-28T13:04:22Z</time></trkpt><trkpt lat="45.83420218524221" lon="8.909307935054004"><ele>374.71428571428567</ele><time>2026-03-28T13:04:23Z</time></trkpt><trkpt lat="45.83412637053057" lon="8.909293333023609"><ele>374.57142857142856</ele><time>2026-03-28T13:04:24Z</time></trkpt><trkpt lat="45.834054632282346" lon="8.909279813570175"><ele>374.42857142857144</ele><time>2026-03-28T13:04:25Z</time></trkpt><trkpt lat="45.833986855413" lon="8.909264701205327"><ele>374.28571428571433</ele><time>2026-03-28T13:04:26Z</time></trkpt><trkpt lat="45.83391371794651" lon="8.909254533215053"><ele>374.1428571428571</ele><time>2026-03-28T13:04:27Z</time></trkpt><trkpt lat="45.83383964308498" lon="8.909250012993795"><ele>374.0</ele><time>2026-03-28T13:04:28Z</time></trkpt><trkpt lat="45.83377004437888" lon="8.909233444324475"><ele>374.0</ele><time>2026-03-28T13:04:29Z</time></trkpt><trkpt lat="45.83370208545551" lon="8.909220962226094"><ele>374.0</ele><time>2026-03-28T13:04:30Z</time></trkpt><trkpt lat="45.83363624606536" lon="8.909206829283406"><ele>374.0</ele><time>2026-03-28T13:04:31Z</time></trkpt><trkpt lat="45.83356678361908" lon="8.909193264117363"><ele>374.0</ele><time>2026-03-28T13:04:32Z</time></trkpt><trkpt lat="45.83349817342627" lon="8.909181660492106"><ele>374.0</ele><time>2026-03-28T13:04:33Z</time></trkpt><trkpt lat="45.83342918732233" lon="8.909169798697336"><ele>374.0</ele><time>2026-03-28T13:04:34Z</time></trkpt><trkpt lat="45.833361105743016" lon="8.909158431538415"><ele>374.0</ele><time>2026-03-28T13:04:35Z</time></trkpt><trkpt lat="45.83329143905339" lon="8.909145282894888"><ele>373.7142857142857</ele><time>2026-03-28T13:04:36Z</time></trkpt><trkpt lat="45.83322168064172" lon="8.909131652369348"><ele>373.42857142857144</ele><time>2026-03-28T13:04:37Z</time></trkpt><trkpt lat="45.83314989717796" lon="8.909119225107943"><ele>373.14285714285717</ele><time>2026-03-28T13:04:38Z</time></trkpt><trkpt lat="45.833077389030564" lon="8.909105408895687"><ele>372.8571428571429</ele><time>2026-03-28T13:04:39Z</time></trkpt><trkpt lat="45.83300547481118" lon="8.909095170143795"><ele>372.57142857142856</ele><time>2026-03-28T13:04:40Z</time></trkpt><trkpt lat="45.83293502841495" lon="8.9090869249996"><ele>372.28571428571433</ele><time>2026-03-28T13:04:41Z</time></trkpt><trkpt lat="45.832864055739854" lon="8.909079722500188"><ele>372.0</ele><time>2026-03-28T13:04:42Z</time></trkpt><trkpt lat="45.83279267309784" lon="8.909072232654031"><ele>372.0</ele><time>2026-03-28T13:04:43Z</time></trkpt><trkpt lat="45.83272988684384" lon="8.909049485579537"><ele>372.0</ele><time>2026-03-28T13:04:44Z</time></trkpt><trkpt lat="45.832664085691356" lon="8.90904734303207"><ele>372.0</ele><time>2026-03-28T13:04:45Z</time></trkpt><trkpt lat="45.832541542320975" lon="8.909039445801604"><ele>372.0</ele><time>2026-03-28T13:04:47Z</time></trkpt><trkpt lat="45.83242142992061" lon="8.90900088392449"><ele>372.0</ele><time>2026-03-28T13:04:49Z</time></trkpt><trkpt lat="45.83230607002194" lon="8.908984032632317"><ele>372.0</ele><time>2026-03-28T13:04:51Z</time></trkpt><trkpt lat="45.832197626419266" lon="8.9089681917729"><ele>372.0</ele><time>2026-03-28T13:04:53Z</time></trkpt><trkpt lat="45.83213654976257" lon="8.90906432347203"><ele>372.0</ele><time>2026-03-28T13:04:54Z</time></trkpt><trkpt lat="45.83202252070369" lon="8.909049800246656"><ele>372.0</ele><time>2026-03-28T13:04:56Z</time></trkpt><trkpt lat="45.83190420509401" lon="8.90898656469371"><ele>372.0</ele><time>2026-03-28T13:04:58Z</time></trkpt><trkpt lat="45.831843343857095" lon="8.90895694740263"><ele>373.14285714285717</ele><time>2026-03-28T13:04:59Z</time></trkpt><trkpt lat="45.83178221602947" lon="8.908914040032547"><ele>374.2857142857143</ele><time>2026-03-28T13:05:00Z</time></trkpt><trkpt lat="45.831721953083964" lon="8.908873123880353"><ele>375.42857142857144</ele><time>2026-03-28T13:05:01Z</time></trkpt><trkpt lat="45.83166023884846" lon="8.908835836423734"><ele>376.57142857142856</ele><time>2026-03-28T13:05:02Z</time></trkpt><trkpt lat="45.83159754257113" lon="8.908795870539555"><ele>377.7142857142857</ele><time>2026-03-28T13:05:03Z</time></trkpt><trkpt lat="45.83153255481145" lon="8.908758347688718"><ele>378.8571428571429</ele><time>2026-03-28T13:05:04Z</time></trkpt><trkpt lat="45.83146781397884" lon="8.908718239799779"><ele>380.0</ele><time>2026-03-28T13:05:05Z</time></trkpt><trkpt lat="45.831406921318106" lon="8.908678614832871"><ele>380.0</ele><time>2026-03-28T13:05:06Z</time></trkpt><trkpt lat="45.831346729480636" lon="8.90863953965172"><ele>380.0</ele><time>2026-03-28T13:05:07Z</time></trkpt><trkpt lat="45.831280348626635" lon="8.908604395787739"><ele>380.0</ele><time>2026-03-28T13:05:08Z</time></trkpt><trkpt lat="45.83121588649044" lon="8.90856621040249"><ele>380.0</ele><time>2026-03-28T13:05:09Z</time></trkpt><trkpt lat="45.83114997437142" lon="8.908528980082986"><ele>380.0</ele><time>2026-03-28T13:05:10Z</time></trkpt><trkpt lat="45.83108397829883" lon="8.908496166494023"><ele>380.0</ele><time>2026-03-28T13:05:11Z</time></trkpt><trkpt lat="45.83101982828048" lon="8.908459587204511"><ele>380.0</ele><time>2026-03-28T13:05:12Z</time></trkpt><trkpt lat="45.83095676380893" lon="8.908421816630797"><ele>380.7142857142857</ele><time>2026-03-28T13:05:13Z</time></trkpt><trkpt lat="45.83089332124939" lon="8.908376480663195"><ele>381.42857142857144</ele><time>2026-03-28T13:05:14Z</time></trkpt><trkpt lat="45.83082679113154" lon="8.908337608064748"><ele>382.1428571428571</ele><time>2026-03-28T13:05:15Z</time></trkpt><trkpt lat="45.83076026985371" lon="8.908301963967338"><ele>382.8571428571429</ele><time>2026-03-28T13:05:16Z</time></trkpt><trkpt lat="45.83069542581378" lon="8.908267586635487"><ele>383.57142857142856</ele><time>2026-03-28T13:05:17Z</time></trkpt><trkpt lat="45.83062792180127" lon="8.90822797591286"><ele>384.2857142857143</ele><time>2026-03-28T13:05:18Z</time></trkpt><trkpt lat="45.83056351559595" lon="8.908184380799343"><ele>385.0</ele><time>2026-03-28T13:05:19Z</time></trkpt><trkpt lat="45.83049950512981" lon="8.908155341160539"><ele>385.0</ele><time>2026-03-28T13:05:20Z</time></trkpt><trkpt lat="45.83043079972613" lon="8.90812210306212"><ele>385.0</ele><time>2026-03-28T13:05:21Z</time></trkpt><trkpt lat="45.83036995805534" lon="8.90808510764521"><ele>385.0</ele><time>2026-03-28T13:05:22Z</time></trkpt><trkpt lat="45.830305011349154" lon="8.90804832916262"><ele>385.0</ele><time>2026-03-28T13:05:23Z</time></trkpt><trkpt lat="45.830245766926595" lon="8.908011069431248"><ele>385.0</ele><time>2026-03-28T13:05:24Z</time></trkpt><trkpt lat="45.83018063181136" lon="8.907980252538268"><ele>385.0</ele><time>2026-03-28T13:05:25Z</time></trkpt><trkpt lat="45.83011954132348" lon="8.907948638900198"><ele>385.0</ele><time>2026-03-28T13:05:26Z</time></trkpt><trkpt lat="45.83005831362677" lon="8.90792490490029"><ele>386.0</ele><time>2026-03-28T13:05:27Z</time></trkpt><trkpt lat="45.829994781022634" lon="8.90789105276908"><ele>387.0</ele><time>2026-03-28T13:05:28Z</time></trkpt><trkpt lat="45.82986943250388" lon="8.907846611950422"><ele>388.0</ele><time>2026-03-28T13:05:30Z</time></trkpt><trkpt lat="45.82974877595722" lon="8.907805592874535"><ele>389.0</ele><time>2026-03-28T13:05:32Z</time></trkpt><trkpt lat="45.82963386802052" lon="8.907784218172294"><ele>390.0</ele><time>2026-03-28T13:05:34Z</time></trkpt><trkpt lat="45.829564880520955" lon="8.907761872334225"><ele>390.0</ele><time>2026-03-28T13:05:35Z</time></trkpt><trkpt lat="45.829446513968584" lon="8.907728002669481"><ele>390.0</ele><time>2026-03-28T13:05:37Z</time></trkpt><trkpt lat="45.82932997510034" lon="8.907705665654662"><ele>390.0</ele><time>2026-03-28T13:05:39Z</time></trkpt><trkpt lat="45.829211821644314" lon="8.907672274567982"><ele>390.0</ele><time>2026-03-28T13:05:41Z</time></trkpt><trkpt lat="45.82908944431327" lon="8.907639408734001"><ele>389.57142857142856</ele><time>2026-03-28T13:05:43Z</time></trkpt><trkpt lat="45.82902691046841" lon="8.907624040841066"><ele>389.1428571428571</ele><time>2026-03-28T13:05:44Z</time></trkpt><trkpt lat="45.82896481712636" lon="8.907604743286521"><ele>388.7142857142857</ele><time>2026-03-28T13:05:45Z</time></trkpt><trkpt lat="45.82889859424074" lon="8.90758477230386"><ele>388.2857142857143</ele><time>2026-03-28T13:05:46Z</time></trkpt><trkpt lat="45.82883472058567" lon="8.90756696490601"><ele>387.8571428571429</ele><time>2026-03-28T13:05:47Z</time></trkpt><trkpt lat="45.828763374917706" lon="8.907548188275603"><ele>387.42857142857144</ele><time>2026-03-28T13:05:48Z</time></trkpt><trkpt lat="45.828696217267336" lon="8.907528494076459"><ele>387.0</ele><time>2026-03-28T13:05:49Z</time></trkpt><trkpt lat="45.82862885712768" lon="8.907510953852004"><ele>385.5</ele><time>2026-03-28T13:05:50Z</time></trkpt><trkpt lat="45.82855921991952" lon="8.907494038397175"><ele>384.0</ele><time>2026-03-28T13:05:51Z</time></trkpt><trkpt lat="45.828488221870174" lon="8.907477179937613"><ele>382.5</ele><time>2026-03-28T13:05:52Z</time></trkpt><trkpt lat="45.82840356473284" lon="8.907475618496708"><ele>381.0</ele><time>2026-03-28T13:05:53Z</time></trkpt><trkpt lat="45.82831742261065" lon="8.907435913199224"><ele>379.5</ele><time>2026-03-28T13:05:54Z</time></trkpt><trkpt lat="45.828215024353746" lon="8.90740772189433"><ele>378.0</ele><time>2026-03-28T13:05:55Z</time></trkpt><trkpt lat="45.828104102535725" lon="8.907379016776433"><ele>377.0</ele><time>2026-03-28T13:05:56Z</time></trkpt><trkpt lat="45.82798669531309" lon="8.907368597228361"><ele>376.0</ele><time>2026-03-28T13:05:59Z</time></trkpt><trkpt lat="45.82792021250845" lon="8.907350462080357"><ele>375.0</ele><time>2026-03-28T13:06:00Z</time></trkpt><trkpt lat="45.82780165037505" lon="8.90731998658744"><ele>374.0</ele><time>2026-03-28T13:06:02Z</time></trkpt><trkpt lat="45.82773718990214" lon="8.907276597326229"><ele>373.0</ele><time>2026-03-28T13:06:03Z</time></trkpt><trkpt lat="45.827669934044685" lon="8.907258934078616"><ele>372.0</ele><time>2026-03-28T13:06:04Z</time></trkpt><trkpt lat="45.82760116877857" lon="8.907246287906187"><ele>371.5714285714286</ele><time>2026-03-28T13:06:05Z</time></trkpt><trkpt lat="45.82753473782682" lon="8.907233548601106"><ele>371.14285714285717</ele><time>2026-03-28T13:06:06Z</time></trkpt><trkpt lat="45.82746786463683" lon="8.907229152966337"><ele>370.7142857142857</ele><time>2026-03-28T13:06:07Z</time></trkpt><trkpt lat="45.82739996278734" lon="8.907230066477121"><ele>370.28571428571433</ele><time>2026-03-28T13:06:08Z</time></trkpt><trkpt lat="45.82733009676362" lon="8.90724165259423"><ele>369.85714285714283</ele><time>2026-03-28T13:06:09Z</time></trkpt><trkpt lat="45.82725737188642" lon="8.90725232183429"><ele>369.42857142857144</ele><time>2026-03-28T13:06:10Z</time></trkpt><trkpt lat="45.82719009963541" lon="8.90727446000077"><ele>369.0</ele><time>2026-03-28T13:06:11Z</time></trkpt><trkpt lat="45.82712076398163" lon="8.907322380055984"><ele>369.0</ele><time>2026-03-28T13:06:12Z</time></trkpt><trkpt lat="45.82705597408619" lon="8.907383156279527"><ele>369.0</ele><time>2026-03-28T13:06:13Z</time></trkpt><trkpt lat="45.82699295392264" lon="8.907446829133407"><ele>369.0</ele><time>2026-03-28T13:06:14Z</time></trkpt><trkpt lat="45.82693192289788" lon="8.907514035959952"><ele>369.0</ele><time>2026-03-28T13:06:15Z</time></trkpt><trkpt lat="45.82686805905358" lon="8.90758618545613"><ele>369.0</ele><time>2026-03-28T13:06:16Z</time></trkpt><trkpt lat="45.8268105899866" lon="8.90766768865544"><ele>369.0</ele><time>2026-03-28T13:06:17Z</time></trkpt><trkpt lat="45.82676645696016" lon="8.90776339964918"><ele>368.6666666666667</ele><time>2026-03-28T13:06:18Z</time></trkpt><trkpt lat="45.82672686126711" lon="8.9078612260914"><ele>368.3333333333333</ele><time>2026-03-28T13:06:19Z</time></trkpt><trkpt lat="45.8266881891464" lon="8.907960058506614"><ele>368.0</ele><time>2026-03-28T13:06:20Z</time></trkpt><trkpt lat="45.82665508315797" lon="8.908063867533636"><ele>367.66666666666663</ele><time>2026-03-28T13:06:21Z</time></trkpt><trkpt lat="45.82662349962814" lon="8.908166494623064"><ele>367.3333333333333</ele><time>2026-03-28T13:06:22Z</time></trkpt><trkpt lat="45.82659174616992" lon="8.90827326252738"><ele>367.0</ele><time>2026-03-28T13:06:23Z</time></trkpt><trkpt lat="45.82655949742039" lon="8.908370109106276"><ele>369.3333333333333</ele><time>2026-03-28T13:06:24Z</time></trkpt><trkpt lat="45.82653102061382" lon="8.908469152578027"><ele>371.66666666666663</ele><time>2026-03-28T13:06:25Z</time></trkpt><trkpt lat="45.826490085020055" lon="8.908558994488565"><ele>374.0</ele><time>2026-03-28T13:06:26Z</time></trkpt><trkpt lat="45.82645358530325" lon="8.908656717027592"><ele>376.3333333333333</ele><time>2026-03-28T13:06:27Z</time></trkpt><trkpt lat="45.82639390509635" lon="8.908727573430545"><ele>378.6666666666667</ele><time>2026-03-28T13:06:28Z</time></trkpt><trkpt lat="45.82634198038531" lon="8.908808238924266"><ele>381.0</ele><time>2026-03-28T13:06:29Z</time></trkpt><trkpt lat="45.82629817969907" lon="8.90889537987036"><ele>381.0</ele><time>2026-03-28T13:06:30Z</time></trkpt><trkpt lat="45.826242367421486" lon="8.908961846899224"><ele>381.0</ele><time>2026-03-28T13:06:31Z</time></trkpt><trkpt lat="45.82619210594488" lon="8.909033289692369"><ele>381.0</ele><time>2026-03-28T13:06:32Z</time></trkpt><trkpt lat="45.82613619127177" lon="8.90910380863662"><ele>381.0</ele><time>2026-03-28T13:06:33Z</time></trkpt><trkpt lat="45.82608936053162" lon="8.909169562406687"><ele>381.0</ele><time>2026-03-28T13:06:34Z</time></trkpt><trkpt lat="45.82604024052441" lon="8.909238737557775"><ele>381.0</ele><time>2026-03-28T13:06:35Z</time></trkpt><trkpt lat="45.82598417841504" lon="8.909313252414913"><ele>381.0</ele><time>2026-03-28T13:06:36Z</time></trkpt><trkpt lat="45.825933526634394" lon="8.909378319623038"><ele>381.4285714285714</ele><time>2026-03-28T13:06:37Z</time></trkpt><trkpt lat="45.825883853348415" lon="8.909441669900904"><ele>381.8571428571429</ele><time>2026-03-28T13:06:38Z</time></trkpt><trkpt lat="45.8258342173658" lon="8.909505071211768"><ele>382.2857142857143</ele><time>2026-03-28T13:06:39Z</time></trkpt><trkpt lat="45.825786525424455" lon="8.909568551294432"><ele>382.71428571428567</ele><time>2026-03-28T13:06:40Z</time></trkpt><trkpt lat="45.82573574143575" lon="8.909632283157478"><ele>383.1428571428571</ele><time>2026-03-28T13:06:41Z</time></trkpt><trkpt lat="45.82567890784324" lon="8.909691451706065"><ele>383.57142857142856</ele><time>2026-03-28T13:06:42Z</time></trkpt><trkpt lat="45.82562116470437" lon="8.909744916415896"><ele>384.0</ele><time>2026-03-28T13:06:43Z</time></trkpt><trkpt lat="45.82555686526999" lon="8.90979131262409"><ele>383.99999999999994</ele><time>2026-03-28T13:06:44Z</time></trkpt><trkpt lat="45.825483619615184" lon="8.909830420448055"><ele>384.0</ele><time>2026-03-28T13:06:45Z</time></trkpt><trkpt lat="45.82541371039768" lon="8.909845646730652"><ele>384.0</ele><time>2026-03-28T13:06:46Z</time></trkpt><trkpt lat="45.825341647554865" lon="8.909861349089521"><ele>384.0</ele><time>2026-03-28T13:06:47Z</time></trkpt><trkpt lat="45.825265885129724" lon="8.909872628169826"><ele>384.0</ele><time>2026-03-28T13:06:48Z</time></trkpt><trkpt lat="45.82519880549473" lon="8.909895658341188"><ele>383.99999999999994</ele><time>2026-03-28T13:06:49Z</time></trkpt><trkpt lat="45.82513479663153" lon="8.90992848277413"><ele>384.0</ele><time>2026-03-28T13:06:50Z</time></trkpt><trkpt lat="45.82506963741334" lon="8.90997336679603"><ele>382.8333333333333</ele><time>2026-03-28T13:06:51Z</time></trkpt><trkpt lat="45.82500206666662" lon="8.91002388254473"><ele>381.6666666666667</ele><time>2026-03-28T13:06:52Z</time></trkpt><trkpt lat="45.824935186252524" lon="8.910089407630021"><ele>380.5</ele><time>2026-03-28T13:06:53Z</time></trkpt><trkpt lat="45.82486716533055" lon="8.910145492452513"><ele>379.33333333333337</ele><time>2026-03-28T13:06:54Z</time></trkpt><trkpt lat="45.82480274601358" lon="8.91020188343805"><ele>378.1666666666667</ele><time>2026-03-28T13:06:55Z</time></trkpt><trkpt lat="45.82473290815612" lon="8.910261821154725"><ele>377.0</ele><time>2026-03-28T13:06:56Z</time></trkpt><trkpt lat="45.82465271926672" lon="8.910295906163446"><ele>379.0</ele><time>2026-03-28T13:06:57Z</time></trkpt><trkpt lat="45.824571908828105" lon="8.910343009321968"><ele>381.0</ele><time>2026-03-28T13:06:58Z</time></trkpt><trkpt lat="45.824494925039865" lon="8.910339469065452"><ele>383.0</ele><time>2026-03-28T13:06:59Z</time></trkpt><trkpt lat="45.82441897632288" lon="8.910346595755055"><ele>385.0</ele><time>2026-03-28T13:07:00Z</time></trkpt><trkpt lat="45.82434069754717" lon="8.910344224406574"><ele>386.99999999999994</ele><time>2026-03-28T13:07:01Z</time></trkpt><trkpt lat="45.824262881695724" lon="8.91035320968599"><ele>389.0</ele><time>2026-03-28T13:07:02Z</time></trkpt><trkpt lat="45.824194516681246" lon="8.910391395642877"><ele>389.0</ele><time>2026-03-28T13:07:03Z</time></trkpt><trkpt lat="45.82412417123238" lon="8.910410723709438"><ele>389.0</ele><time>2026-03-28T13:07:04Z</time></trkpt><trkpt lat="45.82405970498868" lon="8.91043637221017"><ele>389.0</ele><time>2026-03-28T13:07:05Z</time></trkpt><trkpt lat="45.82399269985293" lon="8.910464239393985"><ele>389.0</ele><time>2026-03-28T13:07:06Z</time></trkpt><trkpt lat="45.82392153655045" lon="8.91049544655623"><ele>389.0</ele><time>2026-03-28T13:07:07Z</time></trkpt><trkpt lat="45.82385447238683" lon="8.910525108252797"><ele>389.0</ele><time>2026-03-28T13:07:08Z</time></trkpt><trkpt lat="45.823786395457766" lon="8.910558479163948"><ele>389.0</ele><time>2026-03-28T13:07:09Z</time></trkpt><trkpt lat="45.82371776028394" lon="8.910595379594223"><ele>388.99999999999994</ele><time>2026-03-28T13:07:10Z</time></trkpt><trkpt lat="45.82364956444901" lon="8.910627645010127"><ele>389.0</ele><time>2026-03-28T13:07:11Z</time></trkpt><trkpt lat="45.823579762647825" lon="8.910660620736776"><ele>389.0</ele><time>2026-03-28T13:07:12Z</time></trkpt><trkpt lat="45.82351086809336" lon="8.910694109823877"><ele>389.0</ele><time>2026-03-28T13:07:13Z</time></trkpt><trkpt lat="45.82343642436186" lon="8.91073103246156"><ele>388.99999999999994</ele><time>2026-03-28T13:07:14Z</time></trkpt><trkpt lat="45.82336515909914" lon="8.91076749317742"><ele>389.0</ele><time>2026-03-28T13:07:15Z</time></trkpt><trkpt lat="45.8232912058707" lon="8.910806111950087"><ele>389.16666666666663</ele><time>2026-03-28T13:07:16Z</time></trkpt><trkpt lat="45.82321898761725" lon="8.910840728999784"><ele>389.3333333333333</ele><time>2026-03-28T13:07:17Z</time></trkpt><trkpt lat="45.82314202352831" lon="8.910875701360633"><ele>389.5</ele><time>2026-03-28T13:07:18Z</time></trkpt><trkpt lat="45.82306702368062" lon="8.910912159460265"><ele>389.66666666666663</ele><time>2026-03-28T13:07:19Z</time></trkpt><trkpt lat="45.82299245423946" lon="8.910956996040856"><ele>389.8333333333333</ele><time>2026-03-28T13:07:20Z</time></trkpt><trkpt lat="45.82291384502227" lon="8.910994483764307"><ele>390.0</ele><time>2026-03-28T13:07:21Z</time></trkpt><trkpt lat="45.82284003144453" lon="8.91103147342393"><ele>390.0</ele><time>2026-03-28T13:07:22Z</time></trkpt><trkpt lat="45.82276733177423" lon="8.911065613103235"><ele>390.0</ele><time>2026-03-28T13:07:23Z</time></trkpt><trkpt lat="45.822695730698044" lon="8.911104772019694"><ele>390.0</ele><time>2026-03-28T13:07:24Z</time></trkpt><trkpt lat="45.82262172460666" lon="8.911148935616696"><ele>390.0</ele><time>2026-03-28T13:07:25Z</time></trkpt><trkpt lat="45.82254476111839" lon="8.91119212362398"><ele>390.0</ele><time>2026-03-28T13:07:26Z</time></trkpt><trkpt lat="45.822474654077446" lon="8.911227056069233"><ele>390.0</ele><time>2026-03-28T13:07:27Z</time></trkpt><trkpt lat="45.822401126451076" lon="8.911267660316366"><ele>390.1666666666667</ele><time>2026-03-28T13:07:28Z</time></trkpt><trkpt lat="45.82232655397182" lon="8.911313842702658"><ele>390.33333333333337</ele><time>2026-03-28T13:07:29Z</time></trkpt><trkpt lat="45.82225173000122" lon="8.911349839895681"><ele>390.5</ele><time>2026-03-28T13:07:30Z</time></trkpt><trkpt lat="45.822181373841005" lon="8.911386432676021"><ele>390.6666666666667</ele><time>2026-03-28T13:07:31Z</time></trkpt><trkpt lat="45.82210636842257" lon="8.911406134461446"><ele>390.83333333333337</ele><time>2026-03-28T13:07:32Z</time></trkpt><trkpt lat="45.82202749617613" lon="8.911413372007782"><ele>391.0</ele><time>2026-03-28T13:07:33Z</time></trkpt><trkpt lat="45.82194860185148" lon="8.911412477294679"><ele>390.99999999999994</ele><time>2026-03-28T13:07:34Z</time></trkpt><trkpt lat="45.821873433403624" lon="8.911408463388689"><ele>391.0</ele><time>2026-03-28T13:07:35Z</time></trkpt><trkpt lat="45.821795775882165" lon="8.91140300087567"><ele>391.0</ele><time>2026-03-28T13:07:36Z</time></trkpt><trkpt lat="45.82172263114893" lon="8.911402723020823"><ele>391.0</ele><time>2026-03-28T13:07:37Z</time></trkpt><trkpt lat="45.82165189649403" lon="8.911415420415297"><ele>391.0</ele><time>2026-03-28T13:07:38Z</time></trkpt><trkpt lat="45.82157959766749" lon="8.911445834649072"><ele>390.99999999999994</ele><time>2026-03-28T13:07:39Z</time></trkpt><trkpt lat="45.82151198623994" lon="8.91149632473793"><ele>391.0</ele><time>2026-03-28T13:07:40Z</time></trkpt><trkpt lat="45.82145771631654" lon="8.911568025144987"><ele>391.33333333333337</ele><time>2026-03-28T13:07:41Z</time></trkpt><trkpt lat="45.821411813335594" lon="8.911658126633055"><ele>391.6666666666667</ele><time>2026-03-28T13:07:42Z</time></trkpt><trkpt lat="45.821381220597935" lon="8.91175577886544"><ele>392.0</ele><time>2026-03-28T13:07:43Z</time></trkpt><trkpt lat="45.82136960981552" lon="8.911860363567707"><ele>392.33333333333337</ele><time>2026-03-28T13:07:44Z</time></trkpt><trkpt lat="45.82137332794761" lon="8.911972036347578"><ele>392.6666666666667</ele><time>2026-03-28T13:07:45Z</time></trkpt><trkpt lat="45.821389954903594" lon="8.912081655538366"><ele>393.0</ele><time>2026-03-28T13:07:46Z</time></trkpt><trkpt lat="45.821413350353495" lon="8.912187698579054"><ele>393.0</ele><time>2026-03-28T13:07:47Z</time></trkpt><trkpt lat="45.821437277365504" lon="8.912290099766908"><ele>393.0</ele><time>2026-03-28T13:07:48Z</time></trkpt><trkpt lat="45.82146682523774" lon="8.912393829573919"><ele>393.0</ele><time>2026-03-28T13:07:49Z</time></trkpt><trkpt lat="45.82150019741943" lon="8.912495698811112"><ele>393.0</ele><time>2026-03-28T13:07:50Z</time></trkpt><trkpt lat="45.821538339709996" lon="8.91259166098016"><ele>393.0</ele><time>2026-03-28T13:07:51Z</time></trkpt><trkpt lat="45.82158358795172" lon="8.912681028988082"><ele>393.0</ele><time>2026-03-28T13:07:52Z</time></trkpt><trkpt lat="45.821637638547124" lon="8.912765808398461"><ele>393.1666666666667</ele><time>2026-03-28T13:07:53Z</time></trkpt><trkpt lat="45.821691584011276" lon="8.912850239296107"><ele>393.33333333333337</ele><time>2026-03-28T13:07:54Z</time></trkpt><trkpt lat="45.821746258799266" lon="8.912937848805004"><ele>393.5</ele><time>2026-03-28T13:07:55Z</time></trkpt><trkpt lat="45.8218054991699" lon="8.913036344330225"><ele>393.6666666666667</ele><time>2026-03-28T13:07:56Z</time></trkpt><trkpt lat="45.82185777207782" lon="8.91312683266007"><ele>393.83333333333337</ele><time>2026-03-28T13:07:57Z</time></trkpt><trkpt lat="45.82188415868925" lon="8.913241519729173"><ele>394.0</ele><time>2026-03-28T13:07:58Z</time></trkpt><trkpt lat="45.82190414225385" lon="8.913376320177234"><ele>394.50000000000006</ele><time>2026-03-28T13:07:59Z</time></trkpt><trkpt lat="45.82190194201297" lon="8.913505852748836"><ele>395.0</ele><time>2026-03-28T13:08:00Z</time></trkpt><trkpt lat="45.821932686259316" lon="8.913603476266086"><ele>395.5</ele><time>2026-03-28T13:08:01Z</time></trkpt><trkpt lat="45.821940118394636" lon="8.913705482824753"><ele>396.0</ele><time>2026-03-28T13:08:02Z</time></trkpt><trkpt lat="45.82194727512296" lon="8.913810144306375"><ele>396.50000000000006</ele><time>2026-03-28T13:08:03Z</time></trkpt><trkpt lat="45.82196369970792" lon="8.913906728399917"><ele>397.0</ele><time>2026-03-28T13:08:04Z</time></trkpt><trkpt lat="45.82198631492392" lon="8.914003028654252"><ele>397.0</ele><time>2026-03-28T13:08:05Z</time></trkpt><trkpt lat="45.82202344432944" lon="8.914087304798109"><ele>397.0</ele><time>2026-03-28T13:08:06Z</time></trkpt><trkpt lat="45.8220649374044" lon="8.914176667579865"><ele>397.0</ele><time>2026-03-28T13:08:07Z</time></trkpt><trkpt lat="45.82209651330164" lon="8.914271865438312"><ele>397.0</ele><time>2026-03-28T13:08:08Z</time></trkpt><trkpt lat="45.82212139387576" lon="8.914366325434763"><ele>397.0</ele><time>2026-03-28T13:08:09Z</time></trkpt><trkpt lat="45.82214479673555" lon="8.914461753412539"><ele>397.0</ele><time>2026-03-28T13:08:10Z</time></trkpt><trkpt lat="45.82216681711181" lon="8.914553703209988"><ele>397.0</ele><time>2026-03-28T13:08:11Z</time></trkpt><trkpt lat="45.822184978491435" lon="8.914653591997707"><ele>396.50000000000006</ele><time>2026-03-28T13:08:12Z</time></trkpt><trkpt lat="45.82221008757799" lon="8.914750059112174"><ele>396.0</ele><time>2026-03-28T13:08:13Z</time></trkpt><trkpt lat="45.82223429982255" lon="8.914850974480492"><ele>395.5</ele><time>2026-03-28T13:08:14Z</time></trkpt><trkpt lat="45.822262391534764" lon="8.914956187906466"><ele>395.0</ele><time>2026-03-28T13:08:15Z</time></trkpt><trkpt lat="45.822285628917726" lon="8.91505568490856"><ele>394.50000000000006</ele><time>2026-03-28T13:08:16Z</time></trkpt><trkpt lat="45.82231258708634" lon="8.915160894264249"><ele>394.0</ele><time>2026-03-28T13:08:17Z</time></trkpt><trkpt lat="45.822334957075476" lon="8.915264291547587"><ele>393.50000000000006</ele><time>2026-03-28T13:08:18Z</time></trkpt><trkpt lat="45.82236453300233" lon="8.915373352078221"><ele>393.0</ele><time>2026-03-28T13:08:19Z</time></trkpt><trkpt lat="45.82239054537753" lon="8.915488199261592"><ele>392.5</ele><time>2026-03-28T13:08:20Z</time></trkpt><trkpt lat="45.82242252890335" lon="8.915587931985872"><ele>392.0</ele><time>2026-03-28T13:08:21Z</time></trkpt><trkpt lat="45.82245799914192" lon="8.915704869923376"><ele>391.50000000000006</ele><time>2026-03-28T13:08:22Z</time></trkpt><trkpt lat="45.82248893900779" lon="8.915818791803572"><ele>391.0</ele><time>2026-03-28T13:08:23Z</time></trkpt><trkpt lat="45.82251967823613" lon="8.915939437441535"><ele>389.0</ele><time>2026-03-28T13:08:24Z</time></trkpt><trkpt lat="45.822550395768964" lon="8.916061969958934"><ele>387.0</ele><time>2026-03-28T13:08:25Z</time></trkpt><trkpt lat="45.8225786936327" lon="8.916186693303933"><ele>385.0</ele><time>2026-03-28T13:08:26Z</time></trkpt><trkpt lat="45.82259717475251" lon="8.91631321812384"><ele>383.0</ele><time>2026-03-28T13:08:27Z</time></trkpt><trkpt lat="45.82260747665085" lon="8.91645353077949"><ele>381.0</ele><time>2026-03-28T13:08:28Z</time></trkpt><trkpt lat="45.82261522860258" lon="8.916587941943256"><ele>381.0</ele><time>2026-03-28T13:08:29Z</time></trkpt><trkpt lat="45.822627957983855" lon="8.916723233785603"><ele>381.0</ele><time>2026-03-28T13:08:30Z</time></trkpt><trkpt lat="45.82264032562188" lon="8.916850209965718"><ele>381.0</ele><time>2026-03-28T13:08:31Z</time></trkpt><trkpt lat="45.822652883037215" lon="8.916993874370402"><ele>381.0</ele><time>2026-03-28T13:08:32Z</time></trkpt><trkpt lat="45.8226704174286" lon="8.91712891152605"><ele>381.0</ele><time>2026-03-28T13:08:33Z</time></trkpt><trkpt lat="45.82269486890472" lon="8.917264763010746"><ele>383.4</ele><time>2026-03-28T13:08:34Z</time></trkpt><trkpt lat="45.822723910366335" lon="8.91740226658529"><ele>385.8</ele><time>2026-03-28T13:08:35Z</time></trkpt><trkpt lat="45.82275099288849" lon="8.91754288375543"><ele>388.2</ele><time>2026-03-28T13:08:36Z</time></trkpt><trkpt lat="45.8227750468177" lon="8.917688386123492"><ele>390.59999999999997</ele><time>2026-03-28T13:08:37Z</time></trkpt><trkpt lat="45.8227971124153" lon="8.917822642439427"><ele>393.0</ele><time>2026-03-28T13:08:38Z</time></trkpt><trkpt lat="45.82281902393894" lon="8.917960892738764"><ele>393.0</ele><time>2026-03-28T13:08:39Z</time></trkpt><trkpt lat="45.82284308715006" lon="8.9181021666738"><ele>393.0</ele><time>2026-03-28T13:08:40Z</time></trkpt><trkpt lat="45.822865337162106" lon="8.918245064124205"><ele>393.0</ele><time>2026-03-28T13:08:41Z</time></trkpt><trkpt lat="45.82288805000098" lon="8.918386990533433"><ele>393.0</ele><time>2026-03-28T13:08:42Z</time></trkpt><trkpt lat="45.82290899106203" lon="8.91853296557705"><ele>393.0</ele><time>2026-03-28T13:08:43Z</time></trkpt><trkpt lat="45.8229258349526" lon="8.918680884987985"><ele>393.0</ele><time>2026-03-28T13:08:44Z</time></trkpt><trkpt lat="45.822927138511595" lon="8.918830585583958"><ele>393.0</ele><time>2026-03-28T13:08:45Z</time></trkpt><trkpt lat="45.82290272417558" lon="8.918979970738967"><ele>393.0</ele><time>2026-03-28T13:08:46Z</time></trkpt><trkpt lat="45.82286237769554" lon="8.919118669923707"><ele>393.0</ele><time>2026-03-28T13:08:47Z</time></trkpt><trkpt lat="45.822794953490565" lon="8.919238380125973"><ele>393.0</ele><time>2026-03-28T13:08:48Z</time></trkpt><trkpt lat="45.82271441103483" lon="8.91933927719373"><ele>390.0</ele><time>2026-03-28T13:08:49Z</time></trkpt><trkpt lat="45.822632390049456" lon="8.919428870233418"><ele>387.0</ele><time>2026-03-28T13:08:50Z</time></trkpt><trkpt lat="45.82255332892698" lon="8.919516472459128"><ele>384.0</ele><time>2026-03-28T13:08:51Z</time></trkpt><trkpt lat="45.82247961981693" lon="8.919600873930115"><ele>381.0</ele><time>2026-03-28T13:08:52Z</time></trkpt><trkpt lat="45.82240940290739" lon="8.91968404871374"><ele>378.0</ele><time>2026-03-28T13:08:53Z</time></trkpt><trkpt lat="45.8223397167839" lon="8.919766428998777"><ele>378.0</ele><time>2026-03-28T13:08:54Z</time></trkpt><trkpt lat="45.8222768710445" lon="8.919840464864398"><ele>378.0</ele><time>2026-03-28T13:08:55Z</time></trkpt><trkpt lat="45.82221114695909" lon="8.919918874562901"><ele>378.0</ele><time>2026-03-28T13:08:56Z</time></trkpt><trkpt lat="45.822150651174255" lon="8.91999030710928"><ele>378.0</ele><time>2026-03-28T13:08:57Z</time></trkpt><trkpt lat="45.8220944363256" lon="8.920064163782715"><ele>378.0</ele><time>2026-03-28T13:08:58Z</time></trkpt><trkpt lat="45.82203731540458" lon="8.920130934469023"><ele>378.0</ele><time>2026-03-28T13:08:59Z</time></trkpt><trkpt lat="45.821981677688754" lon="8.920194408116535"><ele>378.7142857142857</ele><time>2026-03-28T13:09:00Z</time></trkpt><trkpt lat="45.82192342363697" lon="8.920261301764459"><ele>379.42857142857144</ele><time>2026-03-28T13:09:01Z</time></trkpt><trkpt lat="45.82186791700271" lon="8.920326045853352"><ele>380.1428571428571</ele><time>2026-03-28T13:09:02Z</time></trkpt><trkpt lat="45.821813851886354" lon="8.920392065034363"><ele>380.8571428571429</ele><time>2026-03-28T13:09:03Z</time></trkpt><trkpt lat="45.821759657704746" lon="8.92045845294761"><ele>381.57142857142856</ele><time>2026-03-28T13:09:04Z</time></trkpt><trkpt lat="45.821708203236135" lon="8.920525684563383"><ele>382.2857142857143</ele><time>2026-03-28T13:09:05Z</time></trkpt><trkpt lat="45.821657200615874" lon="8.920599724281622"><ele>383.0</ele><time>2026-03-28T13:09:06Z</time></trkpt><trkpt lat="45.82161652679961" lon="8.920684335535103"><ele>380.0</ele><time>2026-03-28T13:09:07Z</time></trkpt><trkpt lat="45.82158882077611" lon="8.920776396864063"><ele>377.0</ele><time>2026-03-28T13:09:08Z</time></trkpt><trkpt lat="45.82157036387399" lon="8.920869768849109"><ele>374.0</ele><time>2026-03-28T13:09:09Z</time></trkpt><trkpt lat="45.821557283540045" lon="8.92096368925474"><ele>371.0</ele><time>2026-03-28T13:09:10Z</time></trkpt><trkpt lat="45.82155047889512" lon="8.921062953779694"><ele>368.0</ele><time>2026-03-28T13:09:11Z</time></trkpt><trkpt lat="45.82154865428191" lon="8.921162130220766"><ele>365.0</ele><time>2026-03-28T13:09:12Z</time></trkpt><trkpt lat="45.82155322367873" lon="8.921254447235093"><ele>362.0</ele><time>2026-03-28T13:09:13Z</time></trkpt><trkpt lat="45.82155860071268" lon="8.92135267026793"><ele>362.0</ele><time>2026-03-28T13:09:14Z</time></trkpt><trkpt lat="45.821568724995196" lon="8.921447401007097"><ele>362.0</ele><time>2026-03-28T13:09:15Z</time></trkpt><trkpt lat="45.82159124267315" lon="8.921627244861691"><ele>362.0</ele><time>2026-03-28T13:09:17Z</time></trkpt><trkpt lat="45.82160619150808" lon="8.921717574215862"><ele>362.0</ele><time>2026-03-28T13:09:18Z</time></trkpt><trkpt lat="45.821616533780954" lon="8.921808302060633"><ele>362.0</ele><time>2026-03-28T13:09:19Z</time></trkpt><trkpt lat="45.82163194124698" lon="8.921897231247035"><ele>362.0</ele><time>2026-03-28T13:09:20Z</time></trkpt><trkpt lat="45.82164465288548" lon="8.921986369266826"><ele>361.83333333333337</ele><time>2026-03-28T13:09:21Z</time></trkpt><trkpt lat="45.82165869097905" lon="8.922077099657866"><ele>361.6666666666667</ele><time>2026-03-28T13:09:22Z</time></trkpt><trkpt lat="45.821681215327374" lon="8.92225475862132"><ele>361.5</ele><time>2026-03-28T13:09:24Z</time></trkpt><trkpt lat="45.821692832736275" lon="8.922348316317446"><ele>361.3333333333333</ele><time>2026-03-28T13:09:25Z</time></trkpt><trkpt lat="45.82171829477705" lon="8.922524464054865"><ele>361.16666666666663</ele><time>2026-03-28T13:09:27Z</time></trkpt><trkpt lat="45.82173105898054" lon="8.922616277261543"><ele>361.0</ele><time>2026-03-28T13:09:28Z</time></trkpt><trkpt lat="45.82173847365317" lon="8.922712277749255"><ele>360.5714285714286</ele><time>2026-03-28T13:09:29Z</time></trkpt><trkpt lat="45.821750741955924" lon="8.92280696421143"><ele>360.1428571428571</ele><time>2026-03-28T13:09:30Z</time></trkpt><trkpt lat="45.82176790516166" lon="8.922906994099167"><ele>359.7142857142857</ele><time>2026-03-28T13:09:31Z</time></trkpt><trkpt lat="45.82178972092755" lon="8.923004388540983"><ele>359.28571428571433</ele><time>2026-03-28T13:09:32Z</time></trkpt><trkpt lat="45.82180405036135" lon="8.923112214370887"><ele>358.8571428571429</ele><time>2026-03-28T13:09:33Z</time></trkpt><trkpt lat="45.82181606940358" lon="8.923208998359295"><ele>358.42857142857144</ele><time>2026-03-28T13:09:34Z</time></trkpt><trkpt lat="45.82183427954981" lon="8.923318729844151"><ele>358.0</ele><time>2026-03-28T13:09:35Z</time></trkpt><trkpt lat="45.82185354870088" lon="8.923426910913024"><ele>359.16666666666663</ele><time>2026-03-28T13:09:36Z</time></trkpt><trkpt lat="45.821864637186415" lon="8.923532200465697"><ele>360.3333333333333</ele><time>2026-03-28T13:09:37Z</time></trkpt><trkpt lat="45.82186659537194" lon="8.923643568627693"><ele>361.5</ele><time>2026-03-28T13:09:38Z</time></trkpt><trkpt lat="45.821871207641124" lon="8.923765752210995"><ele>362.6666666666667</ele><time>2026-03-28T13:09:39Z</time></trkpt><trkpt lat="45.821869743922015" lon="8.923884547297355"><ele>363.83333333333337</ele><time>2026-03-28T13:09:40Z</time></trkpt><trkpt lat="45.821859832198484" lon="8.924000194005513"><ele>365.0</ele><time>2026-03-28T13:09:41Z</time></trkpt><trkpt lat="45.82185544973637" lon="8.924115954446648"><ele>363.5</ele><time>2026-03-28T13:09:42Z</time></trkpt><trkpt lat="45.82180766206368" lon="8.924226648316125"><ele>362.0</ele><time>2026-03-28T13:09:43Z</time></trkpt><trkpt lat="45.82177859525054" lon="8.924336209522364"><ele>360.5</ele><time>2026-03-28T13:09:44Z</time></trkpt><trkpt lat="45.82175406622179" lon="8.924442258586868"><ele>359.0</ele><time>2026-03-28T13:09:45Z</time></trkpt><trkpt lat="45.821729812257416" lon="8.924549877690847"><ele>357.5</ele><time>2026-03-28T13:09:46Z</time></trkpt><trkpt lat="45.82170437802972" lon="8.924667391703201"><ele>356.0</ele><time>2026-03-28T13:09:47Z</time></trkpt><trkpt lat="45.82167918328551" lon="8.924778062753658"><ele>356.0</ele><time>2026-03-28T13:09:48Z</time></trkpt><trkpt lat="45.821653771185474" lon="8.924892461658581"><ele>356.0</ele><time>2026-03-28T13:09:49Z</time></trkpt><trkpt lat="45.821630539613786" lon="8.925002371503336"><ele>356.0</ele><time>2026-03-28T13:09:50Z</time></trkpt><trkpt lat="45.821606039460185" lon="8.925118742055718"><ele>356.0</ele><time>2026-03-28T13:09:51Z</time></trkpt><trkpt lat="45.821579736304194" lon="8.925239753774406"><ele>356.0</ele><time>2026-03-28T13:09:52Z</time></trkpt><trkpt lat="45.82155318302313" lon="8.925358834587367"><ele>356.0</ele><time>2026-03-28T13:09:53Z</time></trkpt><trkpt lat="45.821533261185444" lon="8.925476553102836"><ele>355.20000000000005</ele><time>2026-03-28T13:09:54Z</time></trkpt><trkpt lat="45.82151098075115" lon="8.92560772532643"><ele>354.40000000000003</ele><time>2026-03-28T13:09:55Z</time></trkpt><trkpt lat="45.821497393852255" lon="8.925735573640143"><ele>353.6</ele><time>2026-03-28T13:09:56Z</time></trkpt><trkpt lat="45.82149735847111" lon="8.925869581402276"><ele>352.8</ele><time>2026-03-28T13:09:57Z</time></trkpt><trkpt lat="45.821510763222555" lon="8.926007717398903"><ele>352.0</ele><time>2026-03-28T13:09:58Z</time></trkpt><trkpt lat="45.82154480057458" lon="8.926133396719132"><ele>352.6</ele><time>2026-03-28T13:09:59Z</time></trkpt><trkpt lat="45.821593627130355" lon="8.92625546692121"><ele>353.20000000000005</ele><time>2026-03-28T13:10:00Z</time></trkpt><trkpt lat="45.821645248004685" lon="8.92636726281755"><ele>353.8</ele><time>2026-03-28T13:10:01Z</time></trkpt><trkpt lat="45.821700923623126" lon="8.926477698181358"><ele>354.4</ele><time>2026-03-28T13:10:02Z</time></trkpt><trkpt lat="45.82176648081685" lon="8.926575631058904"><ele>355.0</ele><time>2026-03-28T13:10:03Z</time></trkpt><trkpt lat="45.821832875323075" lon="8.926680540694134"><ele>352.4</ele><time>2026-03-28T13:10:04Z</time></trkpt><trkpt lat="45.82190440168223" lon="8.926781426961222"><ele>349.8</ele><time>2026-03-28T13:10:05Z</time></trkpt><trkpt lat="45.821974868845246" lon="8.926878405806512"><ele>347.20000000000005</ele><time>2026-03-28T13:10:06Z</time></trkpt><trkpt lat="45.82204426454852" lon="8.926975437481186"><ele>344.6</ele><time>2026-03-28T13:10:07Z</time></trkpt><trkpt lat="45.8221153478273" lon="8.927068927238018"><ele>342.0</ele><time>2026-03-28T13:10:08Z</time></trkpt><trkpt lat="45.822185689152775" lon="8.927161773683988"><ele>342.0</ele><time>2026-03-28T13:10:09Z</time></trkpt><trkpt lat="45.8222579925795" lon="8.927254646777858"><ele>342.0</ele><time>2026-03-28T13:10:10Z</time></trkpt><trkpt lat="45.82232718212356" lon="8.927355039578918"><ele>342.0</ele><time>2026-03-28T13:10:11Z</time></trkpt><trkpt lat="45.82238109881747" lon="8.927470219321537"><ele>342.0</ele><time>2026-03-28T13:10:12Z</time></trkpt><trkpt lat="45.82241169953244" lon="8.927607358031983"><ele>342.0</ele><time>2026-03-28T13:10:13Z</time></trkpt><trkpt lat="45.822418943545024" lon="8.92774747895188"><ele>341.6666666666667</ele><time>2026-03-28T13:10:14Z</time></trkpt><trkpt lat="45.8224104813327" lon="8.927878328181281"><ele>341.3333333333333</ele><time>2026-03-28T13:10:15Z</time></trkpt><trkpt lat="45.822379622519314" lon="8.927997920678287"><ele>341.0</ele><time>2026-03-28T13:10:16Z</time></trkpt><trkpt lat="45.82233527584398" lon="8.928100337678055"><ele>340.66666666666663</ele><time>2026-03-28T13:10:17Z</time></trkpt><trkpt lat="45.82227894246877" lon="8.92819054404422"><ele>340.3333333333333</ele><time>2026-03-28T13:10:18Z</time></trkpt><trkpt lat="45.82221950392343" lon="8.928255518389042"><ele>340.0</ele><time>2026-03-28T13:10:19Z</time></trkpt><trkpt lat="45.822159948973066" lon="8.928313068990105"><ele>340.0</ele><time>2026-03-28T13:10:20Z</time></trkpt><trkpt lat="45.8221004485216" lon="8.928367419747955"><ele>340.0</ele><time>2026-03-28T13:10:21Z</time></trkpt><trkpt lat="45.82203977794189" lon="8.928426847613894"><ele>340.0</ele><time>2026-03-28T13:10:22Z</time></trkpt><trkpt lat="45.82198025952318" lon="8.928476966145759"><ele>340.0</ele><time>2026-03-28T13:10:23Z</time></trkpt><trkpt lat="45.821917463535776" lon="8.92852890263544"><ele>340.0</ele><time>2026-03-28T13:10:24Z</time></trkpt><trkpt lat="45.8218614180608" lon="8.928583300473685"><ele>340.0</ele><time>2026-03-28T13:10:25Z</time></trkpt><trkpt lat="45.821803796163756" lon="8.9286383954265"><ele>340.0</ele><time>2026-03-28T13:10:26Z</time></trkpt><trkpt lat="45.82174579428048" lon="8.928687907098317"><ele>339.7142857142857</ele><time>2026-03-28T13:10:27Z</time></trkpt><trkpt lat="45.82168686796291" lon="8.92873895735542"><ele>339.4285714285714</ele><time>2026-03-28T13:10:28Z</time></trkpt><trkpt lat="45.82163423821522" lon="8.92878985179897"><ele>339.1428571428571</ele><time>2026-03-28T13:10:29Z</time></trkpt><trkpt lat="45.82157513453738" lon="8.928838881707394"><ele>338.8571428571429</ele><time>2026-03-28T13:10:30Z</time></trkpt><trkpt lat="45.82152069536952" lon="8.92888484985046"><ele>338.57142857142856</ele><time>2026-03-28T13:10:31Z</time></trkpt><trkpt lat="45.82146673706817" lon="8.92893151341171"><ele>338.2857142857143</ele><time>2026-03-28T13:10:32Z</time></trkpt><trkpt lat="45.82141435872338" lon="8.92898430381262"><ele>338.0</ele><time>2026-03-28T13:10:33Z</time></trkpt><trkpt lat="45.82132210588187" lon="8.929092757296774"><ele>338.0</ele><time>2026-03-28T13:10:35Z</time></trkpt><trkpt lat="45.82125655348778" lon="8.929236335819484"><ele>338.0</ele><time>2026-03-28T13:10:37Z</time></trkpt><trkpt lat="45.821220661764244" lon="8.929399767212017"><ele>338.0</ele><time>2026-03-28T13:10:39Z</time></trkpt><trkpt lat="45.82120581418158" lon="8.929539684528557"><ele>338.0</ele><time>2026-03-28T13:10:41Z</time></trkpt><trkpt lat="45.82119247607922" lon="8.929684164938596"><ele>338.0</ele><time>2026-03-28T13:10:43Z</time></trkpt><trkpt lat="45.82118980297852" lon="8.929834896818909"><ele>338.0</ele><time>2026-03-28T13:10:45Z</time></trkpt><trkpt lat="45.82118443421688" lon="8.929992518423962"><ele>338.0</ele><time>2026-03-28T13:10:47Z</time></trkpt><trkpt lat="45.82117105888289" lon="8.930155416984855"><ele>338.0</ele><time>2026-03-28T13:10:49Z</time></trkpt><trkpt lat="45.82116371568856" lon="8.930329252395499"><ele>338.0</ele><time>2026-03-28T13:10:51Z</time></trkpt><trkpt lat="45.82116136184916" lon="8.930427673409579"><ele>338.0</ele><time>2026-03-28T13:10:52Z</time></trkpt><trkpt lat="45.82116000032728" lon="8.930521521094642"><ele>338.2</ele><time>2026-03-28T13:10:53Z</time></trkpt><trkpt lat="45.82114320324031" lon="8.930617663388977"><ele>338.4</ele><time>2026-03-28T13:10:54Z</time></trkpt><trkpt lat="45.821133889547966" lon="8.93079820447903"><ele>338.59999999999997</ele><time>2026-03-28T13:10:56Z</time></trkpt><trkpt lat="45.82112321298771" lon="8.930950054487345"><ele>338.79999999999995</ele><time>2026-03-28T13:10:58Z</time></trkpt><trkpt lat="45.82111819891189" lon="8.93111056481853"><ele>339.0</ele><time>2026-03-28T13:11:00Z</time></trkpt><trkpt lat="45.82111904427132" lon="8.931268309576057"><ele>339.5</ele><time>2026-03-28T13:11:02Z</time></trkpt><trkpt lat="45.82113357357201" lon="8.931429432447235"><ele>340.0</ele><time>2026-03-28T13:11:04Z</time></trkpt><trkpt lat="45.82116689525871" lon="8.931594422987965"><ele>340.5</ele><time>2026-03-28T13:11:06Z</time></trkpt><trkpt lat="45.82118878793454" lon="8.931681257811347"><ele>341.0</ele><time>2026-03-28T13:11:07Z</time></trkpt><trkpt lat="45.82121651652975" lon="8.931764373061053"><ele>341.5</ele><time>2026-03-28T13:11:08Z</time></trkpt><trkpt lat="45.82124881872782" lon="8.931842011342153"><ele>342.0</ele><time>2026-03-28T13:11:09Z</time></trkpt><trkpt lat="45.821288827549026" lon="8.931915546600615"><ele>344.71428571428567</ele><time>2026-03-28T13:11:10Z</time></trkpt><trkpt lat="45.821338659044464" lon="8.931982806497397"><ele>347.42857142857144</ele><time>2026-03-28T13:11:11Z</time></trkpt><trkpt lat="45.82138896430181" lon="8.932049698456039"><ele>350.1428571428571</ele><time>2026-03-28T13:11:12Z</time></trkpt><trkpt lat="45.821446810246194" lon="8.932113331842302"><ele>352.85714285714283</ele><time>2026-03-28T13:11:13Z</time></trkpt><trkpt lat="45.82150841852895" lon="8.932169665110615"><ele>355.57142857142856</ele><time>2026-03-28T13:11:14Z</time></trkpt><trkpt lat="45.82157966492194" lon="8.932204297011127"><ele>358.2857142857143</ele><time>2026-03-28T13:11:15Z</time></trkpt><trkpt lat="45.821651634375826" lon="8.932236605562807"><ele>361.0</ele><time>2026-03-28T13:11:16Z</time></trkpt><trkpt lat="45.821726043395394" lon="8.932267831506818"><ele>361.0</ele><time>2026-03-28T13:11:17Z</time></trkpt><trkpt lat="45.82180082186045" lon="8.932292686399359"><ele>361.0</ele><time>2026-03-28T13:11:18Z</time></trkpt><trkpt lat="45.82187918806625" lon="8.93231174826063"><ele>361.0</ele><time>2026-03-28T13:11:19Z</time></trkpt><trkpt lat="45.82195892861568" lon="8.932333146325073"><ele>361.0</ele><time>2026-03-28T13:11:20Z</time></trkpt><trkpt lat="45.822030755573145" lon="8.932359434811163"><ele>361.0</ele><time>2026-03-28T13:11:21Z</time></trkpt><trkpt lat="45.82211283578449" lon="8.932379971319223"><ele>361.0</ele><time>2026-03-28T13:11:22Z</time></trkpt><trkpt lat="45.822195862099484" lon="8.93239621954037"><ele>361.0</ele><time>2026-03-28T13:11:23Z</time></trkpt><trkpt lat="45.82227667352381" lon="8.932412276555082"><ele>361.0</ele><time>2026-03-28T13:11:24Z</time></trkpt><trkpt lat="45.82236598872641" lon="8.932425711697446"><ele>361.0</ele><time>2026-03-28T13:11:25Z</time></trkpt><trkpt lat="45.82245087317336" lon="8.93244173992931"><ele>361.0</ele><time>2026-03-28T13:11:26Z</time></trkpt><trkpt lat="45.82253647323036" lon="8.932462322856551"><ele>361.0</ele><time>2026-03-28T13:11:27Z</time></trkpt><trkpt lat="45.82263397546384" lon="8.932485440961834"><ele>361.0</ele><time>2026-03-28T13:11:28Z</time></trkpt><trkpt lat="45.822728505546394" lon="8.932504139151252"><ele>361.0</ele><time>2026-03-28T13:11:29Z</time></trkpt><trkpt lat="45.82282688458182" lon="8.932515765080582"><ele>361.0</ele><time>2026-03-28T13:11:30Z</time></trkpt><trkpt lat="45.82292523175086" lon="8.932535124689306"><ele>361.0</ele><time>2026-03-28T13:11:31Z</time></trkpt><trkpt lat="45.82302977058185" lon="8.932550157811141"><ele>361.0</ele><time>2026-03-28T13:11:32Z</time></trkpt><trkpt lat="45.82313191362518" lon="8.932565641181519"><ele>361.0</ele><time>2026-03-28T13:11:33Z</time></trkpt><trkpt lat="45.82323597788736" lon="8.932576172076814"><ele>364.4</ele><time>2026-03-28T13:11:34Z</time></trkpt><trkpt lat="45.82334128597448" lon="8.932579966728543"><ele>367.8</ele><time>2026-03-28T13:11:35Z</time></trkpt><trkpt lat="45.82344743134368" lon="8.93258529768775"><ele>371.2</ele><time>2026-03-28T13:11:36Z</time></trkpt><trkpt lat="45.82355497086431" lon="8.932590543367708"><ele>374.59999999999997</ele><time>2026-03-28T13:11:37Z</time></trkpt><trkpt lat="45.8236599289981" lon="8.932596924541784"><ele>378.0</ele><time>2026-03-28T13:11:38Z</time></trkpt><trkpt lat="45.823766559545916" lon="8.932604566034815"><ele>379.2</ele><time>2026-03-28T13:11:39Z</time></trkpt><trkpt lat="45.823866924887646" lon="8.932610598101563"><ele>380.4</ele><time>2026-03-28T13:11:40Z</time></trkpt><trkpt lat="45.8239597847173" lon="8.932615532802023"><ele>381.59999999999997</ele><time>2026-03-28T13:11:41Z</time></trkpt><trkpt lat="45.82405832532879" lon="8.93262119925344"><ele>382.79999999999995</ele><time>2026-03-28T13:11:42Z</time></trkpt><trkpt lat="45.82416043136604" lon="8.932625636027565"><ele>384.0</ele><time>2026-03-28T13:11:43Z</time></trkpt><trkpt lat="45.82425894085175" lon="8.932626010944785"><ele>385.79999999999995</ele><time>2026-03-28T13:11:44Z</time></trkpt><trkpt lat="45.824360617656446" lon="8.932631551760917"><ele>387.59999999999997</ele><time>2026-03-28T13:11:45Z</time></trkpt><trkpt lat="45.82446477629277" lon="8.932635626883718"><ele>389.4</ele><time>2026-03-28T13:11:46Z</time></trkpt><trkpt lat="45.824564563126515" lon="8.932639133014556"><ele>391.2</ele><time>2026-03-28T13:11:47Z</time></trkpt><trkpt lat="45.824665339415894" lon="8.932644898094772"><ele>393.0</ele><time>2026-03-28T13:11:48Z</time></trkpt><trkpt lat="45.82476574149149" lon="8.932651890409227"><ele>393.0</ele><time>2026-03-28T13:11:49Z</time></trkpt><trkpt lat="45.82486162254004" lon="8.932655562148184"><ele>393.0</ele><time>2026-03-28T13:11:50Z</time></trkpt><trkpt lat="45.82495891774113" lon="8.93265937850568"><ele>393.0</ele><time>2026-03-28T13:11:51Z</time></trkpt><trkpt lat="45.825055016592316" lon="8.932664920321082"><ele>393.0</ele><time>2026-03-28T13:11:52Z</time></trkpt><trkpt lat="45.825154381554015" lon="8.932668176827356"><ele>393.0</ele><time>2026-03-28T13:11:53Z</time></trkpt><trkpt lat="45.82525204431875" lon="8.932669033072244"><ele>393.79999999999995</ele><time>2026-03-28T13:11:54Z</time></trkpt><trkpt lat="45.82534728350559" lon="8.932668049118037"><ele>394.6</ele><time>2026-03-28T13:11:55Z</time></trkpt><trkpt lat="45.82544166800986" lon="8.932672671273204"><ele>395.4</ele><time>2026-03-28T13:11:56Z</time></trkpt><trkpt lat="45.82553560948381" lon="8.932679959637927"><ele>396.20000000000005</ele><time>2026-03-28T13:11:57Z</time></trkpt><trkpt lat="45.8256269971195" lon="8.932688439613912"><ele>397.0</ele><time>2026-03-28T13:11:58Z</time></trkpt><trkpt lat="45.82572090749807" lon="8.932693579523248"><ele>397.0</ele><time>2026-03-28T13:11:59Z</time></trkpt><trkpt lat="45.82581726809419" lon="8.932694429641911"><ele>397.0</ele><time>2026-03-28T13:12:00Z</time></trkpt><trkpt lat="45.825912362895785" lon="8.93270055890684"><ele>397.0</ele><time>2026-03-28T13:12:01Z</time></trkpt><trkpt lat="45.826004112410224" lon="8.93270738178482"><ele>397.0</ele><time>2026-03-28T13:12:02Z</time></trkpt><trkpt lat="45.826096259455596" lon="8.932724611623412"><ele>397.0</ele><time>2026-03-28T13:12:03Z</time></trkpt><trkpt lat="45.82618842548187" lon="8.93277163134716"><ele>397.8</ele><time>2026-03-28T13:12:04Z</time></trkpt><trkpt lat="45.82627089861235" lon="8.932836509107053"><ele>398.6</ele><time>2026-03-28T13:12:05Z</time></trkpt><trkpt lat="45.82634378997624" lon="8.932914244366831"><ele>399.40000000000003</ele><time>2026-03-28T13:12:06Z</time></trkpt><trkpt lat="45.82642312463887" lon="8.932998106047323"><ele>400.20000000000005</ele><time>2026-03-28T13:12:07Z</time></trkpt><trkpt lat="45.82649714170351" lon="8.933088099470929"><ele>401.0</ele><time>2026-03-28T13:12:08Z</time></trkpt><trkpt lat="45.82657714995746" lon="8.933152721657791"><ele>401.0</ele><time>2026-03-28T13:12:09Z</time></trkpt><trkpt lat="45.82664456145735" lon="8.93325558430984"><ele>401.0</ele><time>2026-03-28T13:12:10Z</time></trkpt><trkpt lat="45.82668289633242" lon="8.933403043784105"><ele>401.0</ele><time>2026-03-28T13:12:11Z</time></trkpt><trkpt lat="45.8266205484228" lon="8.933557893902945"><ele>401.0</ele><time>2026-03-28T13:12:13Z</time></trkpt><trkpt lat="45.82652297904357" lon="8.933643202234055"><ele>401.0</ele><time>2026-03-28T13:12:15Z</time></trkpt><trkpt lat="45.82644538033876" lon="8.933721749082068"><ele>401.6</ele><time>2026-03-28T13:12:17Z</time></trkpt><trkpt lat="45.826366705471635" lon="8.933768991691721"><ele>402.20000000000005</ele><time>2026-03-28T13:12:19Z</time></trkpt><trkpt lat="45.82627165767417" lon="8.933821627047022"><ele>402.79999999999995</ele><time>2026-03-28T13:12:21Z</time></trkpt><trkpt lat="45.82616575863835" lon="8.933889096211683"><ele>403.4</ele><time>2026-03-28T13:12:23Z</time></trkpt><trkpt lat="45.826063318157864" lon="8.933957000695223"><ele>404.0</ele><time>2026-03-28T13:12:25Z</time></trkpt><trkpt lat="45.82595785874591" lon="8.93402980808049"><ele>404.0</ele><time>2026-03-28T13:12:27Z</time></trkpt><trkpt lat="45.825898818673586" lon="8.934070328667959"><ele>404.0</ele><time>2026-03-28T13:12:28Z</time></trkpt><trkpt lat="45.82585059241135" lon="8.934137568613563"><ele>404.0</ele><time>2026-03-28T13:12:29Z</time></trkpt><trkpt lat="45.825812764161896" lon="8.934211028738497"><ele>404.0</ele><time>2026-03-28T13:12:30Z</time></trkpt><trkpt lat="45.825774793436324" lon="8.934302690866286"><ele>404.0</ele><time>2026-03-28T13:12:31Z</time></trkpt><trkpt lat="45.82575315274176" lon="8.93440137291455"><ele>404.0</ele><time>2026-03-28T13:12:32Z</time></trkpt><trkpt lat="45.825734442561696" lon="8.934494029841904"><ele>404.0</ele><time>2026-03-28T13:12:33Z</time></trkpt><trkpt lat="45.8257183298844" lon="8.93458812696408"><ele>404.66666666666663</ele><time>2026-03-28T13:12:34Z</time></trkpt><trkpt lat="45.82569148977672" lon="8.934691029807468"><ele>405.3333333333333</ele><time>2026-03-28T13:12:35Z</time></trkpt><trkpt lat="45.82569010119707" lon="8.934793695057255"><ele>406.0</ele><time>2026-03-28T13:12:36Z</time></trkpt><trkpt lat="45.82567025875868" lon="8.934902540298955"><ele>406.66666666666663</ele><time>2026-03-28T13:12:37Z</time></trkpt><trkpt lat="45.825644772995" lon="8.93499491843308"><ele>407.3333333333333</ele><time>2026-03-28T13:12:38Z</time></trkpt><trkpt lat="45.82562906556297" lon="8.93509666122681"><ele>408.0</ele><time>2026-03-28T13:12:39Z</time></trkpt><trkpt lat="45.82560906587196" lon="8.935233067408603"><ele>408.59999999999997</ele><time>2026-03-28T13:12:41Z</time></trkpt><trkpt lat="45.825591778473004" lon="8.935355395880872"><ele>409.2</ele><time>2026-03-28T13:12:43Z</time></trkpt><trkpt lat="45.82556371148474" lon="8.9354814307935"><ele>409.8</ele><time>2026-03-28T13:12:45Z</time></trkpt><trkpt lat="45.8255252202681" lon="8.935596642476582"><ele>410.4</ele><time>2026-03-28T13:12:47Z</time></trkpt><trkpt lat="45.82547187797472" lon="8.93571131641975"><ele>411.0</ele><time>2026-03-28T13:12:49Z</time></trkpt><trkpt lat="45.82539006122186" lon="8.935816759632472"><ele>411.1666666666667</ele><time>2026-03-28T13:12:51Z</time></trkpt><trkpt lat="45.82527359737984" lon="8.935893448888038"><ele>411.33333333333337</ele><time>2026-03-28T13:12:53Z</time></trkpt><trkpt lat="45.82520145350974" lon="8.93590359254456"><ele>411.5</ele><time>2026-03-28T13:12:54Z</time></trkpt><trkpt lat="45.82512914703166" lon="8.935901460364896"><ele>411.6666666666667</ele><time>2026-03-28T13:12:55Z</time></trkpt><trkpt lat="45.825058367969646" lon="8.93589388020404"><ele>411.83333333333337</ele><time>2026-03-28T13:12:56Z</time></trkpt><trkpt lat="45.82498676053696" lon="8.935883112973185"><ele>412.0</ele><time>2026-03-28T13:12:57Z</time></trkpt><trkpt lat="45.82490593106879" lon="8.935880889916147"><ele>412.00000000000006</ele><time>2026-03-28T13:12:58Z</time></trkpt><trkpt lat="45.82483812509837" lon="8.93587349974914"><ele>412.0</ele><time>2026-03-28T13:12:59Z</time></trkpt><trkpt lat="45.82477125053099" lon="8.93587014009111"><ele>412.0</ele><time>2026-03-28T13:13:00Z</time></trkpt><trkpt lat="45.82465157035594" lon="8.935861530536869"><ele>412.0</ele><time>2026-03-28T13:13:02Z</time></trkpt><trkpt lat="45.82455508358064" lon="8.93584143364618"><ele>412.00000000000006</ele><time>2026-03-28T13:13:04Z</time></trkpt><trkpt lat="45.824466132317255" lon="8.935819034652992"><ele>412.0</ele><time>2026-03-28T13:13:06Z</time></trkpt><trkpt lat="45.82438431464492" lon="8.935795150108056"><ele>412.8</ele><time>2026-03-28T13:13:08Z</time></trkpt><trkpt lat="45.8243016963944" lon="8.935797187652925"><ele>413.6</ele><time>2026-03-28T13:13:10Z</time></trkpt><trkpt lat="45.82419625189263" lon="8.935764591206663"><ele>414.40000000000003</ele><time>2026-03-28T13:13:12Z</time></trkpt><trkpt lat="45.82407976641184" lon="8.935775372380071"><ele>415.20000000000005</ele><time>2026-03-28T13:13:14Z</time></trkpt><trkpt lat="45.82400609053545" lon="8.935774092300925"><ele>416.0</ele><time>2026-03-28T13:13:15Z</time></trkpt><trkpt lat="45.82393174463899" lon="8.935786933778093"><ele>415.99999999999994</ele><time>2026-03-28T13:13:16Z</time></trkpt><trkpt lat="45.82385707385131" lon="8.935772454952314"><ele>416.0</ele><time>2026-03-28T13:13:17Z</time></trkpt><trkpt lat="45.82378163239939" lon="8.935778375977703"><ele>416.0</ele><time>2026-03-28T13:13:18Z</time></trkpt><trkpt lat="45.8237038811237" lon="8.93578447828335"><ele>416.0</ele><time>2026-03-28T13:13:19Z</time></trkpt><trkpt lat="45.82362237364039" lon="8.935793091553288"><ele>415.99999999999994</ele><time>2026-03-28T13:13:20Z</time></trkpt><trkpt lat="45.82354129600352" lon="8.935803176335046"><ele>416.0</ele><time>2026-03-28T13:13:21Z</time></trkpt><trkpt lat="45.82346112048297" lon="8.935819537554679"><ele>415.8333333333333</ele><time>2026-03-28T13:13:22Z</time></trkpt><trkpt lat="45.823385841113314" lon="8.935846764481123"><ele>415.66666666666663</ele><time>2026-03-28T13:13:23Z</time></trkpt><trkpt lat="45.82330948555149" lon="8.935889451091368"><ele>415.5</ele><time>2026-03-28T13:13:24Z</time></trkpt><trkpt lat="45.823233830704424" lon="8.935915326989493"><ele>415.33333333333337</ele><time>2026-03-28T13:13:25Z</time></trkpt><trkpt lat="45.82315590383402" lon="8.93594405586047"><ele>415.1666666666667</ele><time>2026-03-28T13:13:26Z</time></trkpt><trkpt lat="45.82307878679425" lon="8.935978009864153"><ele>415.0</ele><time>2026-03-28T13:13:27Z</time></trkpt><trkpt lat="45.82299631606676" lon="8.936016676561184"><ele>415.6666666666667</ele><time>2026-03-28T13:13:28Z</time></trkpt><trkpt lat="45.82292434820429" lon="8.936050006636112"><ele>416.33333333333337</ele><time>2026-03-28T13:13:29Z</time></trkpt><trkpt lat="45.82285248929479" lon="8.936066038411667"><ele>417.0</ele><time>2026-03-28T13:13:30Z</time></trkpt><trkpt lat="45.82277817450836" lon="8.936098883886366"><ele>417.66666666666663</ele><time>2026-03-28T13:13:31Z</time></trkpt><trkpt lat="45.8227162313043" lon="8.936123897382958"><ele>418.3333333333333</ele><time>2026-03-28T13:13:32Z</time></trkpt><trkpt lat="45.82259439592754" lon="8.936178505354665"><ele>419.0</ele><time>2026-03-28T13:13:34Z</time></trkpt><trkpt lat="45.82253154653978" lon="8.936204120829785"><ele>418.99999999999994</ele><time>2026-03-28T13:13:35Z</time></trkpt><trkpt lat="45.82246576043841" lon="8.93623051729564"><ele>419.0</ele><time>2026-03-28T13:13:36Z</time></trkpt><trkpt lat="45.82240300148693" lon="8.936256828235287"><ele>419.0</ele><time>2026-03-28T13:13:37Z</time></trkpt><trkpt lat="45.82234206605894" lon="8.936293451074887"><ele>419.0</ele><time>2026-03-28T13:13:38Z</time></trkpt><trkpt lat="45.82228049826324" lon="8.93633444209811"><ele>419.0</ele><time>2026-03-28T13:13:39Z</time></trkpt><trkpt lat="45.8222127079807" lon="8.936365270565334"><ele>418.99999999999994</ele><time>2026-03-28T13:13:40Z</time></trkpt><trkpt lat="45.82215315579984" lon="8.936400552853096"><ele>419.0</ele><time>2026-03-28T13:13:41Z</time></trkpt><trkpt lat="45.822090212147785" lon="8.936438732152938"><ele>418.99999999999994</ele><time>2026-03-28T13:13:42Z</time></trkpt><trkpt lat="45.822019997338295" lon="8.936465371426342"><ele>419.0</ele><time>2026-03-28T13:13:43Z</time></trkpt><trkpt lat="45.82195712285848" lon="8.936497386611931"><ele>419.0</ele><time>2026-03-28T13:13:44Z</time></trkpt><trkpt lat="45.821891726352845" lon="8.936531769189246"><ele>419.0</ele><time>2026-03-28T13:13:45Z</time></trkpt><trkpt lat="45.821827861459845" lon="8.936570283158137"><ele>419.0</ele><time>2026-03-28T13:13:46Z</time></trkpt><trkpt lat="45.82176637489341" lon="8.936607842291345"><ele>418.99999999999994</ele><time>2026-03-28T13:13:47Z</time></trkpt><trkpt lat="45.82170953248509" lon="8.936662211530177"><ele>419.0</ele><time>2026-03-28T13:13:48Z</time></trkpt><trkpt lat="45.82165700561974" lon="8.936725125541107"><ele>419.0</ele><time>2026-03-28T13:13:49Z</time></trkpt><trkpt lat="45.82159290021429" lon="8.936759023427078"><ele>419.0</ele><time>2026-03-28T13:13:50Z</time></trkpt><trkpt lat="45.8215255027258" lon="8.936706549776014"><ele>419.0</ele><time>2026-03-28T13:13:51Z</time></trkpt><trkpt lat="45.8214609915685" lon="8.936702267906094"><ele>419.0</ele><time>2026-03-28T13:13:52Z</time></trkpt><trkpt lat="45.82133699694057" lon="8.936692774039516"><ele>419.0</ele><time>2026-03-28T13:13:54Z</time></trkpt><trkpt lat="45.82121457352773" lon="8.936680302564698"><ele>418.6</ele><time>2026-03-28T13:13:56Z</time></trkpt><trkpt lat="45.821104007206976" lon="8.93665269337372"><ele>418.2</ele><time>2026-03-28T13:13:58Z</time></trkpt><trkpt lat="45.82101322120142" lon="8.936581241705277"><ele>417.8</ele><time>2026-03-28T13:14:00Z</time></trkpt><trkpt lat="45.8209127791639" lon="8.936510901085521"><ele>417.40000000000003</ele><time>2026-03-28T13:14:02Z</time></trkpt><trkpt lat="45.82082165395652" lon="8.936431077985514"><ele>417.0</ele><time>2026-03-28T13:14:04Z</time></trkpt><trkpt lat="45.82073564405808" lon="8.936358239228975"><ele>417.0</ele><time>2026-03-28T13:14:06Z</time></trkpt><trkpt lat="45.82064839048537" lon="8.936292053278466"><ele>417.0</ele><time>2026-03-28T13:14:08Z</time></trkpt><trkpt lat="45.82057266358994" lon="8.936216390481171"><ele>417.0</ele><time>2026-03-28T13:14:10Z</time></trkpt><trkpt lat="45.820483090037875" lon="8.936152269184502"><ele>417.0</ele><time>2026-03-28T13:14:12Z</time></trkpt><trkpt lat="45.82040858851459" lon="8.93612766899562"><ele>417.0</ele><time>2026-03-28T13:14:14Z</time></trkpt><trkpt lat="45.8203288560216" lon="8.93608696247906"><ele>417.0</ele><time>2026-03-28T13:14:16Z</time></trkpt><trkpt lat="45.820267589628536" lon="8.936051311236035"><ele>417.0</ele><time>2026-03-28T13:14:18Z</time></trkpt><trkpt lat="45.82019890436547" lon="8.936024555276154"><ele>417.0</ele><time>2026-03-28T13:14:20Z</time></trkpt><trkpt lat="45.82012700422493" lon="8.935977803859373"><ele>417.0</ele><time>2026-03-28T13:14:22Z</time></trkpt><trkpt lat="45.82001165921007" lon="8.935929832863362"><ele>417.0</ele><time>2026-03-28T13:14:24Z</time></trkpt><trkpt lat="45.81989747858288" lon="8.935882500249493"><ele>416.6666666666667</ele><time>2026-03-28T13:14:26Z</time></trkpt><trkpt lat="45.81983124672383" lon="8.935855287064811"><ele>416.33333333333337</ele><time>2026-03-28T13:14:27Z</time></trkpt><trkpt lat="45.81970792448814" lon="8.935804616727705"><ele>416.0</ele><time>2026-03-28T13:14:29Z</time></trkpt><trkpt lat="45.819645231006845" lon="8.935777464293992"><ele>415.6666666666667</ele><time>2026-03-28T13:14:30Z</time></trkpt><trkpt lat="45.8195811294259" lon="8.935744728751068"><ele>415.33333333333337</ele><time>2026-03-28T13:14:31Z</time></trkpt><trkpt lat="45.81951578297177" lon="8.935708518688582"><ele>415.0</ele><time>2026-03-28T13:14:32Z</time></trkpt><trkpt lat="45.819438899083956" lon="8.93568380711132"><ele>415.0</ele><time>2026-03-28T13:14:33Z</time></trkpt><trkpt lat="45.81932538549126" lon="8.935574766155717"><ele>415.0</ele><time>2026-03-28T13:14:35Z</time></trkpt><trkpt lat="45.81925424053996" lon="8.935547136686644"><ele>415.0</ele><time>2026-03-28T13:14:36Z</time></trkpt><trkpt lat="45.819125177958476" lon="8.935581212442981"><ele>415.0</ele><time>2026-03-28T13:14:38Z</time></trkpt><trkpt lat="45.81901015967099" lon="8.935554821802326"><ele>415.6</ele><time>2026-03-28T13:14:40Z</time></trkpt><trkpt lat="45.81889873133105" lon="8.935528535464842"><ele>416.2</ele><time>2026-03-28T13:14:42Z</time></trkpt><trkpt lat="45.81879424931481" lon="8.935505145775679"><ele>416.79999999999995</ele><time>2026-03-28T13:14:44Z</time></trkpt><trkpt lat="45.81869776102572" lon="8.9354838415994"><ele>417.4</ele><time>2026-03-28T13:14:46Z</time></trkpt><trkpt lat="45.81861270778439" lon="8.935478522441853"><ele>418.0</ele><time>2026-03-28T13:14:48Z</time></trkpt><trkpt lat="45.81850708059083" lon="8.935470205465881"><ele>419.0</ele><time>2026-03-28T13:14:50Z</time></trkpt><trkpt lat="45.818384557093836" lon="8.935477797955942"><ele>420.0</ele><time>2026-03-28T13:14:52Z</time></trkpt><trkpt lat="45.81832169927513" lon="8.935496235147657"><ele>421.0</ele><time>2026-03-28T13:14:53Z</time></trkpt><trkpt lat="45.81825181466315" lon="8.935521237712276"><ele>422.0</ele><time>2026-03-28T13:14:54Z</time></trkpt><trkpt lat="45.81818231780291" lon="8.935537826924682"><ele>423.0</ele><time>2026-03-28T13:14:55Z</time></trkpt><trkpt lat="45.81804431105825" lon="8.935563865820145"><ele>423.0</ele><time>2026-03-28T13:14:57Z</time></trkpt><trkpt lat="45.81796902801513" lon="8.935585068278519"><ele>423.0</ele><time>2026-03-28T13:14:58Z</time></trkpt><trkpt lat="45.81789367052626" lon="8.935603588273375"><ele>423.0</ele><time>2026-03-28T13:14:59Z</time></trkpt><trkpt lat="45.81782138983679" lon="8.93562043155256"><ele>423.0</ele><time>2026-03-28T13:15:00Z</time></trkpt><trkpt lat="45.817732165240294" lon="8.935630213624606"><ele>423.0</ele><time>2026-03-28T13:15:01Z</time></trkpt><trkpt lat="45.81765440017565" lon="8.935617499186646"><ele>423.0</ele><time>2026-03-28T13:15:02Z</time></trkpt><trkpt lat="45.817578291026415" lon="8.935606406815094"><ele>422.2857142857143</ele><time>2026-03-28T13:15:03Z</time></trkpt><trkpt lat="45.817510517175684" lon="8.935594857867743"><ele>421.5714285714286</ele><time>2026-03-28T13:15:04Z</time></trkpt><trkpt lat="45.817435644948375" lon="8.935579119449294"><ele>420.8571428571429</ele><time>2026-03-28T13:15:05Z</time></trkpt><trkpt lat="45.817358036508374" lon="8.93555902715252"><ele>420.1428571428571</ele><time>2026-03-28T13:15:06Z</time></trkpt><trkpt lat="45.81728223158428" lon="8.935544822317445"><ele>419.42857142857144</ele><time>2026-03-28T13:15:07Z</time></trkpt><trkpt lat="45.81721114638954" lon="8.935521445539319"><ele>418.7142857142857</ele><time>2026-03-28T13:15:08Z</time></trkpt><trkpt lat="45.81714261937333" lon="8.935505127912004"><ele>418.0</ele><time>2026-03-28T13:15:09Z</time></trkpt><trkpt lat="45.81707115800202" lon="8.935482880609577"><ele>418.0</ele><time>2026-03-28T13:15:10Z</time></trkpt><trkpt lat="45.817001900050045" lon="8.93545863795117"><ele>418.0</ele><time>2026-03-28T13:15:11Z</time></trkpt><trkpt lat="45.81693316696274" lon="8.935444193003454"><ele>418.0</ele><time>2026-03-28T13:15:12Z</time></trkpt><trkpt lat="45.816863070235826" lon="8.93541920448456"><ele>418.0</ele><time>2026-03-28T13:15:13Z</time></trkpt><trkpt lat="45.816792440389456" lon="8.935398743176194"><ele>418.0</ele><time>2026-03-28T13:15:14Z</time></trkpt><trkpt lat="45.81672912471748" lon="8.935380663285878"><ele>418.0</ele><time>2026-03-28T13:15:15Z</time></trkpt><trkpt lat="45.816659900594736" lon="8.935359512795072"><ele>418.0</ele><time>2026-03-28T13:15:16Z</time></trkpt><trkpt lat="45.81659207705965" lon="8.935337402664704"><ele>417.7142857142857</ele><time>2026-03-28T13:15:17Z</time></trkpt><trkpt lat="45.816527929156834" lon="8.935317853365845"><ele>417.42857142857144</ele><time>2026-03-28T13:15:18Z</time></trkpt><trkpt lat="45.816461653206645" lon="8.935304762450524"><ele>417.1428571428571</ele><time>2026-03-28T13:15:19Z</time></trkpt><trkpt lat="45.81639493226202" lon="8.935282327044568"><ele>416.8571428571429</ele><time>2026-03-28T13:15:20Z</time></trkpt><trkpt lat="45.816330310284535" lon="8.93526513733026"><ele>416.5714285714286</ele><time>2026-03-28T13:15:21Z</time></trkpt><trkpt lat="45.81626437247245" lon="8.935245475486301"><ele>416.2857142857143</ele><time>2026-03-28T13:15:22Z</time></trkpt><trkpt lat="45.81620251663295" lon="8.935228607733475"><ele>416.0</ele><time>2026-03-28T13:15:23Z</time></trkpt><trkpt lat="45.81613942772903" lon="8.93521068433789"><ele>416.0</ele><time>2026-03-28T13:15:24Z</time></trkpt><trkpt lat="45.81601680071682" lon="8.935189385137207"><ele>416.0</ele><time>2026-03-28T13:15:26Z</time></trkpt><trkpt lat="45.815895137846375" lon="8.93517173817852"><ele>416.0</ele><time>2026-03-28T13:15:28Z</time></trkpt><trkpt lat="45.81577753181711" lon="8.935169769610132"><ele>416.0</ele><time>2026-03-28T13:15:30Z</time></trkpt><trkpt lat="45.815662005203116" lon="8.935165211095892"><ele>416.0</ele><time>2026-03-28T13:15:32Z</time></trkpt><trkpt lat="45.815548455913614" lon="8.935166911169693"><ele>416.0</ele><time>2026-03-28T13:15:34Z</time></trkpt><trkpt lat="45.81543678150586" lon="8.935170677343637"><ele>416.0</ele><time>2026-03-28T13:15:36Z</time></trkpt><trkpt lat="45.8153268503983" lon="8.935160113856544"><ele>416.0</ele><time>2026-03-28T13:15:38Z</time></trkpt><trkpt lat="45.815213560799286" lon="8.935170246177577"><ele>416.0</ele><time>2026-03-28T13:15:40Z</time></trkpt><trkpt lat="45.815109013358814" lon="8.935172201665992"><ele>417.0</ele><time>2026-03-28T13:15:42Z</time></trkpt><trkpt lat="45.81500502231771" lon="8.935172896200841"><ele>418.0</ele><time>2026-03-28T13:15:44Z</time></trkpt><trkpt lat="45.81491076435725" lon="8.935174000091738"><ele>419.0</ele><time>2026-03-28T13:15:46Z</time></trkpt><trkpt lat="45.814820312569005" lon="8.935179286217059"><ele>420.0</ele><time>2026-03-28T13:15:48Z</time></trkpt><trkpt lat="45.81472252467334" lon="8.935181859976412"><ele>421.0</ele><time>2026-03-28T13:15:50Z</time></trkpt><trkpt lat="45.814621365370634" lon="8.935181507558863"><ele>421.0</ele><time>2026-03-28T13:15:52Z</time></trkpt><trkpt lat="45.81452503767975" lon="8.935182858783609"><ele>421.0</ele><time>2026-03-28T13:15:54Z</time></trkpt><trkpt lat="45.81442958770922" lon="8.935180157022058"><ele>421.0</ele><time>2026-03-28T13:15:56Z</time></trkpt><trkpt lat="45.81433484642247" lon="8.935177956760123"><ele>421.0</ele><time>2026-03-28T13:15:58Z</time></trkpt><trkpt lat="45.81424736068629" lon="8.93518282209777"><ele>421.0</ele><time>2026-03-28T13:16:00Z</time></trkpt><trkpt lat="45.81416079925569" lon="8.935182868789948"><ele>421.1666666666667</ele><time>2026-03-28T13:16:02Z</time></trkpt><trkpt lat="45.81407834920725" lon="8.935184498794658"><ele>421.33333333333337</ele><time>2026-03-28T13:16:04Z</time></trkpt><trkpt lat="45.81399875054554" lon="8.935190090832416"><ele>421.5</ele><time>2026-03-28T13:16:06Z</time></trkpt><trkpt lat="45.8139205629265" lon="8.935195698843298"><ele>421.66666666666663</ele><time>2026-03-28T13:16:08Z</time></trkpt><trkpt lat="45.81384550129829" lon="8.935203725374922"><ele>421.8333333333333</ele><time>2026-03-28T13:16:10Z</time></trkpt><trkpt lat="45.81377184172996" lon="8.935213045979872"><ele>422.0</ele><time>2026-03-28T13:16:12Z</time></trkpt><trkpt lat="45.81370200620736" lon="8.935215341722342"><ele>421.99999999999994</ele><time>2026-03-28T13:16:14Z</time></trkpt><trkpt lat="45.81363830351384" lon="8.93523967743926"><ele>422.0</ele><time>2026-03-28T13:16:16Z</time></trkpt><trkpt lat="45.81356468954669" lon="8.93525097697421"><ele>422.0</ele><time>2026-03-28T13:16:18Z</time></trkpt><trkpt lat="45.81346658333744" lon="8.935303404199527"><ele>422.0</ele><time>2026-03-28T13:16:20Z</time></trkpt><trkpt lat="45.8133500268892" lon="8.935353235363008"><ele>421.99999999999994</ele><time>2026-03-28T13:16:22Z</time></trkpt><trkpt lat="45.81327679517741" lon="8.935359665527214"><ele>422.0</ele><time>2026-03-28T13:16:23Z</time></trkpt><trkpt lat="45.813206621696494" lon="8.935388584404341"><ele>422.49999999999994</ele><time>2026-03-28T13:16:24Z</time></trkpt><trkpt lat="45.81313015819964" lon="8.935420496258217"><ele>423.0</ele><time>2026-03-28T13:16:25Z</time></trkpt><trkpt lat="45.81305587977114" lon="8.935474969239216"><ele>423.5</ele><time>2026-03-28T13:16:26Z</time></trkpt><trkpt lat="45.81297999448683" lon="8.935483166666849"><ele>424.0</ele><time>2026-03-28T13:16:27Z</time></trkpt><trkpt lat="45.812894929773215" lon="8.93551866820177"><ele>424.49999999999994</ele><time>2026-03-28T13:16:28Z</time></trkpt><trkpt lat="45.81282399082349" lon="8.935572396092008"><ele>425.0</ele><time>2026-03-28T13:16:29Z</time></trkpt><trkpt lat="45.812756491328" lon="8.9355857422877"><ele>424.99999999999994</ele><time>2026-03-28T13:16:30Z</time></trkpt><trkpt lat="45.81268610968418" lon="8.93561898873893"><ele>425.0</ele><time>2026-03-28T13:16:54Z</time></trkpt><trkpt lat="45.812623227545934" lon="8.935648889023616"><ele>425.0</ele><time>2026-03-28T13:16:57Z</time></trkpt><trkpt lat="45.8125470497488" lon="8.935675424777033"><ele>425.0</ele><time>2026-03-28T13:16:59Z</time></trkpt><trkpt lat="45.8124441008569" lon="8.935725853691507"><ele>424.99999999999994</ele><time>2026-03-28T13:17:01Z</time></trkpt><trkpt lat="45.81238233762909" lon="8.935750097040664"><ele>425.0</ele><time>2026-03-28T13:17:02Z</time></trkpt><trkpt lat="45.81232096562314" lon="8.935783827427036"><ele>425.1428571428571</ele><time>2026-03-28T13:17:03Z</time></trkpt><trkpt lat="45.81225281369085" lon="8.935810345361677"><ele>425.2857142857143</ele><time>2026-03-28T13:17:04Z</time></trkpt><trkpt lat="45.8121879309312" lon="8.93583684535292"><ele>425.42857142857144</ele><time>2026-03-28T13:17:05Z</time></trkpt><trkpt lat="45.81212093926648" lon="8.935862819140931"><ele>425.57142857142856</ele><time>2026-03-28T13:17:06Z</time></trkpt><trkpt lat="45.81205227459486" lon="8.935894415005322"><ele>425.7142857142857</ele><time>2026-03-28T13:17:07Z</time></trkpt><trkpt lat="45.811974753183954" lon="8.935905345484082"><ele>425.85714285714283</ele><time>2026-03-28T13:17:08Z</time></trkpt><trkpt lat="45.811893063523655" lon="8.935901072736698"><ele>426.0</ele><time>2026-03-28T13:17:09Z</time></trkpt><trkpt lat="45.81180826570329" lon="8.935880750747144"><ele>425.1666666666667</ele><time>2026-03-28T13:17:10Z</time></trkpt><trkpt lat="45.81172376846945" lon="8.935840148110733"><ele>424.33333333333337</ele><time>2026-03-28T13:17:11Z</time></trkpt><trkpt lat="45.81164878215176" lon="8.93579665419406"><ele>423.5</ele><time>2026-03-28T13:17:12Z</time></trkpt><trkpt lat="45.81156981876735" lon="8.935743885171993"><ele>422.6666666666667</ele><time>2026-03-28T13:17:13Z</time></trkpt><trkpt lat="45.811490831899505" lon="8.93569236561671"><ele>421.83333333333337</ele><time>2026-03-28T13:17:14Z</time></trkpt><trkpt lat="45.81140854680615" lon="8.935649429162439"><ele>421.0</ele><time>2026-03-28T13:17:15Z</time></trkpt><trkpt lat="45.81133437497402" lon="8.935585546043884"><ele>421.00000000000006</ele><time>2026-03-28T13:17:16Z</time></trkpt><trkpt lat="45.811248643551714" lon="8.935546976937667"><ele>421.0</ele><time>2026-03-28T13:17:17Z</time></trkpt><trkpt lat="45.81116332634609" lon="8.9355396596294"><ele>421.0</ele><time>2026-03-28T13:17:18Z</time></trkpt><trkpt lat="45.8110788155403" lon="8.93551414828966"><ele>421.0</ele><time>2026-03-28T13:17:19Z</time></trkpt><trkpt lat="45.81098930565391" lon="8.935497193020794"><ele>421.00000000000006</ele><time>2026-03-28T13:17:20Z</time></trkpt><trkpt lat="45.81089511574432" lon="8.935488304523734"><ele>421.0</ele><time>2026-03-28T13:17:21Z</time></trkpt><trkpt lat="45.8108020374895" lon="8.935475151973"><ele>421.4</ele><time>2026-03-28T13:17:22Z</time></trkpt><trkpt lat="45.81071109167472" lon="8.935463960229596"><ele>421.8</ele><time>2026-03-28T13:17:23Z</time></trkpt><trkpt lat="45.81061827655221" lon="8.935452492822693"><ele>422.2</ele><time>2026-03-28T13:17:24Z</time></trkpt><trkpt lat="45.81052021924808" lon="8.935439777568872"><ele>422.59999999999997</ele><time>2026-03-28T13:17:25Z</time></trkpt><trkpt lat="45.810414361468766" lon="8.935423682145561"><ele>423.0</ele><time>2026-03-28T13:17:26Z</time></trkpt><trkpt lat="45.81030804197455" lon="8.935395841581752"><ele>423.0</ele><time>2026-03-28T13:17:27Z</time></trkpt><trkpt lat="45.8101989953145" lon="8.935363038694826"><ele>423.0</ele><time>2026-03-28T13:17:28Z</time></trkpt><trkpt lat="45.8100886781503" lon="8.93532808841618"><ele>423.0</ele><time>2026-03-28T13:17:29Z</time></trkpt><trkpt lat="45.80997840980955" lon="8.93526749432608"><ele>423.0</ele><time>2026-03-28T13:17:30Z</time></trkpt><trkpt lat="45.809857951858845" lon="8.935250054349057"><ele>421.5</ele><time>2026-03-28T13:17:31Z</time></trkpt><trkpt lat="45.80974714739201" lon="8.935207423711608"><ele>420.0</ele><time>2026-03-28T13:17:32Z</time></trkpt><trkpt lat="45.80963216390005" lon="8.93516651560512"><ele>418.5</ele><time>2026-03-28T13:17:33Z</time></trkpt><trkpt lat="45.80952044029741" lon="8.93512655033477"><ele>417.0</ele><time>2026-03-28T13:17:34Z</time></trkpt><trkpt lat="45.80941199011274" lon="8.93508793973745"><ele>417.20000000000005</ele><time>2026-03-28T13:17:35Z</time></trkpt><trkpt lat="45.80931059887055" lon="8.93505716212628"><ele>417.4</ele><time>2026-03-28T13:17:36Z</time></trkpt><trkpt lat="45.80921280035695" lon="8.935048963862299"><ele>417.6</ele><time>2026-03-28T13:17:37Z</time></trkpt><trkpt lat="45.8091189409777" lon="8.935058854684852"><ele>417.79999999999995</ele><time>2026-03-28T13:17:38Z</time></trkpt><trkpt lat="45.80903479771794" lon="8.935079709955172"><ele>418.0</ele><time>2026-03-28T13:17:39Z</time></trkpt><trkpt lat="45.80894883253901" lon="8.935110081006519"><ele>418.00000000000006</ele><time>2026-03-28T13:17:40Z</time></trkpt><trkpt lat="45.80886478770803" lon="8.935141071424052"><ele>418.0</ele><time>2026-03-28T13:17:41Z</time></trkpt><trkpt lat="45.80878619116829" lon="8.935171734474027"><ele>418.0</ele><time>2026-03-28T13:17:42Z</time></trkpt><trkpt lat="45.80870688477668" lon="8.935195209166084"><ele>418.0</ele><time>2026-03-28T13:17:43Z</time></trkpt><trkpt lat="45.80862964285752" lon="8.93522093384408"><ele>418.00000000000006</ele><time>2026-03-28T13:17:44Z</time></trkpt><trkpt lat="45.80854888253959" lon="8.935244959896583"><ele>418.0</ele><time>2026-03-28T13:17:45Z</time></trkpt><trkpt lat="45.80847768052418" lon="8.935281100821088"><ele>417.83333333333337</ele><time>2026-03-28T13:17:46Z</time></trkpt><trkpt lat="45.80840361389162" lon="8.935290097078889"><ele>417.6666666666667</ele><time>2026-03-28T13:17:47Z</time></trkpt><trkpt lat="45.80832796934801" lon="8.935268550411424"><ele>417.5</ele><time>2026-03-28T13:17:48Z</time></trkpt><trkpt lat="45.80826085366613" lon="8.935196837764607"><ele>417.33333333333337</ele><time>2026-03-28T13:17:50Z</time></trkpt><trkpt lat="45.808211856406274" lon="8.935126780020758"><ele>417.1666666666667</ele><time>2026-03-28T13:17:53Z</time></trkpt><trkpt lat="45.8081379767718" lon="8.935058737064091"><ele>417.0</ele><time>2026-03-28T13:17:56Z</time></trkpt><trkpt lat="45.80806781787909" lon="8.935124553379225"><ele>417.0</ele><time>2026-03-28T13:17:58Z</time></trkpt><trkpt lat="45.8080382706081" lon="8.93520835489611"><ele>417.0</ele><time>2026-03-28T13:18:00Z</time></trkpt><trkpt lat="45.808039878274876" lon="8.935299503996404"><ele>417.0</ele><time>2026-03-28T13:18:03Z</time></trkpt><trkpt lat="45.80796755525248" lon="8.935471629709022"><ele>417.0</ele><time>2026-03-28T13:18:09Z</time></trkpt><trkpt lat="45.80790222692497" lon="8.935577937920568"><ele>417.0</ele><time>2026-03-28T13:18:11Z</time></trkpt><trkpt lat="45.807832583190404" lon="8.935704129091889"><ele>417.0</ele><time>2026-03-28T13:18:13Z</time></trkpt><trkpt lat="45.8077919443697" lon="8.935776500143888"><ele>417.0</ele><time>2026-03-28T13:18:14Z</time></trkpt><trkpt lat="45.807757125731904" lon="8.93585425418207"><ele>417.0</ele><time>2026-03-28T13:18:15Z</time></trkpt><trkpt lat="45.80770877146788" lon="8.935933933052343"><ele>417.0</ele><time>2026-03-28T13:18:16Z</time></trkpt><trkpt lat="45.80766251663385" lon="8.936017579902275"><ele>417.0</ele><time>2026-03-28T13:18:17Z</time></trkpt><trkpt lat="45.80761565516788" lon="8.936098531548884"><ele>417.0</ele><time>2026-03-28T13:18:18Z</time></trkpt><trkpt lat="45.807566955886884" lon="8.936185078831642"><ele>417.0</ele><time>2026-03-28T13:18:19Z</time></trkpt><trkpt lat="45.8075184453928" lon="8.936264363939666"><ele>417.5</ele><time>2026-03-28T13:18:20Z</time></trkpt><trkpt lat="45.80747512123278" lon="8.936347080667181"><ele>418.0</ele><time>2026-03-28T13:18:21Z</time></trkpt><trkpt lat="45.80742456921038" lon="8.936435641329346"><ele>418.5</ele><time>2026-03-28T13:18:22Z</time></trkpt><trkpt lat="45.807367876686016" lon="8.936524922349168"><ele>419.0</ele><time>2026-03-28T13:18:23Z</time></trkpt><trkpt lat="45.80728848962675" lon="8.936607821968739"><ele>419.5</ele><time>2026-03-28T13:18:24Z</time></trkpt><trkpt lat="45.807271782789414" lon="8.936707658580856"><ele>420.0</ele><time>2026-03-28T13:18:25Z</time></trkpt><trkpt lat="45.80721832200165" lon="8.936791234964549"><ele>421.3333333333333</ele><time>2026-03-28T13:18:26Z</time></trkpt><trkpt lat="45.807171800872005" lon="8.936880269282597"><ele>422.66666666666663</ele><time>2026-03-28T13:18:27Z</time></trkpt><trkpt lat="45.80712267274143" lon="8.936971128913934"><ele>424.0</ele><time>2026-03-28T13:18:28Z</time></trkpt><trkpt lat="45.8070733320959" lon="8.93706495707897"><ele>425.3333333333333</ele><time>2026-03-28T13:18:29Z</time></trkpt><trkpt lat="45.80703797258726" lon="8.937162299968803"><ele>426.66666666666663</ele><time>2026-03-28T13:18:30Z</time></trkpt><trkpt lat="45.80699861701865" lon="8.937259895168099"><ele>428.0</ele><time>2026-03-28T13:18:31Z</time></trkpt><trkpt lat="45.806961147255684" lon="8.937357271685556"><ele>428.00000000000006</ele><time>2026-03-28T13:18:32Z</time></trkpt><trkpt lat="45.80691261072046" lon="8.937446980762424"><ele>428.0</ele><time>2026-03-28T13:18:33Z</time></trkpt><trkpt lat="45.80684762617605" lon="8.93749970700039"><ele>428.0</ele><time>2026-03-28T13:18:34Z</time></trkpt><trkpt lat="45.80678633240629" lon="8.937569561284597"><ele>428.0</ele><time>2026-03-28T13:18:35Z</time></trkpt><trkpt lat="45.806721697924814" lon="8.937618494627337"><ele>428.0</ele><time>2026-03-28T13:18:36Z</time></trkpt><trkpt lat="45.80666833756576" lon="8.937694769659027"><ele>428.00000000000006</ele><time>2026-03-28T13:18:37Z</time></trkpt><trkpt lat="45.80662391268747" lon="8.937766240686251"><ele>428.0</ele><time>2026-03-28T13:18:38Z</time></trkpt><trkpt lat="45.8066153659955" lon="8.93787580983991"><ele>427.8333333333333</ele><time>2026-03-28T13:18:39Z</time></trkpt><trkpt lat="45.80658589447648" lon="8.93795923715756"><ele>427.66666666666663</ele><time>2026-03-28T13:18:40Z</time></trkpt><trkpt lat="45.806559879810415" lon="8.938123679845393"><ele>427.5</ele><time>2026-03-28T13:18:42Z</time></trkpt><trkpt lat="45.806557556154694" lon="8.938268634577655"><ele>427.33333333333337</ele><time>2026-03-28T13:18:44Z</time></trkpt><trkpt lat="45.806560080463726" lon="8.93839001076176"><ele>427.1666666666667</ele><time>2026-03-28T13:18:46Z</time></trkpt><trkpt lat="45.806571932836356" lon="8.938492344610342"><ele>427.0</ele><time>2026-03-28T13:18:48Z</time></trkpt><trkpt lat="45.8065803611777" lon="8.93858498486846"><ele>427.40000000000003</ele><time>2026-03-28T13:18:50Z</time></trkpt><trkpt lat="45.806589478453546" lon="8.938678775015923"><ele>427.80000000000007</ele><time>2026-03-28T13:18:52Z</time></trkpt><trkpt lat="45.80661456195284" lon="8.93878783367582"><ele>428.2</ele><time>2026-03-28T13:18:54Z</time></trkpt><trkpt lat="45.80666216002942" lon="8.938925519782721"><ele>428.6</ele><time>2026-03-28T13:18:56Z</time></trkpt><trkpt lat="45.806732263067744" lon="8.93906922111271"><ele>429.0</ele><time>2026-03-28T13:18:58Z</time></trkpt><trkpt lat="45.80682682841749" lon="8.939168404506148"><ele>429.0</ele><time>2026-03-28T13:19:00Z</time></trkpt><trkpt lat="45.806816370474984" lon="8.939264790000138"><ele>429.0</ele><time>2026-03-28T13:19:01Z</time></trkpt><trkpt lat="45.806777034480916" lon="8.939427223682406"><ele>429.0</ele><time>2026-03-28T13:19:03Z</time></trkpt><trkpt lat="45.806742607929756" lon="8.939578533534634"><ele>429.0</ele><time>2026-03-28T13:19:05Z</time></trkpt><trkpt lat="45.806684026633114" lon="8.93973256249229"><ele>429.0</ele><time>2026-03-28T13:19:07Z</time></trkpt><trkpt lat="45.80664987250251" lon="8.93981153432733"><ele>429.0</ele><time>2026-03-28T13:19:08Z</time></trkpt><trkpt lat="45.80655425814951" lon="8.93993297803324"><ele>429.0</ele><time>2026-03-28T13:19:10Z</time></trkpt><trkpt lat="45.80650354684946" lon="8.939986519941977"><ele>429.0</ele><time>2026-03-28T13:19:11Z</time></trkpt><trkpt lat="45.806381353059706" lon="8.940032113706783"><ele>429.0</ele><time>2026-03-28T13:19:13Z</time></trkpt><trkpt lat="45.80631095385126" lon="8.940070818739656"><ele>429.0</ele><time>2026-03-28T13:19:14Z</time></trkpt><trkpt lat="45.80624176545199" lon="8.940072744703384"><ele>428.8333333333333</ele><time>2026-03-28T13:19:15Z</time></trkpt><trkpt lat="45.80616554554959" lon="8.940082535371408"><ele>428.66666666666663</ele><time>2026-03-28T13:19:16Z</time></trkpt><trkpt lat="45.80608552675388" lon="8.9400929047306"><ele>428.5</ele><time>2026-03-28T13:19:17Z</time></trkpt><trkpt lat="45.80601103154942" lon="8.940106573596143"><ele>428.3333333333333</ele><time>2026-03-28T13:19:18Z</time></trkpt><trkpt lat="45.80593424669646" lon="8.940108981826794"><ele>428.16666666666663</ele><time>2026-03-28T13:19:19Z</time></trkpt><trkpt lat="45.80585709534135" lon="8.940118547188044"><ele>428.0</ele><time>2026-03-28T13:19:20Z</time></trkpt><trkpt lat="45.80578075109779" lon="8.940124138282476"><ele>428.00000000000006</ele><time>2026-03-28T13:19:21Z</time></trkpt><trkpt lat="45.80570832940454" lon="8.940133950065192"><ele>428.0</ele><time>2026-03-28T13:19:22Z</time></trkpt><trkpt lat="45.80562722846781" lon="8.940143268909083"><ele>428.0</ele><time>2026-03-28T13:19:23Z</time></trkpt><trkpt lat="45.805556661484296" lon="8.940150297961509"><ele>428.0</ele><time>2026-03-28T13:19:24Z</time></trkpt><trkpt lat="45.805485008825286" lon="8.940158198264985"><ele>428.0</ele><time>2026-03-28T13:19:25Z</time></trkpt><trkpt lat="45.80541814739112" lon="8.940158488888388"><ele>428.00000000000006</ele><time>2026-03-28T13:19:26Z</time></trkpt><trkpt lat="45.80535470660898" lon="8.94014801767898"><ele>428.0</ele><time>2026-03-28T13:19:28Z</time></trkpt><trkpt lat="45.80527613288664" lon="8.940012214142241"><ele>427.99999999999994</ele><time>2026-03-28T13:19:53Z</time></trkpt><trkpt lat="45.805292038934034" lon="8.939910478223993"><ele>428.0</ele><time>2026-03-28T13:20:41Z</time></trkpt><trkpt lat="45.805428218535674" lon="8.939900151168537"><ele>428.0</ele><time>2026-03-28T13:20:58Z</time></trkpt><trkpt lat="45.80549082207524" lon="8.939887465083396"><ele>428.0</ele><time>2026-03-28T13:21:03Z</time></trkpt><trkpt lat="45.805558583972775" lon="8.93987992270264"><ele>427.99999999999994</ele><time>2026-03-28T13:21:07Z</time></trkpt><trkpt lat="45.805634972505814" lon="8.939858685284921"><ele>428.0</ele><time>2026-03-28T13:21:28Z</time></trkpt><trkpt lat="45.80568249971698" lon="8.939793794699328"><ele>428.0</ele><time>2026-03-28T13:21:40Z</time></trkpt><trkpt lat="45.80563854905127" lon="8.939868056783082"><ele>428.0</ele><time>2026-03-28T13:24:04Z</time></trkpt><trkpt lat="45.805575363166426" lon="8.939890038942192"><ele>428.0</ele><time>2026-03-28T13:24:21Z</time></trkpt><trkpt lat="45.805508976062576" lon="8.939892373965513"><ele>428.0</ele><time>2026-03-28T13:24:26Z</time></trkpt><trkpt lat="45.80543072476384" lon="8.939888600520877"><ele>428.0</ele><time>2026-03-28T13:24:34Z</time></trkpt><trkpt lat="45.80546914396924" lon="8.939799589872166"><ele>428.0</ele><time>2026-03-28T13:24:48Z</time></trkpt><trkpt lat="45.80553413276428" lon="8.939796896051298"><ele>428.0</ele><time>2026-03-28T13:24:56Z</time></trkpt><trkpt lat="45.80553413276428" lon="8.939796896051298"><ele>428.0</ele><time>2026-03-28T13:24:56Z</time></trkpt><trkpt lat="45.80553413276428" lon="8.939796896051298"><ele>428.0</ele><time>2026-03-28T13:24:56Z</time></trkpt><trkpt lat="45.80553413276428" lon="8.939796896051298"><ele>428.0</ele><time>2026-03-28T13:24:56Z</time></trkpt><trkpt lat="45.80553413276428" lon="8.939796896051298"><ele>428.0</ele><time>2026-03-28T13:24:56Z</time></trkpt><trkpt lat="45.80553413276428" lon="8.939796896051298"><ele>428.0</ele><time>2026-03-28T13:24:56Z</time></trkpt></trkseg></trk></gpx>